<?xml version="1.0" encoding="UTF-8" standalone="no" ?>
<gpx xmlns="http://www.topografix.com/GPX/1/1" xmlns:xsi="http://www.w3.org/2001/XMLSchema-instance" xsi:schemaLocation="http://www.topografix.com/GPX/1/1 http://www.topografix.com/GPX/1/1/gpx.xsd" version="1.1" creator="VisuGPX - https://www.visugpx.com">
  <metadata>
    <name>Jougne.La Jougnenaz</name>
    <desc><![CDATA[
]]></desc>
  </metadata>
  <trk>
    <name><![CDATA[Jougne.La Jougnenaz_1]]></name>
    <trkseg>
      <trkpt lat="46.75994" lon="6.38907">
        <ele>967.6</ele>
        <time>2020-09-29T07:48:38Z</time>
      </trkpt>
      <trkpt lat="46.75994" lon="6.38914">
        <ele>966.5</ele>
        <time>2020-09-29T07:48:44Z</time>
      </trkpt>
      <trkpt lat="46.75993" lon="6.38921">
        <ele>965.9</ele>
        <time>2020-09-29T07:48:49Z</time>
      </trkpt>
      <trkpt lat="46.75993" lon="6.38928">
        <ele>966</ele>
        <time>2020-09-29T07:48:55Z</time>
      </trkpt>
      <trkpt lat="46.75995" lon="6.38934">
        <ele>965.5</ele>
        <time>2020-09-29T07:49:01Z</time>
      </trkpt>
      <trkpt lat="46.75994" lon="6.38941">
        <ele>964.7</ele>
        <time>2020-09-29T07:49:07Z</time>
      </trkpt>
      <trkpt lat="46.75992" lon="6.38948">
        <ele>964.6</ele>
        <time>2020-09-29T07:49:13Z</time>
      </trkpt>
      <trkpt lat="46.7599" lon="6.38957">
        <ele>964.5</ele>
        <time>2020-09-29T07:49:18Z</time>
      </trkpt>
      <trkpt lat="46.7599" lon="6.38963">
        <ele>964.4</ele>
        <time>2020-09-29T07:49:23Z</time>
      </trkpt>
      <trkpt lat="46.75991" lon="6.38972">
        <ele>964.1</ele>
        <time>2020-09-29T07:49:28Z</time>
      </trkpt>
      <trkpt lat="46.75994" lon="6.3898">
        <ele>963.7</ele>
        <time>2020-09-29T07:49:33Z</time>
      </trkpt>
      <trkpt lat="46.75998" lon="6.38985">
        <ele>963.7</ele>
        <time>2020-09-29T07:49:39Z</time>
      </trkpt>
      <trkpt lat="46.76" lon="6.38994">
        <ele>963.8</ele>
        <time>2020-09-29T07:49:44Z</time>
      </trkpt>
      <trkpt lat="46.76" lon="6.39004">
        <ele>963.8</ele>
        <time>2020-09-29T07:49:49Z</time>
      </trkpt>
      <trkpt lat="46.76001" lon="6.39013">
        <ele>963.4</ele>
        <time>2020-09-29T07:49:54Z</time>
      </trkpt>
      <trkpt lat="46.76001" lon="6.3902">
        <ele>963</ele>
        <time>2020-09-29T07:49:59Z</time>
      </trkpt>
      <trkpt lat="46.76003" lon="6.39028">
        <ele>964</ele>
        <time>2020-09-29T07:50:04Z</time>
      </trkpt>
      <trkpt lat="46.76006" lon="6.39035">
        <ele>964.9</ele>
        <time>2020-09-29T07:50:09Z</time>
      </trkpt>
      <trkpt lat="46.76003" lon="6.3904">
        <ele>965.5</ele>
        <time>2020-09-29T07:50:14Z</time>
      </trkpt>
      <trkpt lat="46.75998" lon="6.39042">
        <ele>965.6</ele>
        <time>2020-09-29T07:50:21Z</time>
      </trkpt>
      <trkpt lat="46.75993" lon="6.39039">
        <ele>964.9</ele>
        <time>2020-09-29T07:50:26Z</time>
      </trkpt>
      <trkpt lat="46.7599" lon="6.39034">
        <ele>962.6</ele>
        <time>2020-09-29T07:50:31Z</time>
      </trkpt>
      <trkpt lat="46.75987" lon="6.39028">
        <ele>960.3</ele>
        <time>2020-09-29T07:50:37Z</time>
      </trkpt>
      <trkpt lat="46.75986" lon="6.39022">
        <ele>958.4</ele>
        <time>2020-09-29T07:50:44Z</time>
      </trkpt>
      <trkpt lat="46.75985" lon="6.39014">
        <ele>957.3</ele>
        <time>2020-09-29T07:50:51Z</time>
      </trkpt>
      <trkpt lat="46.75986" lon="6.39007">
        <ele>956.3</ele>
        <time>2020-09-29T07:50:58Z</time>
      </trkpt>
      <trkpt lat="46.75984" lon="6.39">
        <ele>955.1</ele>
        <time>2020-09-29T07:51:06Z</time>
      </trkpt>
      <trkpt lat="46.75982" lon="6.38994">
        <ele>953.9</ele>
        <time>2020-09-29T07:51:11Z</time>
      </trkpt>
      <trkpt lat="46.75982" lon="6.38987">
        <ele>952.3</ele>
        <time>2020-09-29T07:51:16Z</time>
      </trkpt>
      <trkpt lat="46.75981" lon="6.38979">
        <ele>950.7</ele>
        <time>2020-09-29T07:51:21Z</time>
      </trkpt>
      <trkpt lat="46.75979" lon="6.38973">
        <ele>949.6</ele>
        <time>2020-09-29T07:51:26Z</time>
      </trkpt>
      <trkpt lat="46.75975" lon="6.38965">
        <ele>948.7</ele>
        <time>2020-09-29T07:51:31Z</time>
      </trkpt>
      <trkpt lat="46.75972" lon="6.38959">
        <ele>948.5</ele>
        <time>2020-09-29T07:51:36Z</time>
      </trkpt>
      <trkpt lat="46.75968" lon="6.38954">
        <ele>947.4</ele>
        <time>2020-09-29T07:51:43Z</time>
      </trkpt>
      <trkpt lat="46.75966" lon="6.38948">
        <ele>946.7</ele>
        <time>2020-09-29T07:51:49Z</time>
      </trkpt>
      <trkpt lat="46.7596" lon="6.38943">
        <ele>946.7</ele>
        <time>2020-09-29T07:51:54Z</time>
      </trkpt>
      <trkpt lat="46.75954" lon="6.38939">
        <ele>947.1</ele>
        <time>2020-09-29T07:51:59Z</time>
      </trkpt>
      <trkpt lat="46.7595" lon="6.38932">
        <ele>947.2</ele>
        <time>2020-09-29T07:52:04Z</time>
      </trkpt>
      <trkpt lat="46.75948" lon="6.38925">
        <ele>947.2</ele>
        <time>2020-09-29T07:52:09Z</time>
      </trkpt>
      <trkpt lat="46.75945" lon="6.38919">
        <ele>947.3</ele>
        <time>2020-09-29T07:52:14Z</time>
      </trkpt>
      <trkpt lat="46.75944" lon="6.38911">
        <ele>946.6</ele>
        <time>2020-09-29T07:52:20Z</time>
      </trkpt>
      <trkpt lat="46.75943" lon="6.38903">
        <ele>946.3</ele>
        <time>2020-09-29T07:52:25Z</time>
      </trkpt>
      <trkpt lat="46.75941" lon="6.38896">
        <ele>946.2</ele>
        <time>2020-09-29T07:52:30Z</time>
      </trkpt>
      <trkpt lat="46.75937" lon="6.38889">
        <ele>947</ele>
        <time>2020-09-29T07:52:35Z</time>
      </trkpt>
      <trkpt lat="46.75933" lon="6.38881">
        <ele>948</ele>
        <time>2020-09-29T07:52:40Z</time>
      </trkpt>
      <trkpt lat="46.7593" lon="6.38874">
        <ele>948.5</ele>
        <time>2020-09-29T07:52:45Z</time>
      </trkpt>
      <trkpt lat="46.75926" lon="6.38864">
        <ele>949.9</ele>
        <time>2020-09-29T07:52:50Z</time>
      </trkpt>
      <trkpt lat="46.75924" lon="6.38855">
        <ele>950.5</ele>
        <time>2020-09-29T07:52:55Z</time>
      </trkpt>
      <trkpt lat="46.75922" lon="6.38847">
        <ele>950.7</ele>
        <time>2020-09-29T07:53:00Z</time>
      </trkpt>
      <trkpt lat="46.75921" lon="6.38838">
        <ele>950.4</ele>
        <time>2020-09-29T07:53:05Z</time>
      </trkpt>
      <trkpt lat="46.7592" lon="6.38828">
        <ele>950.3</ele>
        <time>2020-09-29T07:53:10Z</time>
      </trkpt>
      <trkpt lat="46.75918" lon="6.38821">
        <ele>950.2</ele>
        <time>2020-09-29T07:53:15Z</time>
      </trkpt>
      <trkpt lat="46.75917" lon="6.38813">
        <ele>949.6</ele>
        <time>2020-09-29T07:53:20Z</time>
      </trkpt>
      <trkpt lat="46.75914" lon="6.38801">
        <ele>948.8</ele>
        <time>2020-09-29T07:53:25Z</time>
      </trkpt>
      <trkpt lat="46.7591" lon="6.38792">
        <ele>947.9</ele>
        <time>2020-09-29T07:53:30Z</time>
      </trkpt>
      <trkpt lat="46.75907" lon="6.38785">
        <ele>946.5</ele>
        <time>2020-09-29T07:53:35Z</time>
      </trkpt>
      <trkpt lat="46.75904" lon="6.38778">
        <ele>945.3</ele>
        <time>2020-09-29T07:53:40Z</time>
      </trkpt>
      <trkpt lat="46.75903" lon="6.38767">
        <ele>944.9</ele>
        <time>2020-09-29T07:53:45Z</time>
      </trkpt>
      <trkpt lat="46.75899" lon="6.38762">
        <ele>944.7</ele>
        <time>2020-09-29T07:53:51Z</time>
      </trkpt>
      <trkpt lat="46.75904" lon="6.3876">
        <ele>943.4</ele>
        <time>2020-09-29T07:54:17Z</time>
      </trkpt>
      <trkpt lat="46.75903" lon="6.38753">
        <ele>943</ele>
        <time>2020-09-29T07:54:36Z</time>
      </trkpt>
      <trkpt lat="46.75899" lon="6.38758">
        <ele>941.8</ele>
        <time>2020-09-29T07:54:45Z</time>
      </trkpt>
      <trkpt lat="46.75893" lon="6.38759">
        <ele>941.8</ele>
        <time>2020-09-29T07:54:50Z</time>
      </trkpt>
      <trkpt lat="46.75887" lon="6.38756">
        <ele>942.1</ele>
        <time>2020-09-29T07:54:55Z</time>
      </trkpt>
      <trkpt lat="46.75881" lon="6.38753">
        <ele>942.4</ele>
        <time>2020-09-29T07:54:59Z</time>
      </trkpt>
      <trkpt lat="46.75877" lon="6.3875">
        <ele>942.7</ele>
        <time>2020-09-29T07:55:04Z</time>
      </trkpt>
      <trkpt lat="46.75872" lon="6.38745">
        <ele>943</ele>
        <time>2020-09-29T07:55:09Z</time>
      </trkpt>
      <trkpt lat="46.75868" lon="6.38742">
        <ele>943.1</ele>
        <time>2020-09-29T07:55:13Z</time>
      </trkpt>
      <trkpt lat="46.75863" lon="6.38739">
        <ele>941.8</ele>
        <time>2020-09-29T07:55:18Z</time>
      </trkpt>
      <trkpt lat="46.75859" lon="6.38736">
        <ele>940</ele>
        <time>2020-09-29T07:55:22Z</time>
      </trkpt>
      <trkpt lat="46.75854" lon="6.38734">
        <ele>938</ele>
        <time>2020-09-29T07:55:26Z</time>
      </trkpt>
      <trkpt lat="46.75849" lon="6.38733">
        <ele>936.9</ele>
        <time>2020-09-29T07:55:29Z</time>
      </trkpt>
      <trkpt lat="46.75842" lon="6.38731">
        <ele>936.6</ele>
        <time>2020-09-29T07:55:32Z</time>
      </trkpt>
      <trkpt lat="46.75836" lon="6.38729">
        <ele>936.3</ele>
        <time>2020-09-29T07:55:35Z</time>
      </trkpt>
      <trkpt lat="46.75831" lon="6.38726">
        <ele>936</ele>
        <time>2020-09-29T07:55:39Z</time>
      </trkpt>
      <trkpt lat="46.75826" lon="6.38722">
        <ele>936.4</ele>
        <time>2020-09-29T07:55:43Z</time>
      </trkpt>
      <trkpt lat="46.7582" lon="6.38721">
        <ele>936.9</ele>
        <time>2020-09-29T07:55:47Z</time>
      </trkpt>
      <trkpt lat="46.75815" lon="6.38723">
        <ele>937.8</ele>
        <time>2020-09-29T07:55:50Z</time>
      </trkpt>
      <trkpt lat="46.75811" lon="6.38724">
        <ele>938.7</ele>
        <time>2020-09-29T07:55:53Z</time>
      </trkpt>
      <trkpt lat="46.75805" lon="6.38724">
        <ele>939.1</ele>
        <time>2020-09-29T07:55:56Z</time>
      </trkpt>
      <trkpt lat="46.75799" lon="6.38723">
        <ele>939.4</ele>
        <time>2020-09-29T07:56:00Z</time>
      </trkpt>
      <trkpt lat="46.75794" lon="6.38723">
        <ele>939.5</ele>
        <time>2020-09-29T07:56:03Z</time>
      </trkpt>
      <trkpt lat="46.7579" lon="6.38719">
        <ele>938.9</ele>
        <time>2020-09-29T07:56:08Z</time>
      </trkpt>
      <trkpt lat="46.75786" lon="6.38715">
        <ele>936.5</ele>
        <time>2020-09-29T07:56:14Z</time>
      </trkpt>
      <trkpt lat="46.7578" lon="6.38715">
        <ele>935.2</ele>
        <time>2020-09-29T07:56:18Z</time>
      </trkpt>
      <trkpt lat="46.75775" lon="6.38712">
        <ele>934.3</ele>
        <time>2020-09-29T07:56:21Z</time>
      </trkpt>
      <trkpt lat="46.7577" lon="6.38709">
        <ele>933.4</ele>
        <time>2020-09-29T07:56:25Z</time>
      </trkpt>
      <trkpt lat="46.75765" lon="6.38708">
        <ele>933.1</ele>
        <time>2020-09-29T07:56:28Z</time>
      </trkpt>
      <trkpt lat="46.75759" lon="6.38707">
        <ele>933.1</ele>
        <time>2020-09-29T07:56:31Z</time>
      </trkpt>
      <trkpt lat="46.75754" lon="6.38706">
        <ele>933.4</ele>
        <time>2020-09-29T07:56:34Z</time>
      </trkpt>
      <trkpt lat="46.75749" lon="6.38705">
        <ele>933.7</ele>
        <time>2020-09-29T07:56:37Z</time>
      </trkpt>
      <trkpt lat="46.75744" lon="6.38703">
        <ele>934</ele>
        <time>2020-09-29T07:56:41Z</time>
      </trkpt>
      <trkpt lat="46.75738" lon="6.38702">
        <ele>934.5</ele>
        <time>2020-09-29T07:56:46Z</time>
      </trkpt>
      <trkpt lat="46.75733" lon="6.387">
        <ele>934.9</ele>
        <time>2020-09-29T07:56:50Z</time>
      </trkpt>
      <trkpt lat="46.75728" lon="6.38696">
        <ele>935.1</ele>
        <time>2020-09-29T07:56:55Z</time>
      </trkpt>
      <trkpt lat="46.75724" lon="6.38692">
        <ele>934.8</ele>
        <time>2020-09-29T07:56:59Z</time>
      </trkpt>
      <trkpt lat="46.75721" lon="6.38687">
        <ele>934.5</ele>
        <time>2020-09-29T07:57:05Z</time>
      </trkpt>
      <trkpt lat="46.75717" lon="6.38685">
        <ele>934.8</ele>
        <time>2020-09-29T07:57:10Z</time>
      </trkpt>
      <trkpt lat="46.75711" lon="6.38685">
        <ele>935.2</ele>
        <time>2020-09-29T07:57:14Z</time>
      </trkpt>
      <trkpt lat="46.75707" lon="6.38683">
        <ele>935.6</ele>
        <time>2020-09-29T07:57:18Z</time>
      </trkpt>
      <trkpt lat="46.75702" lon="6.38679">
        <ele>936</ele>
        <time>2020-09-29T07:57:23Z</time>
      </trkpt>
      <trkpt lat="46.75698" lon="6.38676">
        <ele>936.4</ele>
        <time>2020-09-29T07:57:29Z</time>
      </trkpt>
      <trkpt lat="46.75694" lon="6.38674">
        <ele>937.3</ele>
        <time>2020-09-29T07:57:34Z</time>
      </trkpt>
      <trkpt lat="46.75689" lon="6.38671">
        <ele>938.1</ele>
        <time>2020-09-29T07:57:39Z</time>
      </trkpt>
      <trkpt lat="46.75684" lon="6.3867">
        <ele>939.5</ele>
        <time>2020-09-29T07:57:47Z</time>
      </trkpt>
      <trkpt lat="46.7568" lon="6.38666">
        <ele>940</ele>
        <time>2020-09-29T07:57:52Z</time>
      </trkpt>
      <trkpt lat="46.75676" lon="6.38662">
        <ele>940.4</ele>
        <time>2020-09-29T07:57:56Z</time>
      </trkpt>
      <trkpt lat="46.75672" lon="6.38657">
        <ele>940.6</ele>
        <time>2020-09-29T07:58:00Z</time>
      </trkpt>
      <trkpt lat="46.75668" lon="6.38652">
        <ele>940.5</ele>
        <time>2020-09-29T07:58:04Z</time>
      </trkpt>
      <trkpt lat="46.75664" lon="6.38648">
        <ele>940.3</ele>
        <time>2020-09-29T07:58:08Z</time>
      </trkpt>
      <trkpt lat="46.75661" lon="6.38643">
        <ele>939.7</ele>
        <time>2020-09-29T07:58:13Z</time>
      </trkpt>
      <trkpt lat="46.75657" lon="6.38639">
        <ele>939.1</ele>
        <time>2020-09-29T07:58:17Z</time>
      </trkpt>
      <trkpt lat="46.75652" lon="6.38636">
        <ele>938.8</ele>
        <time>2020-09-29T07:58:21Z</time>
      </trkpt>
      <trkpt lat="46.75648" lon="6.38631">
        <ele>938.5</ele>
        <time>2020-09-29T07:58:25Z</time>
      </trkpt>
      <trkpt lat="46.75645" lon="6.38625">
        <ele>937.9</ele>
        <time>2020-09-29T07:58:31Z</time>
      </trkpt>
      <trkpt lat="46.75642" lon="6.38619">
        <ele>937</ele>
        <time>2020-09-29T07:58:36Z</time>
      </trkpt>
      <trkpt lat="46.75638" lon="6.38615">
        <ele>936.3</ele>
        <time>2020-09-29T07:58:41Z</time>
      </trkpt>
      <trkpt lat="46.75635" lon="6.3861">
        <ele>935.9</ele>
        <time>2020-09-29T07:58:45Z</time>
      </trkpt>
      <trkpt lat="46.75631" lon="6.38605">
        <ele>935.7</ele>
        <time>2020-09-29T07:58:49Z</time>
      </trkpt>
      <trkpt lat="46.75627" lon="6.38601">
        <ele>935.5</ele>
        <time>2020-09-29T07:58:53Z</time>
      </trkpt>
      <trkpt lat="46.75624" lon="6.38596">
        <ele>935.3</ele>
        <time>2020-09-29T07:58:57Z</time>
      </trkpt>
      <trkpt lat="46.7562" lon="6.38591">
        <ele>935.3</ele>
        <time>2020-09-29T07:59:01Z</time>
      </trkpt>
      <trkpt lat="46.75618" lon="6.38585">
        <ele>935.3</ele>
        <time>2020-09-29T07:59:05Z</time>
      </trkpt>
      <trkpt lat="46.75617" lon="6.38578">
        <ele>935.4</ele>
        <time>2020-09-29T07:59:09Z</time>
      </trkpt>
      <trkpt lat="46.75614" lon="6.38572">
        <ele>935.5</ele>
        <time>2020-09-29T07:59:13Z</time>
      </trkpt>
      <trkpt lat="46.75611" lon="6.38567">
        <ele>935.6</ele>
        <time>2020-09-29T07:59:17Z</time>
      </trkpt>
      <trkpt lat="46.75608" lon="6.38563">
        <ele>935.7</ele>
        <time>2020-09-29T07:59:21Z</time>
      </trkpt>
      <trkpt lat="46.75605" lon="6.38557">
        <ele>935.6</ele>
        <time>2020-09-29T07:59:25Z</time>
      </trkpt>
      <trkpt lat="46.75602" lon="6.3855">
        <ele>935.4</ele>
        <time>2020-09-29T07:59:29Z</time>
      </trkpt>
      <trkpt lat="46.756" lon="6.38544">
        <ele>935.2</ele>
        <time>2020-09-29T07:59:33Z</time>
      </trkpt>
      <trkpt lat="46.75597" lon="6.38537">
        <ele>934.9</ele>
        <time>2020-09-29T07:59:37Z</time>
      </trkpt>
      <trkpt lat="46.75595" lon="6.3853">
        <ele>934.5</ele>
        <time>2020-09-29T07:59:41Z</time>
      </trkpt>
      <trkpt lat="46.75592" lon="6.38525">
        <ele>934.3</ele>
        <time>2020-09-29T07:59:46Z</time>
      </trkpt>
      <trkpt lat="46.75589" lon="6.38519">
        <ele>933.9</ele>
        <time>2020-09-29T07:59:50Z</time>
      </trkpt>
      <trkpt lat="46.75587" lon="6.38512">
        <ele>933.4</ele>
        <time>2020-09-29T07:59:55Z</time>
      </trkpt>
      <trkpt lat="46.75585" lon="6.38506">
        <ele>933.3</ele>
        <time>2020-09-29T07:59:59Z</time>
      </trkpt>
      <trkpt lat="46.75583" lon="6.38499">
        <ele>933.3</ele>
        <time>2020-09-29T08:00:03Z</time>
      </trkpt>
      <trkpt lat="46.75582" lon="6.38493">
        <ele>933.2</ele>
        <time>2020-09-29T08:00:07Z</time>
      </trkpt>
      <trkpt lat="46.7558" lon="6.38486">
        <ele>933.2</ele>
        <time>2020-09-29T08:00:12Z</time>
      </trkpt>
      <trkpt lat="46.75577" lon="6.3848">
        <ele>933.3</ele>
        <time>2020-09-29T08:00:16Z</time>
      </trkpt>
      <trkpt lat="46.75573" lon="6.38475">
        <ele>933.4</ele>
        <time>2020-09-29T08:00:20Z</time>
      </trkpt>
      <trkpt lat="46.75572" lon="6.38469">
        <ele>933.4</ele>
        <time>2020-09-29T08:00:24Z</time>
      </trkpt>
      <trkpt lat="46.7557" lon="6.38462">
        <ele>933.4</ele>
        <time>2020-09-29T08:00:28Z</time>
      </trkpt>
      <trkpt lat="46.75568" lon="6.38456">
        <ele>933.3</ele>
        <time>2020-09-29T08:00:32Z</time>
      </trkpt>
      <trkpt lat="46.75567" lon="6.38449">
        <ele>933.2</ele>
        <time>2020-09-29T08:00:36Z</time>
      </trkpt>
      <trkpt lat="46.75565" lon="6.38443">
        <ele>933.1</ele>
        <time>2020-09-29T08:00:40Z</time>
      </trkpt>
      <trkpt lat="46.75563" lon="6.38435">
        <ele>932.9</ele>
        <time>2020-09-29T08:00:45Z</time>
      </trkpt>
      <trkpt lat="46.75561" lon="6.38427">
        <ele>932.9</ele>
        <time>2020-09-29T08:00:50Z</time>
      </trkpt>
      <trkpt lat="46.75559" lon="6.3842">
        <ele>933.4</ele>
        <time>2020-09-29T08:00:55Z</time>
      </trkpt>
      <trkpt lat="46.75557" lon="6.38413">
        <ele>934</ele>
        <time>2020-09-29T08:00:59Z</time>
      </trkpt>
      <trkpt lat="46.75555" lon="6.38406">
        <ele>934.8</ele>
        <time>2020-09-29T08:01:04Z</time>
      </trkpt>
      <trkpt lat="46.75553" lon="6.384">
        <ele>935.1</ele>
        <time>2020-09-29T08:01:09Z</time>
      </trkpt>
      <trkpt lat="46.75552" lon="6.38394">
        <ele>935.3</ele>
        <time>2020-09-29T08:01:15Z</time>
      </trkpt>
      <trkpt lat="46.7555" lon="6.38387">
        <ele>935.2</ele>
        <time>2020-09-29T08:01:20Z</time>
      </trkpt>
      <trkpt lat="46.75547" lon="6.38381">
        <ele>934.8</ele>
        <time>2020-09-29T08:01:25Z</time>
      </trkpt>
      <trkpt lat="46.75545" lon="6.38374">
        <ele>934.2</ele>
        <time>2020-09-29T08:01:31Z</time>
      </trkpt>
      <trkpt lat="46.75542" lon="6.38366">
        <ele>933.7</ele>
        <time>2020-09-29T08:01:36Z</time>
      </trkpt>
      <trkpt lat="46.75542" lon="6.38359">
        <ele>933.3</ele>
        <time>2020-09-29T08:01:41Z</time>
      </trkpt>
      <trkpt lat="46.75539" lon="6.38353">
        <ele>933</ele>
        <time>2020-09-29T08:01:46Z</time>
      </trkpt>
      <trkpt lat="46.75537" lon="6.38347">
        <ele>932.6</ele>
        <time>2020-09-29T08:01:51Z</time>
      </trkpt>
      <trkpt lat="46.75533" lon="6.38342">
        <ele>932.5</ele>
        <time>2020-09-29T08:01:56Z</time>
      </trkpt>
      <trkpt lat="46.75531" lon="6.38334">
        <ele>932.9</ele>
        <time>2020-09-29T08:02:01Z</time>
      </trkpt>
      <trkpt lat="46.75529" lon="6.38327">
        <ele>933.2</ele>
        <time>2020-09-29T08:02:06Z</time>
      </trkpt>
      <trkpt lat="46.75526" lon="6.38321">
        <ele>933.2</ele>
        <time>2020-09-29T08:02:11Z</time>
      </trkpt>
      <trkpt lat="46.75526" lon="6.38313">
        <ele>932.9</ele>
        <time>2020-09-29T08:02:16Z</time>
      </trkpt>
      <trkpt lat="46.75524" lon="6.38307">
        <ele>932.6</ele>
        <time>2020-09-29T08:02:20Z</time>
      </trkpt>
      <trkpt lat="46.75521" lon="6.38301">
        <ele>932.5</ele>
        <time>2020-09-29T08:02:24Z</time>
      </trkpt>
      <trkpt lat="46.75519" lon="6.38295">
        <ele>932.2</ele>
        <time>2020-09-29T08:02:28Z</time>
      </trkpt>
      <trkpt lat="46.75515" lon="6.3829">
        <ele>931.4</ele>
        <time>2020-09-29T08:02:32Z</time>
      </trkpt>
      <trkpt lat="46.75512" lon="6.38284">
        <ele>930.7</ele>
        <time>2020-09-29T08:02:36Z</time>
      </trkpt>
      <trkpt lat="46.75509" lon="6.38277">
        <ele>930.4</ele>
        <time>2020-09-29T08:02:40Z</time>
      </trkpt>
      <trkpt lat="46.75505" lon="6.38272">
        <ele>930.4</ele>
        <time>2020-09-29T08:02:44Z</time>
      </trkpt>
      <trkpt lat="46.75502" lon="6.38267">
        <ele>930.4</ele>
        <time>2020-09-29T08:02:49Z</time>
      </trkpt>
      <trkpt lat="46.75499" lon="6.38261">
        <ele>930.3</ele>
        <time>2020-09-29T08:02:54Z</time>
      </trkpt>
      <trkpt lat="46.75496" lon="6.38255">
        <ele>930.1</ele>
        <time>2020-09-29T08:02:58Z</time>
      </trkpt>
      <trkpt lat="46.75494" lon="6.38249">
        <ele>929.6</ele>
        <time>2020-09-29T08:03:02Z</time>
      </trkpt>
      <trkpt lat="46.75492" lon="6.38241">
        <ele>929.2</ele>
        <time>2020-09-29T08:03:07Z</time>
      </trkpt>
      <trkpt lat="46.7549" lon="6.38235">
        <ele>929.2</ele>
        <time>2020-09-29T08:03:12Z</time>
      </trkpt>
      <trkpt lat="46.75487" lon="6.38229">
        <ele>929.2</ele>
        <time>2020-09-29T08:03:17Z</time>
      </trkpt>
      <trkpt lat="46.75484" lon="6.38223">
        <ele>929.3</ele>
        <time>2020-09-29T08:03:21Z</time>
      </trkpt>
      <trkpt lat="46.75481" lon="6.38216">
        <ele>929.2</ele>
        <time>2020-09-29T08:03:25Z</time>
      </trkpt>
      <trkpt lat="46.75478" lon="6.38209">
        <ele>928.8</ele>
        <time>2020-09-29T08:03:29Z</time>
      </trkpt>
      <trkpt lat="46.75475" lon="6.38203">
        <ele>928.3</ele>
        <time>2020-09-29T08:03:33Z</time>
      </trkpt>
      <trkpt lat="46.75472" lon="6.38198">
        <ele>927.6</ele>
        <time>2020-09-29T08:03:37Z</time>
      </trkpt>
      <trkpt lat="46.7547" lon="6.38191">
        <ele>925.9</ele>
        <time>2020-09-29T08:03:41Z</time>
      </trkpt>
      <trkpt lat="46.75468" lon="6.38183">
        <ele>923.4</ele>
        <time>2020-09-29T08:03:46Z</time>
      </trkpt>
      <trkpt lat="46.75465" lon="6.38178">
        <ele>921.5</ele>
        <time>2020-09-29T08:03:51Z</time>
      </trkpt>
      <trkpt lat="46.75461" lon="6.38173">
        <ele>920.6</ele>
        <time>2020-09-29T08:03:55Z</time>
      </trkpt>
      <trkpt lat="46.75459" lon="6.38167">
        <ele>919.6</ele>
        <time>2020-09-29T08:03:59Z</time>
      </trkpt>
      <trkpt lat="46.75456" lon="6.38162">
        <ele>918.8</ele>
        <time>2020-09-29T08:04:03Z</time>
      </trkpt>
      <trkpt lat="46.75453" lon="6.38156">
        <ele>918.6</ele>
        <time>2020-09-29T08:04:07Z</time>
      </trkpt>
      <trkpt lat="46.7545" lon="6.3815">
        <ele>918.6</ele>
        <time>2020-09-29T08:04:11Z</time>
      </trkpt>
      <trkpt lat="46.75446" lon="6.38144">
        <ele>918.9</ele>
        <time>2020-09-29T08:04:15Z</time>
      </trkpt>
      <trkpt lat="46.75443" lon="6.38139">
        <ele>920</ele>
        <time>2020-09-29T08:04:19Z</time>
      </trkpt>
      <trkpt lat="46.7544" lon="6.38132">
        <ele>921.5</ele>
        <time>2020-09-29T08:04:24Z</time>
      </trkpt>
      <trkpt lat="46.75436" lon="6.38126">
        <ele>923.1</ele>
        <time>2020-09-29T08:04:29Z</time>
      </trkpt>
      <trkpt lat="46.75433" lon="6.3812">
        <ele>924.6</ele>
        <time>2020-09-29T08:04:34Z</time>
      </trkpt>
      <trkpt lat="46.7543" lon="6.38115">
        <ele>925.3</ele>
        <time>2020-09-29T08:04:38Z</time>
      </trkpt>
      <trkpt lat="46.75425" lon="6.38112">
        <ele>925.7</ele>
        <time>2020-09-29T08:04:42Z</time>
      </trkpt>
      <trkpt lat="46.75421" lon="6.38106">
        <ele>926</ele>
        <time>2020-09-29T08:04:47Z</time>
      </trkpt>
      <trkpt lat="46.75418" lon="6.38101">
        <ele>925.8</ele>
        <time>2020-09-29T08:04:51Z</time>
      </trkpt>
      <trkpt lat="46.75414" lon="6.38096">
        <ele>925.6</ele>
        <time>2020-09-29T08:04:55Z</time>
      </trkpt>
      <trkpt lat="46.7541" lon="6.38091">
        <ele>925.3</ele>
        <time>2020-09-29T08:04:59Z</time>
      </trkpt>
      <trkpt lat="46.75407" lon="6.38086">
        <ele>924.7</ele>
        <time>2020-09-29T08:05:03Z</time>
      </trkpt>
      <trkpt lat="46.75404" lon="6.3808">
        <ele>923.8</ele>
        <time>2020-09-29T08:05:08Z</time>
      </trkpt>
      <trkpt lat="46.75399" lon="6.38077">
        <ele>923</ele>
        <time>2020-09-29T08:05:13Z</time>
      </trkpt>
      <trkpt lat="46.75394" lon="6.38074">
        <ele>922.5</ele>
        <time>2020-09-29T08:05:17Z</time>
      </trkpt>
      <trkpt lat="46.7539" lon="6.38068">
        <ele>922</ele>
        <time>2020-09-29T08:05:22Z</time>
      </trkpt>
      <trkpt lat="46.75388" lon="6.38063">
        <ele>921.8</ele>
        <time>2020-09-29T08:05:26Z</time>
      </trkpt>
      <trkpt lat="46.75383" lon="6.38059">
        <ele>921.6</ele>
        <time>2020-09-29T08:05:30Z</time>
      </trkpt>
      <trkpt lat="46.75379" lon="6.38055">
        <ele>921.5</ele>
        <time>2020-09-29T08:05:34Z</time>
      </trkpt>
      <trkpt lat="46.75374" lon="6.3805">
        <ele>921.6</ele>
        <time>2020-09-29T08:05:39Z</time>
      </trkpt>
      <trkpt lat="46.75369" lon="6.38046">
        <ele>921.9</ele>
        <time>2020-09-29T08:05:44Z</time>
      </trkpt>
      <trkpt lat="46.75366" lon="6.38041">
        <ele>922.3</ele>
        <time>2020-09-29T08:05:49Z</time>
      </trkpt>
      <trkpt lat="46.75362" lon="6.38038">
        <ele>922.4</ele>
        <time>2020-09-29T08:05:54Z</time>
      </trkpt>
      <trkpt lat="46.75357" lon="6.38035">
        <ele>922.3</ele>
        <time>2020-09-29T08:05:58Z</time>
      </trkpt>
      <trkpt lat="46.75353" lon="6.38031">
        <ele>922</ele>
        <time>2020-09-29T08:06:03Z</time>
      </trkpt>
      <trkpt lat="46.75349" lon="6.38027">
        <ele>921.9</ele>
        <time>2020-09-29T08:06:07Z</time>
      </trkpt>
      <trkpt lat="46.75345" lon="6.38024">
        <ele>921.5</ele>
        <time>2020-09-29T08:06:11Z</time>
      </trkpt>
      <trkpt lat="46.75341" lon="6.38021">
        <ele>921.2</ele>
        <time>2020-09-29T08:06:16Z</time>
      </trkpt>
      <trkpt lat="46.75335" lon="6.38018">
        <ele>921.6</ele>
        <time>2020-09-29T08:06:20Z</time>
      </trkpt>
      <trkpt lat="46.7533" lon="6.38015">
        <ele>922.5</ele>
        <time>2020-09-29T08:06:24Z</time>
      </trkpt>
      <trkpt lat="46.75325" lon="6.38014">
        <ele>923.1</ele>
        <time>2020-09-29T08:06:28Z</time>
      </trkpt>
      <trkpt lat="46.7532" lon="6.38012">
        <ele>923.5</ele>
        <time>2020-09-29T08:06:32Z</time>
      </trkpt>
      <trkpt lat="46.75315" lon="6.38009">
        <ele>923.5</ele>
        <time>2020-09-29T08:06:36Z</time>
      </trkpt>
      <trkpt lat="46.7531" lon="6.38007">
        <ele>923.2</ele>
        <time>2020-09-29T08:06:41Z</time>
      </trkpt>
      <trkpt lat="46.75305" lon="6.38006">
        <ele>923</ele>
        <time>2020-09-29T08:06:45Z</time>
      </trkpt>
      <trkpt lat="46.753" lon="6.38005">
        <ele>923</ele>
        <time>2020-09-29T08:06:50Z</time>
      </trkpt>
      <trkpt lat="46.75294" lon="6.38003">
        <ele>923.1</ele>
        <time>2020-09-29T08:06:55Z</time>
      </trkpt>
      <trkpt lat="46.75291" lon="6.37999">
        <ele>923</ele>
        <time>2020-09-29T08:06:59Z</time>
      </trkpt>
      <trkpt lat="46.75286" lon="6.37995">
        <ele>922.4</ele>
        <time>2020-09-29T08:07:04Z</time>
      </trkpt>
      <trkpt lat="46.75281" lon="6.37993">
        <ele>921.8</ele>
        <time>2020-09-29T08:07:08Z</time>
      </trkpt>
      <trkpt lat="46.75276" lon="6.37991">
        <ele>921.1</ele>
        <time>2020-09-29T08:07:13Z</time>
      </trkpt>
      <trkpt lat="46.75271" lon="6.37988">
        <ele>920.3</ele>
        <time>2020-09-29T08:07:17Z</time>
      </trkpt>
      <trkpt lat="46.75266" lon="6.37986">
        <ele>919.7</ele>
        <time>2020-09-29T08:07:21Z</time>
      </trkpt>
      <trkpt lat="46.75262" lon="6.37984">
        <ele>919.1</ele>
        <time>2020-09-29T08:07:25Z</time>
      </trkpt>
      <trkpt lat="46.75257" lon="6.37981">
        <ele>918.4</ele>
        <time>2020-09-29T08:07:29Z</time>
      </trkpt>
      <trkpt lat="46.75253" lon="6.37979">
        <ele>917.6</ele>
        <time>2020-09-29T08:07:33Z</time>
      </trkpt>
      <trkpt lat="46.75248" lon="6.37977">
        <ele>916.9</ele>
        <time>2020-09-29T08:07:37Z</time>
      </trkpt>
      <trkpt lat="46.75243" lon="6.37976">
        <ele>916.5</ele>
        <time>2020-09-29T08:07:40Z</time>
      </trkpt>
      <trkpt lat="46.75238" lon="6.37974">
        <ele>915.7</ele>
        <time>2020-09-29T08:07:45Z</time>
      </trkpt>
      <trkpt lat="46.75233" lon="6.37972">
        <ele>914.8</ele>
        <time>2020-09-29T08:07:49Z</time>
      </trkpt>
      <trkpt lat="46.75228" lon="6.37969">
        <ele>914</ele>
        <time>2020-09-29T08:07:54Z</time>
      </trkpt>
      <trkpt lat="46.75224" lon="6.37966">
        <ele>913.7</ele>
        <time>2020-09-29T08:07:58Z</time>
      </trkpt>
      <trkpt lat="46.7522" lon="6.37963">
        <ele>914.3</ele>
        <time>2020-09-29T08:08:03Z</time>
      </trkpt>
      <trkpt lat="46.75215" lon="6.37959">
        <ele>914.9</ele>
        <time>2020-09-29T08:08:07Z</time>
      </trkpt>
      <trkpt lat="46.7521" lon="6.37956">
        <ele>915.6</ele>
        <time>2020-09-29T08:08:11Z</time>
      </trkpt>
      <trkpt lat="46.75206" lon="6.37952">
        <ele>916.3</ele>
        <time>2020-09-29T08:08:15Z</time>
      </trkpt>
      <trkpt lat="46.75201" lon="6.37948">
        <ele>916.5</ele>
        <time>2020-09-29T08:08:20Z</time>
      </trkpt>
      <trkpt lat="46.75197" lon="6.37943">
        <ele>916.1</ele>
        <time>2020-09-29T08:08:26Z</time>
      </trkpt>
      <trkpt lat="46.75192" lon="6.37941">
        <ele>915.7</ele>
        <time>2020-09-29T08:08:30Z</time>
      </trkpt>
      <trkpt lat="46.75186" lon="6.3794">
        <ele>915.5</ele>
        <time>2020-09-29T08:08:34Z</time>
      </trkpt>
      <trkpt lat="46.75182" lon="6.37936">
        <ele>915.1</ele>
        <time>2020-09-29T08:08:40Z</time>
      </trkpt>
      <trkpt lat="46.75178" lon="6.37933">
        <ele>914.5</ele>
        <time>2020-09-29T08:08:44Z</time>
      </trkpt>
      <trkpt lat="46.75174" lon="6.37929">
        <ele>914.1</ele>
        <time>2020-09-29T08:08:48Z</time>
      </trkpt>
      <trkpt lat="46.75169" lon="6.37924">
        <ele>913.8</ele>
        <time>2020-09-29T08:08:52Z</time>
      </trkpt>
      <trkpt lat="46.75166" lon="6.37919">
        <ele>913.6</ele>
        <time>2020-09-29T08:08:56Z</time>
      </trkpt>
      <trkpt lat="46.75162" lon="6.37914">
        <ele>913.3</ele>
        <time>2020-09-29T08:09:00Z</time>
      </trkpt>
      <trkpt lat="46.75159" lon="6.37909">
        <ele>913.2</ele>
        <time>2020-09-29T08:09:04Z</time>
      </trkpt>
      <trkpt lat="46.75153" lon="6.37905">
        <ele>913.4</ele>
        <time>2020-09-29T08:09:09Z</time>
      </trkpt>
      <trkpt lat="46.75149" lon="6.37903">
        <ele>914</ele>
        <time>2020-09-29T08:09:13Z</time>
      </trkpt>
      <trkpt lat="46.75145" lon="6.37898">
        <ele>915.1</ele>
        <time>2020-09-29T08:09:18Z</time>
      </trkpt>
      <trkpt lat="46.75141" lon="6.37893">
        <ele>916.1</ele>
        <time>2020-09-29T08:09:23Z</time>
      </trkpt>
      <trkpt lat="46.75137" lon="6.37888">
        <ele>916.9</ele>
        <time>2020-09-29T08:09:28Z</time>
      </trkpt>
      <trkpt lat="46.75133" lon="6.37883">
        <ele>917.4</ele>
        <time>2020-09-29T08:09:32Z</time>
      </trkpt>
      <trkpt lat="46.75129" lon="6.37878">
        <ele>917.7</ele>
        <time>2020-09-29T08:09:36Z</time>
      </trkpt>
      <trkpt lat="46.75124" lon="6.37874">
        <ele>917.5</ele>
        <time>2020-09-29T08:09:40Z</time>
      </trkpt>
      <trkpt lat="46.75121" lon="6.3787">
        <ele>917</ele>
        <time>2020-09-29T08:09:45Z</time>
      </trkpt>
      <trkpt lat="46.75117" lon="6.37865">
        <ele>916.1</ele>
        <time>2020-09-29T08:09:50Z</time>
      </trkpt>
      <trkpt lat="46.75113" lon="6.37859">
        <ele>914.7</ele>
        <time>2020-09-29T08:09:55Z</time>
      </trkpt>
      <trkpt lat="46.75109" lon="6.37854">
        <ele>913.4</ele>
        <time>2020-09-29T08:10:00Z</time>
      </trkpt>
      <trkpt lat="46.75105" lon="6.3785">
        <ele>912.7</ele>
        <time>2020-09-29T08:10:04Z</time>
      </trkpt>
      <trkpt lat="46.751" lon="6.37846">
        <ele>911.9</ele>
        <time>2020-09-29T08:10:08Z</time>
      </trkpt>
      <trkpt lat="46.75096" lon="6.37843">
        <ele>911</ele>
        <time>2020-09-29T08:10:13Z</time>
      </trkpt>
      <trkpt lat="46.75092" lon="6.37839">
        <ele>910.3</ele>
        <time>2020-09-29T08:10:18Z</time>
      </trkpt>
      <trkpt lat="46.75089" lon="6.37833">
        <ele>909.5</ele>
        <time>2020-09-29T08:10:24Z</time>
      </trkpt>
      <trkpt lat="46.75084" lon="6.37829">
        <ele>908.5</ele>
        <time>2020-09-29T08:10:29Z</time>
      </trkpt>
      <trkpt lat="46.7508" lon="6.37825">
        <ele>907.8</ele>
        <time>2020-09-29T08:10:33Z</time>
      </trkpt>
      <trkpt lat="46.75075" lon="6.37822">
        <ele>907.2</ele>
        <time>2020-09-29T08:10:38Z</time>
      </trkpt>
      <trkpt lat="46.7507" lon="6.3782">
        <ele>907.1</ele>
        <time>2020-09-29T08:10:42Z</time>
      </trkpt>
      <trkpt lat="46.75066" lon="6.37817">
        <ele>907.3</ele>
        <time>2020-09-29T08:10:46Z</time>
      </trkpt>
      <trkpt lat="46.75062" lon="6.37814">
        <ele>907.4</ele>
        <time>2020-09-29T08:10:50Z</time>
      </trkpt>
      <trkpt lat="46.75057" lon="6.3781">
        <ele>907.4</ele>
        <time>2020-09-29T08:10:55Z</time>
      </trkpt>
      <trkpt lat="46.75052" lon="6.37807">
        <ele>907.7</ele>
        <time>2020-09-29T08:10:59Z</time>
      </trkpt>
      <trkpt lat="46.75047" lon="6.37804">
        <ele>908.1</ele>
        <time>2020-09-29T08:11:03Z</time>
      </trkpt>
      <trkpt lat="46.75042" lon="6.37802">
        <ele>908.4</ele>
        <time>2020-09-29T08:11:07Z</time>
      </trkpt>
      <trkpt lat="46.75038" lon="6.37799">
        <ele>908.5</ele>
        <time>2020-09-29T08:11:11Z</time>
      </trkpt>
      <trkpt lat="46.75034" lon="6.37795">
        <ele>908.7</ele>
        <time>2020-09-29T08:11:15Z</time>
      </trkpt>
      <trkpt lat="46.7503" lon="6.37792">
        <ele>908.7</ele>
        <time>2020-09-29T08:11:19Z</time>
      </trkpt>
      <trkpt lat="46.75025" lon="6.37788">
        <ele>908.4</ele>
        <time>2020-09-29T08:11:24Z</time>
      </trkpt>
      <trkpt lat="46.7502" lon="6.37785">
        <ele>908</ele>
        <time>2020-09-29T08:11:29Z</time>
      </trkpt>
      <trkpt lat="46.75014" lon="6.37783">
        <ele>907.9</ele>
        <time>2020-09-29T08:11:33Z</time>
      </trkpt>
      <trkpt lat="46.7501" lon="6.37781">
        <ele>907.9</ele>
        <time>2020-09-29T08:11:36Z</time>
      </trkpt>
      <trkpt lat="46.75004" lon="6.3778">
        <ele>908</ele>
        <time>2020-09-29T08:11:40Z</time>
      </trkpt>
      <trkpt lat="46.74999" lon="6.37778">
        <ele>908.1</ele>
        <time>2020-09-29T08:11:45Z</time>
      </trkpt>
      <trkpt lat="46.74995" lon="6.37776">
        <ele>908.2</ele>
        <time>2020-09-29T08:11:50Z</time>
      </trkpt>
      <trkpt lat="46.7499" lon="6.37772">
        <ele>908.2</ele>
        <time>2020-09-29T08:11:55Z</time>
      </trkpt>
      <trkpt lat="46.74985" lon="6.37769">
        <ele>908.5</ele>
        <time>2020-09-29T08:12:00Z</time>
      </trkpt>
      <trkpt lat="46.7498" lon="6.37766">
        <ele>908.3</ele>
        <time>2020-09-29T08:12:05Z</time>
      </trkpt>
      <trkpt lat="46.74976" lon="6.37764">
        <ele>907.9</ele>
        <time>2020-09-29T08:12:09Z</time>
      </trkpt>
      <trkpt lat="46.74971" lon="6.37761">
        <ele>907.2</ele>
        <time>2020-09-29T08:12:14Z</time>
      </trkpt>
      <trkpt lat="46.74967" lon="6.37757">
        <ele>906.4</ele>
        <time>2020-09-29T08:12:19Z</time>
      </trkpt>
      <trkpt lat="46.74962" lon="6.37755">
        <ele>905.6</ele>
        <time>2020-09-29T08:12:24Z</time>
      </trkpt>
      <trkpt lat="46.74957" lon="6.37752">
        <ele>904.5</ele>
        <time>2020-09-29T08:12:29Z</time>
      </trkpt>
      <trkpt lat="46.74952" lon="6.37751">
        <ele>903.6</ele>
        <time>2020-09-29T08:12:33Z</time>
      </trkpt>
      <trkpt lat="46.74947" lon="6.37748">
        <ele>902.5</ele>
        <time>2020-09-29T08:12:38Z</time>
      </trkpt>
      <trkpt lat="46.74943" lon="6.37745">
        <ele>901.2</ele>
        <time>2020-09-29T08:12:43Z</time>
      </trkpt>
      <trkpt lat="46.74938" lon="6.37743">
        <ele>900.1</ele>
        <time>2020-09-29T08:12:48Z</time>
      </trkpt>
      <trkpt lat="46.74933" lon="6.3774">
        <ele>898.3</ele>
        <time>2020-09-29T08:12:54Z</time>
      </trkpt>
      <trkpt lat="46.74929" lon="6.37736">
        <ele>897.4</ele>
        <time>2020-09-29T08:12:58Z</time>
      </trkpt>
      <trkpt lat="46.74925" lon="6.37732">
        <ele>896.4</ele>
        <time>2020-09-29T08:13:02Z</time>
      </trkpt>
      <trkpt lat="46.7492" lon="6.37729">
        <ele>895.3</ele>
        <time>2020-09-29T08:13:07Z</time>
      </trkpt>
      <trkpt lat="46.74915" lon="6.37727">
        <ele>894.4</ele>
        <time>2020-09-29T08:13:11Z</time>
      </trkpt>
      <trkpt lat="46.7491" lon="6.37725">
        <ele>893.8</ele>
        <time>2020-09-29T08:13:15Z</time>
      </trkpt>
      <trkpt lat="46.74905" lon="6.37722">
        <ele>893.7</ele>
        <time>2020-09-29T08:13:19Z</time>
      </trkpt>
      <trkpt lat="46.74901" lon="6.37719">
        <ele>893.7</ele>
        <time>2020-09-29T08:13:23Z</time>
      </trkpt>
      <trkpt lat="46.74897" lon="6.37717">
        <ele>894.2</ele>
        <time>2020-09-29T08:13:26Z</time>
      </trkpt>
      <trkpt lat="46.74891" lon="6.37715">
        <ele>895.3</ele>
        <time>2020-09-29T08:13:30Z</time>
      </trkpt>
      <trkpt lat="46.74887" lon="6.37713">
        <ele>895.7</ele>
        <time>2020-09-29T08:13:35Z</time>
      </trkpt>
      <trkpt lat="46.74882" lon="6.37711">
        <ele>895.9</ele>
        <time>2020-09-29T08:13:39Z</time>
      </trkpt>
      <trkpt lat="46.74876" lon="6.37708">
        <ele>896.3</ele>
        <time>2020-09-29T08:13:43Z</time>
      </trkpt>
      <trkpt lat="46.74868" lon="6.37703">
        <ele>901</ele>
        <time>2020-09-29T08:13:48Z</time>
      </trkpt>
      <trkpt lat="46.74864" lon="6.377">
        <ele>904.9</ele>
        <time>2020-09-29T08:13:52Z</time>
      </trkpt>
      <trkpt lat="46.74862" lon="6.37693">
        <ele>906.8</ele>
        <time>2020-09-29T08:13:57Z</time>
      </trkpt>
      <trkpt lat="46.74858" lon="6.37688">
        <ele>906.9</ele>
        <time>2020-09-29T08:14:02Z</time>
      </trkpt>
      <trkpt lat="46.74853" lon="6.37684">
        <ele>906.5</ele>
        <time>2020-09-29T08:14:06Z</time>
      </trkpt>
      <trkpt lat="46.74848" lon="6.3768">
        <ele>906.2</ele>
        <time>2020-09-29T08:14:10Z</time>
      </trkpt>
      <trkpt lat="46.74845" lon="6.37675">
        <ele>905.9</ele>
        <time>2020-09-29T08:14:14Z</time>
      </trkpt>
      <trkpt lat="46.74841" lon="6.3767">
        <ele>905.6</ele>
        <time>2020-09-29T08:14:18Z</time>
      </trkpt>
      <trkpt lat="46.74837" lon="6.37666">
        <ele>905.4</ele>
        <time>2020-09-29T08:14:23Z</time>
      </trkpt>
      <trkpt lat="46.74833" lon="6.37661">
        <ele>905.1</ele>
        <time>2020-09-29T08:14:28Z</time>
      </trkpt>
      <trkpt lat="46.74828" lon="6.37657">
        <ele>905.1</ele>
        <time>2020-09-29T08:14:32Z</time>
      </trkpt>
      <trkpt lat="46.74823" lon="6.37653">
        <ele>905.3</ele>
        <time>2020-09-29T08:14:36Z</time>
      </trkpt>
      <trkpt lat="46.74818" lon="6.37651">
        <ele>905.3</ele>
        <time>2020-09-29T08:14:40Z</time>
      </trkpt>
      <trkpt lat="46.74815" lon="6.37646">
        <ele>905.1</ele>
        <time>2020-09-29T08:14:45Z</time>
      </trkpt>
      <trkpt lat="46.74812" lon="6.37641">
        <ele>904.8</ele>
        <time>2020-09-29T08:14:50Z</time>
      </trkpt>
      <trkpt lat="46.74808" lon="6.37637">
        <ele>904.3</ele>
        <time>2020-09-29T08:14:54Z</time>
      </trkpt>
      <trkpt lat="46.74804" lon="6.37633">
        <ele>903.6</ele>
        <time>2020-09-29T08:14:58Z</time>
      </trkpt>
      <trkpt lat="46.748" lon="6.3763">
        <ele>903.3</ele>
        <time>2020-09-29T08:15:02Z</time>
      </trkpt>
      <trkpt lat="46.74795" lon="6.37628">
        <ele>903.1</ele>
        <time>2020-09-29T08:15:06Z</time>
      </trkpt>
      <trkpt lat="46.7479" lon="6.37626">
        <ele>903</ele>
        <time>2020-09-29T08:15:10Z</time>
      </trkpt>
      <trkpt lat="46.74785" lon="6.37621">
        <ele>902.8</ele>
        <time>2020-09-29T08:15:15Z</time>
      </trkpt>
      <trkpt lat="46.74782" lon="6.37617">
        <ele>902.4</ele>
        <time>2020-09-29T08:15:19Z</time>
      </trkpt>
      <trkpt lat="46.74778" lon="6.37613">
        <ele>901.9</ele>
        <time>2020-09-29T08:15:23Z</time>
      </trkpt>
      <trkpt lat="46.74775" lon="6.37608">
        <ele>901</ele>
        <time>2020-09-29T08:15:28Z</time>
      </trkpt>
      <trkpt lat="46.74772" lon="6.37602">
        <ele>899.9</ele>
        <time>2020-09-29T08:15:34Z</time>
      </trkpt>
      <trkpt lat="46.74767" lon="6.37598">
        <ele>899.2</ele>
        <time>2020-09-29T08:15:39Z</time>
      </trkpt>
      <trkpt lat="46.74763" lon="6.37593">
        <ele>898.8</ele>
        <time>2020-09-29T08:15:43Z</time>
      </trkpt>
      <trkpt lat="46.74758" lon="6.37589">
        <ele>898.5</ele>
        <time>2020-09-29T08:15:47Z</time>
      </trkpt>
      <trkpt lat="46.74754" lon="6.37585">
        <ele>898.9</ele>
        <time>2020-09-29T08:15:50Z</time>
      </trkpt>
      <trkpt lat="46.74749" lon="6.37581">
        <ele>899.3</ele>
        <time>2020-09-29T08:15:54Z</time>
      </trkpt>
      <trkpt lat="46.74745" lon="6.37577">
        <ele>899.4</ele>
        <time>2020-09-29T08:15:58Z</time>
      </trkpt>
      <trkpt lat="46.74741" lon="6.37572">
        <ele>899.2</ele>
        <time>2020-09-29T08:16:02Z</time>
      </trkpt>
      <trkpt lat="46.74737" lon="6.37567">
        <ele>898.8</ele>
        <time>2020-09-29T08:16:07Z</time>
      </trkpt>
      <trkpt lat="46.74733" lon="6.37563">
        <ele>898.6</ele>
        <time>2020-09-29T08:16:11Z</time>
      </trkpt>
      <trkpt lat="46.74729" lon="6.37559">
        <ele>898.3</ele>
        <time>2020-09-29T08:16:15Z</time>
      </trkpt>
      <trkpt lat="46.74725" lon="6.37554">
        <ele>897.8</ele>
        <time>2020-09-29T08:16:19Z</time>
      </trkpt>
      <trkpt lat="46.7472" lon="6.37551">
        <ele>897.2</ele>
        <time>2020-09-29T08:16:24Z</time>
      </trkpt>
      <trkpt lat="46.74716" lon="6.37548">
        <ele>897.4</ele>
        <time>2020-09-29T08:16:30Z</time>
      </trkpt>
      <trkpt lat="46.74712" lon="6.37542">
        <ele>897.4</ele>
        <time>2020-09-29T08:16:36Z</time>
      </trkpt>
      <trkpt lat="46.74708" lon="6.37537">
        <ele>896.6</ele>
        <time>2020-09-29T08:16:42Z</time>
      </trkpt>
      <trkpt lat="46.74703" lon="6.37533">
        <ele>896.2</ele>
        <time>2020-09-29T08:16:47Z</time>
      </trkpt>
      <trkpt lat="46.74699" lon="6.37528">
        <ele>896</ele>
        <time>2020-09-29T08:16:52Z</time>
      </trkpt>
      <trkpt lat="46.74694" lon="6.37525">
        <ele>896</ele>
        <time>2020-09-29T08:16:56Z</time>
      </trkpt>
      <trkpt lat="46.7469" lon="6.37521">
        <ele>896.2</ele>
        <time>2020-09-29T08:17:00Z</time>
      </trkpt>
      <trkpt lat="46.74686" lon="6.37516">
        <ele>896.5</ele>
        <time>2020-09-29T08:17:05Z</time>
      </trkpt>
      <trkpt lat="46.74681" lon="6.37514">
        <ele>896.8</ele>
        <time>2020-09-29T08:17:10Z</time>
      </trkpt>
      <trkpt lat="46.74676" lon="6.37511">
        <ele>897.1</ele>
        <time>2020-09-29T08:17:16Z</time>
      </trkpt>
      <trkpt lat="46.74671" lon="6.37507">
        <ele>897.4</ele>
        <time>2020-09-29T08:17:21Z</time>
      </trkpt>
      <trkpt lat="46.74666" lon="6.37504">
        <ele>897.9</ele>
        <time>2020-09-29T08:17:25Z</time>
      </trkpt>
      <trkpt lat="46.74661" lon="6.37501">
        <ele>898.2</ele>
        <time>2020-09-29T08:17:29Z</time>
      </trkpt>
      <trkpt lat="46.74657" lon="6.37495">
        <ele>898.5</ele>
        <time>2020-09-29T08:17:34Z</time>
      </trkpt>
      <trkpt lat="46.74654" lon="6.3749">
        <ele>898.4</ele>
        <time>2020-09-29T08:17:40Z</time>
      </trkpt>
      <trkpt lat="46.74651" lon="6.37485">
        <ele>897.7</ele>
        <time>2020-09-29T08:17:46Z</time>
      </trkpt>
      <trkpt lat="46.74647" lon="6.37481">
        <ele>897.9</ele>
        <time>2020-09-29T08:17:50Z</time>
      </trkpt>
      <trkpt lat="46.74644" lon="6.37476">
        <ele>897.7</ele>
        <time>2020-09-29T08:17:54Z</time>
      </trkpt>
      <trkpt lat="46.7464" lon="6.3747">
        <ele>897.5</ele>
        <time>2020-09-29T08:17:58Z</time>
      </trkpt>
      <trkpt lat="46.74636" lon="6.37466">
        <ele>897.2</ele>
        <time>2020-09-29T08:18:02Z</time>
      </trkpt>
      <trkpt lat="46.74632" lon="6.37461">
        <ele>897.1</ele>
        <time>2020-09-29T08:18:07Z</time>
      </trkpt>
      <trkpt lat="46.74628" lon="6.37457">
        <ele>896.9</ele>
        <time>2020-09-29T08:18:12Z</time>
      </trkpt>
      <trkpt lat="46.74624" lon="6.37453">
        <ele>896.4</ele>
        <time>2020-09-29T08:18:17Z</time>
      </trkpt>
      <trkpt lat="46.74621" lon="6.37447">
        <ele>895.9</ele>
        <time>2020-09-29T08:18:25Z</time>
      </trkpt>
      <trkpt lat="46.74618" lon="6.37443">
        <ele>895.7</ele>
        <time>2020-09-29T08:18:29Z</time>
      </trkpt>
      <trkpt lat="46.74614" lon="6.37437">
        <ele>895.4</ele>
        <time>2020-09-29T08:18:34Z</time>
      </trkpt>
      <trkpt lat="46.7461" lon="6.37431">
        <ele>894.9</ele>
        <time>2020-09-29T08:18:39Z</time>
      </trkpt>
      <trkpt lat="46.74606" lon="6.37427">
        <ele>894.2</ele>
        <time>2020-09-29T08:18:44Z</time>
      </trkpt>
      <trkpt lat="46.74602" lon="6.37423">
        <ele>893.5</ele>
        <time>2020-09-29T08:18:48Z</time>
      </trkpt>
      <trkpt lat="46.74597" lon="6.3742">
        <ele>893.2</ele>
        <time>2020-09-29T08:18:52Z</time>
      </trkpt>
      <trkpt lat="46.74592" lon="6.37418">
        <ele>893.3</ele>
        <time>2020-09-29T08:18:56Z</time>
      </trkpt>
      <trkpt lat="46.74588" lon="6.37415">
        <ele>893.6</ele>
        <time>2020-09-29T08:19:00Z</time>
      </trkpt>
      <trkpt lat="46.74584" lon="6.37411">
        <ele>894</ele>
        <time>2020-09-29T08:19:04Z</time>
      </trkpt>
      <trkpt lat="46.74581" lon="6.37406">
        <ele>894.5</ele>
        <time>2020-09-29T08:19:08Z</time>
      </trkpt>
      <trkpt lat="46.74576" lon="6.37402">
        <ele>894.7</ele>
        <time>2020-09-29T08:19:13Z</time>
      </trkpt>
      <trkpt lat="46.74572" lon="6.37396">
        <ele>894.4</ele>
        <time>2020-09-29T08:19:18Z</time>
      </trkpt>
      <trkpt lat="46.74569" lon="6.37391">
        <ele>893.8</ele>
        <time>2020-09-29T08:19:22Z</time>
      </trkpt>
      <trkpt lat="46.74567" lon="6.37385">
        <ele>893.2</ele>
        <time>2020-09-29T08:19:27Z</time>
      </trkpt>
      <trkpt lat="46.74564" lon="6.3738">
        <ele>892.7</ele>
        <time>2020-09-29T08:19:31Z</time>
      </trkpt>
      <trkpt lat="46.7456" lon="6.37374">
        <ele>892.5</ele>
        <time>2020-09-29T08:19:36Z</time>
      </trkpt>
      <trkpt lat="46.74557" lon="6.37369">
        <ele>892.3</ele>
        <time>2020-09-29T08:19:40Z</time>
      </trkpt>
      <trkpt lat="46.74554" lon="6.37362">
        <ele>891.7</ele>
        <time>2020-09-29T08:19:45Z</time>
      </trkpt>
      <trkpt lat="46.7455" lon="6.37358">
        <ele>891.7</ele>
        <time>2020-09-29T08:19:49Z</time>
      </trkpt>
      <trkpt lat="46.74547" lon="6.37353">
        <ele>891.9</ele>
        <time>2020-09-29T08:19:53Z</time>
      </trkpt>
      <trkpt lat="46.74545" lon="6.37346">
        <ele>892.2</ele>
        <time>2020-09-29T08:19:58Z</time>
      </trkpt>
      <trkpt lat="46.74541" lon="6.3734">
        <ele>892.6</ele>
        <time>2020-09-29T08:20:03Z</time>
      </trkpt>
      <trkpt lat="46.74538" lon="6.37336">
        <ele>892.7</ele>
        <time>2020-09-29T08:20:07Z</time>
      </trkpt>
      <trkpt lat="46.74535" lon="6.3733">
        <ele>892.7</ele>
        <time>2020-09-29T08:20:13Z</time>
      </trkpt>
      <trkpt lat="46.74533" lon="6.37324">
        <ele>892.5</ele>
        <time>2020-09-29T08:20:19Z</time>
      </trkpt>
      <trkpt lat="46.74529" lon="6.37318">
        <ele>891.8</ele>
        <time>2020-09-29T08:20:24Z</time>
      </trkpt>
      <trkpt lat="46.74527" lon="6.37311">
        <ele>890.9</ele>
        <time>2020-09-29T08:20:29Z</time>
      </trkpt>
      <trkpt lat="46.74527" lon="6.37304">
        <ele>889.9</ele>
        <time>2020-09-29T08:20:36Z</time>
      </trkpt>
      <trkpt lat="46.74528" lon="6.37296">
        <ele>889.3</ele>
        <time>2020-09-29T08:20:41Z</time>
      </trkpt>
      <trkpt lat="46.74528" lon="6.37288">
        <ele>888.8</ele>
        <time>2020-09-29T08:20:45Z</time>
      </trkpt>
      <trkpt lat="46.74526" lon="6.37282">
        <ele>888.8</ele>
        <time>2020-09-29T08:20:49Z</time>
      </trkpt>
      <trkpt lat="46.74523" lon="6.37277">
        <ele>889</ele>
        <time>2020-09-29T08:20:53Z</time>
      </trkpt>
      <trkpt lat="46.7452" lon="6.37271">
        <ele>889.3</ele>
        <time>2020-09-29T08:20:58Z</time>
      </trkpt>
      <trkpt lat="46.74517" lon="6.37266">
        <ele>889.6</ele>
        <time>2020-09-29T08:21:03Z</time>
      </trkpt>
      <trkpt lat="46.74517" lon="6.37258">
        <ele>889.9</ele>
        <time>2020-09-29T08:21:08Z</time>
      </trkpt>
      <trkpt lat="46.74514" lon="6.37251">
        <ele>890.2</ele>
        <time>2020-09-29T08:21:13Z</time>
      </trkpt>
      <trkpt lat="46.74511" lon="6.37245">
        <ele>890.2</ele>
        <time>2020-09-29T08:21:17Z</time>
      </trkpt>
      <trkpt lat="46.74509" lon="6.37239">
        <ele>890.2</ele>
        <time>2020-09-29T08:21:21Z</time>
      </trkpt>
      <trkpt lat="46.74507" lon="6.37233">
        <ele>890.5</ele>
        <time>2020-09-29T08:21:31Z</time>
      </trkpt>
      <trkpt lat="46.74502" lon="6.37234">
        <ele>890.5</ele>
        <time>2020-09-29T08:21:40Z</time>
      </trkpt>
      <trkpt lat="46.74501" lon="6.37227">
        <ele>892.3</ele>
        <time>2020-09-29T08:23:15Z</time>
      </trkpt>
      <trkpt lat="46.74497" lon="6.37231">
        <ele>890.5</ele>
        <time>2020-09-29T08:24:00Z</time>
      </trkpt>
      <trkpt lat="46.74496" lon="6.37224">
        <ele>896.6</ele>
        <time>2020-09-29T08:32:20Z</time>
      </trkpt>
      <trkpt lat="46.74493" lon="6.3722">
        <ele>896.3</ele>
        <time>2020-09-29T08:32:29Z</time>
      </trkpt>
      <trkpt lat="46.74489" lon="6.37216">
        <ele>896</ele>
        <time>2020-09-29T08:32:35Z</time>
      </trkpt>
      <trkpt lat="46.74485" lon="6.3721">
        <ele>895.4</ele>
        <time>2020-09-29T08:32:40Z</time>
      </trkpt>
      <trkpt lat="46.74481" lon="6.37204">
        <ele>894.7</ele>
        <time>2020-09-29T08:32:44Z</time>
      </trkpt>
      <trkpt lat="46.74477" lon="6.37199">
        <ele>893.8</ele>
        <time>2020-09-29T08:32:49Z</time>
      </trkpt>
      <trkpt lat="46.74473" lon="6.37196">
        <ele>893</ele>
        <time>2020-09-29T08:32:54Z</time>
      </trkpt>
      <trkpt lat="46.74469" lon="6.37191">
        <ele>892</ele>
        <time>2020-09-29T08:32:59Z</time>
      </trkpt>
      <trkpt lat="46.74466" lon="6.37186">
        <ele>890.7</ele>
        <time>2020-09-29T08:33:04Z</time>
      </trkpt>
      <trkpt lat="46.74461" lon="6.37181">
        <ele>889.4</ele>
        <time>2020-09-29T08:33:09Z</time>
      </trkpt>
      <trkpt lat="46.74457" lon="6.37176">
        <ele>888.1</ele>
        <time>2020-09-29T08:33:14Z</time>
      </trkpt>
      <trkpt lat="46.74453" lon="6.37174">
        <ele>887.4</ele>
        <time>2020-09-29T08:33:18Z</time>
      </trkpt>
      <trkpt lat="46.74448" lon="6.37173">
        <ele>886.8</ele>
        <time>2020-09-29T08:33:22Z</time>
      </trkpt>
      <trkpt lat="46.74443" lon="6.37171">
        <ele>886.5</ele>
        <time>2020-09-29T08:33:26Z</time>
      </trkpt>
      <trkpt lat="46.74438" lon="6.37171">
        <ele>886.4</ele>
        <time>2020-09-29T08:33:30Z</time>
      </trkpt>
      <trkpt lat="46.74432" lon="6.3717">
        <ele>887</ele>
        <time>2020-09-29T08:33:35Z</time>
      </trkpt>
      <trkpt lat="46.74427" lon="6.37169">
        <ele>888.1</ele>
        <time>2020-09-29T08:33:40Z</time>
      </trkpt>
      <trkpt lat="46.74423" lon="6.37167">
        <ele>889.1</ele>
        <time>2020-09-29T08:33:45Z</time>
      </trkpt>
      <trkpt lat="46.74418" lon="6.37164">
        <ele>890.3</ele>
        <time>2020-09-29T08:33:50Z</time>
      </trkpt>
      <trkpt lat="46.74413" lon="6.37163">
        <ele>891.5</ele>
        <time>2020-09-29T08:33:55Z</time>
      </trkpt>
      <trkpt lat="46.74408" lon="6.37164">
        <ele>893</ele>
        <time>2020-09-29T08:34:01Z</time>
      </trkpt>
      <trkpt lat="46.74403" lon="6.37164">
        <ele>894.6</ele>
        <time>2020-09-29T08:34:08Z</time>
      </trkpt>
      <trkpt lat="46.74398" lon="6.37165">
        <ele>894.7</ele>
        <time>2020-09-29T08:34:14Z</time>
      </trkpt>
      <trkpt lat="46.74393" lon="6.37165">
        <ele>894</ele>
        <time>2020-09-29T08:34:18Z</time>
      </trkpt>
      <trkpt lat="46.74388" lon="6.37167">
        <ele>893.2</ele>
        <time>2020-09-29T08:34:22Z</time>
      </trkpt>
      <trkpt lat="46.74383" lon="6.37168">
        <ele>892.8</ele>
        <time>2020-09-29T08:34:26Z</time>
      </trkpt>
      <trkpt lat="46.74379" lon="6.37171">
        <ele>893.4</ele>
        <time>2020-09-29T08:34:31Z</time>
      </trkpt>
      <trkpt lat="46.74374" lon="6.37173">
        <ele>894.6</ele>
        <time>2020-09-29T08:34:37Z</time>
      </trkpt>
      <trkpt lat="46.74369" lon="6.37177">
        <ele>896.2</ele>
        <time>2020-09-29T08:34:42Z</time>
      </trkpt>
      <trkpt lat="46.74363" lon="6.37179">
        <ele>898.2</ele>
        <time>2020-09-29T08:34:48Z</time>
      </trkpt>
      <trkpt lat="46.74359" lon="6.37183">
        <ele>899.7</ele>
        <time>2020-09-29T08:34:54Z</time>
      </trkpt>
      <trkpt lat="46.74354" lon="6.37186">
        <ele>901.3</ele>
        <time>2020-09-29T08:34:59Z</time>
      </trkpt>
      <trkpt lat="46.7435" lon="6.37188">
        <ele>903.2</ele>
        <time>2020-09-29T08:35:04Z</time>
      </trkpt>
      <trkpt lat="46.74345" lon="6.37187">
        <ele>904.4</ele>
        <time>2020-09-29T08:35:09Z</time>
      </trkpt>
      <trkpt lat="46.7434" lon="6.3719">
        <ele>906.2</ele>
        <time>2020-09-29T08:35:15Z</time>
      </trkpt>
      <trkpt lat="46.74335" lon="6.37193">
        <ele>907.4</ele>
        <time>2020-09-29T08:35:21Z</time>
      </trkpt>
      <trkpt lat="46.7433" lon="6.37194">
        <ele>908.4</ele>
        <time>2020-09-29T08:35:26Z</time>
      </trkpt>
      <trkpt lat="46.74325" lon="6.37196">
        <ele>909.3</ele>
        <time>2020-09-29T08:35:31Z</time>
      </trkpt>
      <trkpt lat="46.7432" lon="6.37199">
        <ele>910.4</ele>
        <time>2020-09-29T08:35:37Z</time>
      </trkpt>
      <trkpt lat="46.74315" lon="6.37201">
        <ele>911.1</ele>
        <time>2020-09-29T08:35:43Z</time>
      </trkpt>
      <trkpt lat="46.74311" lon="6.37203">
        <ele>910.7</ele>
        <time>2020-09-29T08:35:47Z</time>
      </trkpt>
      <trkpt lat="46.74306" lon="6.37204">
        <ele>910</ele>
        <time>2020-09-29T08:35:52Z</time>
      </trkpt>
      <trkpt lat="46.74301" lon="6.37207">
        <ele>909.4</ele>
        <time>2020-09-29T08:35:56Z</time>
      </trkpt>
      <trkpt lat="46.74297" lon="6.3721">
        <ele>908.9</ele>
        <time>2020-09-29T08:36:00Z</time>
      </trkpt>
      <trkpt lat="46.74292" lon="6.37212">
        <ele>908</ele>
        <time>2020-09-29T08:36:05Z</time>
      </trkpt>
      <trkpt lat="46.74287" lon="6.37215">
        <ele>907.1</ele>
        <time>2020-09-29T08:36:10Z</time>
      </trkpt>
      <trkpt lat="46.74283" lon="6.37218">
        <ele>906.2</ele>
        <time>2020-09-29T08:36:15Z</time>
      </trkpt>
      <trkpt lat="46.74278" lon="6.37222">
        <ele>905.4</ele>
        <time>2020-09-29T08:36:20Z</time>
      </trkpt>
      <trkpt lat="46.74273" lon="6.37223">
        <ele>904.2</ele>
        <time>2020-09-29T08:36:26Z</time>
      </trkpt>
      <trkpt lat="46.74268" lon="6.37222">
        <ele>902.9</ele>
        <time>2020-09-29T08:36:31Z</time>
      </trkpt>
      <trkpt lat="46.74263" lon="6.37221">
        <ele>901.5</ele>
        <time>2020-09-29T08:36:36Z</time>
      </trkpt>
      <trkpt lat="46.74259" lon="6.37222">
        <ele>900.6</ele>
        <time>2020-09-29T08:36:40Z</time>
      </trkpt>
      <trkpt lat="46.74254" lon="6.37222">
        <ele>899.7</ele>
        <time>2020-09-29T08:36:44Z</time>
      </trkpt>
      <trkpt lat="46.74248" lon="6.37223">
        <ele>898.9</ele>
        <time>2020-09-29T08:36:49Z</time>
      </trkpt>
      <trkpt lat="46.74244" lon="6.37224">
        <ele>898.8</ele>
        <time>2020-09-29T08:36:53Z</time>
      </trkpt>
      <trkpt lat="46.74238" lon="6.37224">
        <ele>899</ele>
        <time>2020-09-29T08:36:58Z</time>
      </trkpt>
      <trkpt lat="46.74234" lon="6.37225">
        <ele>899.4</ele>
        <time>2020-09-29T08:37:02Z</time>
      </trkpt>
      <trkpt lat="46.74228" lon="6.37228">
        <ele>899.7</ele>
        <time>2020-09-29T08:37:07Z</time>
      </trkpt>
      <trkpt lat="46.74224" lon="6.37228">
        <ele>899.6</ele>
        <time>2020-09-29T08:37:11Z</time>
      </trkpt>
      <trkpt lat="46.74218" lon="6.37228">
        <ele>899</ele>
        <time>2020-09-29T08:37:15Z</time>
      </trkpt>
      <trkpt lat="46.74213" lon="6.37227">
        <ele>898.2</ele>
        <time>2020-09-29T08:37:20Z</time>
      </trkpt>
      <trkpt lat="46.74207" lon="6.37227">
        <ele>897.3</ele>
        <time>2020-09-29T08:37:25Z</time>
      </trkpt>
      <trkpt lat="46.74203" lon="6.37229">
        <ele>896.5</ele>
        <time>2020-09-29T08:37:29Z</time>
      </trkpt>
      <trkpt lat="46.74197" lon="6.37231">
        <ele>895.9</ele>
        <time>2020-09-29T08:37:33Z</time>
      </trkpt>
      <trkpt lat="46.74193" lon="6.3723">
        <ele>895.1</ele>
        <time>2020-09-29T08:37:37Z</time>
      </trkpt>
      <trkpt lat="46.74188" lon="6.3723">
        <ele>894.2</ele>
        <time>2020-09-29T08:37:42Z</time>
      </trkpt>
      <trkpt lat="46.74183" lon="6.37228">
        <ele>893.4</ele>
        <time>2020-09-29T08:37:48Z</time>
      </trkpt>
      <trkpt lat="46.74178" lon="6.37229">
        <ele>892.8</ele>
        <time>2020-09-29T08:37:53Z</time>
      </trkpt>
      <trkpt lat="46.74173" lon="6.37232">
        <ele>892.3</ele>
        <time>2020-09-29T08:37:57Z</time>
      </trkpt>
      <trkpt lat="46.74168" lon="6.37234">
        <ele>891.7</ele>
        <time>2020-09-29T08:38:01Z</time>
      </trkpt>
      <trkpt lat="46.74163" lon="6.37234">
        <ele>891</ele>
        <time>2020-09-29T08:38:05Z</time>
      </trkpt>
      <trkpt lat="46.74159" lon="6.37236">
        <ele>890.2</ele>
        <time>2020-09-29T08:38:09Z</time>
      </trkpt>
      <trkpt lat="46.74154" lon="6.37238">
        <ele>889.5</ele>
        <time>2020-09-29T08:38:13Z</time>
      </trkpt>
      <trkpt lat="46.74148" lon="6.37237">
        <ele>888.8</ele>
        <time>2020-09-29T08:38:18Z</time>
      </trkpt>
      <trkpt lat="46.74143" lon="6.37238">
        <ele>887.9</ele>
        <time>2020-09-29T08:38:23Z</time>
      </trkpt>
      <trkpt lat="46.74137" lon="6.37241">
        <ele>887</ele>
        <time>2020-09-29T08:38:27Z</time>
      </trkpt>
      <trkpt lat="46.74132" lon="6.37241">
        <ele>885.8</ele>
        <time>2020-09-29T08:38:32Z</time>
      </trkpt>
      <trkpt lat="46.74127" lon="6.37245">
        <ele>885</ele>
        <time>2020-09-29T08:38:36Z</time>
      </trkpt>
      <trkpt lat="46.74123" lon="6.37243">
        <ele>885</ele>
        <time>2020-09-29T08:38:42Z</time>
      </trkpt>
      <trkpt lat="46.74119" lon="6.37246">
        <ele>884.8</ele>
        <time>2020-09-29T08:38:47Z</time>
      </trkpt>
      <trkpt lat="46.74115" lon="6.3725">
        <ele>884.3</ele>
        <time>2020-09-29T08:38:51Z</time>
      </trkpt>
      <trkpt lat="46.74111" lon="6.37255">
        <ele>882.2</ele>
        <time>2020-09-29T08:38:58Z</time>
      </trkpt>
      <trkpt lat="46.74107" lon="6.37258">
        <ele>880.7</ele>
        <time>2020-09-29T08:39:02Z</time>
      </trkpt>
      <trkpt lat="46.74103" lon="6.37263">
        <ele>879.2</ele>
        <time>2020-09-29T08:39:07Z</time>
      </trkpt>
      <trkpt lat="46.74099" lon="6.37266">
        <ele>877.4</ele>
        <time>2020-09-29T08:39:14Z</time>
      </trkpt>
      <trkpt lat="46.74094" lon="6.37268">
        <ele>876.1</ele>
        <time>2020-09-29T08:39:19Z</time>
      </trkpt>
      <trkpt lat="46.74089" lon="6.3727">
        <ele>875.6</ele>
        <time>2020-09-29T08:39:23Z</time>
      </trkpt>
      <trkpt lat="46.74084" lon="6.37273">
        <ele>875.2</ele>
        <time>2020-09-29T08:39:28Z</time>
      </trkpt>
      <trkpt lat="46.7408" lon="6.37278">
        <ele>875.5</ele>
        <time>2020-09-29T08:39:32Z</time>
      </trkpt>
      <trkpt lat="46.74075" lon="6.37283">
        <ele>876.4</ele>
        <time>2020-09-29T08:39:37Z</time>
      </trkpt>
      <trkpt lat="46.74071" lon="6.37288">
        <ele>877</ele>
        <time>2020-09-29T08:39:43Z</time>
      </trkpt>
      <trkpt lat="46.74067" lon="6.37293">
        <ele>877.7</ele>
        <time>2020-09-29T08:39:47Z</time>
      </trkpt>
      <trkpt lat="46.74063" lon="6.37298">
        <ele>879.2</ele>
        <time>2020-09-29T08:39:52Z</time>
      </trkpt>
      <trkpt lat="46.74059" lon="6.37302">
        <ele>880.7</ele>
        <time>2020-09-29T08:39:56Z</time>
      </trkpt>
      <trkpt lat="46.74056" lon="6.37307">
        <ele>882.2</ele>
        <time>2020-09-29T08:40:00Z</time>
      </trkpt>
      <trkpt lat="46.74052" lon="6.37312">
        <ele>883.5</ele>
        <time>2020-09-29T08:40:04Z</time>
      </trkpt>
      <trkpt lat="46.74047" lon="6.37317">
        <ele>884.7</ele>
        <time>2020-09-29T08:40:08Z</time>
      </trkpt>
      <trkpt lat="46.74044" lon="6.37322">
        <ele>885.7</ele>
        <time>2020-09-29T08:40:11Z</time>
      </trkpt>
      <trkpt lat="46.74041" lon="6.37327">
        <ele>886.6</ele>
        <time>2020-09-29T08:40:14Z</time>
      </trkpt>
      <trkpt lat="46.74037" lon="6.37331">
        <ele>886.8</ele>
        <time>2020-09-29T08:40:19Z</time>
      </trkpt>
      <trkpt lat="46.74034" lon="6.37337">
        <ele>885.8</ele>
        <time>2020-09-29T08:40:25Z</time>
      </trkpt>
      <trkpt lat="46.74032" lon="6.37344">
        <ele>886</ele>
        <time>2020-09-29T08:40:30Z</time>
      </trkpt>
      <trkpt lat="46.74031" lon="6.37352">
        <ele>886.9</ele>
        <time>2020-09-29T08:40:35Z</time>
      </trkpt>
      <trkpt lat="46.74028" lon="6.37358">
        <ele>888.5</ele>
        <time>2020-09-29T08:40:40Z</time>
      </trkpt>
      <trkpt lat="46.74026" lon="6.37364">
        <ele>890.6</ele>
        <time>2020-09-29T08:40:45Z</time>
      </trkpt>
      <trkpt lat="46.74024" lon="6.37371">
        <ele>892.7</ele>
        <time>2020-09-29T08:40:49Z</time>
      </trkpt>
      <trkpt lat="46.74023" lon="6.37378">
        <ele>895.5</ele>
        <time>2020-09-29T08:40:54Z</time>
      </trkpt>
      <trkpt lat="46.74023" lon="6.37384">
        <ele>898.6</ele>
        <time>2020-09-29T08:41:00Z</time>
      </trkpt>
      <trkpt lat="46.74021" lon="6.3739">
        <ele>901.7</ele>
        <time>2020-09-29T08:41:06Z</time>
      </trkpt>
      <trkpt lat="46.74018" lon="6.37397">
        <ele>904.1</ele>
        <time>2020-09-29T08:41:11Z</time>
      </trkpt>
      <trkpt lat="46.74013" lon="6.374">
        <ele>905.3</ele>
        <time>2020-09-29T08:41:14Z</time>
      </trkpt>
      <trkpt lat="46.7401" lon="6.37404">
        <ele>906.1</ele>
        <time>2020-09-29T08:41:17Z</time>
      </trkpt>
      <trkpt lat="46.74008" lon="6.37411">
        <ele>906.4</ele>
        <time>2020-09-29T08:41:21Z</time>
      </trkpt>
      <trkpt lat="46.74003" lon="6.37413">
        <ele>906.6</ele>
        <time>2020-09-29T08:41:24Z</time>
      </trkpt>
      <trkpt lat="46.73999" lon="6.37415">
        <ele>906.6</ele>
        <time>2020-09-29T08:41:27Z</time>
      </trkpt>
      <trkpt lat="46.73993" lon="6.37415">
        <ele>906.5</ele>
        <time>2020-09-29T08:41:31Z</time>
      </trkpt>
      <trkpt lat="46.73986" lon="6.37412">
        <ele>905.3</ele>
        <time>2020-09-29T08:41:34Z</time>
      </trkpt>
      <trkpt lat="46.73981" lon="6.37412">
        <ele>903.2</ele>
        <time>2020-09-29T08:41:37Z</time>
      </trkpt>
      <trkpt lat="46.73977" lon="6.37416">
        <ele>899.6</ele>
        <time>2020-09-29T08:41:41Z</time>
      </trkpt>
      <trkpt lat="46.73973" lon="6.37422">
        <ele>896.3</ele>
        <time>2020-09-29T08:41:46Z</time>
      </trkpt>
      <trkpt lat="46.73969" lon="6.37425">
        <ele>894</ele>
        <time>2020-09-29T08:41:49Z</time>
      </trkpt>
      <trkpt lat="46.73966" lon="6.3743">
        <ele>891.7</ele>
        <time>2020-09-29T08:41:52Z</time>
      </trkpt>
      <trkpt lat="46.73964" lon="6.37436">
        <ele>889.8</ele>
        <time>2020-09-29T08:41:56Z</time>
      </trkpt>
      <trkpt lat="46.73961" lon="6.3744">
        <ele>888.8</ele>
        <time>2020-09-29T08:42:00Z</time>
      </trkpt>
      <trkpt lat="46.73956" lon="6.37443">
        <ele>888</ele>
        <time>2020-09-29T08:42:03Z</time>
      </trkpt>
      <trkpt lat="46.73952" lon="6.37446">
        <ele>887.3</ele>
        <time>2020-09-29T08:42:07Z</time>
      </trkpt>
      <trkpt lat="46.73948" lon="6.37452">
        <ele>886.8</ele>
        <time>2020-09-29T08:42:12Z</time>
      </trkpt>
      <trkpt lat="46.73944" lon="6.37457">
        <ele>886.9</ele>
        <time>2020-09-29T08:42:17Z</time>
      </trkpt>
      <trkpt lat="46.7394" lon="6.3746">
        <ele>887</ele>
        <time>2020-09-29T08:42:21Z</time>
      </trkpt>
      <trkpt lat="46.73936" lon="6.37465">
        <ele>885.5</ele>
        <time>2020-09-29T08:42:29Z</time>
      </trkpt>
      <trkpt lat="46.73932" lon="6.37469">
        <ele>884.8</ele>
        <time>2020-09-29T08:42:33Z</time>
      </trkpt>
      <trkpt lat="46.73928" lon="6.37475">
        <ele>885.5</ele>
        <time>2020-09-29T08:42:36Z</time>
      </trkpt>
      <trkpt lat="46.73924" lon="6.3748">
        <ele>886.1</ele>
        <time>2020-09-29T08:42:40Z</time>
      </trkpt>
      <trkpt lat="46.7392" lon="6.37484">
        <ele>886.4</ele>
        <time>2020-09-29T08:42:45Z</time>
      </trkpt>
      <trkpt lat="46.73915" lon="6.37488">
        <ele>886.7</ele>
        <time>2020-09-29T08:42:50Z</time>
      </trkpt>
      <trkpt lat="46.73911" lon="6.37492">
        <ele>886.7</ele>
        <time>2020-09-29T08:42:54Z</time>
      </trkpt>
      <trkpt lat="46.73906" lon="6.37494">
        <ele>886.5</ele>
        <time>2020-09-29T08:42:59Z</time>
      </trkpt>
      <trkpt lat="46.73902" lon="6.37497">
        <ele>886.1</ele>
        <time>2020-09-29T08:43:07Z</time>
      </trkpt>
      <trkpt lat="46.73897" lon="6.37501">
        <ele>885.4</ele>
        <time>2020-09-29T08:43:12Z</time>
      </trkpt>
      <trkpt lat="46.73892" lon="6.37502">
        <ele>885.3</ele>
        <time>2020-09-29T08:43:16Z</time>
      </trkpt>
      <trkpt lat="46.73886" lon="6.37502">
        <ele>884.4</ele>
        <time>2020-09-29T08:43:20Z</time>
      </trkpt>
      <trkpt lat="46.73881" lon="6.37503">
        <ele>883.6</ele>
        <time>2020-09-29T08:43:23Z</time>
      </trkpt>
      <trkpt lat="46.73876" lon="6.37505">
        <ele>882.7</ele>
        <time>2020-09-29T08:43:27Z</time>
      </trkpt>
      <trkpt lat="46.73872" lon="6.37507">
        <ele>881.7</ele>
        <time>2020-09-29T08:43:32Z</time>
      </trkpt>
      <trkpt lat="46.73867" lon="6.3751">
        <ele>880.7</ele>
        <time>2020-09-29T08:43:37Z</time>
      </trkpt>
      <trkpt lat="46.73862" lon="6.37513">
        <ele>880.4</ele>
        <time>2020-09-29T08:43:41Z</time>
      </trkpt>
      <trkpt lat="46.73857" lon="6.37514">
        <ele>880.1</ele>
        <time>2020-09-29T08:43:46Z</time>
      </trkpt>
      <trkpt lat="46.73852" lon="6.37515">
        <ele>879.7</ele>
        <time>2020-09-29T08:43:51Z</time>
      </trkpt>
      <trkpt lat="46.73848" lon="6.37515">
        <ele>879.1</ele>
        <time>2020-09-29T08:43:56Z</time>
      </trkpt>
      <trkpt lat="46.73842" lon="6.37517">
        <ele>878.6</ele>
        <time>2020-09-29T08:44:01Z</time>
      </trkpt>
      <trkpt lat="46.73837" lon="6.37519">
        <ele>878.3</ele>
        <time>2020-09-29T08:44:05Z</time>
      </trkpt>
      <trkpt lat="46.73832" lon="6.37521">
        <ele>877.9</ele>
        <time>2020-09-29T08:44:09Z</time>
      </trkpt>
      <trkpt lat="46.73827" lon="6.37522">
        <ele>877.3</ele>
        <time>2020-09-29T08:44:13Z</time>
      </trkpt>
      <trkpt lat="46.73821" lon="6.37522">
        <ele>876.3</ele>
        <time>2020-09-29T08:44:17Z</time>
      </trkpt>
      <trkpt lat="46.73815" lon="6.37524">
        <ele>873.7</ele>
        <time>2020-09-29T08:44:21Z</time>
      </trkpt>
      <trkpt lat="46.7381" lon="6.37526">
        <ele>871.3</ele>
        <time>2020-09-29T08:44:25Z</time>
      </trkpt>
      <trkpt lat="46.73804" lon="6.37528">
        <ele>868.4</ele>
        <time>2020-09-29T08:44:29Z</time>
      </trkpt>
      <trkpt lat="46.73799" lon="6.37531">
        <ele>864.8</ele>
        <time>2020-09-29T08:44:34Z</time>
      </trkpt>
      <trkpt lat="46.73795" lon="6.37534">
        <ele>861.6</ele>
        <time>2020-09-29T08:44:39Z</time>
      </trkpt>
      <trkpt lat="46.73791" lon="6.37535">
        <ele>859.3</ele>
        <time>2020-09-29T08:44:43Z</time>
      </trkpt>
      <trkpt lat="46.73786" lon="6.37539">
        <ele>857.2</ele>
        <time>2020-09-29T08:44:48Z</time>
      </trkpt>
      <trkpt lat="46.73781" lon="6.37542">
        <ele>855.2</ele>
        <time>2020-09-29T08:44:54Z</time>
      </trkpt>
      <trkpt lat="46.73777" lon="6.37546">
        <ele>853.2</ele>
        <time>2020-09-29T08:45:00Z</time>
      </trkpt>
      <trkpt lat="46.73773" lon="6.3755">
        <ele>851.4</ele>
        <time>2020-09-29T08:45:05Z</time>
      </trkpt>
      <trkpt lat="46.73768" lon="6.37552">
        <ele>850.1</ele>
        <time>2020-09-29T08:45:09Z</time>
      </trkpt>
      <trkpt lat="46.73764" lon="6.37556">
        <ele>849.9</ele>
        <time>2020-09-29T08:45:12Z</time>
      </trkpt>
      <trkpt lat="46.73757" lon="6.37568">
        <ele>856.3</ele>
        <time>2020-09-29T08:45:15Z</time>
      </trkpt>
      <trkpt lat="46.73753" lon="6.37573">
        <ele>860.3</ele>
        <time>2020-09-29T08:45:18Z</time>
      </trkpt>
      <trkpt lat="46.73749" lon="6.37578">
        <ele>863.6</ele>
        <time>2020-09-29T08:45:23Z</time>
      </trkpt>
      <trkpt lat="46.73744" lon="6.37582">
        <ele>864.6</ele>
        <time>2020-09-29T08:45:30Z</time>
      </trkpt>
      <trkpt lat="46.7374" lon="6.37587">
        <ele>864.1</ele>
        <time>2020-09-29T08:45:35Z</time>
      </trkpt>
      <trkpt lat="46.73736" lon="6.3759">
        <ele>863.4</ele>
        <time>2020-09-29T08:45:39Z</time>
      </trkpt>
      <trkpt lat="46.73732" lon="6.37595">
        <ele>862.5</ele>
        <time>2020-09-29T08:45:44Z</time>
      </trkpt>
      <trkpt lat="46.73729" lon="6.376">
        <ele>862.1</ele>
        <time>2020-09-29T08:45:48Z</time>
      </trkpt>
      <trkpt lat="46.73724" lon="6.37605">
        <ele>862</ele>
        <time>2020-09-29T08:45:52Z</time>
      </trkpt>
      <trkpt lat="46.73721" lon="6.37611">
        <ele>863.4</ele>
        <time>2020-09-29T08:45:56Z</time>
      </trkpt>
      <trkpt lat="46.73718" lon="6.37617">
        <ele>864.7</ele>
        <time>2020-09-29T08:46:00Z</time>
      </trkpt>
      <trkpt lat="46.73715" lon="6.37623">
        <ele>865.8</ele>
        <time>2020-09-29T08:46:04Z</time>
      </trkpt>
      <trkpt lat="46.73711" lon="6.37627">
        <ele>866.9</ele>
        <time>2020-09-29T08:46:09Z</time>
      </trkpt>
      <trkpt lat="46.73706" lon="6.37631">
        <ele>867.7</ele>
        <time>2020-09-29T08:46:13Z</time>
      </trkpt>
      <trkpt lat="46.73702" lon="6.37634">
        <ele>868.5</ele>
        <time>2020-09-29T08:46:17Z</time>
      </trkpt>
      <trkpt lat="46.73696" lon="6.37638">
        <ele>868.9</ele>
        <time>2020-09-29T08:46:22Z</time>
      </trkpt>
      <trkpt lat="46.73692" lon="6.37643">
        <ele>869.4</ele>
        <time>2020-09-29T08:46:26Z</time>
      </trkpt>
      <trkpt lat="46.73689" lon="6.37647">
        <ele>869.8</ele>
        <time>2020-09-29T08:46:30Z</time>
      </trkpt>
      <trkpt lat="46.73685" lon="6.37652">
        <ele>870.1</ele>
        <time>2020-09-29T08:46:34Z</time>
      </trkpt>
      <trkpt lat="46.73683" lon="6.37657">
        <ele>870.4</ele>
        <time>2020-09-29T08:46:38Z</time>
      </trkpt>
      <trkpt lat="46.73679" lon="6.37664">
        <ele>871.4</ele>
        <time>2020-09-29T08:46:44Z</time>
      </trkpt>
      <trkpt lat="46.73677" lon="6.37669">
        <ele>872</ele>
        <time>2020-09-29T08:46:48Z</time>
      </trkpt>
      <trkpt lat="46.73673" lon="6.37675">
        <ele>872.5</ele>
        <time>2020-09-29T08:46:53Z</time>
      </trkpt>
      <trkpt lat="46.73668" lon="6.37677">
        <ele>872.6</ele>
        <time>2020-09-29T08:46:58Z</time>
      </trkpt>
      <trkpt lat="46.73664" lon="6.37681">
        <ele>872.4</ele>
        <time>2020-09-29T08:47:03Z</time>
      </trkpt>
      <trkpt lat="46.73659" lon="6.37686">
        <ele>872.4</ele>
        <time>2020-09-29T08:47:08Z</time>
      </trkpt>
      <trkpt lat="46.73655" lon="6.37691">
        <ele>872.6</ele>
        <time>2020-09-29T08:47:12Z</time>
      </trkpt>
      <trkpt lat="46.73652" lon="6.37696">
        <ele>872.9</ele>
        <time>2020-09-29T08:47:16Z</time>
      </trkpt>
      <trkpt lat="46.73649" lon="6.37701">
        <ele>873.3</ele>
        <time>2020-09-29T08:47:20Z</time>
      </trkpt>
      <trkpt lat="46.73644" lon="6.37705">
        <ele>873.6</ele>
        <time>2020-09-29T08:47:24Z</time>
      </trkpt>
      <trkpt lat="46.7364" lon="6.37708">
        <ele>873.7</ele>
        <time>2020-09-29T08:47:28Z</time>
      </trkpt>
      <trkpt lat="46.73635" lon="6.37712">
        <ele>873.9</ele>
        <time>2020-09-29T08:47:32Z</time>
      </trkpt>
      <trkpt lat="46.73632" lon="6.37717">
        <ele>873.9</ele>
        <time>2020-09-29T08:47:37Z</time>
      </trkpt>
      <trkpt lat="46.73628" lon="6.37722">
        <ele>874.1</ele>
        <time>2020-09-29T08:47:42Z</time>
      </trkpt>
      <trkpt lat="46.73624" lon="6.37727">
        <ele>874.3</ele>
        <time>2020-09-29T08:47:45Z</time>
      </trkpt>
      <trkpt lat="46.73621" lon="6.37731">
        <ele>874.4</ele>
        <time>2020-09-29T08:47:49Z</time>
      </trkpt>
      <trkpt lat="46.73616" lon="6.37735">
        <ele>874.1</ele>
        <time>2020-09-29T08:47:54Z</time>
      </trkpt>
      <trkpt lat="46.73612" lon="6.37738">
        <ele>873.4</ele>
        <time>2020-09-29T08:47:58Z</time>
      </trkpt>
      <trkpt lat="46.73607" lon="6.37742">
        <ele>872.7</ele>
        <time>2020-09-29T08:48:02Z</time>
      </trkpt>
      <trkpt lat="46.73604" lon="6.37745">
        <ele>872</ele>
        <time>2020-09-29T08:48:06Z</time>
      </trkpt>
      <trkpt lat="46.73599" lon="6.37748">
        <ele>871.4</ele>
        <time>2020-09-29T08:48:10Z</time>
      </trkpt>
      <trkpt lat="46.73595" lon="6.37752">
        <ele>870.8</ele>
        <time>2020-09-29T08:48:15Z</time>
      </trkpt>
      <trkpt lat="46.7359" lon="6.37755">
        <ele>870.4</ele>
        <time>2020-09-29T08:48:21Z</time>
      </trkpt>
      <trkpt lat="46.73585" lon="6.37756">
        <ele>870.2</ele>
        <time>2020-09-29T08:48:26Z</time>
      </trkpt>
      <trkpt lat="46.7358" lon="6.37758">
        <ele>870.6</ele>
        <time>2020-09-29T08:48:31Z</time>
      </trkpt>
      <trkpt lat="46.73576" lon="6.37762">
        <ele>871.1</ele>
        <time>2020-09-29T08:48:35Z</time>
      </trkpt>
      <trkpt lat="46.73572" lon="6.37764">
        <ele>871.7</ele>
        <time>2020-09-29T08:48:41Z</time>
      </trkpt>
      <trkpt lat="46.73567" lon="6.37766">
        <ele>872.2</ele>
        <time>2020-09-29T08:48:47Z</time>
      </trkpt>
      <trkpt lat="46.73562" lon="6.37769">
        <ele>872.4</ele>
        <time>2020-09-29T08:48:52Z</time>
      </trkpt>
      <trkpt lat="46.73557" lon="6.37772">
        <ele>872.2</ele>
        <time>2020-09-29T08:48:56Z</time>
      </trkpt>
      <trkpt lat="46.73552" lon="6.37773">
        <ele>872</ele>
        <time>2020-09-29T08:48:59Z</time>
      </trkpt>
      <trkpt lat="46.73547" lon="6.37775">
        <ele>871.9</ele>
        <time>2020-09-29T08:49:03Z</time>
      </trkpt>
      <trkpt lat="46.73542" lon="6.37776">
        <ele>871.5</ele>
        <time>2020-09-29T08:49:07Z</time>
      </trkpt>
      <trkpt lat="46.73537" lon="6.37775">
        <ele>870.7</ele>
        <time>2020-09-29T08:49:12Z</time>
      </trkpt>
      <trkpt lat="46.73531" lon="6.37775">
        <ele>869.9</ele>
        <time>2020-09-29T08:49:17Z</time>
      </trkpt>
      <trkpt lat="46.73526" lon="6.37776">
        <ele>869.1</ele>
        <time>2020-09-29T08:49:21Z</time>
      </trkpt>
      <trkpt lat="46.73521" lon="6.37777">
        <ele>868.3</ele>
        <time>2020-09-29T08:49:26Z</time>
      </trkpt>
      <trkpt lat="46.73517" lon="6.37779">
        <ele>868.4</ele>
        <time>2020-09-29T08:49:35Z</time>
      </trkpt>
      <trkpt lat="46.73512" lon="6.37779">
        <ele>869.2</ele>
        <time>2020-09-29T08:49:42Z</time>
      </trkpt>
      <trkpt lat="46.73507" lon="6.37779">
        <ele>870.9</ele>
        <time>2020-09-29T08:49:48Z</time>
      </trkpt>
      <trkpt lat="46.73502" lon="6.37781">
        <ele>873.1</ele>
        <time>2020-09-29T08:49:55Z</time>
      </trkpt>
      <trkpt lat="46.73498" lon="6.37783">
        <ele>874.8</ele>
        <time>2020-09-29T08:50:02Z</time>
      </trkpt>
      <trkpt lat="46.73492" lon="6.37785">
        <ele>875.6</ele>
        <time>2020-09-29T08:50:08Z</time>
      </trkpt>
      <trkpt lat="46.73488" lon="6.37788">
        <ele>875.9</ele>
        <time>2020-09-29T08:50:13Z</time>
      </trkpt>
      <trkpt lat="46.73483" lon="6.3779">
        <ele>876</ele>
        <time>2020-09-29T08:50:17Z</time>
      </trkpt>
      <trkpt lat="46.73479" lon="6.37791">
        <ele>875.9</ele>
        <time>2020-09-29T08:50:22Z</time>
      </trkpt>
      <trkpt lat="46.73474" lon="6.37792">
        <ele>875.8</ele>
        <time>2020-09-29T08:50:29Z</time>
      </trkpt>
      <trkpt lat="46.73469" lon="6.37791">
        <ele>875.7</ele>
        <time>2020-09-29T08:50:33Z</time>
      </trkpt>
      <trkpt lat="46.73465" lon="6.37792">
        <ele>875.5</ele>
        <time>2020-09-29T08:50:37Z</time>
      </trkpt>
      <trkpt lat="46.7346" lon="6.37794">
        <ele>875.1</ele>
        <time>2020-09-29T08:50:41Z</time>
      </trkpt>
      <trkpt lat="46.73455" lon="6.37796">
        <ele>874.4</ele>
        <time>2020-09-29T08:50:46Z</time>
      </trkpt>
      <trkpt lat="46.73451" lon="6.37797">
        <ele>873.8</ele>
        <time>2020-09-29T08:50:50Z</time>
      </trkpt>
      <trkpt lat="46.73446" lon="6.378">
        <ele>873.3</ele>
        <time>2020-09-29T08:50:55Z</time>
      </trkpt>
      <trkpt lat="46.73441" lon="6.37802">
        <ele>873.4</ele>
        <time>2020-09-29T08:51:00Z</time>
      </trkpt>
      <trkpt lat="46.73436" lon="6.37802">
        <ele>873.7</ele>
        <time>2020-09-29T08:51:05Z</time>
      </trkpt>
      <trkpt lat="46.73431" lon="6.37802">
        <ele>873.5</ele>
        <time>2020-09-29T08:51:10Z</time>
      </trkpt>
      <trkpt lat="46.73426" lon="6.37802">
        <ele>873.1</ele>
        <time>2020-09-29T08:51:16Z</time>
      </trkpt>
      <trkpt lat="46.73421" lon="6.37804">
        <ele>872.7</ele>
        <time>2020-09-29T08:51:22Z</time>
      </trkpt>
      <trkpt lat="46.73416" lon="6.37805">
        <ele>871.7</ele>
        <time>2020-09-29T08:51:28Z</time>
      </trkpt>
      <trkpt lat="46.73413" lon="6.3781">
        <ele>870.4</ele>
        <time>2020-09-29T08:51:34Z</time>
      </trkpt>
      <trkpt lat="46.73408" lon="6.37814">
        <ele>869.5</ele>
        <time>2020-09-29T08:51:39Z</time>
      </trkpt>
      <trkpt lat="46.73404" lon="6.37818">
        <ele>868.7</ele>
        <time>2020-09-29T08:51:43Z</time>
      </trkpt>
      <trkpt lat="46.734" lon="6.37822">
        <ele>867.5</ele>
        <time>2020-09-29T08:51:46Z</time>
      </trkpt>
      <trkpt lat="46.73395" lon="6.37826">
        <ele>866.6</ele>
        <time>2020-09-29T08:51:49Z</time>
      </trkpt>
      <trkpt lat="46.73391" lon="6.37829">
        <ele>865.8</ele>
        <time>2020-09-29T08:51:52Z</time>
      </trkpt>
      <trkpt lat="46.73386" lon="6.37832">
        <ele>865.2</ele>
        <time>2020-09-29T08:51:56Z</time>
      </trkpt>
      <trkpt lat="46.73381" lon="6.37836">
        <ele>865</ele>
        <time>2020-09-29T08:52:01Z</time>
      </trkpt>
      <trkpt lat="46.73377" lon="6.37839">
        <ele>865.6</ele>
        <time>2020-09-29T08:52:07Z</time>
      </trkpt>
      <trkpt lat="46.73373" lon="6.37842">
        <ele>866.4</ele>
        <time>2020-09-29T08:52:11Z</time>
      </trkpt>
      <trkpt lat="46.73368" lon="6.37846">
        <ele>867.1</ele>
        <time>2020-09-29T08:52:15Z</time>
      </trkpt>
      <trkpt lat="46.73364" lon="6.37851">
        <ele>867.7</ele>
        <time>2020-09-29T08:52:19Z</time>
      </trkpt>
      <trkpt lat="46.7336" lon="6.37854">
        <ele>867.8</ele>
        <time>2020-09-29T08:52:23Z</time>
      </trkpt>
      <trkpt lat="46.73356" lon="6.37859">
        <ele>867.3</ele>
        <time>2020-09-29T08:52:28Z</time>
      </trkpt>
      <trkpt lat="46.73352" lon="6.37862">
        <ele>866.1</ele>
        <time>2020-09-29T08:52:34Z</time>
      </trkpt>
      <trkpt lat="46.73347" lon="6.37865">
        <ele>865.2</ele>
        <time>2020-09-29T08:52:39Z</time>
      </trkpt>
      <trkpt lat="46.73343" lon="6.37868">
        <ele>864.8</ele>
        <time>2020-09-29T08:52:43Z</time>
      </trkpt>
      <trkpt lat="46.73338" lon="6.37873">
        <ele>864.7</ele>
        <time>2020-09-29T08:52:47Z</time>
      </trkpt>
      <trkpt lat="46.73334" lon="6.37876">
        <ele>865.1</ele>
        <time>2020-09-29T08:52:52Z</time>
      </trkpt>
      <trkpt lat="46.73329" lon="6.3788">
        <ele>865.5</ele>
        <time>2020-09-29T08:52:57Z</time>
      </trkpt>
      <trkpt lat="46.73325" lon="6.37883">
        <ele>865.3</ele>
        <time>2020-09-29T08:53:01Z</time>
      </trkpt>
      <trkpt lat="46.73321" lon="6.37886">
        <ele>864.8</ele>
        <time>2020-09-29T08:53:06Z</time>
      </trkpt>
      <trkpt lat="46.73316" lon="6.3789">
        <ele>864.1</ele>
        <time>2020-09-29T08:53:12Z</time>
      </trkpt>
      <trkpt lat="46.73312" lon="6.37894">
        <ele>863.5</ele>
        <time>2020-09-29T08:53:19Z</time>
      </trkpt>
      <trkpt lat="46.73308" lon="6.37901">
        <ele>864.4</ele>
        <time>2020-09-29T08:54:19Z</time>
      </trkpt>
      <trkpt lat="46.73304" lon="6.37905">
        <ele>864.2</ele>
        <time>2020-09-29T08:54:24Z</time>
      </trkpt>
      <trkpt lat="46.733" lon="6.3791">
        <ele>864.2</ele>
        <time>2020-09-29T08:54:31Z</time>
      </trkpt>
      <trkpt lat="46.73297" lon="6.37914">
        <ele>863.7</ele>
        <time>2020-09-29T08:54:43Z</time>
      </trkpt>
      <trkpt lat="46.73291" lon="6.37914">
        <ele>863.1</ele>
        <time>2020-09-29T08:55:33Z</time>
      </trkpt>
      <trkpt lat="46.73287" lon="6.37918">
        <ele>864.2</ele>
        <time>2020-09-29T08:55:41Z</time>
      </trkpt>
      <trkpt lat="46.73283" lon="6.37922">
        <ele>864.9</ele>
        <time>2020-09-29T08:55:48Z</time>
      </trkpt>
      <trkpt lat="46.73279" lon="6.37926">
        <ele>865.5</ele>
        <time>2020-09-29T08:56:00Z</time>
      </trkpt>
      <trkpt lat="46.73276" lon="6.37931">
        <ele>865.7</ele>
        <time>2020-09-29T08:56:06Z</time>
      </trkpt>
      <trkpt lat="46.73272" lon="6.37934">
        <ele>863.3</ele>
        <time>2020-09-29T08:57:24Z</time>
      </trkpt>
      <trkpt lat="46.73267" lon="6.37938">
        <ele>862.5</ele>
        <time>2020-09-29T08:57:30Z</time>
      </trkpt>
      <trkpt lat="46.73263" lon="6.37941">
        <ele>862.3</ele>
        <time>2020-09-29T08:57:36Z</time>
      </trkpt>
      <trkpt lat="46.73259" lon="6.37945">
        <ele>862.5</ele>
        <time>2020-09-29T08:57:41Z</time>
      </trkpt>
      <trkpt lat="46.73255" lon="6.37949">
        <ele>862.7</ele>
        <time>2020-09-29T08:57:46Z</time>
      </trkpt>
      <trkpt lat="46.7325" lon="6.37951">
        <ele>863</ele>
        <time>2020-09-29T08:57:52Z</time>
      </trkpt>
      <trkpt lat="46.73246" lon="6.37955">
        <ele>863.3</ele>
        <time>2020-09-29T08:57:58Z</time>
      </trkpt>
      <trkpt lat="46.73241" lon="6.37958">
        <ele>863.7</ele>
        <time>2020-09-29T08:58:05Z</time>
      </trkpt>
      <trkpt lat="46.73237" lon="6.37961">
        <ele>864</ele>
        <time>2020-09-29T08:58:10Z</time>
      </trkpt>
      <trkpt lat="46.73233" lon="6.37964">
        <ele>864</ele>
        <time>2020-09-29T08:58:14Z</time>
      </trkpt>
      <trkpt lat="46.73229" lon="6.37968">
        <ele>863.9</ele>
        <time>2020-09-29T08:58:19Z</time>
      </trkpt>
      <trkpt lat="46.73225" lon="6.37972">
        <ele>864</ele>
        <time>2020-09-29T08:58:24Z</time>
      </trkpt>
      <trkpt lat="46.73221" lon="6.37975">
        <ele>864.1</ele>
        <time>2020-09-29T08:58:30Z</time>
      </trkpt>
      <trkpt lat="46.73217" lon="6.3798">
        <ele>864.3</ele>
        <time>2020-09-29T08:58:34Z</time>
      </trkpt>
      <trkpt lat="46.73214" lon="6.37984">
        <ele>864.5</ele>
        <time>2020-09-29T08:58:38Z</time>
      </trkpt>
      <trkpt lat="46.73209" lon="6.37988">
        <ele>864.6</ele>
        <time>2020-09-29T08:58:43Z</time>
      </trkpt>
      <trkpt lat="46.73205" lon="6.37992">
        <ele>864.6</ele>
        <time>2020-09-29T08:58:48Z</time>
      </trkpt>
      <trkpt lat="46.73201" lon="6.37997">
        <ele>864.5</ele>
        <time>2020-09-29T08:58:53Z</time>
      </trkpt>
      <trkpt lat="46.73196" lon="6.38">
        <ele>864.5</ele>
        <time>2020-09-29T08:58:58Z</time>
      </trkpt>
      <trkpt lat="46.73192" lon="6.38004">
        <ele>864.5</ele>
        <time>2020-09-29T08:59:02Z</time>
      </trkpt>
      <trkpt lat="46.73188" lon="6.38008">
        <ele>864.5</ele>
        <time>2020-09-29T08:59:06Z</time>
      </trkpt>
      <trkpt lat="46.73184" lon="6.38012">
        <ele>864.3</ele>
        <time>2020-09-29T08:59:11Z</time>
      </trkpt>
      <trkpt lat="46.73179" lon="6.38016">
        <ele>864</ele>
        <time>2020-09-29T08:59:16Z</time>
      </trkpt>
      <trkpt lat="46.73174" lon="6.38019">
        <ele>863.8</ele>
        <time>2020-09-29T08:59:21Z</time>
      </trkpt>
      <trkpt lat="46.7317" lon="6.38022">
        <ele>863.5</ele>
        <time>2020-09-29T08:59:25Z</time>
      </trkpt>
      <trkpt lat="46.73165" lon="6.38026">
        <ele>863.2</ele>
        <time>2020-09-29T08:59:29Z</time>
      </trkpt>
      <trkpt lat="46.73161" lon="6.3803">
        <ele>863.2</ele>
        <time>2020-09-29T08:59:33Z</time>
      </trkpt>
      <trkpt lat="46.73157" lon="6.38035">
        <ele>863.2</ele>
        <time>2020-09-29T08:59:38Z</time>
      </trkpt>
      <trkpt lat="46.73153" lon="6.38039">
        <ele>862.7</ele>
        <time>2020-09-29T08:59:43Z</time>
      </trkpt>
      <trkpt lat="46.73149" lon="6.38042">
        <ele>862.2</ele>
        <time>2020-09-29T08:59:47Z</time>
      </trkpt>
      <trkpt lat="46.73144" lon="6.38046">
        <ele>861.9</ele>
        <time>2020-09-29T08:59:51Z</time>
      </trkpt>
      <trkpt lat="46.7314" lon="6.3805">
        <ele>861.3</ele>
        <time>2020-09-29T08:59:57Z</time>
      </trkpt>
      <trkpt lat="46.73136" lon="6.38054">
        <ele>860.7</ele>
        <time>2020-09-29T09:00:03Z</time>
      </trkpt>
      <trkpt lat="46.73132" lon="6.38059">
        <ele>860.4</ele>
        <time>2020-09-29T09:00:07Z</time>
      </trkpt>
      <trkpt lat="46.73128" lon="6.38062">
        <ele>860.2</ele>
        <time>2020-09-29T09:00:10Z</time>
      </trkpt>
      <trkpt lat="46.73124" lon="6.38066">
        <ele>860.1</ele>
        <time>2020-09-29T09:00:14Z</time>
      </trkpt>
      <trkpt lat="46.73119" lon="6.38069">
        <ele>859.7</ele>
        <time>2020-09-29T09:00:19Z</time>
      </trkpt>
      <trkpt lat="46.73115" lon="6.38074">
        <ele>859.2</ele>
        <time>2020-09-29T09:00:26Z</time>
      </trkpt>
      <trkpt lat="46.73111" lon="6.38078">
        <ele>858.9</ele>
        <time>2020-09-29T09:00:32Z</time>
      </trkpt>
      <trkpt lat="46.73106" lon="6.38081">
        <ele>858.8</ele>
        <time>2020-09-29T09:00:37Z</time>
      </trkpt>
      <trkpt lat="46.73101" lon="6.38086">
        <ele>859</ele>
        <time>2020-09-29T09:00:41Z</time>
      </trkpt>
      <trkpt lat="46.73098" lon="6.38091">
        <ele>859.4</ele>
        <time>2020-09-29T09:00:46Z</time>
      </trkpt>
      <trkpt lat="46.73094" lon="6.38095">
        <ele>859.8</ele>
        <time>2020-09-29T09:00:50Z</time>
      </trkpt>
      <trkpt lat="46.73089" lon="6.38099">
        <ele>860</ele>
        <time>2020-09-29T09:00:54Z</time>
      </trkpt>
      <trkpt lat="46.73085" lon="6.38104">
        <ele>860</ele>
        <time>2020-09-29T09:00:58Z</time>
      </trkpt>
      <trkpt lat="46.7308" lon="6.38108">
        <ele>859.2</ele>
        <time>2020-09-29T09:01:06Z</time>
      </trkpt>
      <trkpt lat="46.73077" lon="6.38113">
        <ele>858.5</ele>
        <time>2020-09-29T09:01:12Z</time>
      </trkpt>
      <trkpt lat="46.73074" lon="6.38118">
        <ele>858.2</ele>
        <time>2020-09-29T09:01:17Z</time>
      </trkpt>
      <trkpt lat="46.7307" lon="6.38122">
        <ele>857.7</ele>
        <time>2020-09-29T09:01:22Z</time>
      </trkpt>
      <trkpt lat="46.73065" lon="6.38125">
        <ele>857.5</ele>
        <time>2020-09-29T09:01:28Z</time>
      </trkpt>
      <trkpt lat="46.73062" lon="6.3813">
        <ele>857.5</ele>
        <time>2020-09-29T09:01:36Z</time>
      </trkpt>
      <trkpt lat="46.73058" lon="6.38134">
        <ele>857.4</ele>
        <time>2020-09-29T09:01:43Z</time>
      </trkpt>
      <trkpt lat="46.73055" lon="6.3814">
        <ele>857.3</ele>
        <time>2020-09-29T09:01:48Z</time>
      </trkpt>
      <trkpt lat="46.73052" lon="6.38145">
        <ele>857</ele>
        <time>2020-09-29T09:01:54Z</time>
      </trkpt>
      <trkpt lat="46.73049" lon="6.3815">
        <ele>856.8</ele>
        <time>2020-09-29T09:02:00Z</time>
      </trkpt>
      <trkpt lat="46.73045" lon="6.38156">
        <ele>856.5</ele>
        <time>2020-09-29T09:02:05Z</time>
      </trkpt>
      <trkpt lat="46.73042" lon="6.38161">
        <ele>856.5</ele>
        <time>2020-09-29T09:02:09Z</time>
      </trkpt>
      <trkpt lat="46.73038" lon="6.38166">
        <ele>856.4</ele>
        <time>2020-09-29T09:02:14Z</time>
      </trkpt>
      <trkpt lat="46.73037" lon="6.38172">
        <ele>856.2</ele>
        <time>2020-09-29T09:02:21Z</time>
      </trkpt>
      <trkpt lat="46.73034" lon="6.38178">
        <ele>855.6</ele>
        <time>2020-09-29T09:02:28Z</time>
      </trkpt>
      <trkpt lat="46.73031" lon="6.38183">
        <ele>855.6</ele>
        <time>2020-09-29T09:02:32Z</time>
      </trkpt>
      <trkpt lat="46.73028" lon="6.3819">
        <ele>855.7</ele>
        <time>2020-09-29T09:02:37Z</time>
      </trkpt>
      <trkpt lat="46.73025" lon="6.38195">
        <ele>856.3</ele>
        <time>2020-09-29T09:02:41Z</time>
      </trkpt>
      <trkpt lat="46.73021" lon="6.38199">
        <ele>856.8</ele>
        <time>2020-09-29T09:02:46Z</time>
      </trkpt>
      <trkpt lat="46.73018" lon="6.38205">
        <ele>856.6</ele>
        <time>2020-09-29T09:02:52Z</time>
      </trkpt>
      <trkpt lat="46.73016" lon="6.38212">
        <ele>856.9</ele>
        <time>2020-09-29T09:02:57Z</time>
      </trkpt>
      <trkpt lat="46.73016" lon="6.38219">
        <ele>857</ele>
        <time>2020-09-29T09:03:03Z</time>
      </trkpt>
      <trkpt lat="46.73014" lon="6.38226">
        <ele>856.8</ele>
        <time>2020-09-29T09:03:10Z</time>
      </trkpt>
      <trkpt lat="46.73012" lon="6.38231">
        <ele>856.4</ele>
        <time>2020-09-29T09:03:14Z</time>
      </trkpt>
      <trkpt lat="46.73008" lon="6.38236">
        <ele>856</ele>
        <time>2020-09-29T09:03:19Z</time>
      </trkpt>
      <trkpt lat="46.73004" lon="6.38241">
        <ele>855.7</ele>
        <time>2020-09-29T09:03:24Z</time>
      </trkpt>
      <trkpt lat="46.73001" lon="6.38245">
        <ele>855.9</ele>
        <time>2020-09-29T09:03:42Z</time>
      </trkpt>
      <trkpt lat="46.72996" lon="6.38244">
        <ele>856</ele>
        <time>2020-09-29T09:03:49Z</time>
      </trkpt>
      <trkpt lat="46.72993" lon="6.38239">
        <ele>856</ele>
        <time>2020-09-29T09:03:57Z</time>
      </trkpt>
      <trkpt lat="46.72989" lon="6.38236">
        <ele>855.7</ele>
        <time>2020-09-29T09:04:05Z</time>
      </trkpt>
      <trkpt lat="46.72991" lon="6.38242">
        <ele>854.8</ele>
        <time>2020-09-29T09:04:20Z</time>
      </trkpt>
      <trkpt lat="46.72991" lon="6.38249">
        <ele>854.6</ele>
        <time>2020-09-29T09:04:28Z</time>
      </trkpt>
      <trkpt lat="46.7299" lon="6.38256">
        <ele>854.2</ele>
        <time>2020-09-29T09:04:35Z</time>
      </trkpt>
      <trkpt lat="46.72988" lon="6.38262">
        <ele>852</ele>
        <time>2020-09-29T09:04:48Z</time>
      </trkpt>
      <trkpt lat="46.72986" lon="6.38268">
        <ele>849.6</ele>
        <time>2020-09-29T09:04:58Z</time>
      </trkpt>
      <trkpt lat="46.72982" lon="6.38273">
        <ele>848.1</ele>
        <time>2020-09-29T09:05:05Z</time>
      </trkpt>
      <trkpt lat="46.72979" lon="6.38279">
        <ele>847.2</ele>
        <time>2020-09-29T09:05:11Z</time>
      </trkpt>
      <trkpt lat="46.72977" lon="6.38285">
        <ele>846.4</ele>
        <time>2020-09-29T09:05:17Z</time>
      </trkpt>
      <trkpt lat="46.72977" lon="6.38292">
        <ele>846.1</ele>
        <time>2020-09-29T09:05:21Z</time>
      </trkpt>
      <trkpt lat="46.72976" lon="6.38299">
        <ele>845.9</ele>
        <time>2020-09-29T09:05:26Z</time>
      </trkpt>
      <trkpt lat="46.72976" lon="6.38306">
        <ele>845.9</ele>
        <time>2020-09-29T09:05:32Z</time>
      </trkpt>
      <trkpt lat="46.72976" lon="6.38312">
        <ele>845.8</ele>
        <time>2020-09-29T09:05:39Z</time>
      </trkpt>
      <trkpt lat="46.72973" lon="6.38318">
        <ele>845.7</ele>
        <time>2020-09-29T09:05:45Z</time>
      </trkpt>
      <trkpt lat="46.72971" lon="6.38325">
        <ele>845.7</ele>
        <time>2020-09-29T09:05:50Z</time>
      </trkpt>
      <trkpt lat="46.72972" lon="6.38332">
        <ele>846</ele>
        <time>2020-09-29T09:05:55Z</time>
      </trkpt>
      <trkpt lat="46.72973" lon="6.38338">
        <ele>846.5</ele>
        <time>2020-09-29T09:06:02Z</time>
      </trkpt>
      <trkpt lat="46.72975" lon="6.38345">
        <ele>846.8</ele>
        <time>2020-09-29T09:06:06Z</time>
      </trkpt>
      <trkpt lat="46.72978" lon="6.38353">
        <ele>847</ele>
        <time>2020-09-29T09:06:10Z</time>
      </trkpt>
      <trkpt lat="46.72978" lon="6.3836">
        <ele>846.8</ele>
        <time>2020-09-29T09:06:15Z</time>
      </trkpt>
      <trkpt lat="46.72976" lon="6.38366">
        <ele>846.5</ele>
        <time>2020-09-29T09:06:20Z</time>
      </trkpt>
      <trkpt lat="46.72975" lon="6.38374">
        <ele>845.8</ele>
        <time>2020-09-29T09:06:28Z</time>
      </trkpt>
      <trkpt lat="46.72973" lon="6.3838">
        <ele>844.9</ele>
        <time>2020-09-29T09:06:34Z</time>
      </trkpt>
      <trkpt lat="46.7297" lon="6.38386">
        <ele>844.2</ele>
        <time>2020-09-29T09:06:39Z</time>
      </trkpt>
      <trkpt lat="46.72969" lon="6.38393">
        <ele>843.3</ele>
        <time>2020-09-29T09:06:45Z</time>
      </trkpt>
      <trkpt lat="46.7297" lon="6.384">
        <ele>843.1</ele>
        <time>2020-09-29T09:06:50Z</time>
      </trkpt>
      <trkpt lat="46.72972" lon="6.38406">
        <ele>843.4</ele>
        <time>2020-09-29T09:06:55Z</time>
      </trkpt>
      <trkpt lat="46.72972" lon="6.38413">
        <ele>843.6</ele>
        <time>2020-09-29T09:07:00Z</time>
      </trkpt>
      <trkpt lat="46.72973" lon="6.3842">
        <ele>843.9</ele>
        <time>2020-09-29T09:07:06Z</time>
      </trkpt>
      <trkpt lat="46.72973" lon="6.38427">
        <ele>844.1</ele>
        <time>2020-09-29T09:07:14Z</time>
      </trkpt>
      <trkpt lat="46.72972" lon="6.38434">
        <ele>844</ele>
        <time>2020-09-29T09:07:20Z</time>
      </trkpt>
      <trkpt lat="46.72969" lon="6.3844">
        <ele>844</ele>
        <time>2020-09-29T09:07:26Z</time>
      </trkpt>
      <trkpt lat="46.72966" lon="6.38447">
        <ele>844</ele>
        <time>2020-09-29T09:07:32Z</time>
      </trkpt>
      <trkpt lat="46.72965" lon="6.38455">
        <ele>844.2</ele>
        <time>2020-09-29T09:07:37Z</time>
      </trkpt>
      <trkpt lat="46.72964" lon="6.38461">
        <ele>844.3</ele>
        <time>2020-09-29T09:07:42Z</time>
      </trkpt>
      <trkpt lat="46.72963" lon="6.38468">
        <ele>844.3</ele>
        <time>2020-09-29T09:07:46Z</time>
      </trkpt>
      <trkpt lat="46.72961" lon="6.38475">
        <ele>844.3</ele>
        <time>2020-09-29T09:07:49Z</time>
      </trkpt>
      <trkpt lat="46.72959" lon="6.38482">
        <ele>844.6</ele>
        <time>2020-09-29T09:07:54Z</time>
      </trkpt>
      <trkpt lat="46.72959" lon="6.38489">
        <ele>845.1</ele>
        <time>2020-09-29T09:07:59Z</time>
      </trkpt>
      <trkpt lat="46.72959" lon="6.38496">
        <ele>845.3</ele>
        <time>2020-09-29T09:08:03Z</time>
      </trkpt>
      <trkpt lat="46.72956" lon="6.38502">
        <ele>845.6</ele>
        <time>2020-09-29T09:08:08Z</time>
      </trkpt>
      <trkpt lat="46.72956" lon="6.38509">
        <ele>846.3</ele>
        <time>2020-09-29T09:08:13Z</time>
      </trkpt>
      <trkpt lat="46.72956" lon="6.38516">
        <ele>847</ele>
        <time>2020-09-29T09:08:19Z</time>
      </trkpt>
      <trkpt lat="46.72955" lon="6.38524">
        <ele>847.3</ele>
        <time>2020-09-29T09:08:25Z</time>
      </trkpt>
      <trkpt lat="46.72954" lon="6.38531">
        <ele>847.7</ele>
        <time>2020-09-29T09:08:29Z</time>
      </trkpt>
      <trkpt lat="46.72953" lon="6.38538">
        <ele>847.8</ele>
        <time>2020-09-29T09:08:34Z</time>
      </trkpt>
      <trkpt lat="46.72953" lon="6.38546">
        <ele>848</ele>
        <time>2020-09-29T09:08:41Z</time>
      </trkpt>
      <trkpt lat="46.72951" lon="6.38553">
        <ele>848.1</ele>
        <time>2020-09-29T09:08:46Z</time>
      </trkpt>
      <trkpt lat="46.7295" lon="6.38561">
        <ele>848.2</ele>
        <time>2020-09-29T09:08:51Z</time>
      </trkpt>
      <trkpt lat="46.7295" lon="6.38568">
        <ele>848.1</ele>
        <time>2020-09-29T09:08:56Z</time>
      </trkpt>
      <trkpt lat="46.72949" lon="6.38575">
        <ele>847.8</ele>
        <time>2020-09-29T09:09:04Z</time>
      </trkpt>
      <trkpt lat="46.72949" lon="6.38582">
        <ele>847.5</ele>
        <time>2020-09-29T09:09:10Z</time>
      </trkpt>
      <trkpt lat="46.72949" lon="6.38591">
        <ele>847.1</ele>
        <time>2020-09-29T09:09:15Z</time>
      </trkpt>
      <trkpt lat="46.72948" lon="6.38599">
        <ele>846.6</ele>
        <time>2020-09-29T09:09:19Z</time>
      </trkpt>
      <trkpt lat="46.72947" lon="6.38605">
        <ele>845.9</ele>
        <time>2020-09-29T09:09:24Z</time>
      </trkpt>
      <trkpt lat="46.72945" lon="6.38612">
        <ele>844.7</ele>
        <time>2020-09-29T09:09:32Z</time>
      </trkpt>
      <trkpt lat="46.72943" lon="6.38619">
        <ele>843.9</ele>
        <time>2020-09-29T09:09:37Z</time>
      </trkpt>
      <trkpt lat="46.72942" lon="6.38625">
        <ele>843.4</ele>
        <time>2020-09-29T09:09:41Z</time>
      </trkpt>
      <trkpt lat="46.72941" lon="6.38632">
        <ele>842.7</ele>
        <time>2020-09-29T09:09:46Z</time>
      </trkpt>
      <trkpt lat="46.7294" lon="6.38639">
        <ele>842.1</ele>
        <time>2020-09-29T09:09:51Z</time>
      </trkpt>
      <trkpt lat="46.72938" lon="6.38645">
        <ele>841.5</ele>
        <time>2020-09-29T09:09:57Z</time>
      </trkpt>
      <trkpt lat="46.72935" lon="6.38651">
        <ele>840.7</ele>
        <time>2020-09-29T09:10:03Z</time>
      </trkpt>
      <trkpt lat="46.72933" lon="6.38659">
        <ele>840.2</ele>
        <time>2020-09-29T09:10:09Z</time>
      </trkpt>
      <trkpt lat="46.72933" lon="6.38666">
        <ele>839.8</ele>
        <time>2020-09-29T09:10:14Z</time>
      </trkpt>
      <trkpt lat="46.72931" lon="6.38673">
        <ele>839.6</ele>
        <time>2020-09-29T09:10:21Z</time>
      </trkpt>
      <trkpt lat="46.72928" lon="6.38678">
        <ele>839.4</ele>
        <time>2020-09-29T09:10:29Z</time>
      </trkpt>
      <trkpt lat="46.72926" lon="6.38684">
        <ele>839.2</ele>
        <time>2020-09-29T09:10:34Z</time>
      </trkpt>
      <trkpt lat="46.72923" lon="6.38689">
        <ele>838.7</ele>
        <time>2020-09-29T09:10:39Z</time>
      </trkpt>
      <trkpt lat="46.7292" lon="6.38695">
        <ele>838.2</ele>
        <time>2020-09-29T09:10:45Z</time>
      </trkpt>
      <trkpt lat="46.72918" lon="6.38702">
        <ele>838</ele>
        <time>2020-09-29T09:10:50Z</time>
      </trkpt>
      <trkpt lat="46.72915" lon="6.38708">
        <ele>837.8</ele>
        <time>2020-09-29T09:10:54Z</time>
      </trkpt>
      <trkpt lat="46.72912" lon="6.38714">
        <ele>837.8</ele>
        <time>2020-09-29T09:10:58Z</time>
      </trkpt>
      <trkpt lat="46.72909" lon="6.3872">
        <ele>837.7</ele>
        <time>2020-09-29T09:11:05Z</time>
      </trkpt>
      <trkpt lat="46.72907" lon="6.38725">
        <ele>838.4</ele>
        <time>2020-09-29T09:11:15Z</time>
      </trkpt>
      <trkpt lat="46.72904" lon="6.38731">
        <ele>839.8</ele>
        <time>2020-09-29T09:11:22Z</time>
      </trkpt>
      <trkpt lat="46.72902" lon="6.38739">
        <ele>840.7</ele>
        <time>2020-09-29T09:11:26Z</time>
      </trkpt>
      <trkpt lat="46.72899" lon="6.38745">
        <ele>841.7</ele>
        <time>2020-09-29T09:11:34Z</time>
      </trkpt>
      <trkpt lat="46.72894" lon="6.38751">
        <ele>841.1</ele>
        <time>2020-09-29T09:12:35Z</time>
      </trkpt>
      <trkpt lat="46.72891" lon="6.38757">
        <ele>840.4</ele>
        <time>2020-09-29T09:12:39Z</time>
      </trkpt>
      <trkpt lat="46.72888" lon="6.38762">
        <ele>839.8</ele>
        <time>2020-09-29T09:12:48Z</time>
      </trkpt>
      <trkpt lat="46.72887" lon="6.38769">
        <ele>839.4</ele>
        <time>2020-09-29T09:12:57Z</time>
      </trkpt>
      <trkpt lat="46.72885" lon="6.38775">
        <ele>839</ele>
        <time>2020-09-29T09:13:03Z</time>
      </trkpt>
      <trkpt lat="46.72883" lon="6.38782">
        <ele>839.2</ele>
        <time>2020-09-29T09:13:10Z</time>
      </trkpt>
      <trkpt lat="46.7288" lon="6.38787">
        <ele>838.1</ele>
        <time>2020-09-29T09:13:19Z</time>
      </trkpt>
      <trkpt lat="46.72876" lon="6.38793">
        <ele>837.6</ele>
        <time>2020-09-29T09:13:27Z</time>
      </trkpt>
      <trkpt lat="46.72873" lon="6.38798">
        <ele>837.6</ele>
        <time>2020-09-29T09:13:33Z</time>
      </trkpt>
      <trkpt lat="46.7287" lon="6.38803">
        <ele>837.4</ele>
        <time>2020-09-29T09:13:38Z</time>
      </trkpt>
      <trkpt lat="46.72866" lon="6.38808">
        <ele>837</ele>
        <time>2020-09-29T09:13:44Z</time>
      </trkpt>
      <trkpt lat="46.72861" lon="6.38811">
        <ele>836.5</ele>
        <time>2020-09-29T09:13:49Z</time>
      </trkpt>
      <trkpt lat="46.72857" lon="6.38814">
        <ele>836</ele>
        <time>2020-09-29T09:13:54Z</time>
      </trkpt>
      <trkpt lat="46.72854" lon="6.3882">
        <ele>836.1</ele>
        <time>2020-09-29T09:14:00Z</time>
      </trkpt>
      <trkpt lat="46.72852" lon="6.38826">
        <ele>836.2</ele>
        <time>2020-09-29T09:14:05Z</time>
      </trkpt>
      <trkpt lat="46.72849" lon="6.38832">
        <ele>835.8</ele>
        <time>2020-09-29T09:14:10Z</time>
      </trkpt>
      <trkpt lat="46.72845" lon="6.38835">
        <ele>835.7</ele>
        <time>2020-09-29T09:14:16Z</time>
      </trkpt>
      <trkpt lat="46.72839" lon="6.38836">
        <ele>835.7</ele>
        <time>2020-09-29T09:14:23Z</time>
      </trkpt>
      <trkpt lat="46.72835" lon="6.38839">
        <ele>835.6</ele>
        <time>2020-09-29T09:14:29Z</time>
      </trkpt>
      <trkpt lat="46.72831" lon="6.38843">
        <ele>835.8</ele>
        <time>2020-09-29T09:14:34Z</time>
      </trkpt>
      <trkpt lat="46.72826" lon="6.38847">
        <ele>836</ele>
        <time>2020-09-29T09:14:39Z</time>
      </trkpt>
      <trkpt lat="46.72822" lon="6.3885">
        <ele>836.5</ele>
        <time>2020-09-29T09:14:43Z</time>
      </trkpt>
      <trkpt lat="46.72817" lon="6.38854">
        <ele>837.3</ele>
        <time>2020-09-29T09:14:47Z</time>
      </trkpt>
      <trkpt lat="46.72813" lon="6.38855">
        <ele>837.6</ele>
        <time>2020-09-29T09:14:51Z</time>
      </trkpt>
      <trkpt lat="46.72809" lon="6.38852">
        <ele>835.8</ele>
        <time>2020-09-29T09:14:58Z</time>
      </trkpt>
      <trkpt lat="46.72804" lon="6.38857">
        <ele>834.2</ele>
        <time>2020-09-29T09:15:03Z</time>
      </trkpt>
      <trkpt lat="46.728" lon="6.38862">
        <ele>832.8</ele>
        <time>2020-09-29T09:15:07Z</time>
      </trkpt>
      <trkpt lat="46.72796" lon="6.38865">
        <ele>831</ele>
        <time>2020-09-29T09:15:13Z</time>
      </trkpt>
      <trkpt lat="46.72791" lon="6.38868">
        <ele>829.7</ele>
        <time>2020-09-29T09:15:18Z</time>
      </trkpt>
      <trkpt lat="46.72787" lon="6.38871">
        <ele>828.7</ele>
        <time>2020-09-29T09:15:24Z</time>
      </trkpt>
      <trkpt lat="46.72782" lon="6.38874">
        <ele>831</ele>
        <time>2020-09-29T09:15:29Z</time>
      </trkpt>
      <trkpt lat="46.72777" lon="6.38879">
        <ele>835.3</ele>
        <time>2020-09-29T09:15:32Z</time>
      </trkpt>
      <trkpt lat="46.72773" lon="6.38883">
        <ele>839.1</ele>
        <time>2020-09-29T09:15:35Z</time>
      </trkpt>
      <trkpt lat="46.72768" lon="6.38886">
        <ele>842.4</ele>
        <time>2020-09-29T09:15:39Z</time>
      </trkpt>
      <trkpt lat="46.72763" lon="6.3889">
        <ele>844.4</ele>
        <time>2020-09-29T09:15:44Z</time>
      </trkpt>
      <trkpt lat="46.72758" lon="6.38892">
        <ele>845.1</ele>
        <time>2020-09-29T09:15:51Z</time>
      </trkpt>
      <trkpt lat="46.72754" lon="6.38894">
        <ele>845</ele>
        <time>2020-09-29T09:15:55Z</time>
      </trkpt>
      <trkpt lat="46.7275" lon="6.38896">
        <ele>844.6</ele>
        <time>2020-09-29T09:15:59Z</time>
      </trkpt>
      <trkpt lat="46.72744" lon="6.38899">
        <ele>843.9</ele>
        <time>2020-09-29T09:16:04Z</time>
      </trkpt>
      <trkpt lat="46.72739" lon="6.389">
        <ele>843</ele>
        <time>2020-09-29T09:16:09Z</time>
      </trkpt>
      <trkpt lat="46.72735" lon="6.38903">
        <ele>842.3</ele>
        <time>2020-09-29T09:16:14Z</time>
      </trkpt>
      <trkpt lat="46.7273" lon="6.38904">
        <ele>841.5</ele>
        <time>2020-09-29T09:16:19Z</time>
      </trkpt>
      <trkpt lat="46.72724" lon="6.38905">
        <ele>840.6</ele>
        <time>2020-09-29T09:16:24Z</time>
      </trkpt>
      <trkpt lat="46.72719" lon="6.38906">
        <ele>839.3</ele>
        <time>2020-09-29T09:16:29Z</time>
      </trkpt>
      <trkpt lat="46.72714" lon="6.38907">
        <ele>838.3</ele>
        <time>2020-09-29T09:16:34Z</time>
      </trkpt>
      <trkpt lat="46.72709" lon="6.38906">
        <ele>837.2</ele>
        <time>2020-09-29T09:16:41Z</time>
      </trkpt>
      <trkpt lat="46.72704" lon="6.38905">
        <ele>836.7</ele>
        <time>2020-09-29T09:16:47Z</time>
      </trkpt>
      <trkpt lat="46.72699" lon="6.38904">
        <ele>836.3</ele>
        <time>2020-09-29T09:16:53Z</time>
      </trkpt>
      <trkpt lat="46.72694" lon="6.38903">
        <ele>836.4</ele>
        <time>2020-09-29T09:16:59Z</time>
      </trkpt>
      <trkpt lat="46.72689" lon="6.38903">
        <ele>836.7</ele>
        <time>2020-09-29T09:17:04Z</time>
      </trkpt>
      <trkpt lat="46.72685" lon="6.38907">
        <ele>836.9</ele>
        <time>2020-09-29T09:17:09Z</time>
      </trkpt>
      <trkpt lat="46.72681" lon="6.3891">
        <ele>836.8</ele>
        <time>2020-09-29T09:17:17Z</time>
      </trkpt>
      <trkpt lat="46.72676" lon="6.38908">
        <ele>835.6</ele>
        <time>2020-09-29T09:17:25Z</time>
      </trkpt>
      <trkpt lat="46.72672" lon="6.38905">
        <ele>835.4</ele>
        <time>2020-09-29T09:17:29Z</time>
      </trkpt>
      <trkpt lat="46.72667" lon="6.38903">
        <ele>835.5</ele>
        <time>2020-09-29T09:17:33Z</time>
      </trkpt>
      <trkpt lat="46.72661" lon="6.38904">
        <ele>835.7</ele>
        <time>2020-09-29T09:17:37Z</time>
      </trkpt>
      <trkpt lat="46.72656" lon="6.38906">
        <ele>835.9</ele>
        <time>2020-09-29T09:17:42Z</time>
      </trkpt>
      <trkpt lat="46.72651" lon="6.38905">
        <ele>836.6</ele>
        <time>2020-09-29T09:17:47Z</time>
      </trkpt>
      <trkpt lat="46.72646" lon="6.38904">
        <ele>838.2</ele>
        <time>2020-09-29T09:17:53Z</time>
      </trkpt>
      <trkpt lat="46.72641" lon="6.38902">
        <ele>838.8</ele>
        <time>2020-09-29T09:17:59Z</time>
      </trkpt>
      <trkpt lat="46.72636" lon="6.38899">
        <ele>839.1</ele>
        <time>2020-09-29T09:18:06Z</time>
      </trkpt>
      <trkpt lat="46.72632" lon="6.38897">
        <ele>837.7</ele>
        <time>2020-09-29T09:18:20Z</time>
      </trkpt>
      <trkpt lat="46.72627" lon="6.38896">
        <ele>836.4</ele>
        <time>2020-09-29T09:18:27Z</time>
      </trkpt>
      <trkpt lat="46.72622" lon="6.38895">
        <ele>835.5</ele>
        <time>2020-09-29T09:18:32Z</time>
      </trkpt>
      <trkpt lat="46.72618" lon="6.38892">
        <ele>834.6</ele>
        <time>2020-09-29T09:18:38Z</time>
      </trkpt>
      <trkpt lat="46.72614" lon="6.38891">
        <ele>833.8</ele>
        <time>2020-09-29T09:18:43Z</time>
      </trkpt>
      <trkpt lat="46.72609" lon="6.38889">
        <ele>833.2</ele>
        <time>2020-09-29T09:18:48Z</time>
      </trkpt>
      <trkpt lat="46.72604" lon="6.38886">
        <ele>832.8</ele>
        <time>2020-09-29T09:18:53Z</time>
      </trkpt>
      <trkpt lat="46.72599" lon="6.38884">
        <ele>832.6</ele>
        <time>2020-09-29T09:18:57Z</time>
      </trkpt>
      <trkpt lat="46.72594" lon="6.38883">
        <ele>832.4</ele>
        <time>2020-09-29T09:19:02Z</time>
      </trkpt>
      <trkpt lat="46.7259" lon="6.3888">
        <ele>832.4</ele>
        <time>2020-09-29T09:19:07Z</time>
      </trkpt>
      <trkpt lat="46.72585" lon="6.38877">
        <ele>832.2</ele>
        <time>2020-09-29T09:19:12Z</time>
      </trkpt>
      <trkpt lat="46.72581" lon="6.38876">
        <ele>831.7</ele>
        <time>2020-09-29T09:19:17Z</time>
      </trkpt>
      <trkpt lat="46.72576" lon="6.38873">
        <ele>831.5</ele>
        <time>2020-09-29T09:19:22Z</time>
      </trkpt>
      <trkpt lat="46.72571" lon="6.3887">
        <ele>831.6</ele>
        <time>2020-09-29T09:19:27Z</time>
      </trkpt>
      <trkpt lat="46.72566" lon="6.38868">
        <ele>831.8</ele>
        <time>2020-09-29T09:19:32Z</time>
      </trkpt>
      <trkpt lat="46.72562" lon="6.38866">
        <ele>832</ele>
        <time>2020-09-29T09:19:36Z</time>
      </trkpt>
      <trkpt lat="46.72557" lon="6.38862">
        <ele>832.1</ele>
        <time>2020-09-29T09:19:41Z</time>
      </trkpt>
      <trkpt lat="46.72553" lon="6.38859">
        <ele>831.4</ele>
        <time>2020-09-29T09:19:48Z</time>
      </trkpt>
      <trkpt lat="46.72549" lon="6.38854">
        <ele>830.6</ele>
        <time>2020-09-29T09:19:54Z</time>
      </trkpt>
      <trkpt lat="46.72544" lon="6.3885">
        <ele>830.5</ele>
        <time>2020-09-29T09:19:59Z</time>
      </trkpt>
      <trkpt lat="46.7254" lon="6.38846">
        <ele>831.1</ele>
        <time>2020-09-29T09:20:05Z</time>
      </trkpt>
      <trkpt lat="46.72537" lon="6.38842">
        <ele>831.3</ele>
        <time>2020-09-29T09:20:13Z</time>
      </trkpt>
      <trkpt lat="46.72533" lon="6.38838">
        <ele>831.4</ele>
        <time>2020-09-29T09:20:17Z</time>
      </trkpt>
      <trkpt lat="46.72529" lon="6.38833">
        <ele>831.7</ele>
        <time>2020-09-29T09:20:21Z</time>
      </trkpt>
      <trkpt lat="46.72524" lon="6.38829">
        <ele>832.2</ele>
        <time>2020-09-29T09:20:25Z</time>
      </trkpt>
      <trkpt lat="46.7252" lon="6.38826">
        <ele>832.6</ele>
        <time>2020-09-29T09:20:30Z</time>
      </trkpt>
      <trkpt lat="46.72516" lon="6.38821">
        <ele>832.5</ele>
        <time>2020-09-29T09:20:35Z</time>
      </trkpt>
      <trkpt lat="46.72512" lon="6.38817">
        <ele>831.6</ele>
        <time>2020-09-29T09:20:41Z</time>
      </trkpt>
      <trkpt lat="46.72508" lon="6.38813">
        <ele>831.2</ele>
        <time>2020-09-29T09:20:46Z</time>
      </trkpt>
      <trkpt lat="46.72504" lon="6.38808">
        <ele>830.9</ele>
        <time>2020-09-29T09:20:51Z</time>
      </trkpt>
      <trkpt lat="46.72501" lon="6.38802">
        <ele>830.6</ele>
        <time>2020-09-29T09:20:56Z</time>
      </trkpt>
      <trkpt lat="46.72498" lon="6.38798">
        <ele>830.4</ele>
        <time>2020-09-29T09:21:00Z</time>
      </trkpt>
      <trkpt lat="46.72493" lon="6.38794">
        <ele>830.1</ele>
        <time>2020-09-29T09:21:05Z</time>
      </trkpt>
      <trkpt lat="46.72489" lon="6.38791">
        <ele>829.8</ele>
        <time>2020-09-29T09:21:10Z</time>
      </trkpt>
      <trkpt lat="46.72484" lon="6.38788">
        <ele>829.7</ele>
        <time>2020-09-29T09:21:15Z</time>
      </trkpt>
      <trkpt lat="46.7248" lon="6.38785">
        <ele>830.1</ele>
        <time>2020-09-29T09:21:19Z</time>
      </trkpt>
      <trkpt lat="46.72475" lon="6.38781">
        <ele>830.9</ele>
        <time>2020-09-29T09:21:23Z</time>
      </trkpt>
      <trkpt lat="46.7247" lon="6.38778">
        <ele>831.7</ele>
        <time>2020-09-29T09:21:27Z</time>
      </trkpt>
      <trkpt lat="46.72466" lon="6.38774">
        <ele>832.8</ele>
        <time>2020-09-29T09:21:31Z</time>
      </trkpt>
      <trkpt lat="46.72462" lon="6.38769">
        <ele>833.7</ele>
        <time>2020-09-29T09:21:36Z</time>
      </trkpt>
      <trkpt lat="46.72457" lon="6.38764">
        <ele>834.6</ele>
        <time>2020-09-29T09:21:42Z</time>
      </trkpt>
      <trkpt lat="46.72453" lon="6.38761">
        <ele>835.2</ele>
        <time>2020-09-29T09:21:47Z</time>
      </trkpt>
      <trkpt lat="46.72449" lon="6.38757">
        <ele>835.3</ele>
        <time>2020-09-29T09:21:52Z</time>
      </trkpt>
      <trkpt lat="46.72445" lon="6.38752">
        <ele>835</ele>
        <time>2020-09-29T09:21:57Z</time>
      </trkpt>
      <trkpt lat="46.72441" lon="6.38748">
        <ele>834.4</ele>
        <time>2020-09-29T09:22:02Z</time>
      </trkpt>
      <trkpt lat="46.72437" lon="6.38744">
        <ele>834.3</ele>
        <time>2020-09-29T09:22:07Z</time>
      </trkpt>
      <trkpt lat="46.72432" lon="6.3874">
        <ele>834.1</ele>
        <time>2020-09-29T09:22:12Z</time>
      </trkpt>
      <trkpt lat="46.72428" lon="6.38736">
        <ele>833.8</ele>
        <time>2020-09-29T09:22:17Z</time>
      </trkpt>
      <trkpt lat="46.72423" lon="6.38733">
        <ele>833.4</ele>
        <time>2020-09-29T09:22:22Z</time>
      </trkpt>
      <trkpt lat="46.72418" lon="6.3873">
        <ele>833.1</ele>
        <time>2020-09-29T09:22:27Z</time>
      </trkpt>
      <trkpt lat="46.72414" lon="6.38728">
        <ele>832.6</ele>
        <time>2020-09-29T09:22:32Z</time>
      </trkpt>
      <trkpt lat="46.72409" lon="6.38726">
        <ele>832.2</ele>
        <time>2020-09-29T09:22:37Z</time>
      </trkpt>
      <trkpt lat="46.72405" lon="6.38722">
        <ele>831.8</ele>
        <time>2020-09-29T09:22:42Z</time>
      </trkpt>
      <trkpt lat="46.724" lon="6.38719">
        <ele>831.7</ele>
        <time>2020-09-29T09:22:47Z</time>
      </trkpt>
      <trkpt lat="46.72396" lon="6.38715">
        <ele>831.6</ele>
        <time>2020-09-29T09:22:52Z</time>
      </trkpt>
      <trkpt lat="46.72391" lon="6.38713">
        <ele>831.6</ele>
        <time>2020-09-29T09:22:57Z</time>
      </trkpt>
      <trkpt lat="46.72386" lon="6.38712">
        <ele>831.8</ele>
        <time>2020-09-29T09:23:02Z</time>
      </trkpt>
      <trkpt lat="46.72381" lon="6.3871">
        <ele>832.2</ele>
        <time>2020-09-29T09:23:08Z</time>
      </trkpt>
      <trkpt lat="46.72376" lon="6.38708">
        <ele>832.3</ele>
        <time>2020-09-29T09:23:13Z</time>
      </trkpt>
      <trkpt lat="46.72372" lon="6.38707">
        <ele>832.4</ele>
        <time>2020-09-29T09:23:17Z</time>
      </trkpt>
      <trkpt lat="46.72367" lon="6.38707">
        <ele>832.2</ele>
        <time>2020-09-29T09:23:22Z</time>
      </trkpt>
      <trkpt lat="46.72362" lon="6.38705">
        <ele>832</ele>
        <time>2020-09-29T09:23:27Z</time>
      </trkpt>
      <trkpt lat="46.72358" lon="6.38702">
        <ele>831.5</ele>
        <time>2020-09-29T09:23:32Z</time>
      </trkpt>
      <trkpt lat="46.72353" lon="6.38699">
        <ele>831.2</ele>
        <time>2020-09-29T09:23:38Z</time>
      </trkpt>
      <trkpt lat="46.7235" lon="6.38693">
        <ele>831.1</ele>
        <time>2020-09-29T09:23:45Z</time>
      </trkpt>
      <trkpt lat="46.72348" lon="6.38687">
        <ele>831</ele>
        <time>2020-09-29T09:23:53Z</time>
      </trkpt>
      <trkpt lat="46.72353" lon="6.38685">
        <ele>829.8</ele>
        <time>2020-09-29T09:24:41Z</time>
      </trkpt>
      <trkpt lat="46.72358" lon="6.38686">
        <ele>829.7</ele>
        <time>2020-09-29T09:24:46Z</time>
      </trkpt>
      <trkpt lat="46.72363" lon="6.38685">
        <ele>829.6</ele>
        <time>2020-09-29T09:24:51Z</time>
      </trkpt>
      <trkpt lat="46.72366" lon="6.38679">
        <ele>826.2</ele>
        <time>2020-09-29T09:25:07Z</time>
      </trkpt>
      <trkpt lat="46.72361" lon="6.3868">
        <ele>823.4</ele>
        <time>2020-09-29T09:25:39Z</time>
      </trkpt>
      <trkpt lat="46.72356" lon="6.38681">
        <ele>824</ele>
        <time>2020-09-29T09:25:45Z</time>
      </trkpt>
      <trkpt lat="46.72351" lon="6.38683">
        <ele>824.8</ele>
        <time>2020-09-29T09:25:51Z</time>
      </trkpt>
      <trkpt lat="46.72347" lon="6.38682">
        <ele>825.1</ele>
        <time>2020-09-29T09:25:57Z</time>
      </trkpt>
      <trkpt lat="46.72342" lon="6.38685">
        <ele>833.2</ele>
        <time>2020-09-29T09:27:10Z</time>
      </trkpt>
      <trkpt lat="46.72337" lon="6.38684">
        <ele>833.5</ele>
        <time>2020-09-29T09:27:34Z</time>
      </trkpt>
      <trkpt lat="46.72332" lon="6.38682">
        <ele>832.5</ele>
        <time>2020-09-29T09:27:40Z</time>
      </trkpt>
      <trkpt lat="46.72327" lon="6.38682">
        <ele>832</ele>
        <time>2020-09-29T09:27:45Z</time>
      </trkpt>
      <trkpt lat="46.72322" lon="6.38681">
        <ele>831.7</ele>
        <time>2020-09-29T09:27:50Z</time>
      </trkpt>
      <trkpt lat="46.72316" lon="6.3868">
        <ele>831.5</ele>
        <time>2020-09-29T09:27:55Z</time>
      </trkpt>
      <trkpt lat="46.72312" lon="6.38679">
        <ele>831</ele>
        <time>2020-09-29T09:28:00Z</time>
      </trkpt>
      <trkpt lat="46.72307" lon="6.38678">
        <ele>830.1</ele>
        <time>2020-09-29T09:28:05Z</time>
      </trkpt>
      <trkpt lat="46.72302" lon="6.38677">
        <ele>828.7</ele>
        <time>2020-09-29T09:28:11Z</time>
      </trkpt>
      <trkpt lat="46.72298" lon="6.38674">
        <ele>827.5</ele>
        <time>2020-09-29T09:28:17Z</time>
      </trkpt>
      <trkpt lat="46.72293" lon="6.38673">
        <ele>826.8</ele>
        <time>2020-09-29T09:28:22Z</time>
      </trkpt>
      <trkpt lat="46.72288" lon="6.38672">
        <ele>826.2</ele>
        <time>2020-09-29T09:28:27Z</time>
      </trkpt>
      <trkpt lat="46.72283" lon="6.38671">
        <ele>825.6</ele>
        <time>2020-09-29T09:28:32Z</time>
      </trkpt>
      <trkpt lat="46.72278" lon="6.3867">
        <ele>824.9</ele>
        <time>2020-09-29T09:28:37Z</time>
      </trkpt>
      <trkpt lat="46.72273" lon="6.3867">
        <ele>824.2</ele>
        <time>2020-09-29T09:28:42Z</time>
      </trkpt>
      <trkpt lat="46.72268" lon="6.38671">
        <ele>823.6</ele>
        <time>2020-09-29T09:28:47Z</time>
      </trkpt>
      <trkpt lat="46.72263" lon="6.38672">
        <ele>823.1</ele>
        <time>2020-09-29T09:28:52Z</time>
      </trkpt>
      <trkpt lat="46.72259" lon="6.38675">
        <ele>822.6</ele>
        <time>2020-09-29T09:28:57Z</time>
      </trkpt>
      <trkpt lat="46.72254" lon="6.38676">
        <ele>822.2</ele>
        <time>2020-09-29T09:29:02Z</time>
      </trkpt>
      <trkpt lat="46.72249" lon="6.38675">
        <ele>821.9</ele>
        <time>2020-09-29T09:29:07Z</time>
      </trkpt>
      <trkpt lat="46.72244" lon="6.38675">
        <ele>822</ele>
        <time>2020-09-29T09:29:14Z</time>
      </trkpt>
      <trkpt lat="46.72239" lon="6.38675">
        <ele>822.4</ele>
        <time>2020-09-29T09:29:20Z</time>
      </trkpt>
      <trkpt lat="46.72234" lon="6.38675">
        <ele>822.9</ele>
        <time>2020-09-29T09:29:25Z</time>
      </trkpt>
      <trkpt lat="46.72229" lon="6.38675">
        <ele>823.2</ele>
        <time>2020-09-29T09:29:30Z</time>
      </trkpt>
      <trkpt lat="46.72224" lon="6.38673">
        <ele>823.5</ele>
        <time>2020-09-29T09:29:36Z</time>
      </trkpt>
      <trkpt lat="46.72219" lon="6.38672">
        <ele>823.4</ele>
        <time>2020-09-29T09:29:41Z</time>
      </trkpt>
      <trkpt lat="46.72214" lon="6.38673">
        <ele>823.3</ele>
        <time>2020-09-29T09:29:45Z</time>
      </trkpt>
      <trkpt lat="46.72209" lon="6.38673">
        <ele>823.3</ele>
        <time>2020-09-29T09:29:50Z</time>
      </trkpt>
      <trkpt lat="46.72205" lon="6.38675">
        <ele>823.5</ele>
        <time>2020-09-29T09:29:54Z</time>
      </trkpt>
      <trkpt lat="46.72199" lon="6.38675">
        <ele>824</ele>
        <time>2020-09-29T09:29:59Z</time>
      </trkpt>
      <trkpt lat="46.72195" lon="6.38676">
        <ele>824.6</ele>
        <time>2020-09-29T09:30:03Z</time>
      </trkpt>
      <trkpt lat="46.72189" lon="6.38678">
        <ele>825.2</ele>
        <time>2020-09-29T09:30:08Z</time>
      </trkpt>
      <trkpt lat="46.72184" lon="6.3868">
        <ele>825.5</ele>
        <time>2020-09-29T09:30:13Z</time>
      </trkpt>
      <trkpt lat="46.72181" lon="6.38685">
        <ele>825.8</ele>
        <time>2020-09-29T09:30:18Z</time>
      </trkpt>
      <trkpt lat="46.72177" lon="6.3869">
        <ele>826</ele>
        <time>2020-09-29T09:30:24Z</time>
      </trkpt>
      <trkpt lat="46.72172" lon="6.38689">
        <ele>826.2</ele>
        <time>2020-09-29T09:30:31Z</time>
      </trkpt>
      <trkpt lat="46.72167" lon="6.38687">
        <ele>826.3</ele>
        <time>2020-09-29T09:30:37Z</time>
      </trkpt>
      <trkpt lat="46.72162" lon="6.38686">
        <ele>826.5</ele>
        <time>2020-09-29T09:30:43Z</time>
      </trkpt>
      <trkpt lat="46.72157" lon="6.38685">
        <ele>826.5</ele>
        <time>2020-09-29T09:30:48Z</time>
      </trkpt>
      <trkpt lat="46.72152" lon="6.38683">
        <ele>826.6</ele>
        <time>2020-09-29T09:30:53Z</time>
      </trkpt>
      <trkpt lat="46.72147" lon="6.38682">
        <ele>826.5</ele>
        <time>2020-09-29T09:30:59Z</time>
      </trkpt>
      <trkpt lat="46.72143" lon="6.3868">
        <ele>826.4</ele>
        <time>2020-09-29T09:31:04Z</time>
      </trkpt>
      <trkpt lat="46.72138" lon="6.38677">
        <ele>826.2</ele>
        <time>2020-09-29T09:31:09Z</time>
      </trkpt>
      <trkpt lat="46.72133" lon="6.38674">
        <ele>826</ele>
        <time>2020-09-29T09:31:14Z</time>
      </trkpt>
      <trkpt lat="46.72129" lon="6.38671">
        <ele>825.6</ele>
        <time>2020-09-29T09:31:19Z</time>
      </trkpt>
      <trkpt lat="46.72124" lon="6.38669">
        <ele>825.1</ele>
        <time>2020-09-29T09:31:25Z</time>
      </trkpt>
      <trkpt lat="46.72119" lon="6.38666">
        <ele>824.8</ele>
        <time>2020-09-29T09:31:30Z</time>
      </trkpt>
      <trkpt lat="46.72114" lon="6.38665">
        <ele>824.5</ele>
        <time>2020-09-29T09:31:36Z</time>
      </trkpt>
      <trkpt lat="46.72109" lon="6.38664">
        <ele>824.1</ele>
        <time>2020-09-29T09:31:41Z</time>
      </trkpt>
      <trkpt lat="46.72105" lon="6.38665">
        <ele>823.7</ele>
        <time>2020-09-29T09:31:46Z</time>
      </trkpt>
      <trkpt lat="46.72099" lon="6.38662">
        <ele>823.4</ele>
        <time>2020-09-29T09:31:52Z</time>
      </trkpt>
      <trkpt lat="46.72094" lon="6.3866">
        <ele>823.2</ele>
        <time>2020-09-29T09:31:57Z</time>
      </trkpt>
      <trkpt lat="46.7209" lon="6.38657">
        <ele>823.1</ele>
        <time>2020-09-29T09:32:03Z</time>
      </trkpt>
      <trkpt lat="46.72085" lon="6.38655">
        <ele>822.9</ele>
        <time>2020-09-29T09:32:08Z</time>
      </trkpt>
      <trkpt lat="46.72081" lon="6.38655">
        <ele>822.6</ele>
        <time>2020-09-29T09:32:15Z</time>
      </trkpt>
      <trkpt lat="46.72076" lon="6.38655">
        <ele>822.3</ele>
        <time>2020-09-29T09:32:20Z</time>
      </trkpt>
      <trkpt lat="46.72071" lon="6.38652">
        <ele>821.8</ele>
        <time>2020-09-29T09:32:26Z</time>
      </trkpt>
      <trkpt lat="46.72067" lon="6.38649">
        <ele>821.7</ele>
        <time>2020-09-29T09:32:31Z</time>
      </trkpt>
      <trkpt lat="46.72062" lon="6.38647">
        <ele>821.5</ele>
        <time>2020-09-29T09:32:37Z</time>
      </trkpt>
      <trkpt lat="46.72057" lon="6.38644">
        <ele>821.4</ele>
        <time>2020-09-29T09:32:42Z</time>
      </trkpt>
      <trkpt lat="46.72053" lon="6.38641">
        <ele>821.2</ele>
        <time>2020-09-29T09:32:47Z</time>
      </trkpt>
      <trkpt lat="46.72049" lon="6.38638">
        <ele>820.9</ele>
        <time>2020-09-29T09:32:52Z</time>
      </trkpt>
      <trkpt lat="46.72044" lon="6.38636">
        <ele>821</ele>
        <time>2020-09-29T09:32:57Z</time>
      </trkpt>
      <trkpt lat="46.7204" lon="6.38634">
        <ele>820.9</ele>
        <time>2020-09-29T09:33:02Z</time>
      </trkpt>
      <trkpt lat="46.72036" lon="6.38631">
        <ele>820.8</ele>
        <time>2020-09-29T09:33:07Z</time>
      </trkpt>
      <trkpt lat="46.72031" lon="6.38627">
        <ele>820.7</ele>
        <time>2020-09-29T09:33:12Z</time>
      </trkpt>
      <trkpt lat="46.72027" lon="6.38625">
        <ele>820.7</ele>
        <time>2020-09-29T09:33:16Z</time>
      </trkpt>
      <trkpt lat="46.72022" lon="6.38623">
        <ele>820.7</ele>
        <time>2020-09-29T09:33:21Z</time>
      </trkpt>
      <trkpt lat="46.72017" lon="6.3862">
        <ele>820.5</ele>
        <time>2020-09-29T09:33:27Z</time>
      </trkpt>
      <trkpt lat="46.72012" lon="6.3862">
        <ele>820.6</ele>
        <time>2020-09-29T09:33:32Z</time>
      </trkpt>
      <trkpt lat="46.72006" lon="6.38618">
        <ele>821</ele>
        <time>2020-09-29T09:33:37Z</time>
      </trkpt>
      <trkpt lat="46.72001" lon="6.38618">
        <ele>821.3</ele>
        <time>2020-09-29T09:33:41Z</time>
      </trkpt>
      <trkpt lat="46.71996" lon="6.3862">
        <ele>821.8</ele>
        <time>2020-09-29T09:33:52Z</time>
      </trkpt>
      <trkpt lat="46.71992" lon="6.38621">
        <ele>823.1</ele>
        <time>2020-09-29T09:39:31Z</time>
      </trkpt>
      <trkpt lat="46.71987" lon="6.38624">
        <ele>824.4</ele>
        <time>2020-09-29T09:39:36Z</time>
      </trkpt>
      <trkpt lat="46.71982" lon="6.38625">
        <ele>825.2</ele>
        <time>2020-09-29T09:39:42Z</time>
      </trkpt>
      <trkpt lat="46.71977" lon="6.38626">
        <ele>825.5</ele>
        <time>2020-09-29T09:39:49Z</time>
      </trkpt>
      <trkpt lat="46.71972" lon="6.38626">
        <ele>825.6</ele>
        <time>2020-09-29T09:39:55Z</time>
      </trkpt>
      <trkpt lat="46.71967" lon="6.38626">
        <ele>825.6</ele>
        <time>2020-09-29T09:40:01Z</time>
      </trkpt>
      <trkpt lat="46.71962" lon="6.38626">
        <ele>825.5</ele>
        <time>2020-09-29T09:40:06Z</time>
      </trkpt>
      <trkpt lat="46.71957" lon="6.38627">
        <ele>825.3</ele>
        <time>2020-09-29T09:40:11Z</time>
      </trkpt>
      <trkpt lat="46.71952" lon="6.38626">
        <ele>824.9</ele>
        <time>2020-09-29T09:40:16Z</time>
      </trkpt>
      <trkpt lat="46.71947" lon="6.38624">
        <ele>824.5</ele>
        <time>2020-09-29T09:40:21Z</time>
      </trkpt>
      <trkpt lat="46.71942" lon="6.38621">
        <ele>823.8</ele>
        <time>2020-09-29T09:40:26Z</time>
      </trkpt>
      <trkpt lat="46.71938" lon="6.38618">
        <ele>823.3</ele>
        <time>2020-09-29T09:40:30Z</time>
      </trkpt>
      <trkpt lat="46.71933" lon="6.38616">
        <ele>822.3</ele>
        <time>2020-09-29T09:40:34Z</time>
      </trkpt>
      <trkpt lat="46.71928" lon="6.38616">
        <ele>821.3</ele>
        <time>2020-09-29T09:40:38Z</time>
      </trkpt>
      <trkpt lat="46.71923" lon="6.38613">
        <ele>820.1</ele>
        <time>2020-09-29T09:40:43Z</time>
      </trkpt>
      <trkpt lat="46.71919" lon="6.38612">
        <ele>819.3</ele>
        <time>2020-09-29T09:40:47Z</time>
      </trkpt>
      <trkpt lat="46.71914" lon="6.3861">
        <ele>818.4</ele>
        <time>2020-09-29T09:40:52Z</time>
      </trkpt>
      <trkpt lat="46.71908" lon="6.38608">
        <ele>817.6</ele>
        <time>2020-09-29T09:40:57Z</time>
      </trkpt>
      <trkpt lat="46.71903" lon="6.38605">
        <ele>817.3</ele>
        <time>2020-09-29T09:41:02Z</time>
      </trkpt>
      <trkpt lat="46.71899" lon="6.38604">
        <ele>817.3</ele>
        <time>2020-09-29T09:41:06Z</time>
      </trkpt>
      <trkpt lat="46.71894" lon="6.38603">
        <ele>817.1</ele>
        <time>2020-09-29T09:41:10Z</time>
      </trkpt>
      <trkpt lat="46.71889" lon="6.38601">
        <ele>816.8</ele>
        <time>2020-09-29T09:41:14Z</time>
      </trkpt>
      <trkpt lat="46.71884" lon="6.386">
        <ele>816.8</ele>
        <time>2020-09-29T09:41:18Z</time>
      </trkpt>
      <trkpt lat="46.71879" lon="6.38596">
        <ele>816.8</ele>
        <time>2020-09-29T09:41:24Z</time>
      </trkpt>
      <trkpt lat="46.71874" lon="6.38595">
        <ele>817</ele>
        <time>2020-09-29T09:41:29Z</time>
      </trkpt>
      <trkpt lat="46.71869" lon="6.38594">
        <ele>818</ele>
        <time>2020-09-29T09:41:34Z</time>
      </trkpt>
      <trkpt lat="46.71864" lon="6.38594">
        <ele>818.5</ele>
        <time>2020-09-29T09:41:39Z</time>
      </trkpt>
      <trkpt lat="46.71859" lon="6.38595">
        <ele>818.8</ele>
        <time>2020-09-29T09:41:45Z</time>
      </trkpt>
      <trkpt lat="46.71856" lon="6.386">
        <ele>819.2</ele>
        <time>2020-09-29T09:41:51Z</time>
      </trkpt>
      <trkpt lat="46.71853" lon="6.38606">
        <ele>820.3</ele>
        <time>2020-09-29T09:41:59Z</time>
      </trkpt>
      <trkpt lat="46.7185" lon="6.38612">
        <ele>820.9</ele>
        <time>2020-09-29T09:42:04Z</time>
      </trkpt>
      <trkpt lat="46.71847" lon="6.38616">
        <ele>821.3</ele>
        <time>2020-09-29T09:42:10Z</time>
      </trkpt>
      <trkpt lat="46.71842" lon="6.3862">
        <ele>821.4</ele>
        <time>2020-09-29T09:42:16Z</time>
      </trkpt>
      <trkpt lat="46.71838" lon="6.38622">
        <ele>821.3</ele>
        <time>2020-09-29T09:42:20Z</time>
      </trkpt>
      <trkpt lat="46.71832" lon="6.38622">
        <ele>820.9</ele>
        <time>2020-09-29T09:42:25Z</time>
      </trkpt>
      <trkpt lat="46.71827" lon="6.38622">
        <ele>820.5</ele>
        <time>2020-09-29T09:42:30Z</time>
      </trkpt>
      <trkpt lat="46.71823" lon="6.3862">
        <ele>820.2</ele>
        <time>2020-09-29T09:42:35Z</time>
      </trkpt>
      <trkpt lat="46.71817" lon="6.38618">
        <ele>819.5</ele>
        <time>2020-09-29T09:42:41Z</time>
      </trkpt>
      <trkpt lat="46.71812" lon="6.38618">
        <ele>818.8</ele>
        <time>2020-09-29T09:42:46Z</time>
      </trkpt>
      <trkpt lat="46.71807" lon="6.38618">
        <ele>818.2</ele>
        <time>2020-09-29T09:42:51Z</time>
      </trkpt>
      <trkpt lat="46.71803" lon="6.38617">
        <ele>817.2</ele>
        <time>2020-09-29T09:42:58Z</time>
      </trkpt>
      <trkpt lat="46.71797" lon="6.38614">
        <ele>816.3</ele>
        <time>2020-09-29T09:43:03Z</time>
      </trkpt>
      <trkpt lat="46.71792" lon="6.38613">
        <ele>815.9</ele>
        <time>2020-09-29T09:43:07Z</time>
      </trkpt>
      <trkpt lat="46.71787" lon="6.38612">
        <ele>815.5</ele>
        <time>2020-09-29T09:43:11Z</time>
      </trkpt>
      <trkpt lat="46.71782" lon="6.38611">
        <ele>814.6</ele>
        <time>2020-09-29T09:43:15Z</time>
      </trkpt>
      <trkpt lat="46.71778" lon="6.38611">
        <ele>813.5</ele>
        <time>2020-09-29T09:43:19Z</time>
      </trkpt>
      <trkpt lat="46.71773" lon="6.38613">
        <ele>812.5</ele>
        <time>2020-09-29T09:43:24Z</time>
      </trkpt>
      <trkpt lat="46.71769" lon="6.38617">
        <ele>812.3</ele>
        <time>2020-09-29T09:43:28Z</time>
      </trkpt>
      <trkpt lat="46.71765" lon="6.38622">
        <ele>812.3</ele>
        <time>2020-09-29T09:43:33Z</time>
      </trkpt>
      <trkpt lat="46.71761" lon="6.38628">
        <ele>812.3</ele>
        <time>2020-09-29T09:43:38Z</time>
      </trkpt>
      <trkpt lat="46.71757" lon="6.38632">
        <ele>812.3</ele>
        <time>2020-09-29T09:43:43Z</time>
      </trkpt>
      <trkpt lat="46.71754" lon="6.38638">
        <ele>812.5</ele>
        <time>2020-09-29T09:43:48Z</time>
      </trkpt>
      <trkpt lat="46.7175" lon="6.38643">
        <ele>812.3</ele>
        <time>2020-09-29T09:43:53Z</time>
      </trkpt>
      <trkpt lat="46.71746" lon="6.38647">
        <ele>811.7</ele>
        <time>2020-09-29T09:43:59Z</time>
      </trkpt>
      <trkpt lat="46.71741" lon="6.38649">
        <ele>810.9</ele>
        <time>2020-09-29T09:44:04Z</time>
      </trkpt>
      <trkpt lat="46.71736" lon="6.3865">
        <ele>810</ele>
        <time>2020-09-29T09:44:09Z</time>
      </trkpt>
      <trkpt lat="46.71731" lon="6.38649">
        <ele>809.3</ele>
        <time>2020-09-29T09:44:15Z</time>
      </trkpt>
      <trkpt lat="46.71726" lon="6.38647">
        <ele>808.7</ele>
        <time>2020-09-29T09:44:21Z</time>
      </trkpt>
      <trkpt lat="46.71721" lon="6.38645">
        <ele>808.3</ele>
        <time>2020-09-29T09:44:26Z</time>
      </trkpt>
      <trkpt lat="46.71716" lon="6.38643">
        <ele>807.8</ele>
        <time>2020-09-29T09:44:31Z</time>
      </trkpt>
      <trkpt lat="46.71711" lon="6.3864">
        <ele>807.4</ele>
        <time>2020-09-29T09:44:35Z</time>
      </trkpt>
      <trkpt lat="46.71707" lon="6.38637">
        <ele>807</ele>
        <time>2020-09-29T09:44:39Z</time>
      </trkpt>
      <trkpt lat="46.71704" lon="6.38633">
        <ele>806.3</ele>
        <time>2020-09-29T09:44:44Z</time>
      </trkpt>
      <trkpt lat="46.71699" lon="6.38628">
        <ele>805.7</ele>
        <time>2020-09-29T09:44:49Z</time>
      </trkpt>
      <trkpt lat="46.71695" lon="6.38623">
        <ele>805.3</ele>
        <time>2020-09-29T09:44:53Z</time>
      </trkpt>
      <trkpt lat="46.71691" lon="6.38618">
        <ele>805.2</ele>
        <time>2020-09-29T09:44:58Z</time>
      </trkpt>
      <trkpt lat="46.71688" lon="6.38613">
        <ele>805.1</ele>
        <time>2020-09-29T09:45:03Z</time>
      </trkpt>
      <trkpt lat="46.71684" lon="6.38609">
        <ele>805.1</ele>
        <time>2020-09-29T09:45:07Z</time>
      </trkpt>
      <trkpt lat="46.7168" lon="6.38604">
        <ele>805.1</ele>
        <time>2020-09-29T09:45:11Z</time>
      </trkpt>
      <trkpt lat="46.71677" lon="6.38599">
        <ele>805</ele>
        <time>2020-09-29T09:45:15Z</time>
      </trkpt>
      <trkpt lat="46.71675" lon="6.38593">
        <ele>804.9</ele>
        <time>2020-09-29T09:45:20Z</time>
      </trkpt>
      <trkpt lat="46.71673" lon="6.38588">
        <ele>804.1</ele>
        <time>2020-09-29T09:45:25Z</time>
      </trkpt>
      <trkpt lat="46.7167" lon="6.38582">
        <ele>803.2</ele>
        <time>2020-09-29T09:45:29Z</time>
      </trkpt>
      <trkpt lat="46.71666" lon="6.38577">
        <ele>802</ele>
        <time>2020-09-29T09:45:34Z</time>
      </trkpt>
      <trkpt lat="46.71662" lon="6.38573">
        <ele>800.9</ele>
        <time>2020-09-29T09:45:38Z</time>
      </trkpt>
      <trkpt lat="46.71659" lon="6.38568">
        <ele>800.1</ele>
        <time>2020-09-29T09:45:42Z</time>
      </trkpt>
      <trkpt lat="46.71656" lon="6.38563">
        <ele>799.6</ele>
        <time>2020-09-29T09:45:46Z</time>
      </trkpt>
      <trkpt lat="46.71653" lon="6.38558">
        <ele>799.1</ele>
        <time>2020-09-29T09:45:50Z</time>
      </trkpt>
      <trkpt lat="46.7165" lon="6.38552">
        <ele>798.8</ele>
        <time>2020-09-29T09:45:55Z</time>
      </trkpt>
      <trkpt lat="46.71647" lon="6.38546">
        <ele>798.7</ele>
        <time>2020-09-29T09:45:59Z</time>
      </trkpt>
      <trkpt lat="46.71644" lon="6.3854">
        <ele>798.6</ele>
        <time>2020-09-29T09:46:03Z</time>
      </trkpt>
      <trkpt lat="46.71641" lon="6.38534">
        <ele>798.4</ele>
        <time>2020-09-29T09:46:08Z</time>
      </trkpt>
      <trkpt lat="46.71638" lon="6.38528">
        <ele>798.3</ele>
        <time>2020-09-29T09:46:12Z</time>
      </trkpt>
      <trkpt lat="46.71636" lon="6.38522">
        <ele>798.2</ele>
        <time>2020-09-29T09:46:17Z</time>
      </trkpt>
      <trkpt lat="46.71633" lon="6.38516">
        <ele>798.4</ele>
        <time>2020-09-29T09:46:23Z</time>
      </trkpt>
      <trkpt lat="46.7163" lon="6.38511">
        <ele>798.8</ele>
        <time>2020-09-29T09:46:28Z</time>
      </trkpt>
      <trkpt lat="46.71627" lon="6.38505">
        <ele>799.4</ele>
        <time>2020-09-29T09:46:32Z</time>
      </trkpt>
      <trkpt lat="46.71625" lon="6.38499">
        <ele>799.6</ele>
        <time>2020-09-29T09:46:36Z</time>
      </trkpt>
      <trkpt lat="46.71623" lon="6.38493">
        <ele>799.8</ele>
        <time>2020-09-29T09:46:40Z</time>
      </trkpt>
      <trkpt lat="46.71619" lon="6.38487">
        <ele>799.9</ele>
        <time>2020-09-29T09:46:45Z</time>
      </trkpt>
      <trkpt lat="46.71616" lon="6.38482">
        <ele>800.1</ele>
        <time>2020-09-29T09:46:50Z</time>
      </trkpt>
      <trkpt lat="46.71614" lon="6.38476">
        <ele>800.2</ele>
        <time>2020-09-29T09:46:54Z</time>
      </trkpt>
      <trkpt lat="46.71611" lon="6.3847">
        <ele>799.9</ele>
        <time>2020-09-29T09:46:58Z</time>
      </trkpt>
      <trkpt lat="46.71609" lon="6.38464">
        <ele>799.6</ele>
        <time>2020-09-29T09:47:02Z</time>
      </trkpt>
      <trkpt lat="46.71607" lon="6.38457">
        <ele>799.1</ele>
        <time>2020-09-29T09:47:07Z</time>
      </trkpt>
      <trkpt lat="46.71604" lon="6.3845">
        <ele>798.5</ele>
        <time>2020-09-29T09:47:12Z</time>
      </trkpt>
      <trkpt lat="46.71602" lon="6.38442">
        <ele>797.9</ele>
        <time>2020-09-29T09:47:17Z</time>
      </trkpt>
      <trkpt lat="46.716" lon="6.38436">
        <ele>797.5</ele>
        <time>2020-09-29T09:47:22Z</time>
      </trkpt>
      <trkpt lat="46.71598" lon="6.38429">
        <ele>797.2</ele>
        <time>2020-09-29T09:47:27Z</time>
      </trkpt>
      <trkpt lat="46.71596" lon="6.38422">
        <ele>797.1</ele>
        <time>2020-09-29T09:47:32Z</time>
      </trkpt>
      <trkpt lat="46.71593" lon="6.38415">
        <ele>797.1</ele>
        <time>2020-09-29T09:47:37Z</time>
      </trkpt>
      <trkpt lat="46.71591" lon="6.38409">
        <ele>796.9</ele>
        <time>2020-09-29T09:47:41Z</time>
      </trkpt>
      <trkpt lat="46.71589" lon="6.38402">
        <ele>796.6</ele>
        <time>2020-09-29T09:47:46Z</time>
      </trkpt>
      <trkpt lat="46.71587" lon="6.38396">
        <ele>796.4</ele>
        <time>2020-09-29T09:47:51Z</time>
      </trkpt>
      <trkpt lat="46.71585" lon="6.38389">
        <ele>796.1</ele>
        <time>2020-09-29T09:47:57Z</time>
      </trkpt>
      <trkpt lat="46.71583" lon="6.38383">
        <ele>795.7</ele>
        <time>2020-09-29T09:48:02Z</time>
      </trkpt>
      <trkpt lat="46.7158" lon="6.38376">
        <ele>795.3</ele>
        <time>2020-09-29T09:48:07Z</time>
      </trkpt>
      <trkpt lat="46.71578" lon="6.38369">
        <ele>794.5</ele>
        <time>2020-09-29T09:48:13Z</time>
      </trkpt>
      <trkpt lat="46.71576" lon="6.38363">
        <ele>793.8</ele>
        <time>2020-09-29T09:48:18Z</time>
      </trkpt>
      <trkpt lat="46.71574" lon="6.38356">
        <ele>792.8</ele>
        <time>2020-09-29T09:48:23Z</time>
      </trkpt>
      <trkpt lat="46.71572" lon="6.38349">
        <ele>792.1</ele>
        <time>2020-09-29T09:48:27Z</time>
      </trkpt>
      <trkpt lat="46.7157" lon="6.38342">
        <ele>791.3</ele>
        <time>2020-09-29T09:48:32Z</time>
      </trkpt>
      <trkpt lat="46.71568" lon="6.38336">
        <ele>790.9</ele>
        <time>2020-09-29T09:48:36Z</time>
      </trkpt>
      <trkpt lat="46.71566" lon="6.38329">
        <ele>790.4</ele>
        <time>2020-09-29T09:48:41Z</time>
      </trkpt>
      <trkpt lat="46.71564" lon="6.38321">
        <ele>789.7</ele>
        <time>2020-09-29T09:48:46Z</time>
      </trkpt>
      <trkpt lat="46.71563" lon="6.38314">
        <ele>789.2</ele>
        <time>2020-09-29T09:48:50Z</time>
      </trkpt>
      <trkpt lat="46.71562" lon="6.38306">
        <ele>788.7</ele>
        <time>2020-09-29T09:48:55Z</time>
      </trkpt>
      <trkpt lat="46.71561" lon="6.38299">
        <ele>788</ele>
        <time>2020-09-29T09:49:00Z</time>
      </trkpt>
      <trkpt lat="46.71559" lon="6.38292">
        <ele>787.4</ele>
        <time>2020-09-29T09:49:04Z</time>
      </trkpt>
      <trkpt lat="46.71558" lon="6.38285">
        <ele>786.9</ele>
        <time>2020-09-29T09:49:08Z</time>
      </trkpt>
      <trkpt lat="46.71556" lon="6.38277">
        <ele>786.1</ele>
        <time>2020-09-29T09:49:13Z</time>
      </trkpt>
      <trkpt lat="46.71554" lon="6.38271">
        <ele>785.6</ele>
        <time>2020-09-29T09:49:18Z</time>
      </trkpt>
      <trkpt lat="46.71552" lon="6.38266">
        <ele>785.8</ele>
        <time>2020-09-29T09:49:23Z</time>
      </trkpt>
      <trkpt lat="46.7155" lon="6.38259">
        <ele>785.7</ele>
        <time>2020-09-29T09:49:28Z</time>
      </trkpt>
      <trkpt lat="46.71548" lon="6.38252">
        <ele>785.3</ele>
        <time>2020-09-29T09:49:33Z</time>
      </trkpt>
      <trkpt lat="46.71547" lon="6.38245">
        <ele>784.9</ele>
        <time>2020-09-29T09:49:38Z</time>
      </trkpt>
      <trkpt lat="46.71544" lon="6.38238">
        <ele>784.1</ele>
        <time>2020-09-29T09:49:44Z</time>
      </trkpt>
      <trkpt lat="46.71542" lon="6.38233">
        <ele>783.3</ele>
        <time>2020-09-29T09:49:48Z</time>
      </trkpt>
      <trkpt lat="46.71539" lon="6.38226">
        <ele>782.8</ele>
        <time>2020-09-29T09:49:52Z</time>
      </trkpt>
      <trkpt lat="46.71536" lon="6.38219">
        <ele>782.5</ele>
        <time>2020-09-29T09:49:56Z</time>
      </trkpt>
      <trkpt lat="46.71533" lon="6.38213">
        <ele>782.3</ele>
        <time>2020-09-29T09:50:01Z</time>
      </trkpt>
      <trkpt lat="46.7153" lon="6.38207">
        <ele>782.5</ele>
        <time>2020-09-29T09:50:06Z</time>
      </trkpt>
      <trkpt lat="46.71527" lon="6.38201">
        <ele>783</ele>
        <time>2020-09-29T09:50:11Z</time>
      </trkpt>
      <trkpt lat="46.71523" lon="6.38197">
        <ele>783.5</ele>
        <time>2020-09-29T09:50:16Z</time>
      </trkpt>
      <trkpt lat="46.71519" lon="6.38191">
        <ele>784</ele>
        <time>2020-09-29T09:50:22Z</time>
      </trkpt>
      <trkpt lat="46.71516" lon="6.38187">
        <ele>784.3</ele>
        <time>2020-09-29T09:50:27Z</time>
      </trkpt>
      <trkpt lat="46.71512" lon="6.38183">
        <ele>784.4</ele>
        <time>2020-09-29T09:50:31Z</time>
      </trkpt>
      <trkpt lat="46.71508" lon="6.38179">
        <ele>784.7</ele>
        <time>2020-09-29T09:50:36Z</time>
      </trkpt>
      <trkpt lat="46.71504" lon="6.38174">
        <ele>785.3</ele>
        <time>2020-09-29T09:50:41Z</time>
      </trkpt>
      <trkpt lat="46.71501" lon="6.38168">
        <ele>785.7</ele>
        <time>2020-09-29T09:50:46Z</time>
      </trkpt>
      <trkpt lat="46.71498" lon="6.38163">
        <ele>785.8</ele>
        <time>2020-09-29T09:50:51Z</time>
      </trkpt>
      <trkpt lat="46.71494" lon="6.38158">
        <ele>785.6</ele>
        <time>2020-09-29T09:50:57Z</time>
      </trkpt>
      <trkpt lat="46.71491" lon="6.38154">
        <ele>785.4</ele>
        <time>2020-09-29T09:51:02Z</time>
      </trkpt>
      <trkpt lat="46.71488" lon="6.38148">
        <ele>785.3</ele>
        <time>2020-09-29T09:51:07Z</time>
      </trkpt>
      <trkpt lat="46.71484" lon="6.38144">
        <ele>785.2</ele>
        <time>2020-09-29T09:51:11Z</time>
      </trkpt>
      <trkpt lat="46.7148" lon="6.3814">
        <ele>785</ele>
        <time>2020-09-29T09:51:15Z</time>
      </trkpt>
      <trkpt lat="46.71477" lon="6.38135">
        <ele>784.4</ele>
        <time>2020-09-29T09:51:19Z</time>
      </trkpt>
      <trkpt lat="46.71473" lon="6.38129">
        <ele>783.2</ele>
        <time>2020-09-29T09:51:24Z</time>
      </trkpt>
      <trkpt lat="46.71469" lon="6.38125">
        <ele>782.3</ele>
        <time>2020-09-29T09:51:29Z</time>
      </trkpt>
      <trkpt lat="46.71465" lon="6.38119">
        <ele>781.2</ele>
        <time>2020-09-29T09:51:35Z</time>
      </trkpt>
      <trkpt lat="46.71461" lon="6.38114">
        <ele>780.7</ele>
        <time>2020-09-29T09:51:39Z</time>
      </trkpt>
      <trkpt lat="46.71457" lon="6.38109">
        <ele>780.3</ele>
        <time>2020-09-29T09:51:43Z</time>
      </trkpt>
      <trkpt lat="46.71453" lon="6.38103">
        <ele>779.9</ele>
        <time>2020-09-29T09:51:47Z</time>
      </trkpt>
      <trkpt lat="46.71449" lon="6.38099">
        <ele>779.5</ele>
        <time>2020-09-29T09:51:51Z</time>
      </trkpt>
      <trkpt lat="46.71445" lon="6.38095">
        <ele>779.1</ele>
        <time>2020-09-29T09:51:57Z</time>
      </trkpt>
      <trkpt lat="46.71441" lon="6.3809">
        <ele>779</ele>
        <time>2020-09-29T09:52:02Z</time>
      </trkpt>
      <trkpt lat="46.71437" lon="6.38086">
        <ele>778.8</ele>
        <time>2020-09-29T09:52:07Z</time>
      </trkpt>
      <trkpt lat="46.71433" lon="6.38082">
        <ele>778.8</ele>
        <time>2020-09-29T09:52:11Z</time>
      </trkpt>
      <trkpt lat="46.71429" lon="6.38078">
        <ele>779.1</ele>
        <time>2020-09-29T09:52:16Z</time>
      </trkpt>
      <trkpt lat="46.71425" lon="6.38074">
        <ele>779.4</ele>
        <time>2020-09-29T09:52:21Z</time>
      </trkpt>
      <trkpt lat="46.71421" lon="6.38069">
        <ele>779.5</ele>
        <time>2020-09-29T09:52:27Z</time>
      </trkpt>
      <trkpt lat="46.71417" lon="6.38065">
        <ele>779.3</ele>
        <time>2020-09-29T09:52:32Z</time>
      </trkpt>
      <trkpt lat="46.71412" lon="6.3806">
        <ele>779.2</ele>
        <time>2020-09-29T09:52:37Z</time>
      </trkpt>
      <trkpt lat="46.71408" lon="6.38056">
        <ele>779.4</ele>
        <time>2020-09-29T09:52:41Z</time>
      </trkpt>
      <trkpt lat="46.71404" lon="6.38052">
        <ele>779.6</ele>
        <time>2020-09-29T09:52:46Z</time>
      </trkpt>
      <trkpt lat="46.714" lon="6.38049">
        <ele>779.4</ele>
        <time>2020-09-29T09:52:51Z</time>
      </trkpt>
      <trkpt lat="46.71395" lon="6.38046">
        <ele>779</ele>
        <time>2020-09-29T09:52:56Z</time>
      </trkpt>
      <trkpt lat="46.71391" lon="6.38042">
        <ele>778.8</ele>
        <time>2020-09-29T09:53:01Z</time>
      </trkpt>
      <trkpt lat="46.71386" lon="6.38038">
        <ele>778.8</ele>
        <time>2020-09-29T09:53:05Z</time>
      </trkpt>
      <trkpt lat="46.71382" lon="6.38034">
        <ele>778.9</ele>
        <time>2020-09-29T09:53:10Z</time>
      </trkpt>
      <trkpt lat="46.71378" lon="6.38029">
        <ele>779</ele>
        <time>2020-09-29T09:53:15Z</time>
      </trkpt>
      <trkpt lat="46.71374" lon="6.38025">
        <ele>779.2</ele>
        <time>2020-09-29T09:53:21Z</time>
      </trkpt>
      <trkpt lat="46.71369" lon="6.38025">
        <ele>779.1</ele>
        <time>2020-09-29T09:53:26Z</time>
      </trkpt>
      <trkpt lat="46.71365" lon="6.38027">
        <ele>778.7</ele>
        <time>2020-09-29T09:53:32Z</time>
      </trkpt>
      <trkpt lat="46.7136" lon="6.38027">
        <ele>778.3</ele>
        <time>2020-09-29T09:53:38Z</time>
      </trkpt>
      <trkpt lat="46.71354" lon="6.38026">
        <ele>778</ele>
        <time>2020-09-29T09:53:43Z</time>
      </trkpt>
      <trkpt lat="46.71349" lon="6.38027">
        <ele>777.9</ele>
        <time>2020-09-29T09:53:48Z</time>
      </trkpt>
      <trkpt lat="46.71344" lon="6.38028">
        <ele>778.3</ele>
        <time>2020-09-29T09:53:52Z</time>
      </trkpt>
      <trkpt lat="46.71339" lon="6.38027">
        <ele>780.1</ele>
        <time>2020-09-29T09:53:55Z</time>
      </trkpt>
      <trkpt lat="46.71335" lon="6.38028">
        <ele>781.5</ele>
        <time>2020-09-29T09:53:58Z</time>
      </trkpt>
      <trkpt lat="46.71331" lon="6.38032">
        <ele>782.8</ele>
        <time>2020-09-29T09:54:02Z</time>
      </trkpt>
      <trkpt lat="46.71329" lon="6.38039">
        <ele>783.3</ele>
        <time>2020-09-29T09:54:06Z</time>
      </trkpt>
      <trkpt lat="46.71328" lon="6.38046">
        <ele>783.3</ele>
        <time>2020-09-29T09:54:10Z</time>
      </trkpt>
      <trkpt lat="46.71326" lon="6.38053">
        <ele>782.6</ele>
        <time>2020-09-29T09:54:15Z</time>
      </trkpt>
      <trkpt lat="46.71323" lon="6.38058">
        <ele>781.5</ele>
        <time>2020-09-29T09:54:20Z</time>
      </trkpt>
      <trkpt lat="46.71319" lon="6.38064">
        <ele>779.8</ele>
        <time>2020-09-29T09:54:25Z</time>
      </trkpt>
      <trkpt lat="46.71317" lon="6.3807">
        <ele>778.1</ele>
        <time>2020-09-29T09:54:30Z</time>
      </trkpt>
      <trkpt lat="46.71314" lon="6.38076">
        <ele>776.4</ele>
        <time>2020-09-29T09:54:36Z</time>
      </trkpt>
      <trkpt lat="46.71311" lon="6.38081">
        <ele>775</ele>
        <time>2020-09-29T09:54:41Z</time>
      </trkpt>
      <trkpt lat="46.71308" lon="6.38087">
        <ele>773</ele>
        <time>2020-09-29T09:54:47Z</time>
      </trkpt>
      <trkpt lat="46.71306" lon="6.38094">
        <ele>771.6</ele>
        <time>2020-09-29T09:54:52Z</time>
      </trkpt>
      <trkpt lat="46.71306" lon="6.38101">
        <ele>770.6</ele>
        <time>2020-09-29T09:54:56Z</time>
      </trkpt>
      <trkpt lat="46.71304" lon="6.38108">
        <ele>769.6</ele>
        <time>2020-09-29T09:55:03Z</time>
      </trkpt>
      <trkpt lat="46.71299" lon="6.3811">
        <ele>769.5</ele>
        <time>2020-09-29T09:55:13Z</time>
      </trkpt>
      <trkpt lat="46.71295" lon="6.38111">
        <ele>768.8</ele>
        <time>2020-09-29T09:55:21Z</time>
      </trkpt>
      <trkpt lat="46.71293" lon="6.38105">
        <ele>768.2</ele>
        <time>2020-09-29T09:55:43Z</time>
      </trkpt>
      <trkpt lat="46.7129" lon="6.38099">
        <ele>767.4</ele>
        <time>2020-09-29T09:55:47Z</time>
      </trkpt>
      <trkpt lat="46.71287" lon="6.38094">
        <ele>766.6</ele>
        <time>2020-09-29T09:55:51Z</time>
      </trkpt>
      <trkpt lat="46.71284" lon="6.38088">
        <ele>765.9</ele>
        <time>2020-09-29T09:55:56Z</time>
      </trkpt>
      <trkpt lat="46.71282" lon="6.38082">
        <ele>765.6</ele>
        <time>2020-09-29T09:56:01Z</time>
      </trkpt>
      <trkpt lat="46.7128" lon="6.38076">
        <ele>765.5</ele>
        <time>2020-09-29T09:56:05Z</time>
      </trkpt>
      <trkpt lat="46.71279" lon="6.38069">
        <ele>765.4</ele>
        <time>2020-09-29T09:56:09Z</time>
      </trkpt>
      <trkpt lat="46.71278" lon="6.38063">
        <ele>765.4</ele>
        <time>2020-09-29T09:56:13Z</time>
      </trkpt>
      <trkpt lat="46.71277" lon="6.38056">
        <ele>765.6</ele>
        <time>2020-09-29T09:56:18Z</time>
      </trkpt>
      <trkpt lat="46.71275" lon="6.38048">
        <ele>766.4</ele>
        <time>2020-09-29T09:56:23Z</time>
      </trkpt>
      <trkpt lat="46.71273" lon="6.38042">
        <ele>767</ele>
        <time>2020-09-29T09:56:28Z</time>
      </trkpt>
      <trkpt lat="46.71271" lon="6.38035">
        <ele>767.5</ele>
        <time>2020-09-29T09:56:35Z</time>
      </trkpt>
      <trkpt lat="46.7127" lon="6.38028">
        <ele>767.7</ele>
        <time>2020-09-29T09:56:40Z</time>
      </trkpt>
      <trkpt lat="46.71269" lon="6.38021">
        <ele>767.9</ele>
        <time>2020-09-29T09:56:45Z</time>
      </trkpt>
      <trkpt lat="46.71267" lon="6.38014">
        <ele>768.3</ele>
        <time>2020-09-29T09:56:50Z</time>
      </trkpt>
      <trkpt lat="46.71265" lon="6.38007">
        <ele>768.5</ele>
        <time>2020-09-29T09:56:55Z</time>
      </trkpt>
      <trkpt lat="46.71263" lon="6.38001">
        <ele>768</ele>
        <time>2020-09-29T09:57:02Z</time>
      </trkpt>
      <trkpt lat="46.71261" lon="6.37995">
        <ele>767.5</ele>
        <time>2020-09-29T09:57:08Z</time>
      </trkpt>
      <trkpt lat="46.71259" lon="6.37988">
        <ele>767.3</ele>
        <time>2020-09-29T09:57:14Z</time>
      </trkpt>
      <trkpt lat="46.71256" lon="6.37983">
        <ele>766.9</ele>
        <time>2020-09-29T09:57:19Z</time>
      </trkpt>
      <trkpt lat="46.71253" lon="6.37977">
        <ele>766.4</ele>
        <time>2020-09-29T09:57:24Z</time>
      </trkpt>
      <trkpt lat="46.71248" lon="6.37972">
        <ele>765.8</ele>
        <time>2020-09-29T09:57:28Z</time>
      </trkpt>
      <trkpt lat="46.71244" lon="6.37968">
        <ele>765.1</ele>
        <time>2020-09-29T09:57:32Z</time>
      </trkpt>
      <trkpt lat="46.71239" lon="6.37963">
        <ele>764.5</ele>
        <time>2020-09-29T09:57:37Z</time>
      </trkpt>
      <trkpt lat="46.71235" lon="6.37957">
        <ele>763.9</ele>
        <time>2020-09-29T09:57:42Z</time>
      </trkpt>
      <trkpt lat="46.71231" lon="6.37951">
        <ele>763.5</ele>
        <time>2020-09-29T09:57:47Z</time>
      </trkpt>
      <trkpt lat="46.71227" lon="6.37947">
        <ele>763.3</ele>
        <time>2020-09-29T09:57:51Z</time>
      </trkpt>
      <trkpt lat="46.71223" lon="6.37943">
        <ele>762.9</ele>
        <time>2020-09-29T09:57:56Z</time>
      </trkpt>
      <trkpt lat="46.71219" lon="6.37941">
        <ele>762.8</ele>
        <time>2020-09-29T09:58:03Z</time>
      </trkpt>
      <trkpt lat="46.71218" lon="6.37948">
        <ele>761.5</ele>
        <time>2020-09-29T09:58:18Z</time>
      </trkpt>
      <trkpt lat="46.71219" lon="6.37955">
        <ele>760.9</ele>
        <time>2020-09-29T09:58:23Z</time>
      </trkpt>
      <trkpt lat="46.71221" lon="6.37961">
        <ele>760.6</ele>
        <time>2020-09-29T09:58:27Z</time>
      </trkpt>
      <trkpt lat="46.71222" lon="6.37969">
        <ele>760.1</ele>
        <time>2020-09-29T09:58:33Z</time>
      </trkpt>
      <trkpt lat="46.71224" lon="6.37976">
        <ele>759.6</ele>
        <time>2020-09-29T09:58:38Z</time>
      </trkpt>
      <trkpt lat="46.71225" lon="6.37983">
        <ele>759.4</ele>
        <time>2020-09-29T09:58:42Z</time>
      </trkpt>
      <trkpt lat="46.71226" lon="6.3799">
        <ele>759.1</ele>
        <time>2020-09-29T09:58:46Z</time>
      </trkpt>
      <trkpt lat="46.71228" lon="6.37997">
        <ele>758.8</ele>
        <time>2020-09-29T09:58:51Z</time>
      </trkpt>
      <trkpt lat="46.7123" lon="6.38004">
        <ele>758.5</ele>
        <time>2020-09-29T09:58:55Z</time>
      </trkpt>
      <trkpt lat="46.71231" lon="6.38011">
        <ele>758.1</ele>
        <time>2020-09-29T09:59:02Z</time>
      </trkpt>
      <trkpt lat="46.7123" lon="6.38018">
        <ele>758.4</ele>
        <time>2020-09-29T09:59:10Z</time>
      </trkpt>
      <trkpt lat="46.71228" lon="6.38025">
        <ele>758.3</ele>
        <time>2020-09-29T09:59:15Z</time>
      </trkpt>
      <trkpt lat="46.71225" lon="6.38031">
        <ele>758.1</ele>
        <time>2020-09-29T09:59:20Z</time>
      </trkpt>
      <trkpt lat="46.71222" lon="6.38038">
        <ele>757.4</ele>
        <time>2020-09-29T09:59:26Z</time>
      </trkpt>
      <trkpt lat="46.71218" lon="6.38044">
        <ele>756.6</ele>
        <time>2020-09-29T09:59:31Z</time>
      </trkpt>
      <trkpt lat="46.71216" lon="6.38049">
        <ele>756</ele>
        <time>2020-09-29T09:59:35Z</time>
      </trkpt>
      <trkpt lat="46.71212" lon="6.38055">
        <ele>755.5</ele>
        <time>2020-09-29T09:59:39Z</time>
      </trkpt>
      <trkpt lat="46.7121" lon="6.38061">
        <ele>754.9</ele>
        <time>2020-09-29T09:59:43Z</time>
      </trkpt>
      <trkpt lat="46.71207" lon="6.38067">
        <ele>754.4</ele>
        <time>2020-09-29T09:59:48Z</time>
      </trkpt>
      <trkpt lat="46.71203" lon="6.38071">
        <ele>754</ele>
        <time>2020-09-29T09:59:52Z</time>
      </trkpt>
      <trkpt lat="46.71199" lon="6.38073">
        <ele>753.8</ele>
        <time>2020-09-29T09:59:57Z</time>
      </trkpt>
      <trkpt lat="46.71194" lon="6.38078">
        <ele>753.1</ele>
        <time>2020-09-29T10:00:03Z</time>
      </trkpt>
      <trkpt lat="46.7119" lon="6.3808">
        <ele>747.9</ele>
        <time>2020-09-29T10:01:36Z</time>
      </trkpt>
      <trkpt lat="46.71188" lon="6.38087">
        <ele>743.7</ele>
        <time>2020-09-29T10:02:13Z</time>
      </trkpt>
      <trkpt lat="46.71186" lon="6.38094">
        <ele>744.9</ele>
        <time>2020-09-29T10:02:38Z</time>
      </trkpt>
      <trkpt lat="46.71187" lon="6.38101">
        <ele>746.7</ele>
        <time>2020-09-29T10:02:53Z</time>
      </trkpt>
      <trkpt lat="46.7119" lon="6.38107">
        <ele>746.6</ele>
        <time>2020-09-29T10:03:00Z</time>
      </trkpt>
      <trkpt lat="46.71188" lon="6.38098">
        <ele>747.7</ele>
        <time>2020-09-29T10:04:02Z</time>
      </trkpt>
      <trkpt lat="46.71184" lon="6.38094">
        <ele>747.4</ele>
        <time>2020-09-29T10:04:09Z</time>
      </trkpt>
      <trkpt lat="46.71184" lon="6.38101">
        <ele>746.7</ele>
        <time>2020-09-29T10:04:29Z</time>
      </trkpt>
      <trkpt lat="46.7117" lon="6.38103">
        <ele>746.1</ele>
        <time>2020-09-29T10:16:41Z</time>
      </trkpt>
      <trkpt lat="46.71163" lon="6.38118">
        <ele>754.7</ele>
        <time>2020-09-29T10:16:43Z</time>
      </trkpt>
      <trkpt lat="46.71172" lon="6.38115">
        <ele>759.3</ele>
        <time>2020-09-29T10:17:12Z</time>
      </trkpt>
      <trkpt lat="46.7118" lon="6.38111">
        <ele>756.1</ele>
        <time>2020-09-29T10:17:15Z</time>
      </trkpt>
      <trkpt lat="46.71175" lon="6.3811">
        <ele>753.3</ele>
        <time>2020-09-29T11:03:39Z</time>
      </trkpt>
      <trkpt lat="46.71171" lon="6.38114">
        <ele>756.9</ele>
        <time>2020-09-29T11:03:43Z</time>
      </trkpt>
      <trkpt lat="46.71176" lon="6.38114">
        <ele>760.1</ele>
        <time>2020-09-29T11:03:56Z</time>
      </trkpt>
      <trkpt lat="46.7118" lon="6.3811">
        <ele>759.1</ele>
        <time>2020-09-29T11:04:17Z</time>
      </trkpt>
      <trkpt lat="46.71187" lon="6.38111">
        <ele>754.3</ele>
        <time>2020-09-29T11:05:15Z</time>
      </trkpt>
      <trkpt lat="46.71191" lon="6.3811">
        <ele>744.9</ele>
        <time>2020-09-29T11:05:25Z</time>
      </trkpt>
      <trkpt lat="46.71186" lon="6.38104">
        <ele>741.1</ele>
        <time>2020-09-29T11:05:53Z</time>
      </trkpt>
      <trkpt lat="46.71182" lon="6.38101">
        <ele>741.4</ele>
        <time>2020-09-29T11:05:57Z</time>
      </trkpt>
      <trkpt lat="46.71179" lon="6.38095">
        <ele>741.5</ele>
        <time>2020-09-29T11:11:17Z</time>
      </trkpt>
      <trkpt lat="46.71183" lon="6.38091">
        <ele>740.1</ele>
        <time>2020-09-29T11:11:41Z</time>
      </trkpt>
      <trkpt lat="46.71185" lon="6.38096">
        <ele>741</ele>
        <time>2020-09-29T11:11:54Z</time>
      </trkpt>
      <trkpt lat="46.71187" lon="6.38089">
        <ele>740.5</ele>
        <time>2020-09-29T11:12:12Z</time>
      </trkpt>
      <trkpt lat="46.71187" lon="6.38083">
        <ele>739.4</ele>
        <time>2020-09-29T11:12:21Z</time>
      </trkpt>
      <trkpt lat="46.71191" lon="6.38078">
        <ele>738.1</ele>
        <time>2020-09-29T11:12:30Z</time>
      </trkpt>
      <trkpt lat="46.71196" lon="6.38077">
        <ele>736.9</ele>
        <time>2020-09-29T11:12:38Z</time>
      </trkpt>
      <trkpt lat="46.71201" lon="6.38077">
        <ele>736.3</ele>
        <time>2020-09-29T11:13:06Z</time>
      </trkpt>
      <trkpt lat="46.71205" lon="6.38076">
        <ele>736.4</ele>
        <time>2020-09-29T11:13:13Z</time>
      </trkpt>
      <trkpt lat="46.712" lon="6.38073">
        <ele>737.3</ele>
        <time>2020-09-29T11:13:40Z</time>
      </trkpt>
      <trkpt lat="46.71195" lon="6.38074">
        <ele>738.1</ele>
        <time>2020-09-29T11:13:44Z</time>
      </trkpt>
      <trkpt lat="46.71195" lon="6.38081">
        <ele>740.7</ele>
        <time>2020-09-29T11:13:56Z</time>
      </trkpt>
      <trkpt lat="46.71199" lon="6.38085">
        <ele>741.4</ele>
        <time>2020-09-29T11:14:05Z</time>
      </trkpt>
      <trkpt lat="46.71199" lon="6.38079">
        <ele>741.7</ele>
        <time>2020-09-29T11:15:12Z</time>
      </trkpt>
      <trkpt lat="46.712" lon="6.38087">
        <ele>743</ele>
        <time>2020-09-29T11:15:35Z</time>
      </trkpt>
      <trkpt lat="46.71203" lon="6.38092">
        <ele>742.5</ele>
        <time>2020-09-29T11:15:39Z</time>
      </trkpt>
      <trkpt lat="46.71202" lon="6.38098">
        <ele>741.4</ele>
        <time>2020-09-29T11:16:28Z</time>
      </trkpt>
      <trkpt lat="46.71204" lon="6.38104">
        <ele>741.5</ele>
        <time>2020-09-29T11:17:06Z</time>
      </trkpt>
      <trkpt lat="46.71205" lon="6.38112">
        <ele>742</ele>
        <time>2020-09-29T11:17:11Z</time>
      </trkpt>
      <trkpt lat="46.71204" lon="6.38118">
        <ele>742.3</ele>
        <time>2020-09-29T11:17:16Z</time>
      </trkpt>
      <trkpt lat="46.712" lon="6.38123">
        <ele>742.5</ele>
        <time>2020-09-29T11:17:21Z</time>
      </trkpt>
      <trkpt lat="46.71197" lon="6.38128">
        <ele>742.1</ele>
        <time>2020-09-29T11:17:26Z</time>
      </trkpt>
      <trkpt lat="46.71195" lon="6.38134">
        <ele>741.6</ele>
        <time>2020-09-29T11:17:30Z</time>
      </trkpt>
      <trkpt lat="46.71193" lon="6.3814">
        <ele>740.8</ele>
        <time>2020-09-29T11:17:35Z</time>
      </trkpt>
      <trkpt lat="46.71191" lon="6.38147">
        <ele>740.6</ele>
        <time>2020-09-29T11:17:41Z</time>
      </trkpt>
      <trkpt lat="46.7119" lon="6.38155">
        <ele>740.7</ele>
        <time>2020-09-29T11:17:48Z</time>
      </trkpt>
      <trkpt lat="46.71189" lon="6.38162">
        <ele>741.1</ele>
        <time>2020-09-29T11:17:53Z</time>
      </trkpt>
      <trkpt lat="46.71188" lon="6.38168">
        <ele>741.5</ele>
        <time>2020-09-29T11:17:57Z</time>
      </trkpt>
      <trkpt lat="46.71186" lon="6.38175">
        <ele>741.7</ele>
        <time>2020-09-29T11:18:02Z</time>
      </trkpt>
      <trkpt lat="46.71184" lon="6.38182">
        <ele>741.5</ele>
        <time>2020-09-29T11:18:08Z</time>
      </trkpt>
      <trkpt lat="46.71182" lon="6.38187">
        <ele>741.5</ele>
        <time>2020-09-29T11:18:13Z</time>
      </trkpt>
      <trkpt lat="46.7118" lon="6.38194">
        <ele>741.7</ele>
        <time>2020-09-29T11:18:19Z</time>
      </trkpt>
      <trkpt lat="46.71178" lon="6.38202">
        <ele>741.8</ele>
        <time>2020-09-29T11:18:25Z</time>
      </trkpt>
      <trkpt lat="46.71177" lon="6.38209">
        <ele>741.9</ele>
        <time>2020-09-29T11:18:30Z</time>
      </trkpt>
      <trkpt lat="46.71177" lon="6.38216">
        <ele>742.4</ele>
        <time>2020-09-29T11:18:36Z</time>
      </trkpt>
      <trkpt lat="46.71175" lon="6.38223">
        <ele>742.8</ele>
        <time>2020-09-29T11:18:42Z</time>
      </trkpt>
      <trkpt lat="46.71173" lon="6.38231">
        <ele>742.8</ele>
        <time>2020-09-29T11:18:46Z</time>
      </trkpt>
      <trkpt lat="46.71174" lon="6.38239">
        <ele>742.6</ele>
        <time>2020-09-29T11:18:51Z</time>
      </trkpt>
      <trkpt lat="46.71175" lon="6.38246">
        <ele>742.6</ele>
        <time>2020-09-29T11:18:56Z</time>
      </trkpt>
      <trkpt lat="46.71176" lon="6.38254">
        <ele>742.6</ele>
        <time>2020-09-29T11:19:00Z</time>
      </trkpt>
      <trkpt lat="46.71175" lon="6.38261">
        <ele>742.6</ele>
        <time>2020-09-29T11:19:04Z</time>
      </trkpt>
      <trkpt lat="46.71174" lon="6.38269">
        <ele>742.4</ele>
        <time>2020-09-29T11:19:09Z</time>
      </trkpt>
      <trkpt lat="46.71174" lon="6.38275">
        <ele>742.2</ele>
        <time>2020-09-29T11:19:13Z</time>
      </trkpt>
      <trkpt lat="46.71174" lon="6.38282">
        <ele>742.4</ele>
        <time>2020-09-29T11:19:17Z</time>
      </trkpt>
      <trkpt lat="46.71175" lon="6.3829">
        <ele>742.7</ele>
        <time>2020-09-29T11:19:22Z</time>
      </trkpt>
      <trkpt lat="46.71176" lon="6.38296">
        <ele>742.6</ele>
        <time>2020-09-29T11:19:28Z</time>
      </trkpt>
      <trkpt lat="46.71178" lon="6.38304">
        <ele>742.4</ele>
        <time>2020-09-29T11:19:33Z</time>
      </trkpt>
      <trkpt lat="46.7118" lon="6.38311">
        <ele>742.4</ele>
        <time>2020-09-29T11:19:37Z</time>
      </trkpt>
      <trkpt lat="46.71182" lon="6.38318">
        <ele>742.9</ele>
        <time>2020-09-29T11:19:41Z</time>
      </trkpt>
      <trkpt lat="46.71183" lon="6.38324">
        <ele>743.7</ele>
        <time>2020-09-29T11:19:45Z</time>
      </trkpt>
      <trkpt lat="46.71185" lon="6.38331">
        <ele>744.4</ele>
        <time>2020-09-29T11:19:49Z</time>
      </trkpt>
      <trkpt lat="46.71186" lon="6.38338">
        <ele>745</ele>
        <time>2020-09-29T11:19:53Z</time>
      </trkpt>
      <trkpt lat="46.71186" lon="6.38345">
        <ele>745.3</ele>
        <time>2020-09-29T11:19:57Z</time>
      </trkpt>
      <trkpt lat="46.71186" lon="6.38352">
        <ele>745.5</ele>
        <time>2020-09-29T11:20:02Z</time>
      </trkpt>
      <trkpt lat="46.71188" lon="6.38359">
        <ele>746</ele>
        <time>2020-09-29T11:20:08Z</time>
      </trkpt>
      <trkpt lat="46.71192" lon="6.38364">
        <ele>746.7</ele>
        <time>2020-09-29T11:20:14Z</time>
      </trkpt>
      <trkpt lat="46.71196" lon="6.3837">
        <ele>746.9</ele>
        <time>2020-09-29T11:20:19Z</time>
      </trkpt>
      <trkpt lat="46.71199" lon="6.38375">
        <ele>746.8</ele>
        <time>2020-09-29T11:20:23Z</time>
      </trkpt>
      <trkpt lat="46.71202" lon="6.38382">
        <ele>746.7</ele>
        <time>2020-09-29T11:20:28Z</time>
      </trkpt>
      <trkpt lat="46.71204" lon="6.38389">
        <ele>746.6</ele>
        <time>2020-09-29T11:20:33Z</time>
      </trkpt>
      <trkpt lat="46.71207" lon="6.38395">
        <ele>746.2</ele>
        <time>2020-09-29T11:20:39Z</time>
      </trkpt>
      <trkpt lat="46.7121" lon="6.38401">
        <ele>746.1</ele>
        <time>2020-09-29T11:20:44Z</time>
      </trkpt>
      <trkpt lat="46.71213" lon="6.38407">
        <ele>746.4</ele>
        <time>2020-09-29T11:20:50Z</time>
      </trkpt>
      <trkpt lat="46.71216" lon="6.38414">
        <ele>746.9</ele>
        <time>2020-09-29T11:20:55Z</time>
      </trkpt>
      <trkpt lat="46.71219" lon="6.38418">
        <ele>747.4</ele>
        <time>2020-09-29T11:20:59Z</time>
      </trkpt>
      <trkpt lat="46.71222" lon="6.38423">
        <ele>748</ele>
        <time>2020-09-29T11:21:04Z</time>
      </trkpt>
      <trkpt lat="46.71225" lon="6.3843">
        <ele>748.5</ele>
        <time>2020-09-29T11:21:10Z</time>
      </trkpt>
      <trkpt lat="46.71228" lon="6.38435">
        <ele>748.6</ele>
        <time>2020-09-29T11:21:15Z</time>
      </trkpt>
      <trkpt lat="46.71232" lon="6.3844">
        <ele>748.5</ele>
        <time>2020-09-29T11:21:20Z</time>
      </trkpt>
      <trkpt lat="46.71235" lon="6.38444">
        <ele>748.2</ele>
        <time>2020-09-29T11:21:24Z</time>
      </trkpt>
      <trkpt lat="46.71238" lon="6.38449">
        <ele>747.8</ele>
        <time>2020-09-29T11:21:28Z</time>
      </trkpt>
      <trkpt lat="46.71242" lon="6.38454">
        <ele>747.1</ele>
        <time>2020-09-29T11:21:33Z</time>
      </trkpt>
      <trkpt lat="46.71245" lon="6.38459">
        <ele>746.5</ele>
        <time>2020-09-29T11:21:38Z</time>
      </trkpt>
      <trkpt lat="46.71248" lon="6.38465">
        <ele>746.1</ele>
        <time>2020-09-29T11:21:44Z</time>
      </trkpt>
      <trkpt lat="46.71253" lon="6.38467">
        <ele>745.9</ele>
        <time>2020-09-29T11:21:49Z</time>
      </trkpt>
      <trkpt lat="46.71258" lon="6.38468">
        <ele>745.9</ele>
        <time>2020-09-29T11:21:54Z</time>
      </trkpt>
      <trkpt lat="46.71262" lon="6.38471">
        <ele>746.2</ele>
        <time>2020-09-29T11:22:00Z</time>
      </trkpt>
      <trkpt lat="46.71266" lon="6.38478">
        <ele>746</ele>
        <time>2020-09-29T11:22:05Z</time>
      </trkpt>
      <trkpt lat="46.71268" lon="6.38485">
        <ele>746.1</ele>
        <time>2020-09-29T11:22:10Z</time>
      </trkpt>
      <trkpt lat="46.7127" lon="6.38491">
        <ele>746.9</ele>
        <time>2020-09-29T11:22:16Z</time>
      </trkpt>
      <trkpt lat="46.71271" lon="6.38499">
        <ele>747.4</ele>
        <time>2020-09-29T11:22:20Z</time>
      </trkpt>
      <trkpt lat="46.71272" lon="6.38505">
        <ele>747.3</ele>
        <time>2020-09-29T11:22:25Z</time>
      </trkpt>
      <trkpt lat="46.71272" lon="6.38512">
        <ele>746.6</ele>
        <time>2020-09-29T11:22:29Z</time>
      </trkpt>
      <trkpt lat="46.71273" lon="6.38519">
        <ele>746.2</ele>
        <time>2020-09-29T11:22:33Z</time>
      </trkpt>
      <trkpt lat="46.71271" lon="6.38526">
        <ele>746.2</ele>
        <time>2020-09-29T11:22:38Z</time>
      </trkpt>
      <trkpt lat="46.71268" lon="6.38531">
        <ele>746.3</ele>
        <time>2020-09-29T11:22:43Z</time>
      </trkpt>
      <trkpt lat="46.71263" lon="6.38533">
        <ele>746.5</ele>
        <time>2020-09-29T11:22:49Z</time>
      </trkpt>
      <trkpt lat="46.71259" lon="6.38536">
        <ele>746.5</ele>
        <time>2020-09-29T11:22:56Z</time>
      </trkpt>
      <trkpt lat="46.7126" lon="6.38543">
        <ele>746.4</ele>
        <time>2020-09-29T11:23:22Z</time>
      </trkpt>
      <trkpt lat="46.71258" lon="6.3855">
        <ele>745.9</ele>
        <time>2020-09-29T11:23:31Z</time>
      </trkpt>
      <trkpt lat="46.71253" lon="6.38553">
        <ele>745.4</ele>
        <time>2020-09-29T11:23:36Z</time>
      </trkpt>
      <trkpt lat="46.71248" lon="6.38556">
        <ele>745.3</ele>
        <time>2020-09-29T11:23:44Z</time>
      </trkpt>
      <trkpt lat="46.71243" lon="6.38555">
        <ele>745.8</ele>
        <time>2020-09-29T11:23:52Z</time>
      </trkpt>
      <trkpt lat="46.71238" lon="6.38552">
        <ele>746.8</ele>
        <time>2020-09-29T11:24:26Z</time>
      </trkpt>
      <trkpt lat="46.71234" lon="6.3855">
        <ele>746.9</ele>
        <time>2020-09-29T11:24:31Z</time>
      </trkpt>
      <trkpt lat="46.71229" lon="6.38548">
        <ele>747</ele>
        <time>2020-09-29T11:24:37Z</time>
      </trkpt>
      <trkpt lat="46.71225" lon="6.38544">
        <ele>747.5</ele>
        <time>2020-09-29T11:24:43Z</time>
      </trkpt>
      <trkpt lat="46.71221" lon="6.38539">
        <ele>748</ele>
        <time>2020-09-29T11:24:50Z</time>
      </trkpt>
      <trkpt lat="46.71216" lon="6.38537">
        <ele>748.2</ele>
        <time>2020-09-29T11:24:56Z</time>
      </trkpt>
      <trkpt lat="46.71211" lon="6.38535">
        <ele>748.2</ele>
        <time>2020-09-29T11:25:01Z</time>
      </trkpt>
      <trkpt lat="46.71206" lon="6.38532">
        <ele>747.9</ele>
        <time>2020-09-29T11:25:07Z</time>
      </trkpt>
      <trkpt lat="46.71202" lon="6.38527">
        <ele>748.6</ele>
        <time>2020-09-29T11:25:12Z</time>
      </trkpt>
      <trkpt lat="46.71197" lon="6.38527">
        <ele>749.4</ele>
        <time>2020-09-29T11:25:21Z</time>
      </trkpt>
      <trkpt lat="46.71192" lon="6.38529">
        <ele>750.2</ele>
        <time>2020-09-29T11:25:30Z</time>
      </trkpt>
      <trkpt lat="46.71193" lon="6.38536">
        <ele>753</ele>
        <time>2020-09-29T11:25:54Z</time>
      </trkpt>
      <trkpt lat="46.71196" lon="6.38542">
        <ele>753.3</ele>
        <time>2020-09-29T11:26:02Z</time>
      </trkpt>
      <trkpt lat="46.71198" lon="6.38548">
        <ele>753.5</ele>
        <time>2020-09-29T11:26:08Z</time>
      </trkpt>
      <trkpt lat="46.71201" lon="6.38554">
        <ele>753.4</ele>
        <time>2020-09-29T11:26:13Z</time>
      </trkpt>
      <trkpt lat="46.71206" lon="6.38558">
        <ele>753.3</ele>
        <time>2020-09-29T11:26:18Z</time>
      </trkpt>
      <trkpt lat="46.7121" lon="6.38562">
        <ele>753.5</ele>
        <time>2020-09-29T11:26:23Z</time>
      </trkpt>
      <trkpt lat="46.71214" lon="6.38568">
        <ele>753.8</ele>
        <time>2020-09-29T11:26:29Z</time>
      </trkpt>
      <trkpt lat="46.71217" lon="6.38573">
        <ele>753.9</ele>
        <time>2020-09-29T11:26:34Z</time>
      </trkpt>
      <trkpt lat="46.7122" lon="6.38579">
        <ele>754.3</ele>
        <time>2020-09-29T11:26:39Z</time>
      </trkpt>
      <trkpt lat="46.71223" lon="6.38584">
        <ele>754.3</ele>
        <time>2020-09-29T11:26:44Z</time>
      </trkpt>
      <trkpt lat="46.71227" lon="6.38588">
        <ele>754</ele>
        <time>2020-09-29T11:26:49Z</time>
      </trkpt>
      <trkpt lat="46.7123" lon="6.38593">
        <ele>753.9</ele>
        <time>2020-09-29T11:26:54Z</time>
      </trkpt>
      <trkpt lat="46.71234" lon="6.38599">
        <ele>754</ele>
        <time>2020-09-29T11:26:59Z</time>
      </trkpt>
      <trkpt lat="46.71238" lon="6.38603">
        <ele>754</ele>
        <time>2020-09-29T11:27:04Z</time>
      </trkpt>
      <trkpt lat="46.71242" lon="6.38606">
        <ele>754.3</ele>
        <time>2020-09-29T11:27:09Z</time>
      </trkpt>
      <trkpt lat="46.71246" lon="6.3861">
        <ele>754.9</ele>
        <time>2020-09-29T11:27:15Z</time>
      </trkpt>
      <trkpt lat="46.7125" lon="6.38614">
        <ele>755.5</ele>
        <time>2020-09-29T11:27:19Z</time>
      </trkpt>
      <trkpt lat="46.71254" lon="6.38619">
        <ele>755.9</ele>
        <time>2020-09-29T11:27:23Z</time>
      </trkpt>
      <trkpt lat="46.71257" lon="6.38623">
        <ele>756.4</ele>
        <time>2020-09-29T11:27:27Z</time>
      </trkpt>
      <trkpt lat="46.71261" lon="6.38628">
        <ele>757.2</ele>
        <time>2020-09-29T11:27:33Z</time>
      </trkpt>
      <trkpt lat="46.71264" lon="6.38634">
        <ele>757.9</ele>
        <time>2020-09-29T11:27:38Z</time>
      </trkpt>
      <trkpt lat="46.71268" lon="6.3864">
        <ele>758.3</ele>
        <time>2020-09-29T11:27:43Z</time>
      </trkpt>
      <trkpt lat="46.71272" lon="6.38645">
        <ele>758.5</ele>
        <time>2020-09-29T11:27:48Z</time>
      </trkpt>
      <trkpt lat="46.71275" lon="6.38649">
        <ele>758.4</ele>
        <time>2020-09-29T11:27:53Z</time>
      </trkpt>
      <trkpt lat="46.71278" lon="6.38655">
        <ele>758.3</ele>
        <time>2020-09-29T11:27:57Z</time>
      </trkpt>
      <trkpt lat="46.71283" lon="6.3866">
        <ele>758</ele>
        <time>2020-09-29T11:28:02Z</time>
      </trkpt>
      <trkpt lat="46.71286" lon="6.38664">
        <ele>757.3</ele>
        <time>2020-09-29T11:28:07Z</time>
      </trkpt>
      <trkpt lat="46.71289" lon="6.3867">
        <ele>756.6</ele>
        <time>2020-09-29T11:28:12Z</time>
      </trkpt>
      <trkpt lat="46.71292" lon="6.38675">
        <ele>756</ele>
        <time>2020-09-29T11:28:17Z</time>
      </trkpt>
      <trkpt lat="46.71295" lon="6.38681">
        <ele>755.6</ele>
        <time>2020-09-29T11:28:22Z</time>
      </trkpt>
      <trkpt lat="46.71298" lon="6.38687">
        <ele>755.6</ele>
        <time>2020-09-29T11:28:26Z</time>
      </trkpt>
      <trkpt lat="46.713" lon="6.38693">
        <ele>755.5</ele>
        <time>2020-09-29T11:28:30Z</time>
      </trkpt>
      <trkpt lat="46.71302" lon="6.38699">
        <ele>755.1</ele>
        <time>2020-09-29T11:28:35Z</time>
      </trkpt>
      <trkpt lat="46.71304" lon="6.38706">
        <ele>754.5</ele>
        <time>2020-09-29T11:28:40Z</time>
      </trkpt>
      <trkpt lat="46.71307" lon="6.38713">
        <ele>754.4</ele>
        <time>2020-09-29T11:28:45Z</time>
      </trkpt>
      <trkpt lat="46.7131" lon="6.38719">
        <ele>754.7</ele>
        <time>2020-09-29T11:28:50Z</time>
      </trkpt>
      <trkpt lat="46.71313" lon="6.38726">
        <ele>755.2</ele>
        <time>2020-09-29T11:28:55Z</time>
      </trkpt>
      <trkpt lat="46.71316" lon="6.38732">
        <ele>755.3</ele>
        <time>2020-09-29T11:29:00Z</time>
      </trkpt>
      <trkpt lat="46.71318" lon="6.38739">
        <ele>754.8</ele>
        <time>2020-09-29T11:29:05Z</time>
      </trkpt>
      <trkpt lat="46.7132" lon="6.38746">
        <ele>754.3</ele>
        <time>2020-09-29T11:29:10Z</time>
      </trkpt>
      <trkpt lat="46.71321" lon="6.38753">
        <ele>753.9</ele>
        <time>2020-09-29T11:29:16Z</time>
      </trkpt>
      <trkpt lat="46.71323" lon="6.38759">
        <ele>753.4</ele>
        <time>2020-09-29T11:29:20Z</time>
      </trkpt>
      <trkpt lat="46.71325" lon="6.38766">
        <ele>752.6</ele>
        <time>2020-09-29T11:29:25Z</time>
      </trkpt>
      <trkpt lat="46.71327" lon="6.38772">
        <ele>751.8</ele>
        <time>2020-09-29T11:29:29Z</time>
      </trkpt>
      <trkpt lat="46.7133" lon="6.38778">
        <ele>751.5</ele>
        <time>2020-09-29T11:29:33Z</time>
      </trkpt>
      <trkpt lat="46.71332" lon="6.38785">
        <ele>751.7</ele>
        <time>2020-09-29T11:29:39Z</time>
      </trkpt>
      <trkpt lat="46.71333" lon="6.38792">
        <ele>751.7</ele>
        <time>2020-09-29T11:29:44Z</time>
      </trkpt>
      <trkpt lat="46.71335" lon="6.38799">
        <ele>751.5</ele>
        <time>2020-09-29T11:29:49Z</time>
      </trkpt>
      <trkpt lat="46.71337" lon="6.38806">
        <ele>751.2</ele>
        <time>2020-09-29T11:29:54Z</time>
      </trkpt>
      <trkpt lat="46.71339" lon="6.38813">
        <ele>750.7</ele>
        <time>2020-09-29T11:29:59Z</time>
      </trkpt>
      <trkpt lat="46.7134" lon="6.38821">
        <ele>750.7</ele>
        <time>2020-09-29T11:30:04Z</time>
      </trkpt>
      <trkpt lat="46.7134" lon="6.38827">
        <ele>751</ele>
        <time>2020-09-29T11:30:07Z</time>
      </trkpt>
      <trkpt lat="46.71342" lon="6.38834">
        <ele>752</ele>
        <time>2020-09-29T11:30:11Z</time>
      </trkpt>
      <trkpt lat="46.71345" lon="6.3884">
        <ele>753.3</ele>
        <time>2020-09-29T11:30:16Z</time>
      </trkpt>
      <trkpt lat="46.71346" lon="6.38847">
        <ele>754.7</ele>
        <time>2020-09-29T11:30:21Z</time>
      </trkpt>
      <trkpt lat="46.71347" lon="6.38854">
        <ele>755.6</ele>
        <time>2020-09-29T11:30:25Z</time>
      </trkpt>
      <trkpt lat="46.71348" lon="6.3886">
        <ele>756</ele>
        <time>2020-09-29T11:30:29Z</time>
      </trkpt>
      <trkpt lat="46.7135" lon="6.38868">
        <ele>756.2</ele>
        <time>2020-09-29T11:30:34Z</time>
      </trkpt>
      <trkpt lat="46.71351" lon="6.38874">
        <ele>756.4</ele>
        <time>2020-09-29T11:30:39Z</time>
      </trkpt>
      <trkpt lat="46.71352" lon="6.38882">
        <ele>756.7</ele>
        <time>2020-09-29T11:30:44Z</time>
      </trkpt>
      <trkpt lat="46.71353" lon="6.38889">
        <ele>757.1</ele>
        <time>2020-09-29T11:30:48Z</time>
      </trkpt>
      <trkpt lat="46.71356" lon="6.38895">
        <ele>757.5</ele>
        <time>2020-09-29T11:30:53Z</time>
      </trkpt>
      <trkpt lat="46.71357" lon="6.38902">
        <ele>757.7</ele>
        <time>2020-09-29T11:30:59Z</time>
      </trkpt>
      <trkpt lat="46.71358" lon="6.38909">
        <ele>757.7</ele>
        <time>2020-09-29T11:31:04Z</time>
      </trkpt>
      <trkpt lat="46.7136" lon="6.38916">
        <ele>757.7</ele>
        <time>2020-09-29T11:31:09Z</time>
      </trkpt>
      <trkpt lat="46.71362" lon="6.38922">
        <ele>757.7</ele>
        <time>2020-09-29T11:31:13Z</time>
      </trkpt>
      <trkpt lat="46.71363" lon="6.38928">
        <ele>757.7</ele>
        <time>2020-09-29T11:31:18Z</time>
      </trkpt>
      <trkpt lat="46.71366" lon="6.38934">
        <ele>757.4</ele>
        <time>2020-09-29T11:31:25Z</time>
      </trkpt>
      <trkpt lat="46.71367" lon="6.38942">
        <ele>757.3</ele>
        <time>2020-09-29T11:31:32Z</time>
      </trkpt>
      <trkpt lat="46.71368" lon="6.38949">
        <ele>757.2</ele>
        <time>2020-09-29T11:31:37Z</time>
      </trkpt>
      <trkpt lat="46.71371" lon="6.38955">
        <ele>756.8</ele>
        <time>2020-09-29T11:31:42Z</time>
      </trkpt>
      <trkpt lat="46.71374" lon="6.38962">
        <ele>756.4</ele>
        <time>2020-09-29T11:31:47Z</time>
      </trkpt>
      <trkpt lat="46.71376" lon="6.38968">
        <ele>756</ele>
        <time>2020-09-29T11:31:52Z</time>
      </trkpt>
      <trkpt lat="46.71379" lon="6.38974">
        <ele>755.8</ele>
        <time>2020-09-29T11:31:57Z</time>
      </trkpt>
      <trkpt lat="46.71382" lon="6.3898">
        <ele>755.9</ele>
        <time>2020-09-29T11:32:03Z</time>
      </trkpt>
      <trkpt lat="46.71385" lon="6.38987">
        <ele>756.2</ele>
        <time>2020-09-29T11:32:08Z</time>
      </trkpt>
      <trkpt lat="46.71388" lon="6.38994">
        <ele>756.3</ele>
        <time>2020-09-29T11:32:13Z</time>
      </trkpt>
      <trkpt lat="46.71391" lon="6.39">
        <ele>756.4</ele>
        <time>2020-09-29T11:32:17Z</time>
      </trkpt>
      <trkpt lat="46.71394" lon="6.39006">
        <ele>756.6</ele>
        <time>2020-09-29T11:32:22Z</time>
      </trkpt>
      <trkpt lat="46.71398" lon="6.39009">
        <ele>756.8</ele>
        <time>2020-09-29T11:32:27Z</time>
      </trkpt>
      <trkpt lat="46.71403" lon="6.3901">
        <ele>756.9</ele>
        <time>2020-09-29T11:32:32Z</time>
      </trkpt>
      <trkpt lat="46.71408" lon="6.39008">
        <ele>755.9</ele>
        <time>2020-09-29T11:32:39Z</time>
      </trkpt>
      <trkpt lat="46.71413" lon="6.39005">
        <ele>755</ele>
        <time>2020-09-29T11:32:44Z</time>
      </trkpt>
      <trkpt lat="46.71418" lon="6.39004">
        <ele>754.4</ele>
        <time>2020-09-29T11:32:50Z</time>
      </trkpt>
      <trkpt lat="46.71422" lon="6.39002">
        <ele>753.7</ele>
        <time>2020-09-29T11:32:58Z</time>
      </trkpt>
      <trkpt lat="46.71425" lon="6.39008">
        <ele>753.2</ele>
        <time>2020-09-29T11:33:06Z</time>
      </trkpt>
      <trkpt lat="46.7143" lon="6.39007">
        <ele>751.9</ele>
        <time>2020-09-29T11:33:12Z</time>
      </trkpt>
      <trkpt lat="46.71435" lon="6.39002">
        <ele>751</ele>
        <time>2020-09-29T11:33:16Z</time>
      </trkpt>
      <trkpt lat="46.71439" lon="6.38997">
        <ele>750.5</ele>
        <time>2020-09-29T11:33:20Z</time>
      </trkpt>
      <trkpt lat="46.71444" lon="6.38993">
        <ele>750</ele>
        <time>2020-09-29T11:33:24Z</time>
      </trkpt>
      <trkpt lat="46.71447" lon="6.38988">
        <ele>749.7</ele>
        <time>2020-09-29T11:33:28Z</time>
      </trkpt>
      <trkpt lat="46.71452" lon="6.38983">
        <ele>749.6</ele>
        <time>2020-09-29T11:33:33Z</time>
      </trkpt>
      <trkpt lat="46.71456" lon="6.38981">
        <ele>749.7</ele>
        <time>2020-09-29T11:33:38Z</time>
      </trkpt>
      <trkpt lat="46.71462" lon="6.38981">
        <ele>749.6</ele>
        <time>2020-09-29T11:33:43Z</time>
      </trkpt>
      <trkpt lat="46.71466" lon="6.38983">
        <ele>749.8</ele>
        <time>2020-09-29T11:33:47Z</time>
      </trkpt>
      <trkpt lat="46.71471" lon="6.38986">
        <ele>750</ele>
        <time>2020-09-29T11:33:51Z</time>
      </trkpt>
      <trkpt lat="46.71476" lon="6.3899">
        <ele>750.2</ele>
        <time>2020-09-29T11:33:55Z</time>
      </trkpt>
      <trkpt lat="46.71481" lon="6.38993">
        <ele>750.3</ele>
        <time>2020-09-29T11:33:59Z</time>
      </trkpt>
      <trkpt lat="46.71485" lon="6.38996">
        <ele>750.5</ele>
        <time>2020-09-29T11:34:03Z</time>
      </trkpt>
      <trkpt lat="46.7149" lon="6.38999">
        <ele>750.7</ele>
        <time>2020-09-29T11:34:07Z</time>
      </trkpt>
      <trkpt lat="46.71494" lon="6.39003">
        <ele>750.8</ele>
        <time>2020-09-29T11:34:11Z</time>
      </trkpt>
      <trkpt lat="46.71498" lon="6.39006">
        <ele>751.2</ele>
        <time>2020-09-29T11:34:15Z</time>
      </trkpt>
      <trkpt lat="46.71503" lon="6.3901">
        <ele>751.4</ele>
        <time>2020-09-29T11:34:19Z</time>
      </trkpt>
      <trkpt lat="46.71507" lon="6.39014">
        <ele>751.4</ele>
        <time>2020-09-29T11:34:23Z</time>
      </trkpt>
      <trkpt lat="46.71511" lon="6.39017">
        <ele>751.4</ele>
        <time>2020-09-29T11:34:28Z</time>
      </trkpt>
      <trkpt lat="46.71516" lon="6.3902">
        <ele>751.2</ele>
        <time>2020-09-29T11:34:32Z</time>
      </trkpt>
      <trkpt lat="46.7152" lon="6.39023">
        <ele>751.2</ele>
        <time>2020-09-29T11:34:36Z</time>
      </trkpt>
      <trkpt lat="46.71525" lon="6.39027">
        <ele>751.1</ele>
        <time>2020-09-29T11:34:41Z</time>
      </trkpt>
      <trkpt lat="46.71528" lon="6.39031">
        <ele>750.7</ele>
        <time>2020-09-29T11:34:45Z</time>
      </trkpt>
      <trkpt lat="46.71532" lon="6.39037">
        <ele>750.2</ele>
        <time>2020-09-29T11:34:50Z</time>
      </trkpt>
      <trkpt lat="46.71536" lon="6.3904">
        <ele>749.8</ele>
        <time>2020-09-29T11:34:56Z</time>
      </trkpt>
      <trkpt lat="46.71541" lon="6.39042">
        <ele>749.5</ele>
        <time>2020-09-29T11:35:01Z</time>
      </trkpt>
      <trkpt lat="46.71546" lon="6.39044">
        <ele>749.3</ele>
        <time>2020-09-29T11:35:06Z</time>
      </trkpt>
      <trkpt lat="46.71551" lon="6.39045">
        <ele>749</ele>
        <time>2020-09-29T11:35:11Z</time>
      </trkpt>
      <trkpt lat="46.71555" lon="6.3905">
        <ele>748.6</ele>
        <time>2020-09-29T11:35:16Z</time>
      </trkpt>
      <trkpt lat="46.71558" lon="6.39054">
        <ele>748.3</ele>
        <time>2020-09-29T11:35:20Z</time>
      </trkpt>
      <trkpt lat="46.71562" lon="6.39059">
        <ele>748.2</ele>
        <time>2020-09-29T11:35:25Z</time>
      </trkpt>
      <trkpt lat="46.71567" lon="6.39062">
        <ele>748.2</ele>
        <time>2020-09-29T11:35:30Z</time>
      </trkpt>
      <trkpt lat="46.71572" lon="6.39066">
        <ele>748.3</ele>
        <time>2020-09-29T11:35:35Z</time>
      </trkpt>
      <trkpt lat="46.71576" lon="6.39069">
        <ele>748.5</ele>
        <time>2020-09-29T11:35:39Z</time>
      </trkpt>
      <trkpt lat="46.71581" lon="6.39072">
        <ele>748.7</ele>
        <time>2020-09-29T11:35:43Z</time>
      </trkpt>
      <trkpt lat="46.71585" lon="6.39076">
        <ele>749.1</ele>
        <time>2020-09-29T11:35:48Z</time>
      </trkpt>
      <trkpt lat="46.7159" lon="6.3908">
        <ele>749.5</ele>
        <time>2020-09-29T11:35:54Z</time>
      </trkpt>
      <trkpt lat="46.71593" lon="6.39085">
        <ele>749.8</ele>
        <time>2020-09-29T11:35:59Z</time>
      </trkpt>
      <trkpt lat="46.71596" lon="6.3909">
        <ele>750.1</ele>
        <time>2020-09-29T11:36:03Z</time>
      </trkpt>
      <trkpt lat="46.71599" lon="6.39096">
        <ele>750.3</ele>
        <time>2020-09-29T11:36:07Z</time>
      </trkpt>
      <trkpt lat="46.71603" lon="6.39102">
        <ele>750.6</ele>
        <time>2020-09-29T11:36:12Z</time>
      </trkpt>
      <trkpt lat="46.71606" lon="6.39106">
        <ele>750.8</ele>
        <time>2020-09-29T11:36:16Z</time>
      </trkpt>
      <trkpt lat="46.7161" lon="6.39112">
        <ele>751</ele>
        <time>2020-09-29T11:36:21Z</time>
      </trkpt>
      <trkpt lat="46.71614" lon="6.39116">
        <ele>751.1</ele>
        <time>2020-09-29T11:36:26Z</time>
      </trkpt>
      <trkpt lat="46.71617" lon="6.39123">
        <ele>751.1</ele>
        <time>2020-09-29T11:36:31Z</time>
      </trkpt>
      <trkpt lat="46.71621" lon="6.39128">
        <ele>750.8</ele>
        <time>2020-09-29T11:36:36Z</time>
      </trkpt>
      <trkpt lat="46.71625" lon="6.39133">
        <ele>750.6</ele>
        <time>2020-09-29T11:36:41Z</time>
      </trkpt>
      <trkpt lat="46.71629" lon="6.39137">
        <ele>750.5</ele>
        <time>2020-09-29T11:36:45Z</time>
      </trkpt>
      <trkpt lat="46.71633" lon="6.3914">
        <ele>750.1</ele>
        <time>2020-09-29T11:36:50Z</time>
      </trkpt>
      <trkpt lat="46.71638" lon="6.39141">
        <ele>749.4</ele>
        <time>2020-09-29T11:36:56Z</time>
      </trkpt>
      <trkpt lat="46.71643" lon="6.39142">
        <ele>748.8</ele>
        <time>2020-09-29T11:37:01Z</time>
      </trkpt>
      <trkpt lat="46.71647" lon="6.39142">
        <ele>748.2</ele>
        <time>2020-09-29T11:37:06Z</time>
      </trkpt>
      <trkpt lat="46.71652" lon="6.39144">
        <ele>747.6</ele>
        <time>2020-09-29T11:37:11Z</time>
      </trkpt>
      <trkpt lat="46.71657" lon="6.39146">
        <ele>747</ele>
        <time>2020-09-29T11:37:16Z</time>
      </trkpt>
      <trkpt lat="46.71661" lon="6.39149">
        <ele>745.9</ele>
        <time>2020-09-29T11:37:21Z</time>
      </trkpt>
      <trkpt lat="46.71666" lon="6.39152">
        <ele>745.1</ele>
        <time>2020-09-29T11:37:25Z</time>
      </trkpt>
      <trkpt lat="46.7167" lon="6.39155">
        <ele>744.3</ele>
        <time>2020-09-29T11:37:29Z</time>
      </trkpt>
      <trkpt lat="46.71675" lon="6.39158">
        <ele>743.5</ele>
        <time>2020-09-29T11:37:34Z</time>
      </trkpt>
      <trkpt lat="46.7168" lon="6.39161">
        <ele>743</ele>
        <time>2020-09-29T11:37:39Z</time>
      </trkpt>
      <trkpt lat="46.71685" lon="6.39163">
        <ele>743</ele>
        <time>2020-09-29T11:37:44Z</time>
      </trkpt>
      <trkpt lat="46.7169" lon="6.39165">
        <ele>743.3</ele>
        <time>2020-09-29T11:37:49Z</time>
      </trkpt>
      <trkpt lat="46.71695" lon="6.39167">
        <ele>743.5</ele>
        <time>2020-09-29T11:37:54Z</time>
      </trkpt>
      <trkpt lat="46.71699" lon="6.39168">
        <ele>743.5</ele>
        <time>2020-09-29T11:37:58Z</time>
      </trkpt>
      <trkpt lat="46.71704" lon="6.39168">
        <ele>743.9</ele>
        <time>2020-09-29T11:38:02Z</time>
      </trkpt>
      <trkpt lat="46.71709" lon="6.39168">
        <ele>744.3</ele>
        <time>2020-09-29T11:38:07Z</time>
      </trkpt>
      <trkpt lat="46.71715" lon="6.39168">
        <ele>744.2</ele>
        <time>2020-09-29T11:38:12Z</time>
      </trkpt>
      <trkpt lat="46.7172" lon="6.39168">
        <ele>743.9</ele>
        <time>2020-09-29T11:38:17Z</time>
      </trkpt>
      <trkpt lat="46.71724" lon="6.39164">
        <ele>743.5</ele>
        <time>2020-09-29T11:38:23Z</time>
      </trkpt>
      <trkpt lat="46.71728" lon="6.39159">
        <ele>743.2</ele>
        <time>2020-09-29T11:38:28Z</time>
      </trkpt>
      <trkpt lat="46.71731" lon="6.39154">
        <ele>743.2</ele>
        <time>2020-09-29T11:38:34Z</time>
      </trkpt>
      <trkpt lat="46.7173" lon="6.39147">
        <ele>742.9</ele>
        <time>2020-09-29T11:38:40Z</time>
      </trkpt>
      <trkpt lat="46.71732" lon="6.3914">
        <ele>742.2</ele>
        <time>2020-09-29T11:38:48Z</time>
      </trkpt>
      <trkpt lat="46.71735" lon="6.39134">
        <ele>742</ele>
        <time>2020-09-29T11:38:53Z</time>
      </trkpt>
      <trkpt lat="46.71739" lon="6.3913">
        <ele>741.5</ele>
        <time>2020-09-29T11:38:58Z</time>
      </trkpt>
      <trkpt lat="46.71744" lon="6.39127">
        <ele>740.9</ele>
        <time>2020-09-29T11:39:05Z</time>
      </trkpt>
      <trkpt lat="46.71749" lon="6.39125">
        <ele>740.4</ele>
        <time>2020-09-29T11:39:10Z</time>
      </trkpt>
      <trkpt lat="46.71754" lon="6.39121">
        <ele>739.8</ele>
        <time>2020-09-29T11:39:15Z</time>
      </trkpt>
      <trkpt lat="46.71758" lon="6.39117">
        <ele>739.4</ele>
        <time>2020-09-29T11:39:20Z</time>
      </trkpt>
      <trkpt lat="46.71763" lon="6.39114">
        <ele>739.2</ele>
        <time>2020-09-29T11:39:25Z</time>
      </trkpt>
      <trkpt lat="46.71767" lon="6.39112">
        <ele>739</ele>
        <time>2020-09-29T11:39:30Z</time>
      </trkpt>
      <trkpt lat="46.71772" lon="6.39113">
        <ele>739</ele>
        <time>2020-09-29T11:39:36Z</time>
      </trkpt>
      <trkpt lat="46.71776" lon="6.39115">
        <ele>739.1</ele>
        <time>2020-09-29T11:39:41Z</time>
      </trkpt>
      <trkpt lat="46.7178" lon="6.3912">
        <ele>739.2</ele>
        <time>2020-09-29T11:39:46Z</time>
      </trkpt>
      <trkpt lat="46.71784" lon="6.39126">
        <ele>739.1</ele>
        <time>2020-09-29T11:39:51Z</time>
      </trkpt>
      <trkpt lat="46.71787" lon="6.39132">
        <ele>738.9</ele>
        <time>2020-09-29T11:39:56Z</time>
      </trkpt>
      <trkpt lat="46.71791" lon="6.39137">
        <ele>738.7</ele>
        <time>2020-09-29T11:40:02Z</time>
      </trkpt>
      <trkpt lat="46.71794" lon="6.39142">
        <ele>738.5</ele>
        <time>2020-09-29T11:40:08Z</time>
      </trkpt>
      <trkpt lat="46.71798" lon="6.39148">
        <ele>738.6</ele>
        <time>2020-09-29T11:40:14Z</time>
      </trkpt>
      <trkpt lat="46.718" lon="6.39154">
        <ele>738.9</ele>
        <time>2020-09-29T11:40:19Z</time>
      </trkpt>
      <trkpt lat="46.71804" lon="6.39159">
        <ele>739.5</ele>
        <time>2020-09-29T11:40:24Z</time>
      </trkpt>
      <trkpt lat="46.71808" lon="6.39163">
        <ele>740.3</ele>
        <time>2020-09-29T11:40:30Z</time>
      </trkpt>
      <trkpt lat="46.7181" lon="6.3917">
        <ele>741.3</ele>
        <time>2020-09-29T11:40:37Z</time>
      </trkpt>
      <trkpt lat="46.71813" lon="6.39177">
        <ele>741.6</ele>
        <time>2020-09-29T11:40:42Z</time>
      </trkpt>
      <trkpt lat="46.71814" lon="6.39183">
        <ele>741.8</ele>
        <time>2020-09-29T11:40:47Z</time>
      </trkpt>
      <trkpt lat="46.71817" lon="6.39189">
        <ele>741.7</ele>
        <time>2020-09-29T11:40:52Z</time>
      </trkpt>
      <trkpt lat="46.7182" lon="6.39193">
        <ele>741.6</ele>
        <time>2020-09-29T11:40:57Z</time>
      </trkpt>
      <trkpt lat="46.71824" lon="6.39197">
        <ele>741.2</ele>
        <time>2020-09-29T11:41:02Z</time>
      </trkpt>
      <trkpt lat="46.71828" lon="6.39201">
        <ele>740.8</ele>
        <time>2020-09-29T11:41:07Z</time>
      </trkpt>
      <trkpt lat="46.71833" lon="6.39205">
        <ele>740.5</ele>
        <time>2020-09-29T11:41:13Z</time>
      </trkpt>
      <trkpt lat="46.71838" lon="6.39208">
        <ele>740.2</ele>
        <time>2020-09-29T11:41:18Z</time>
      </trkpt>
      <trkpt lat="46.71842" lon="6.39212">
        <ele>740</ele>
        <time>2020-09-29T11:41:22Z</time>
      </trkpt>
      <trkpt lat="46.71846" lon="6.39216">
        <ele>739.5</ele>
        <time>2020-09-29T11:41:27Z</time>
      </trkpt>
      <trkpt lat="46.7185" lon="6.3922">
        <ele>739</ele>
        <time>2020-09-29T11:41:32Z</time>
      </trkpt>
      <trkpt lat="46.71854" lon="6.39224">
        <ele>738.7</ele>
        <time>2020-09-29T11:41:37Z</time>
      </trkpt>
      <trkpt lat="46.71857" lon="6.3923">
        <ele>738.3</ele>
        <time>2020-09-29T11:41:42Z</time>
      </trkpt>
      <trkpt lat="46.7186" lon="6.39236">
        <ele>737.4</ele>
        <time>2020-09-29T11:41:48Z</time>
      </trkpt>
      <trkpt lat="46.71863" lon="6.39241">
        <ele>736.8</ele>
        <time>2020-09-29T11:41:53Z</time>
      </trkpt>
      <trkpt lat="46.71866" lon="6.39247">
        <ele>736.1</ele>
        <time>2020-09-29T11:41:58Z</time>
      </trkpt>
      <trkpt lat="46.71869" lon="6.39252">
        <ele>735.5</ele>
        <time>2020-09-29T11:42:02Z</time>
      </trkpt>
      <trkpt lat="46.71872" lon="6.39258">
        <ele>734.7</ele>
        <time>2020-09-29T11:42:07Z</time>
      </trkpt>
      <trkpt lat="46.71875" lon="6.39264">
        <ele>734.3</ele>
        <time>2020-09-29T11:42:12Z</time>
      </trkpt>
      <trkpt lat="46.71879" lon="6.39268">
        <ele>734.3</ele>
        <time>2020-09-29T11:42:17Z</time>
      </trkpt>
      <trkpt lat="46.71882" lon="6.39273">
        <ele>734.6</ele>
        <time>2020-09-29T11:42:22Z</time>
      </trkpt>
      <trkpt lat="46.71886" lon="6.39278">
        <ele>735</ele>
        <time>2020-09-29T11:42:28Z</time>
      </trkpt>
      <trkpt lat="46.7189" lon="6.39282">
        <ele>735.5</ele>
        <time>2020-09-29T11:42:32Z</time>
      </trkpt>
      <trkpt lat="46.71893" lon="6.39287">
        <ele>735.8</ele>
        <time>2020-09-29T11:42:36Z</time>
      </trkpt>
      <trkpt lat="46.71896" lon="6.39291">
        <ele>736.2</ele>
        <time>2020-09-29T11:42:40Z</time>
      </trkpt>
      <trkpt lat="46.71899" lon="6.39297">
        <ele>736.5</ele>
        <time>2020-09-29T11:42:45Z</time>
      </trkpt>
      <trkpt lat="46.71901" lon="6.39304">
        <ele>736</ele>
        <time>2020-09-29T11:42:51Z</time>
      </trkpt>
      <trkpt lat="46.71904" lon="6.3931">
        <ele>734.5</ele>
        <time>2020-09-29T11:42:58Z</time>
      </trkpt>
      <trkpt lat="46.71907" lon="6.39316">
        <ele>732.8</ele>
        <time>2020-09-29T11:43:05Z</time>
      </trkpt>
      <trkpt lat="46.7191" lon="6.39321">
        <ele>731.8</ele>
        <time>2020-09-29T11:43:09Z</time>
      </trkpt>
      <trkpt lat="46.71912" lon="6.39328">
        <ele>730.9</ele>
        <time>2020-09-29T11:43:14Z</time>
      </trkpt>
      <trkpt lat="46.71914" lon="6.39333">
        <ele>729.2</ele>
        <time>2020-09-29T11:43:21Z</time>
      </trkpt>
      <trkpt lat="46.71917" lon="6.39339">
        <ele>727.2</ele>
        <time>2020-09-29T11:43:28Z</time>
      </trkpt>
      <trkpt lat="46.7192" lon="6.39346">
        <ele>725.9</ele>
        <time>2020-09-29T11:43:33Z</time>
      </trkpt>
      <trkpt lat="46.71924" lon="6.39352">
        <ele>724.8</ele>
        <time>2020-09-29T11:43:38Z</time>
      </trkpt>
      <trkpt lat="46.71927" lon="6.39358">
        <ele>723.9</ele>
        <time>2020-09-29T11:43:43Z</time>
      </trkpt>
      <trkpt lat="46.7193" lon="6.39363">
        <ele>723.1</ele>
        <time>2020-09-29T11:43:49Z</time>
      </trkpt>
      <trkpt lat="46.71934" lon="6.39368">
        <ele>722.4</ele>
        <time>2020-09-29T11:43:56Z</time>
      </trkpt>
      <trkpt lat="46.71938" lon="6.39371">
        <ele>721.4</ele>
        <time>2020-09-29T11:44:03Z</time>
      </trkpt>
      <trkpt lat="46.71942" lon="6.39375">
        <ele>720.5</ele>
        <time>2020-09-29T11:44:08Z</time>
      </trkpt>
      <trkpt lat="46.71945" lon="6.39381">
        <ele>719.2</ele>
        <time>2020-09-29T11:44:15Z</time>
      </trkpt>
      <trkpt lat="46.71948" lon="6.39386">
        <ele>718.1</ele>
        <time>2020-09-29T11:44:21Z</time>
      </trkpt>
      <trkpt lat="46.71952" lon="6.39391">
        <ele>717.1</ele>
        <time>2020-09-29T11:44:26Z</time>
      </trkpt>
      <trkpt lat="46.71956" lon="6.39396">
        <ele>716.1</ele>
        <time>2020-09-29T11:44:31Z</time>
      </trkpt>
      <trkpt lat="46.71959" lon="6.39401">
        <ele>715.4</ele>
        <time>2020-09-29T11:44:35Z</time>
      </trkpt>
      <trkpt lat="46.71961" lon="6.39408">
        <ele>714.8</ele>
        <time>2020-09-29T11:44:40Z</time>
      </trkpt>
      <trkpt lat="46.71962" lon="6.39415">
        <ele>714.7</ele>
        <time>2020-09-29T11:44:47Z</time>
      </trkpt>
      <trkpt lat="46.71964" lon="6.39422">
        <ele>715.2</ele>
        <time>2020-09-29T11:44:52Z</time>
      </trkpt>
      <trkpt lat="46.71967" lon="6.39428">
        <ele>716.4</ele>
        <time>2020-09-29T11:44:57Z</time>
      </trkpt>
      <trkpt lat="46.71974" lon="6.39427">
        <ele>723.4</ele>
        <time>2020-09-29T11:45:24Z</time>
      </trkpt>
      <trkpt lat="46.71979" lon="6.39425">
        <ele>727.3</ele>
        <time>2020-09-29T11:45:30Z</time>
      </trkpt>
      <trkpt lat="46.71981" lon="6.39431">
        <ele>729.9</ele>
        <time>2020-09-29T11:45:37Z</time>
      </trkpt>
      <trkpt lat="46.71984" lon="6.39437">
        <ele>730.8</ele>
        <time>2020-09-29T11:45:44Z</time>
      </trkpt>
      <trkpt lat="46.71988" lon="6.39441">
        <ele>731.1</ele>
        <time>2020-09-29T11:45:52Z</time>
      </trkpt>
      <trkpt lat="46.71992" lon="6.39445">
        <ele>731.1</ele>
        <time>2020-09-29T11:45:58Z</time>
      </trkpt>
      <trkpt lat="46.71994" lon="6.3945">
        <ele>731.1</ele>
        <time>2020-09-29T11:46:04Z</time>
      </trkpt>
      <trkpt lat="46.71998" lon="6.39455">
        <ele>730.9</ele>
        <time>2020-09-29T11:46:10Z</time>
      </trkpt>
      <trkpt lat="46.72001" lon="6.3946">
        <ele>730.6</ele>
        <time>2020-09-29T11:46:15Z</time>
      </trkpt>
      <trkpt lat="46.72004" lon="6.39465">
        <ele>730.5</ele>
        <time>2020-09-29T11:46:19Z</time>
      </trkpt>
      <trkpt lat="46.72008" lon="6.39471">
        <ele>730.4</ele>
        <time>2020-09-29T11:46:25Z</time>
      </trkpt>
      <trkpt lat="46.72012" lon="6.39475">
        <ele>730.2</ele>
        <time>2020-09-29T11:46:31Z</time>
      </trkpt>
      <trkpt lat="46.72017" lon="6.39475">
        <ele>730.1</ele>
        <time>2020-09-29T11:46:36Z</time>
      </trkpt>
      <trkpt lat="46.72026" lon="6.39475">
        <ele>734.2</ele>
        <time>2020-09-29T11:48:56Z</time>
      </trkpt>
      <trkpt lat="46.7203" lon="6.39477">
        <ele>740.7</ele>
        <time>2020-09-29T11:49:45Z</time>
      </trkpt>
      <trkpt lat="46.72035" lon="6.39476">
        <ele>740.6</ele>
        <time>2020-09-29T11:49:51Z</time>
      </trkpt>
      <trkpt lat="46.7204" lon="6.39474">
        <ele>740.3</ele>
        <time>2020-09-29T11:49:58Z</time>
      </trkpt>
      <trkpt lat="46.72045" lon="6.39474">
        <ele>740.1</ele>
        <time>2020-09-29T11:50:05Z</time>
      </trkpt>
      <trkpt lat="46.7205" lon="6.39474">
        <ele>739.8</ele>
        <time>2020-09-29T11:50:12Z</time>
      </trkpt>
      <trkpt lat="46.72055" lon="6.39474">
        <ele>739.8</ele>
        <time>2020-09-29T11:50:17Z</time>
      </trkpt>
      <trkpt lat="46.7206" lon="6.39473">
        <ele>739.9</ele>
        <time>2020-09-29T11:50:22Z</time>
      </trkpt>
      <trkpt lat="46.72065" lon="6.39473">
        <ele>739.7</ele>
        <time>2020-09-29T11:50:29Z</time>
      </trkpt>
      <trkpt lat="46.7207" lon="6.39474">
        <ele>739.4</ele>
        <time>2020-09-29T11:50:36Z</time>
      </trkpt>
      <trkpt lat="46.72075" lon="6.39473">
        <ele>739.2</ele>
        <time>2020-09-29T11:50:44Z</time>
      </trkpt>
      <trkpt lat="46.72079" lon="6.39473">
        <ele>739.1</ele>
        <time>2020-09-29T11:50:51Z</time>
      </trkpt>
      <trkpt lat="46.72084" lon="6.39476">
        <ele>739.2</ele>
        <time>2020-09-29T11:50:58Z</time>
      </trkpt>
      <trkpt lat="46.72089" lon="6.39479">
        <ele>739.3</ele>
        <time>2020-09-29T11:51:04Z</time>
      </trkpt>
      <trkpt lat="46.72094" lon="6.39481">
        <ele>739.5</ele>
        <time>2020-09-29T11:51:09Z</time>
      </trkpt>
      <trkpt lat="46.72099" lon="6.39483">
        <ele>739.8</ele>
        <time>2020-09-29T11:51:13Z</time>
      </trkpt>
      <trkpt lat="46.72103" lon="6.39486">
        <ele>740</ele>
        <time>2020-09-29T11:51:18Z</time>
      </trkpt>
      <trkpt lat="46.72108" lon="6.3949">
        <ele>740.4</ele>
        <time>2020-09-29T11:51:24Z</time>
      </trkpt>
      <trkpt lat="46.72112" lon="6.39491">
        <ele>740.8</ele>
        <time>2020-09-29T11:51:31Z</time>
      </trkpt>
      <trkpt lat="46.72117" lon="6.39494">
        <ele>740.8</ele>
        <time>2020-09-29T11:51:37Z</time>
      </trkpt>
      <trkpt lat="46.72121" lon="6.39497">
        <ele>740.7</ele>
        <time>2020-09-29T11:51:43Z</time>
      </trkpt>
      <trkpt lat="46.72125" lon="6.39501">
        <ele>740.8</ele>
        <time>2020-09-29T11:51:51Z</time>
      </trkpt>
      <trkpt lat="46.72129" lon="6.39505">
        <ele>740.9</ele>
        <time>2020-09-29T11:51:56Z</time>
      </trkpt>
      <trkpt lat="46.72133" lon="6.3951">
        <ele>740.9</ele>
        <time>2020-09-29T11:52:01Z</time>
      </trkpt>
      <trkpt lat="46.72136" lon="6.39516">
        <ele>741</ele>
        <time>2020-09-29T11:52:07Z</time>
      </trkpt>
      <trkpt lat="46.72138" lon="6.39522">
        <ele>741.1</ele>
        <time>2020-09-29T11:52:12Z</time>
      </trkpt>
      <trkpt lat="46.72142" lon="6.39528">
        <ele>741.2</ele>
        <time>2020-09-29T11:52:18Z</time>
      </trkpt>
      <trkpt lat="46.72145" lon="6.39532">
        <ele>741.7</ele>
        <time>2020-09-29T11:52:25Z</time>
      </trkpt>
      <trkpt lat="46.72148" lon="6.39538">
        <ele>742.3</ele>
        <time>2020-09-29T11:52:31Z</time>
      </trkpt>
      <trkpt lat="46.72149" lon="6.39545">
        <ele>743.3</ele>
        <time>2020-09-29T11:52:41Z</time>
      </trkpt>
      <trkpt lat="46.72152" lon="6.3955">
        <ele>743.5</ele>
        <time>2020-09-29T11:52:46Z</time>
      </trkpt>
      <trkpt lat="46.72155" lon="6.39555">
        <ele>744.1</ele>
        <time>2020-09-29T11:52:53Z</time>
      </trkpt>
      <trkpt lat="46.72156" lon="6.39562">
        <ele>741.4</ele>
        <time>2020-09-29T11:53:04Z</time>
      </trkpt>
      <trkpt lat="46.72157" lon="6.39569">
        <ele>739.7</ele>
        <time>2020-09-29T11:53:13Z</time>
      </trkpt>
      <trkpt lat="46.72157" lon="6.39576">
        <ele>753.4</ele>
        <time>2020-09-29T11:54:18Z</time>
      </trkpt>
      <trkpt lat="46.7216" lon="6.39581">
        <ele>755.6</ele>
        <time>2020-09-29T11:54:24Z</time>
      </trkpt>
      <trkpt lat="46.7216" lon="6.39588">
        <ele>758.5</ele>
        <time>2020-09-29T11:54:35Z</time>
      </trkpt>
      <trkpt lat="46.72159" lon="6.39595">
        <ele>759.3</ele>
        <time>2020-09-29T11:54:41Z</time>
      </trkpt>
      <trkpt lat="46.72158" lon="6.39601">
        <ele>759.7</ele>
        <time>2020-09-29T11:54:46Z</time>
      </trkpt>
      <trkpt lat="46.72158" lon="6.39608">
        <ele>760.1</ele>
        <time>2020-09-29T11:54:52Z</time>
      </trkpt>
      <trkpt lat="46.72161" lon="6.39613">
        <ele>760.2</ele>
        <time>2020-09-29T11:54:57Z</time>
      </trkpt>
      <trkpt lat="46.72165" lon="6.39617">
        <ele>760.7</ele>
        <time>2020-09-29T11:55:20Z</time>
      </trkpt>
      <trkpt lat="46.72168" lon="6.39622">
        <ele>759.9</ele>
        <time>2020-09-29T11:55:28Z</time>
      </trkpt>
      <trkpt lat="46.72171" lon="6.39627">
        <ele>759.7</ele>
        <time>2020-09-29T11:55:34Z</time>
      </trkpt>
      <trkpt lat="46.72174" lon="6.39632">
        <ele>759.4</ele>
        <time>2020-09-29T11:55:41Z</time>
      </trkpt>
      <trkpt lat="46.72178" lon="6.39637">
        <ele>759.7</ele>
        <time>2020-09-29T11:55:46Z</time>
      </trkpt>
      <trkpt lat="46.7218" lon="6.39643">
        <ele>759.8</ele>
        <time>2020-09-29T11:55:51Z</time>
      </trkpt>
      <trkpt lat="46.72183" lon="6.39648">
        <ele>760.4</ele>
        <time>2020-09-29T11:55:55Z</time>
      </trkpt>
      <trkpt lat="46.72187" lon="6.39654">
        <ele>761.1</ele>
        <time>2020-09-29T11:56:00Z</time>
      </trkpt>
      <trkpt lat="46.72189" lon="6.39659">
        <ele>761.5</ele>
        <time>2020-09-29T11:56:04Z</time>
      </trkpt>
      <trkpt lat="46.72192" lon="6.39664">
        <ele>761.7</ele>
        <time>2020-09-29T11:56:09Z</time>
      </trkpt>
      <trkpt lat="46.72196" lon="6.39669">
        <ele>761.8</ele>
        <time>2020-09-29T11:56:14Z</time>
      </trkpt>
      <trkpt lat="46.72202" lon="6.39669">
        <ele>761.8</ele>
        <time>2020-09-29T11:56:18Z</time>
      </trkpt>
      <trkpt lat="46.72206" lon="6.39672">
        <ele>762.3</ele>
        <time>2020-09-29T11:56:26Z</time>
      </trkpt>
      <trkpt lat="46.72208" lon="6.39666">
        <ele>762.6</ele>
        <time>2020-09-29T11:56:43Z</time>
      </trkpt>
      <trkpt lat="46.72203" lon="6.39668">
        <ele>763.6</ele>
        <time>2020-09-29T11:57:00Z</time>
      </trkpt>
      <trkpt lat="46.72207" lon="6.39665">
        <ele>765.6</ele>
        <time>2020-09-29T11:57:17Z</time>
      </trkpt>
      <trkpt lat="46.72212" lon="6.39662">
        <ele>765.8</ele>
        <time>2020-09-29T11:57:20Z</time>
      </trkpt>
      <trkpt lat="46.72215" lon="6.39657">
        <ele>766</ele>
        <time>2020-09-29T11:57:25Z</time>
      </trkpt>
      <trkpt lat="46.72211" lon="6.39656">
        <ele>766.5</ele>
        <time>2020-09-29T11:57:34Z</time>
      </trkpt>
      <trkpt lat="46.72206" lon="6.39659">
        <ele>766.9</ele>
        <time>2020-09-29T11:57:41Z</time>
      </trkpt>
      <trkpt lat="46.72202" lon="6.39661">
        <ele>766.7</ele>
        <time>2020-09-29T11:57:48Z</time>
      </trkpt>
      <trkpt lat="46.72197" lon="6.39661">
        <ele>766.2</ele>
        <time>2020-09-29T11:57:52Z</time>
      </trkpt>
      <trkpt lat="46.72192" lon="6.39659">
        <ele>765.8</ele>
        <time>2020-09-29T11:57:55Z</time>
      </trkpt>
      <trkpt lat="46.72193" lon="6.39653">
        <ele>757</ele>
        <time>2020-09-29T11:58:17Z</time>
      </trkpt>
      <trkpt lat="46.72192" lon="6.3966">
        <ele>754.9</ele>
        <time>2020-09-29T11:58:22Z</time>
      </trkpt>
      <trkpt lat="46.72195" lon="6.39665">
        <ele>752</ele>
        <time>2020-09-29T11:58:31Z</time>
      </trkpt>
      <trkpt lat="46.72197" lon="6.39659">
        <ele>750.8</ele>
        <time>2020-09-29T11:58:38Z</time>
      </trkpt>
      <trkpt lat="46.72202" lon="6.39652">
        <ele>750.2</ele>
        <time>2020-09-29T11:58:44Z</time>
      </trkpt>
      <trkpt lat="46.72206" lon="6.39645">
        <ele>749.5</ele>
        <time>2020-09-29T11:58:47Z</time>
      </trkpt>
      <trkpt lat="46.7221" lon="6.39639">
        <ele>748.4</ele>
        <time>2020-09-29T11:58:51Z</time>
      </trkpt>
      <trkpt lat="46.72216" lon="6.39637">
        <ele>747.7</ele>
        <time>2020-09-29T11:58:54Z</time>
      </trkpt>
      <trkpt lat="46.72218" lon="6.3963">
        <ele>745</ele>
        <time>2020-09-29T11:59:09Z</time>
      </trkpt>
      <trkpt lat="46.72221" lon="6.39621">
        <ele>743.8</ele>
        <time>2020-09-29T11:59:12Z</time>
      </trkpt>
      <trkpt lat="46.72217" lon="6.39624">
        <ele>741.4</ele>
        <time>2020-09-29T11:59:16Z</time>
      </trkpt>
      <trkpt lat="46.72209" lon="6.39634">
        <ele>739.6</ele>
        <time>2020-09-29T11:59:19Z</time>
      </trkpt>
      <trkpt lat="46.72205" lon="6.39638">
        <ele>738.2</ele>
        <time>2020-09-29T11:59:22Z</time>
      </trkpt>
      <trkpt lat="46.72206" lon="6.3963">
        <ele>729</ele>
        <time>2020-09-29T11:59:40Z</time>
      </trkpt>
      <trkpt lat="46.72214" lon="6.39625">
        <ele>727.6</ele>
        <time>2020-09-29T11:59:43Z</time>
      </trkpt>
      <trkpt lat="46.72222" lon="6.39624">
        <ele>726.4</ele>
        <time>2020-09-29T11:59:46Z</time>
      </trkpt>
      <trkpt lat="46.72228" lon="6.3962">
        <ele>725.1</ele>
        <time>2020-09-29T11:59:49Z</time>
      </trkpt>
      <trkpt lat="46.72232" lon="6.39616">
        <ele>723.6</ele>
        <time>2020-09-29T11:59:52Z</time>
      </trkpt>
      <trkpt lat="46.72237" lon="6.39613">
        <ele>721.6</ele>
        <time>2020-09-29T11:59:56Z</time>
      </trkpt>
      <trkpt lat="46.72243" lon="6.39608">
        <ele>720.2</ele>
        <time>2020-09-29T11:59:59Z</time>
      </trkpt>
      <trkpt lat="46.72246" lon="6.39603">
        <ele>719</ele>
        <time>2020-09-29T12:00:02Z</time>
      </trkpt>
      <trkpt lat="46.72249" lon="6.39597">
        <ele>717.3</ele>
        <time>2020-09-29T12:00:07Z</time>
      </trkpt>
      <trkpt lat="46.72252" lon="6.39591">
        <ele>716</ele>
        <time>2020-09-29T12:00:12Z</time>
      </trkpt>
      <trkpt lat="46.72254" lon="6.39584">
        <ele>715.3</ele>
        <time>2020-09-29T12:00:21Z</time>
      </trkpt>
      <trkpt lat="46.72255" lon="6.39578">
        <ele>715.2</ele>
        <time>2020-09-29T12:00:25Z</time>
      </trkpt>
      <trkpt lat="46.72254" lon="6.39571">
        <ele>715</ele>
        <time>2020-09-29T12:00:30Z</time>
      </trkpt>
      <trkpt lat="46.72255" lon="6.39564">
        <ele>715.5</ele>
        <time>2020-09-29T12:00:38Z</time>
      </trkpt>
      <trkpt lat="46.72253" lon="6.39557">
        <ele>715.9</ele>
        <time>2020-09-29T12:00:47Z</time>
      </trkpt>
      <trkpt lat="46.72249" lon="6.39552">
        <ele>715.5</ele>
        <time>2020-09-29T12:00:51Z</time>
      </trkpt>
      <trkpt lat="46.72251" lon="6.39543">
        <ele>715.3</ele>
        <time>2020-09-29T12:00:56Z</time>
      </trkpt>
      <trkpt lat="46.72254" lon="6.39538">
        <ele>715.3</ele>
        <time>2020-09-29T12:00:59Z</time>
      </trkpt>
      <trkpt lat="46.7226" lon="6.39537">
        <ele>716</ele>
        <time>2020-09-29T12:01:03Z</time>
      </trkpt>
      <trkpt lat="46.72263" lon="6.39531">
        <ele>716.8</ele>
        <time>2020-09-29T12:01:06Z</time>
      </trkpt>
      <trkpt lat="46.72268" lon="6.3953">
        <ele>717.7</ele>
        <time>2020-09-29T12:01:10Z</time>
      </trkpt>
      <trkpt lat="46.72264" lon="6.39523">
        <ele>722.8</ele>
        <time>2020-09-29T12:01:16Z</time>
      </trkpt>
      <trkpt lat="46.72269" lon="6.3952">
        <ele>728.8</ele>
        <time>2020-09-29T12:01:19Z</time>
      </trkpt>
      <trkpt lat="46.72273" lon="6.39518">
        <ele>743.6</ele>
        <time>2020-09-29T12:01:35Z</time>
      </trkpt>
      <trkpt lat="46.72281" lon="6.39517">
        <ele>757.4</ele>
        <time>2020-09-29T12:01:42Z</time>
      </trkpt>
      <trkpt lat="46.72286" lon="6.39516">
        <ele>766.2</ele>
        <time>2020-09-29T12:01:45Z</time>
      </trkpt>
      <trkpt lat="46.72281" lon="6.39513">
        <ele>780.5</ele>
        <time>2020-09-29T12:01:53Z</time>
      </trkpt>
      <trkpt lat="46.72282" lon="6.39519">
        <ele>792</ele>
        <time>2020-09-29T12:02:21Z</time>
      </trkpt>
      <trkpt lat="46.72284" lon="6.39526">
        <ele>790.7</ele>
        <time>2020-09-29T12:02:28Z</time>
      </trkpt>
      <trkpt lat="46.72285" lon="6.3952">
        <ele>789.5</ele>
        <time>2020-09-29T12:02:39Z</time>
      </trkpt>
      <trkpt lat="46.72288" lon="6.39526">
        <ele>789.3</ele>
        <time>2020-09-29T12:02:45Z</time>
      </trkpt>
      <trkpt lat="46.72291" lon="6.3953">
        <ele>788.5</ele>
        <time>2020-09-29T12:02:52Z</time>
      </trkpt>
      <trkpt lat="46.72292" lon="6.39523">
        <ele>786</ele>
        <time>2020-09-29T12:03:31Z</time>
      </trkpt>
      <trkpt lat="46.72291" lon="6.39516">
        <ele>786</ele>
        <time>2020-09-29T12:03:38Z</time>
      </trkpt>
      <trkpt lat="46.72287" lon="6.39511">
        <ele>786.4</ele>
        <time>2020-09-29T12:03:45Z</time>
      </trkpt>
      <trkpt lat="46.72283" lon="6.39515">
        <ele>785.9</ele>
        <time>2020-09-29T12:04:02Z</time>
      </trkpt>
      <trkpt lat="46.7228" lon="6.3952">
        <ele>784.5</ele>
        <time>2020-09-29T12:04:06Z</time>
      </trkpt>
      <trkpt lat="46.72281" lon="6.39527">
        <ele>782.2</ele>
        <time>2020-09-29T12:04:13Z</time>
      </trkpt>
      <trkpt lat="46.72276" lon="6.39526">
        <ele>779.6</ele>
        <time>2020-09-29T12:04:37Z</time>
      </trkpt>
      <trkpt lat="46.72272" lon="6.39524">
        <ele>779.8</ele>
        <time>2020-09-29T12:04:53Z</time>
      </trkpt>
      <trkpt lat="46.72276" lon="6.39528">
        <ele>780.1</ele>
        <time>2020-09-29T12:05:00Z</time>
      </trkpt>
      <trkpt lat="46.72275" lon="6.39521">
        <ele>780.2</ele>
        <time>2020-09-29T12:06:11Z</time>
      </trkpt>
      <trkpt lat="46.72274" lon="6.39527">
        <ele>777.2</ele>
        <time>2020-09-29T12:07:10Z</time>
      </trkpt>
      <trkpt lat="46.72271" lon="6.39522">
        <ele>775.7</ele>
        <time>2020-09-29T12:07:33Z</time>
      </trkpt>
      <trkpt lat="46.72267" lon="6.39517">
        <ele>776.3</ele>
        <time>2020-09-29T12:07:56Z</time>
      </trkpt>
      <trkpt lat="46.72262" lon="6.39517">
        <ele>775.4</ele>
        <time>2020-09-29T12:08:12Z</time>
      </trkpt>
      <trkpt lat="46.72257" lon="6.39515">
        <ele>775.6</ele>
        <time>2020-09-29T12:08:19Z</time>
      </trkpt>
      <trkpt lat="46.72253" lon="6.39512">
        <ele>776.1</ele>
        <time>2020-09-29T12:08:30Z</time>
      </trkpt>
      <trkpt lat="46.72253" lon="6.39519">
        <ele>774</ele>
        <time>2020-09-29T12:08:55Z</time>
      </trkpt>
      <trkpt lat="46.72248" lon="6.3952">
        <ele>771.3</ele>
        <time>2020-09-29T12:09:35Z</time>
      </trkpt>
      <trkpt lat="46.72243" lon="6.39523">
        <ele>770.1</ele>
        <time>2020-09-29T12:09:39Z</time>
      </trkpt>
      <trkpt lat="46.72238" lon="6.3952">
        <ele>767.1</ele>
        <time>2020-09-29T12:10:31Z</time>
      </trkpt>
      <trkpt lat="46.72233" lon="6.39518">
        <ele>762</ele>
        <time>2020-09-29T12:10:56Z</time>
      </trkpt>
      <trkpt lat="46.72232" lon="6.39524">
        <ele>751.6</ele>
        <time>2020-09-29T12:12:36Z</time>
      </trkpt>
      <trkpt lat="46.72234" lon="6.39531">
        <ele>750.8</ele>
        <time>2020-09-29T12:12:42Z</time>
      </trkpt>
      <trkpt lat="46.72238" lon="6.39534">
        <ele>750</ele>
        <time>2020-09-29T12:12:48Z</time>
      </trkpt>
      <trkpt lat="46.72241" lon="6.3954">
        <ele>749</ele>
        <time>2020-09-29T12:12:57Z</time>
      </trkpt>
      <trkpt lat="46.72244" lon="6.39544">
        <ele>748.5</ele>
        <time>2020-09-29T12:13:04Z</time>
      </trkpt>
      <trkpt lat="46.72248" lon="6.39549">
        <ele>748.4</ele>
        <time>2020-09-29T12:13:10Z</time>
      </trkpt>
      <trkpt lat="46.72253" lon="6.39553">
        <ele>746.4</ele>
        <time>2020-09-29T12:13:20Z</time>
      </trkpt>
      <trkpt lat="46.72256" lon="6.39559">
        <ele>741.5</ele>
        <time>2020-09-29T12:13:26Z</time>
      </trkpt>
      <trkpt lat="46.7226" lon="6.39561">
        <ele>736.2</ele>
        <time>2020-09-29T12:13:31Z</time>
      </trkpt>
      <trkpt lat="46.72265" lon="6.39565">
        <ele>732.9</ele>
        <time>2020-09-29T12:13:34Z</time>
      </trkpt>
      <trkpt lat="46.72268" lon="6.39569">
        <ele>729.8</ele>
        <time>2020-09-29T12:13:37Z</time>
      </trkpt>
      <trkpt lat="46.72267" lon="6.39577">
        <ele>724</ele>
        <time>2020-09-29T12:13:43Z</time>
      </trkpt>
      <trkpt lat="46.72265" lon="6.39583">
        <ele>722.8</ele>
        <time>2020-09-29T12:13:45Z</time>
      </trkpt>
      <trkpt lat="46.72263" lon="6.39592">
        <ele>721.4</ele>
        <time>2020-09-29T12:13:48Z</time>
      </trkpt>
      <trkpt lat="46.72284" lon="6.39623">
        <ele>726.8</ele>
        <time>2020-09-29T12:14:13Z</time>
      </trkpt>
      <trkpt lat="46.72281" lon="6.39634">
        <ele>740.1</ele>
        <time>2020-09-29T12:14:17Z</time>
      </trkpt>
      <trkpt lat="46.7228" lon="6.39641">
        <ele>752.3</ele>
        <time>2020-09-29T12:14:22Z</time>
      </trkpt>
      <trkpt lat="46.7228" lon="6.39648">
        <ele>764.5</ele>
        <time>2020-09-29T12:14:33Z</time>
      </trkpt>
      <trkpt lat="46.72285" lon="6.3965">
        <ele>767.5</ele>
        <time>2020-09-29T12:14:42Z</time>
      </trkpt>
      <trkpt lat="46.72289" lon="6.39654">
        <ele>768.1</ele>
        <time>2020-09-29T12:14:45Z</time>
      </trkpt>
      <trkpt lat="46.72292" lon="6.39659">
        <ele>769.1</ele>
        <time>2020-09-29T12:14:51Z</time>
      </trkpt>
      <trkpt lat="46.72297" lon="6.39663">
        <ele>767.8</ele>
        <time>2020-09-29T12:14:56Z</time>
      </trkpt>
      <trkpt lat="46.72302" lon="6.39665">
        <ele>766.6</ele>
        <time>2020-09-29T12:14:59Z</time>
      </trkpt>
      <trkpt lat="46.72307" lon="6.39665">
        <ele>764.6</ele>
        <time>2020-09-29T12:15:03Z</time>
      </trkpt>
      <trkpt lat="46.7231" lon="6.39672">
        <ele>762.9</ele>
        <time>2020-09-29T12:15:07Z</time>
      </trkpt>
      <trkpt lat="46.72312" lon="6.39679">
        <ele>762.3</ele>
        <time>2020-09-29T12:15:10Z</time>
      </trkpt>
      <trkpt lat="46.72314" lon="6.39685">
        <ele>762.1</ele>
        <time>2020-09-29T12:15:13Z</time>
      </trkpt>
      <trkpt lat="46.72314" lon="6.39692">
        <ele>762.5</ele>
        <time>2020-09-29T12:15:17Z</time>
      </trkpt>
      <trkpt lat="46.72312" lon="6.39699">
        <ele>749.3</ele>
        <time>2020-09-29T12:16:03Z</time>
      </trkpt>
      <trkpt lat="46.72309" lon="6.39703">
        <ele>747.9</ele>
        <time>2020-09-29T12:16:09Z</time>
      </trkpt>
      <trkpt lat="46.72306" lon="6.3971">
        <ele>747.6</ele>
        <time>2020-09-29T12:16:15Z</time>
      </trkpt>
      <trkpt lat="46.72303" lon="6.39717">
        <ele>747.7</ele>
        <time>2020-09-29T12:16:21Z</time>
      </trkpt>
      <trkpt lat="46.723" lon="6.39722">
        <ele>747.9</ele>
        <time>2020-09-29T12:16:27Z</time>
      </trkpt>
      <trkpt lat="46.72296" lon="6.39725">
        <ele>748.5</ele>
        <time>2020-09-29T12:16:35Z</time>
      </trkpt>
      <trkpt lat="46.72291" lon="6.39729">
        <ele>748.7</ele>
        <time>2020-09-29T12:16:40Z</time>
      </trkpt>
      <trkpt lat="46.72286" lon="6.39731">
        <ele>749</ele>
        <time>2020-09-29T12:16:44Z</time>
      </trkpt>
      <trkpt lat="46.72282" lon="6.39734">
        <ele>749.4</ele>
        <time>2020-09-29T12:16:49Z</time>
      </trkpt>
      <trkpt lat="46.72279" lon="6.3974">
        <ele>749.9</ele>
        <time>2020-09-29T12:16:54Z</time>
      </trkpt>
      <trkpt lat="46.72277" lon="6.39747">
        <ele>750.3</ele>
        <time>2020-09-29T12:17:00Z</time>
      </trkpt>
      <trkpt lat="46.72277" lon="6.39753">
        <ele>750.6</ele>
        <time>2020-09-29T12:17:05Z</time>
      </trkpt>
      <trkpt lat="46.72277" lon="6.3976">
        <ele>750.2</ele>
        <time>2020-09-29T12:17:11Z</time>
      </trkpt>
      <trkpt lat="46.72275" lon="6.39768">
        <ele>749.3</ele>
        <time>2020-09-29T12:17:16Z</time>
      </trkpt>
      <trkpt lat="46.72275" lon="6.39775">
        <ele>748.2</ele>
        <time>2020-09-29T12:17:21Z</time>
      </trkpt>
      <trkpt lat="46.72274" lon="6.39782">
        <ele>747.3</ele>
        <time>2020-09-29T12:17:25Z</time>
      </trkpt>
      <trkpt lat="46.72275" lon="6.3979">
        <ele>746.6</ele>
        <time>2020-09-29T12:17:32Z</time>
      </trkpt>
      <trkpt lat="46.72277" lon="6.39796">
        <ele>746.4</ele>
        <time>2020-09-29T12:17:37Z</time>
      </trkpt>
      <trkpt lat="46.72278" lon="6.39803">
        <ele>745.9</ele>
        <time>2020-09-29T12:17:44Z</time>
      </trkpt>
      <trkpt lat="46.72277" lon="6.3981">
        <ele>745.6</ele>
        <time>2020-09-29T12:17:48Z</time>
      </trkpt>
      <trkpt lat="46.72276" lon="6.39818">
        <ele>745.4</ele>
        <time>2020-09-29T12:17:52Z</time>
      </trkpt>
      <trkpt lat="46.72274" lon="6.39826">
        <ele>745.3</ele>
        <time>2020-09-29T12:17:56Z</time>
      </trkpt>
      <trkpt lat="46.72273" lon="6.39833">
        <ele>744.9</ele>
        <time>2020-09-29T12:18:00Z</time>
      </trkpt>
      <trkpt lat="46.72271" lon="6.39839">
        <ele>744.7</ele>
        <time>2020-09-29T12:18:04Z</time>
      </trkpt>
      <trkpt lat="46.72268" lon="6.39845">
        <ele>744.9</ele>
        <time>2020-09-29T12:18:07Z</time>
      </trkpt>
      <trkpt lat="46.72267" lon="6.39851">
        <ele>745</ele>
        <time>2020-09-29T12:18:11Z</time>
      </trkpt>
      <trkpt lat="46.72267" lon="6.39858">
        <ele>745.1</ele>
        <time>2020-09-29T12:18:16Z</time>
      </trkpt>
      <trkpt lat="46.72266" lon="6.39867">
        <ele>745.5</ele>
        <time>2020-09-29T12:18:25Z</time>
      </trkpt>
      <trkpt lat="46.72268" lon="6.39874">
        <ele>745.8</ele>
        <time>2020-09-29T12:18:30Z</time>
      </trkpt>
      <trkpt lat="46.72271" lon="6.39869">
        <ele>746.4</ele>
        <time>2020-09-29T12:18:39Z</time>
      </trkpt>
      <trkpt lat="46.7227" lon="6.39877">
        <ele>746.7</ele>
        <time>2020-09-29T12:18:46Z</time>
      </trkpt>
      <trkpt lat="46.72268" lon="6.39887">
        <ele>746.7</ele>
        <time>2020-09-29T12:18:49Z</time>
      </trkpt>
      <trkpt lat="46.72265" lon="6.39901">
        <ele>746.7</ele>
        <time>2020-09-29T12:18:52Z</time>
      </trkpt>
      <trkpt lat="46.72261" lon="6.39913">
        <ele>746.7</ele>
        <time>2020-09-29T12:18:55Z</time>
      </trkpt>
      <trkpt lat="46.72256" lon="6.39923">
        <ele>746.7</ele>
        <time>2020-09-29T12:18:57Z</time>
      </trkpt>
      <trkpt lat="46.72255" lon="6.39932">
        <ele>746.7</ele>
        <time>2020-09-29T12:19:00Z</time>
      </trkpt>
      <trkpt lat="46.72256" lon="6.39938">
        <ele>746.7</ele>
        <time>2020-09-29T12:19:04Z</time>
      </trkpt>
      <trkpt lat="46.72258" lon="6.39945">
        <ele>746.6</ele>
        <time>2020-09-29T12:19:08Z</time>
      </trkpt>
      <trkpt lat="46.72261" lon="6.3995">
        <ele>746.5</ele>
        <time>2020-09-29T12:19:13Z</time>
      </trkpt>
      <trkpt lat="46.72265" lon="6.39953">
        <ele>746.7</ele>
        <time>2020-09-29T12:19:57Z</time>
      </trkpt>
      <trkpt lat="46.72269" lon="6.39958">
        <ele>747.3</ele>
        <time>2020-09-29T12:20:02Z</time>
      </trkpt>
      <trkpt lat="46.72269" lon="6.39965">
        <ele>748.5</ele>
        <time>2020-09-29T12:20:10Z</time>
      </trkpt>
      <trkpt lat="46.7226" lon="6.39974">
        <ele>751.9</ele>
        <time>2020-09-29T12:20:13Z</time>
      </trkpt>
      <trkpt lat="46.72257" lon="6.39982">
        <ele>754.7</ele>
        <time>2020-09-29T12:20:16Z</time>
      </trkpt>
      <trkpt lat="46.72257" lon="6.3999">
        <ele>757.3</ele>
        <time>2020-09-29T12:20:19Z</time>
      </trkpt>
      <trkpt lat="46.72258" lon="6.39996">
        <ele>759.4</ele>
        <time>2020-09-29T12:20:22Z</time>
      </trkpt>
      <trkpt lat="46.72262" lon="6.40002">
        <ele>761.4</ele>
        <time>2020-09-29T12:20:27Z</time>
      </trkpt>
      <trkpt lat="46.72263" lon="6.40009">
        <ele>762.7</ele>
        <time>2020-09-29T12:20:32Z</time>
      </trkpt>
      <trkpt lat="46.72263" lon="6.40016">
        <ele>763.4</ele>
        <time>2020-09-29T12:20:36Z</time>
      </trkpt>
      <trkpt lat="46.72262" lon="6.40023">
        <ele>764</ele>
        <time>2020-09-29T12:20:40Z</time>
      </trkpt>
      <trkpt lat="46.72264" lon="6.40031">
        <ele>762.7</ele>
        <time>2020-09-29T12:20:44Z</time>
      </trkpt>
      <trkpt lat="46.72265" lon="6.40038">
        <ele>761.8</ele>
        <time>2020-09-29T12:20:49Z</time>
      </trkpt>
      <trkpt lat="46.72268" lon="6.40044">
        <ele>761.5</ele>
        <time>2020-09-29T12:20:54Z</time>
      </trkpt>
      <trkpt lat="46.72269" lon="6.40052">
        <ele>758.7</ele>
        <time>2020-09-29T12:20:58Z</time>
      </trkpt>
      <trkpt lat="46.72265" lon="6.40058">
        <ele>756.1</ele>
        <time>2020-09-29T12:21:01Z</time>
      </trkpt>
      <trkpt lat="46.72265" lon="6.40066">
        <ele>753.3</ele>
        <time>2020-09-29T12:21:06Z</time>
      </trkpt>
      <trkpt lat="46.72266" lon="6.40074">
        <ele>751.5</ele>
        <time>2020-09-29T12:21:11Z</time>
      </trkpt>
      <trkpt lat="46.72268" lon="6.40081">
        <ele>749.8</ele>
        <time>2020-09-29T12:21:16Z</time>
      </trkpt>
      <trkpt lat="46.72268" lon="6.40089">
        <ele>748.2</ele>
        <time>2020-09-29T12:21:20Z</time>
      </trkpt>
      <trkpt lat="46.72269" lon="6.40096">
        <ele>746.4</ele>
        <time>2020-09-29T12:21:24Z</time>
      </trkpt>
      <trkpt lat="46.7227" lon="6.40103">
        <ele>744.3</ele>
        <time>2020-09-29T12:21:28Z</time>
      </trkpt>
      <trkpt lat="46.7227" lon="6.4011">
        <ele>742</ele>
        <time>2020-09-29T12:21:32Z</time>
      </trkpt>
      <trkpt lat="46.72272" lon="6.40116">
        <ele>739.7</ele>
        <time>2020-09-29T12:21:36Z</time>
      </trkpt>
      <trkpt lat="46.72274" lon="6.40123">
        <ele>737.4</ele>
        <time>2020-09-29T12:21:40Z</time>
      </trkpt>
      <trkpt lat="46.72277" lon="6.4013">
        <ele>734.6</ele>
        <time>2020-09-29T12:21:45Z</time>
      </trkpt>
      <trkpt lat="46.72279" lon="6.40136">
        <ele>732.2</ele>
        <time>2020-09-29T12:21:49Z</time>
      </trkpt>
      <trkpt lat="46.7228" lon="6.40144">
        <ele>729.9</ele>
        <time>2020-09-29T12:21:53Z</time>
      </trkpt>
      <trkpt lat="46.72282" lon="6.40151">
        <ele>727.6</ele>
        <time>2020-09-29T12:21:57Z</time>
      </trkpt>
      <trkpt lat="46.72285" lon="6.40156">
        <ele>726.2</ele>
        <time>2020-09-29T12:22:00Z</time>
      </trkpt>
      <trkpt lat="46.72288" lon="6.40162">
        <ele>724.2</ele>
        <time>2020-09-29T12:22:04Z</time>
      </trkpt>
      <trkpt lat="46.72292" lon="6.40167">
        <ele>721.7</ele>
        <time>2020-09-29T12:22:10Z</time>
      </trkpt>
      <trkpt lat="46.72294" lon="6.40174">
        <ele>718.4</ele>
        <time>2020-09-29T12:22:17Z</time>
      </trkpt>
      <trkpt lat="46.72298" lon="6.40178">
        <ele>716.1</ele>
        <time>2020-09-29T12:22:24Z</time>
      </trkpt>
      <trkpt lat="46.72294" lon="6.40183">
        <ele>717</ele>
        <time>2020-09-29T12:22:40Z</time>
      </trkpt>
      <trkpt lat="46.72298" lon="6.40189">
        <ele>717.8</ele>
        <time>2020-09-29T12:22:50Z</time>
      </trkpt>
      <trkpt lat="46.723" lon="6.40195">
        <ele>717.6</ele>
        <time>2020-09-29T12:23:00Z</time>
      </trkpt>
      <trkpt lat="46.72301" lon="6.40202">
        <ele>725.7</ele>
        <time>2020-09-29T12:23:41Z</time>
      </trkpt>
      <trkpt lat="46.72301" lon="6.40208">
        <ele>726.3</ele>
        <time>2020-09-29T12:23:48Z</time>
      </trkpt>
      <trkpt lat="46.72301" lon="6.40216">
        <ele>727.1</ele>
        <time>2020-09-29T12:23:56Z</time>
      </trkpt>
      <trkpt lat="46.723" lon="6.40223">
        <ele>728.2</ele>
        <time>2020-09-29T12:24:03Z</time>
      </trkpt>
      <trkpt lat="46.72302" lon="6.40229">
        <ele>729.1</ele>
        <time>2020-09-29T12:24:10Z</time>
      </trkpt>
      <trkpt lat="46.72303" lon="6.40238">
        <ele>729.8</ele>
        <time>2020-09-29T12:24:15Z</time>
      </trkpt>
      <trkpt lat="46.72302" lon="6.40245">
        <ele>730.4</ele>
        <time>2020-09-29T12:24:19Z</time>
      </trkpt>
      <trkpt lat="46.72304" lon="6.40252">
        <ele>731.3</ele>
        <time>2020-09-29T12:24:24Z</time>
      </trkpt>
      <trkpt lat="46.72304" lon="6.4026">
        <ele>732</ele>
        <time>2020-09-29T12:24:29Z</time>
      </trkpt>
      <trkpt lat="46.72302" lon="6.40267">
        <ele>732.6</ele>
        <time>2020-09-29T12:24:33Z</time>
      </trkpt>
      <trkpt lat="46.72301" lon="6.40274">
        <ele>732.8</ele>
        <time>2020-09-29T12:24:37Z</time>
      </trkpt>
      <trkpt lat="46.72303" lon="6.4028">
        <ele>733.6</ele>
        <time>2020-09-29T12:24:41Z</time>
      </trkpt>
      <trkpt lat="46.72305" lon="6.40286">
        <ele>734.2</ele>
        <time>2020-09-29T12:24:46Z</time>
      </trkpt>
      <trkpt lat="46.72307" lon="6.40293">
        <ele>734.6</ele>
        <time>2020-09-29T12:24:52Z</time>
      </trkpt>
      <trkpt lat="46.72309" lon="6.40301">
        <ele>735.7</ele>
        <time>2020-09-29T12:24:57Z</time>
      </trkpt>
      <trkpt lat="46.72309" lon="6.40309">
        <ele>736.9</ele>
        <time>2020-09-29T12:25:03Z</time>
      </trkpt>
      <trkpt lat="46.72312" lon="6.40315">
        <ele>737.5</ele>
        <time>2020-09-29T12:25:07Z</time>
      </trkpt>
      <trkpt lat="46.72309" lon="6.40321">
        <ele>738.4</ele>
        <time>2020-09-29T12:25:11Z</time>
      </trkpt>
      <trkpt lat="46.7231" lon="6.40329">
        <ele>740.3</ele>
        <time>2020-09-29T12:25:16Z</time>
      </trkpt>
      <trkpt lat="46.72312" lon="6.40335">
        <ele>741.5</ele>
        <time>2020-09-29T12:25:21Z</time>
      </trkpt>
      <trkpt lat="46.72317" lon="6.40337">
        <ele>742.2</ele>
        <time>2020-09-29T12:25:25Z</time>
      </trkpt>
      <trkpt lat="46.7232" lon="6.40343">
        <ele>742.8</ele>
        <time>2020-09-29T12:25:31Z</time>
      </trkpt>
      <trkpt lat="46.7232" lon="6.40351">
        <ele>743</ele>
        <time>2020-09-29T12:25:36Z</time>
      </trkpt>
      <trkpt lat="46.7232" lon="6.40359">
        <ele>742.6</ele>
        <time>2020-09-29T12:25:40Z</time>
      </trkpt>
      <trkpt lat="46.7232" lon="6.40365">
        <ele>742</ele>
        <time>2020-09-29T12:25:44Z</time>
      </trkpt>
      <trkpt lat="46.72321" lon="6.40373">
        <ele>741</ele>
        <time>2020-09-29T12:25:50Z</time>
      </trkpt>
      <trkpt lat="46.72321" lon="6.4038">
        <ele>741</ele>
        <time>2020-09-29T12:25:54Z</time>
      </trkpt>
      <trkpt lat="46.7232" lon="6.40387">
        <ele>741</ele>
        <time>2020-09-29T12:25:59Z</time>
      </trkpt>
      <trkpt lat="46.72322" lon="6.40393">
        <ele>740.6</ele>
        <time>2020-09-29T12:26:07Z</time>
      </trkpt>
      <trkpt lat="46.72322" lon="6.404">
        <ele>740</ele>
        <time>2020-09-29T12:26:15Z</time>
      </trkpt>
      <trkpt lat="46.72321" lon="6.40407">
        <ele>739.7</ele>
        <time>2020-09-29T12:26:21Z</time>
      </trkpt>
      <trkpt lat="46.72321" lon="6.40414">
        <ele>739.7</ele>
        <time>2020-09-29T12:26:31Z</time>
      </trkpt>
      <trkpt lat="46.72321" lon="6.40422">
        <ele>740.8</ele>
        <time>2020-09-29T12:26:46Z</time>
      </trkpt>
      <trkpt lat="46.72322" lon="6.40429">
        <ele>741.8</ele>
        <time>2020-09-29T12:26:51Z</time>
      </trkpt>
      <trkpt lat="46.72323" lon="6.40436">
        <ele>742.6</ele>
        <time>2020-09-29T12:26:56Z</time>
      </trkpt>
      <trkpt lat="46.72323" lon="6.40444">
        <ele>742.9</ele>
        <time>2020-09-29T12:27:02Z</time>
      </trkpt>
      <trkpt lat="46.72323" lon="6.40452">
        <ele>743.3</ele>
        <time>2020-09-29T12:27:19Z</time>
      </trkpt>
      <trkpt lat="46.72324" lon="6.4046">
        <ele>743</ele>
        <time>2020-09-29T12:27:34Z</time>
      </trkpt>
      <trkpt lat="46.72324" lon="6.40468">
        <ele>742.7</ele>
        <time>2020-09-29T12:27:38Z</time>
      </trkpt>
      <trkpt lat="46.72325" lon="6.40476">
        <ele>742.6</ele>
        <time>2020-09-29T12:27:44Z</time>
      </trkpt>
      <trkpt lat="46.72324" lon="6.40483">
        <ele>742.7</ele>
        <time>2020-09-29T12:27:49Z</time>
      </trkpt>
      <trkpt lat="46.72323" lon="6.4049">
        <ele>742.6</ele>
        <time>2020-09-29T12:27:55Z</time>
      </trkpt>
      <trkpt lat="46.72322" lon="6.40497">
        <ele>743.1</ele>
        <time>2020-09-29T12:28:11Z</time>
      </trkpt>
      <trkpt lat="46.72328" lon="6.405">
        <ele>743.1</ele>
        <time>2020-09-29T12:28:46Z</time>
      </trkpt>
      <trkpt lat="46.72332" lon="6.40504">
        <ele>742.6</ele>
        <time>2020-09-29T12:28:57Z</time>
      </trkpt>
      <trkpt lat="46.72336" lon="6.40508">
        <ele>742.2</ele>
        <time>2020-09-29T12:29:03Z</time>
      </trkpt>
      <trkpt lat="46.72335" lon="6.40516">
        <ele>741.7</ele>
        <time>2020-09-29T12:29:10Z</time>
      </trkpt>
      <trkpt lat="46.72335" lon="6.40522">
        <ele>741.6</ele>
        <time>2020-09-29T12:29:14Z</time>
      </trkpt>
      <trkpt lat="46.72336" lon="6.4053">
        <ele>741.5</ele>
        <time>2020-09-29T12:29:21Z</time>
      </trkpt>
      <trkpt lat="46.72334" lon="6.40537">
        <ele>741.3</ele>
        <time>2020-09-29T12:29:28Z</time>
      </trkpt>
      <trkpt lat="46.72331" lon="6.40542">
        <ele>741.5</ele>
        <time>2020-09-29T12:29:34Z</time>
      </trkpt>
      <trkpt lat="46.72327" lon="6.40545">
        <ele>742.2</ele>
        <time>2020-09-29T12:29:40Z</time>
      </trkpt>
      <trkpt lat="46.72323" lon="6.4055">
        <ele>742.8</ele>
        <time>2020-09-29T12:29:45Z</time>
      </trkpt>
      <trkpt lat="46.72316" lon="6.4056">
        <ele>750.9</ele>
        <time>2020-09-29T12:29:49Z</time>
      </trkpt>
      <trkpt lat="46.72311" lon="6.40568">
        <ele>757.1</ele>
        <time>2020-09-29T12:29:52Z</time>
      </trkpt>
      <trkpt lat="46.72309" lon="6.40575">
        <ele>763.6</ele>
        <time>2020-09-29T12:29:56Z</time>
      </trkpt>
      <trkpt lat="46.72306" lon="6.40581">
        <ele>767.2</ele>
        <time>2020-09-29T12:30:00Z</time>
      </trkpt>
      <trkpt lat="46.72303" lon="6.40586">
        <ele>769.3</ele>
        <time>2020-09-29T12:30:04Z</time>
      </trkpt>
      <trkpt lat="46.72301" lon="6.40592">
        <ele>770.7</ele>
        <time>2020-09-29T12:30:09Z</time>
      </trkpt>
      <trkpt lat="46.72298" lon="6.40598">
        <ele>771.6</ele>
        <time>2020-09-29T12:30:15Z</time>
      </trkpt>
      <trkpt lat="46.72295" lon="6.40603">
        <ele>771.7</ele>
        <time>2020-09-29T12:30:20Z</time>
      </trkpt>
      <trkpt lat="46.72291" lon="6.40608">
        <ele>771.3</ele>
        <time>2020-09-29T12:30:25Z</time>
      </trkpt>
      <trkpt lat="46.72287" lon="6.40613">
        <ele>770.7</ele>
        <time>2020-09-29T12:30:29Z</time>
      </trkpt>
      <trkpt lat="46.72283" lon="6.40617">
        <ele>770</ele>
        <time>2020-09-29T12:30:33Z</time>
      </trkpt>
      <trkpt lat="46.72279" lon="6.4062">
        <ele>769.2</ele>
        <time>2020-09-29T12:30:37Z</time>
      </trkpt>
      <trkpt lat="46.72275" lon="6.40623">
        <ele>768</ele>
        <time>2020-09-29T12:30:42Z</time>
      </trkpt>
      <trkpt lat="46.72271" lon="6.40627">
        <ele>766.8</ele>
        <time>2020-09-29T12:30:47Z</time>
      </trkpt>
      <trkpt lat="46.72267" lon="6.40632">
        <ele>765.6</ele>
        <time>2020-09-29T12:30:52Z</time>
      </trkpt>
      <trkpt lat="46.72264" lon="6.40637">
        <ele>764.6</ele>
        <time>2020-09-29T12:30:57Z</time>
      </trkpt>
      <trkpt lat="46.7226" lon="6.40641">
        <ele>763.9</ele>
        <time>2020-09-29T12:31:02Z</time>
      </trkpt>
      <trkpt lat="46.72256" lon="6.40644">
        <ele>763.4</ele>
        <time>2020-09-29T12:31:08Z</time>
      </trkpt>
      <trkpt lat="46.72251" lon="6.40647">
        <ele>763.1</ele>
        <time>2020-09-29T12:31:12Z</time>
      </trkpt>
      <trkpt lat="46.72247" lon="6.40649">
        <ele>762.7</ele>
        <time>2020-09-29T12:31:16Z</time>
      </trkpt>
      <trkpt lat="46.72242" lon="6.40652">
        <ele>762.3</ele>
        <time>2020-09-29T12:31:22Z</time>
      </trkpt>
      <trkpt lat="46.72237" lon="6.40654">
        <ele>762.1</ele>
        <time>2020-09-29T12:31:27Z</time>
      </trkpt>
      <trkpt lat="46.72232" lon="6.40655">
        <ele>761.9</ele>
        <time>2020-09-29T12:31:32Z</time>
      </trkpt>
      <trkpt lat="46.72228" lon="6.40657">
        <ele>762.1</ele>
        <time>2020-09-29T12:31:37Z</time>
      </trkpt>
      <trkpt lat="46.72223" lon="6.4066">
        <ele>762.5</ele>
        <time>2020-09-29T12:31:43Z</time>
      </trkpt>
      <trkpt lat="46.7222" lon="6.40665">
        <ele>762.9</ele>
        <time>2020-09-29T12:31:48Z</time>
      </trkpt>
      <trkpt lat="46.72217" lon="6.40671">
        <ele>763.5</ele>
        <time>2020-09-29T12:31:53Z</time>
      </trkpt>
      <trkpt lat="46.72214" lon="6.40678">
        <ele>764</ele>
        <time>2020-09-29T12:31:59Z</time>
      </trkpt>
      <trkpt lat="46.72212" lon="6.40683">
        <ele>764.2</ele>
        <time>2020-09-29T12:32:04Z</time>
      </trkpt>
      <trkpt lat="46.7221" lon="6.40691">
        <ele>764.5</ele>
        <time>2020-09-29T12:32:10Z</time>
      </trkpt>
      <trkpt lat="46.72207" lon="6.40698">
        <ele>764.6</ele>
        <time>2020-09-29T12:32:15Z</time>
      </trkpt>
      <trkpt lat="46.72206" lon="6.40705">
        <ele>764.9</ele>
        <time>2020-09-29T12:32:21Z</time>
      </trkpt>
      <trkpt lat="46.72205" lon="6.40711">
        <ele>765.1</ele>
        <time>2020-09-29T12:32:26Z</time>
      </trkpt>
      <trkpt lat="46.72203" lon="6.40719">
        <ele>765.8</ele>
        <time>2020-09-29T12:32:32Z</time>
      </trkpt>
      <trkpt lat="46.72201" lon="6.40726">
        <ele>766.4</ele>
        <time>2020-09-29T12:32:37Z</time>
      </trkpt>
      <trkpt lat="46.72201" lon="6.40734">
        <ele>766.5</ele>
        <time>2020-09-29T12:32:42Z</time>
      </trkpt>
      <trkpt lat="46.722" lon="6.40741">
        <ele>766.7</ele>
        <time>2020-09-29T12:32:48Z</time>
      </trkpt>
      <trkpt lat="46.72199" lon="6.40748">
        <ele>767.1</ele>
        <time>2020-09-29T12:32:53Z</time>
      </trkpt>
      <trkpt lat="46.72199" lon="6.40755">
        <ele>767.6</ele>
        <time>2020-09-29T12:32:58Z</time>
      </trkpt>
      <trkpt lat="46.72201" lon="6.40762">
        <ele>768.1</ele>
        <time>2020-09-29T12:33:04Z</time>
      </trkpt>
      <trkpt lat="46.72203" lon="6.40769">
        <ele>768.3</ele>
        <time>2020-09-29T12:33:10Z</time>
      </trkpt>
      <trkpt lat="46.72205" lon="6.40775">
        <ele>768.7</ele>
        <time>2020-09-29T12:33:16Z</time>
      </trkpt>
      <trkpt lat="46.72209" lon="6.40778">
        <ele>769.6</ele>
        <time>2020-09-29T12:33:24Z</time>
      </trkpt>
      <trkpt lat="46.72214" lon="6.4078">
        <ele>770</ele>
        <time>2020-09-29T12:33:29Z</time>
      </trkpt>
      <trkpt lat="46.72219" lon="6.40782">
        <ele>771.8</ele>
        <time>2020-09-29T12:33:37Z</time>
      </trkpt>
      <trkpt lat="46.72224" lon="6.40783">
        <ele>772.7</ele>
        <time>2020-09-29T12:33:43Z</time>
      </trkpt>
      <trkpt lat="46.72228" lon="6.40782">
        <ele>775</ele>
        <time>2020-09-29T12:34:06Z</time>
      </trkpt>
      <trkpt lat="46.72233" lon="6.40781">
        <ele>775.2</ele>
        <time>2020-09-29T12:34:18Z</time>
      </trkpt>
      <trkpt lat="46.72238" lon="6.40782">
        <ele>775.3</ele>
        <time>2020-09-29T12:34:27Z</time>
      </trkpt>
      <trkpt lat="46.72242" lon="6.40782">
        <ele>775.6</ele>
        <time>2020-09-29T12:34:32Z</time>
      </trkpt>
      <trkpt lat="46.72248" lon="6.40782">
        <ele>776.8</ele>
        <time>2020-09-29T12:34:38Z</time>
      </trkpt>
      <trkpt lat="46.72253" lon="6.40782">
        <ele>777.6</ele>
        <time>2020-09-29T12:34:43Z</time>
      </trkpt>
      <trkpt lat="46.72258" lon="6.40781">
        <ele>778.6</ele>
        <time>2020-09-29T12:34:48Z</time>
      </trkpt>
      <trkpt lat="46.72263" lon="6.40781">
        <ele>779.7</ele>
        <time>2020-09-29T12:34:53Z</time>
      </trkpt>
      <trkpt lat="46.72268" lon="6.40781">
        <ele>780.1</ele>
        <time>2020-09-29T12:34:58Z</time>
      </trkpt>
      <trkpt lat="46.72273" lon="6.40781">
        <ele>779.7</ele>
        <time>2020-09-29T12:35:03Z</time>
      </trkpt>
      <trkpt lat="46.72278" lon="6.4078">
        <ele>779.8</ele>
        <time>2020-09-29T12:35:08Z</time>
      </trkpt>
      <trkpt lat="46.72284" lon="6.40778">
        <ele>780.3</ele>
        <time>2020-09-29T12:35:13Z</time>
      </trkpt>
      <trkpt lat="46.72288" lon="6.40777">
        <ele>780.4</ele>
        <time>2020-09-29T12:35:19Z</time>
      </trkpt>
      <trkpt lat="46.72293" lon="6.40777">
        <ele>780.7</ele>
        <time>2020-09-29T12:35:25Z</time>
      </trkpt>
      <trkpt lat="46.72298" lon="6.40776">
        <ele>781.4</ele>
        <time>2020-09-29T12:35:30Z</time>
      </trkpt>
      <trkpt lat="46.72303" lon="6.40775">
        <ele>782</ele>
        <time>2020-09-29T12:35:37Z</time>
      </trkpt>
      <trkpt lat="46.72308" lon="6.40776">
        <ele>782.3</ele>
        <time>2020-09-29T12:35:47Z</time>
      </trkpt>
      <trkpt lat="46.72312" lon="6.40775">
        <ele>782.2</ele>
        <time>2020-09-29T12:35:51Z</time>
      </trkpt>
      <trkpt lat="46.72318" lon="6.40774">
        <ele>782.2</ele>
        <time>2020-09-29T12:35:55Z</time>
      </trkpt>
      <trkpt lat="46.72323" lon="6.40773">
        <ele>782.6</ele>
        <time>2020-09-29T12:35:59Z</time>
      </trkpt>
      <trkpt lat="46.72328" lon="6.40771">
        <ele>782.7</ele>
        <time>2020-09-29T12:36:03Z</time>
      </trkpt>
      <trkpt lat="46.72333" lon="6.40769">
        <ele>782.7</ele>
        <time>2020-09-29T12:36:07Z</time>
      </trkpt>
      <trkpt lat="46.72337" lon="6.40766">
        <ele>782.7</ele>
        <time>2020-09-29T12:36:12Z</time>
      </trkpt>
      <trkpt lat="46.72342" lon="6.40764">
        <ele>782.1</ele>
        <time>2020-09-29T12:36:17Z</time>
      </trkpt>
      <trkpt lat="46.72347" lon="6.40763">
        <ele>780.9</ele>
        <time>2020-09-29T12:36:23Z</time>
      </trkpt>
      <trkpt lat="46.72351" lon="6.40762">
        <ele>779.3</ele>
        <time>2020-09-29T12:36:32Z</time>
      </trkpt>
      <trkpt lat="46.72357" lon="6.40762">
        <ele>778.5</ele>
        <time>2020-09-29T12:36:38Z</time>
      </trkpt>
      <trkpt lat="46.72361" lon="6.40758">
        <ele>778.5</ele>
        <time>2020-09-29T12:36:42Z</time>
      </trkpt>
      <trkpt lat="46.72365" lon="6.40754">
        <ele>778.7</ele>
        <time>2020-09-29T12:36:45Z</time>
      </trkpt>
      <trkpt lat="46.7237" lon="6.40749">
        <ele>779.3</ele>
        <time>2020-09-29T12:36:49Z</time>
      </trkpt>
      <trkpt lat="46.72375" lon="6.40747">
        <ele>780.4</ele>
        <time>2020-09-29T12:36:54Z</time>
      </trkpt>
      <trkpt lat="46.7238" lon="6.40746">
        <ele>781.4</ele>
        <time>2020-09-29T12:37:01Z</time>
      </trkpt>
      <trkpt lat="46.72385" lon="6.40743">
        <ele>782.1</ele>
        <time>2020-09-29T12:37:07Z</time>
      </trkpt>
      <trkpt lat="46.7239" lon="6.40742">
        <ele>782.7</ele>
        <time>2020-09-29T12:37:14Z</time>
      </trkpt>
      <trkpt lat="46.72394" lon="6.40742">
        <ele>783.8</ele>
        <time>2020-09-29T12:37:20Z</time>
      </trkpt>
      <trkpt lat="46.72399" lon="6.40739">
        <ele>784.7</ele>
        <time>2020-09-29T12:37:24Z</time>
      </trkpt>
      <trkpt lat="46.72404" lon="6.40736">
        <ele>786.1</ele>
        <time>2020-09-29T12:37:30Z</time>
      </trkpt>
      <trkpt lat="46.72409" lon="6.40732">
        <ele>787.8</ele>
        <time>2020-09-29T12:37:36Z</time>
      </trkpt>
      <trkpt lat="46.72413" lon="6.40729">
        <ele>789.4</ele>
        <time>2020-09-29T12:37:42Z</time>
      </trkpt>
      <trkpt lat="46.72417" lon="6.40725">
        <ele>790.7</ele>
        <time>2020-09-29T12:37:48Z</time>
      </trkpt>
      <trkpt lat="46.72422" lon="6.40722">
        <ele>792</ele>
        <time>2020-09-29T12:37:56Z</time>
      </trkpt>
      <trkpt lat="46.72425" lon="6.40728">
        <ele>789.6</ele>
        <time>2020-09-29T12:39:59Z</time>
      </trkpt>
      <trkpt lat="46.72428" lon="6.40734">
        <ele>788.9</ele>
        <time>2020-09-29T12:40:06Z</time>
      </trkpt>
      <trkpt lat="46.7243" lon="6.40739">
        <ele>789.5</ele>
        <time>2020-09-29T12:40:11Z</time>
      </trkpt>
      <trkpt lat="46.72433" lon="6.40745">
        <ele>790.9</ele>
        <time>2020-09-29T12:40:17Z</time>
      </trkpt>
      <trkpt lat="46.72436" lon="6.40751">
        <ele>791.7</ele>
        <time>2020-09-29T12:40:24Z</time>
      </trkpt>
      <trkpt lat="46.72439" lon="6.40757">
        <ele>793.1</ele>
        <time>2020-09-29T12:40:31Z</time>
      </trkpt>
      <trkpt lat="46.72442" lon="6.40762">
        <ele>794.3</ele>
        <time>2020-09-29T12:40:36Z</time>
      </trkpt>
      <trkpt lat="46.72445" lon="6.40767">
        <ele>795.5</ele>
        <time>2020-09-29T12:40:41Z</time>
      </trkpt>
      <trkpt lat="46.72448" lon="6.40773">
        <ele>797.2</ele>
        <time>2020-09-29T12:40:48Z</time>
      </trkpt>
      <trkpt lat="46.72452" lon="6.40776">
        <ele>798.8</ele>
        <time>2020-09-29T12:40:55Z</time>
      </trkpt>
      <trkpt lat="46.72457" lon="6.40776">
        <ele>799.7</ele>
        <time>2020-09-29T12:41:00Z</time>
      </trkpt>
      <trkpt lat="46.72462" lon="6.40774">
        <ele>800.5</ele>
        <time>2020-09-29T12:41:06Z</time>
      </trkpt>
      <trkpt lat="46.72465" lon="6.40769">
        <ele>801.1</ele>
        <time>2020-09-29T12:41:12Z</time>
      </trkpt>
      <trkpt lat="46.72467" lon="6.40763">
        <ele>801.8</ele>
        <time>2020-09-29T12:41:17Z</time>
      </trkpt>
      <trkpt lat="46.72467" lon="6.40756">
        <ele>802.4</ele>
        <time>2020-09-29T12:41:21Z</time>
      </trkpt>
      <trkpt lat="46.72467" lon="6.4075">
        <ele>803</ele>
        <time>2020-09-29T12:41:25Z</time>
      </trkpt>
      <trkpt lat="46.72467" lon="6.40743">
        <ele>803.6</ele>
        <time>2020-09-29T12:41:30Z</time>
      </trkpt>
      <trkpt lat="46.72469" lon="6.40736">
        <ele>803.9</ele>
        <time>2020-09-29T12:41:35Z</time>
      </trkpt>
      <trkpt lat="46.72471" lon="6.4073">
        <ele>804</ele>
        <time>2020-09-29T12:41:39Z</time>
      </trkpt>
      <trkpt lat="46.72474" lon="6.40725">
        <ele>804</ele>
        <time>2020-09-29T12:41:44Z</time>
      </trkpt>
      <trkpt lat="46.72477" lon="6.4072">
        <ele>803.6</ele>
        <time>2020-09-29T12:41:49Z</time>
      </trkpt>
      <trkpt lat="46.72479" lon="6.40713">
        <ele>803.6</ele>
        <time>2020-09-29T12:41:54Z</time>
      </trkpt>
      <trkpt lat="46.72482" lon="6.40706">
        <ele>804</ele>
        <time>2020-09-29T12:42:01Z</time>
      </trkpt>
      <trkpt lat="46.72483" lon="6.407">
        <ele>804.4</ele>
        <time>2020-09-29T12:42:06Z</time>
      </trkpt>
      <trkpt lat="46.72485" lon="6.40692">
        <ele>804.5</ele>
        <time>2020-09-29T12:42:11Z</time>
      </trkpt>
      <trkpt lat="46.72486" lon="6.40685">
        <ele>804.9</ele>
        <time>2020-09-29T12:42:16Z</time>
      </trkpt>
      <trkpt lat="46.72487" lon="6.40678">
        <ele>805.3</ele>
        <time>2020-09-29T12:42:21Z</time>
      </trkpt>
      <trkpt lat="46.72488" lon="6.40671">
        <ele>805.4</ele>
        <time>2020-09-29T12:42:28Z</time>
      </trkpt>
      <trkpt lat="46.72487" lon="6.40664">
        <ele>805.8</ele>
        <time>2020-09-29T12:42:34Z</time>
      </trkpt>
      <trkpt lat="46.72488" lon="6.40657">
        <ele>805.5</ele>
        <time>2020-09-29T12:42:42Z</time>
      </trkpt>
      <trkpt lat="46.72489" lon="6.40649">
        <ele>805</ele>
        <time>2020-09-29T12:42:48Z</time>
      </trkpt>
      <trkpt lat="46.72488" lon="6.40642">
        <ele>804.8</ele>
        <time>2020-09-29T12:42:52Z</time>
      </trkpt>
      <trkpt lat="46.72488" lon="6.40636">
        <ele>804.6</ele>
        <time>2020-09-29T12:42:56Z</time>
      </trkpt>
      <trkpt lat="46.72487" lon="6.40629">
        <ele>804.4</ele>
        <time>2020-09-29T12:43:00Z</time>
      </trkpt>
      <trkpt lat="46.72487" lon="6.40622">
        <ele>804.4</ele>
        <time>2020-09-29T12:43:06Z</time>
      </trkpt>
      <trkpt lat="46.72489" lon="6.40616">
        <ele>804.5</ele>
        <time>2020-09-29T12:43:12Z</time>
      </trkpt>
      <trkpt lat="46.72488" lon="6.40608">
        <ele>804.9</ele>
        <time>2020-09-29T12:43:22Z</time>
      </trkpt>
      <trkpt lat="46.72488" lon="6.40601">
        <ele>805</ele>
        <time>2020-09-29T12:43:27Z</time>
      </trkpt>
      <trkpt lat="46.72487" lon="6.40594">
        <ele>805.4</ele>
        <time>2020-09-29T12:43:32Z</time>
      </trkpt>
      <trkpt lat="46.72486" lon="6.40587">
        <ele>806</ele>
        <time>2020-09-29T12:43:37Z</time>
      </trkpt>
      <trkpt lat="46.72485" lon="6.40581">
        <ele>806.4</ele>
        <time>2020-09-29T12:43:41Z</time>
      </trkpt>
      <trkpt lat="46.72485" lon="6.40574">
        <ele>807.1</ele>
        <time>2020-09-29T12:43:48Z</time>
      </trkpt>
      <trkpt lat="46.72486" lon="6.40568">
        <ele>806.8</ele>
        <time>2020-09-29T12:43:53Z</time>
      </trkpt>
      <trkpt lat="46.72487" lon="6.40561">
        <ele>806.5</ele>
        <time>2020-09-29T12:43:58Z</time>
      </trkpt>
      <trkpt lat="46.7249" lon="6.40555">
        <ele>806.5</ele>
        <time>2020-09-29T12:44:04Z</time>
      </trkpt>
      <trkpt lat="46.72495" lon="6.40551">
        <ele>807.1</ele>
        <time>2020-09-29T12:44:10Z</time>
      </trkpt>
      <trkpt lat="46.725" lon="6.40551">
        <ele>807.7</ele>
        <time>2020-09-29T12:44:16Z</time>
      </trkpt>
      <trkpt lat="46.72503" lon="6.40555">
        <ele>809.1</ele>
        <time>2020-09-29T12:44:40Z</time>
      </trkpt>
      <trkpt lat="46.72506" lon="6.40561">
        <ele>809.8</ele>
        <time>2020-09-29T12:44:45Z</time>
      </trkpt>
      <trkpt lat="46.72508" lon="6.40567">
        <ele>811</ele>
        <time>2020-09-29T12:44:51Z</time>
      </trkpt>
      <trkpt lat="46.7251" lon="6.40573">
        <ele>811</ele>
        <time>2020-09-29T12:44:58Z</time>
      </trkpt>
      <trkpt lat="46.72512" lon="6.40579">
        <ele>810.6</ele>
        <time>2020-09-29T12:45:04Z</time>
      </trkpt>
      <trkpt lat="46.72516" lon="6.40584">
        <ele>811.1</ele>
        <time>2020-09-29T12:45:11Z</time>
      </trkpt>
      <trkpt lat="46.7252" lon="6.40588">
        <ele>810.8</ele>
        <time>2020-09-29T12:45:16Z</time>
      </trkpt>
      <trkpt lat="46.72523" lon="6.40593">
        <ele>811</ele>
        <time>2020-09-29T12:45:21Z</time>
      </trkpt>
      <trkpt lat="46.72527" lon="6.40599">
        <ele>811.9</ele>
        <time>2020-09-29T12:45:27Z</time>
      </trkpt>
      <trkpt lat="46.72529" lon="6.40606">
        <ele>811.7</ele>
        <time>2020-09-29T12:45:33Z</time>
      </trkpt>
      <trkpt lat="46.72532" lon="6.40611">
        <ele>811.7</ele>
        <time>2020-09-29T12:45:39Z</time>
      </trkpt>
      <trkpt lat="46.72537" lon="6.40615">
        <ele>811.9</ele>
        <time>2020-09-29T12:45:43Z</time>
      </trkpt>
      <trkpt lat="46.72541" lon="6.40619">
        <ele>812.8</ele>
        <time>2020-09-29T12:45:47Z</time>
      </trkpt>
      <trkpt lat="46.72544" lon="6.40624">
        <ele>813.7</ele>
        <time>2020-09-29T12:45:51Z</time>
      </trkpt>
      <trkpt lat="46.72546" lon="6.40631">
        <ele>814.9</ele>
        <time>2020-09-29T12:45:56Z</time>
      </trkpt>
      <trkpt lat="46.72546" lon="6.40638">
        <ele>815.9</ele>
        <time>2020-09-29T12:46:01Z</time>
      </trkpt>
      <trkpt lat="46.72548" lon="6.40644">
        <ele>816.9</ele>
        <time>2020-09-29T12:46:05Z</time>
      </trkpt>
      <trkpt lat="46.7255" lon="6.40651">
        <ele>818.3</ele>
        <time>2020-09-29T12:46:10Z</time>
      </trkpt>
      <trkpt lat="46.72551" lon="6.40657">
        <ele>819.7</ele>
        <time>2020-09-29T12:46:15Z</time>
      </trkpt>
      <trkpt lat="46.72552" lon="6.40664">
        <ele>821.1</ele>
        <time>2020-09-29T12:46:20Z</time>
      </trkpt>
      <trkpt lat="46.72553" lon="6.4067">
        <ele>822.5</ele>
        <time>2020-09-29T12:46:25Z</time>
      </trkpt>
      <trkpt lat="46.72554" lon="6.40678">
        <ele>823.8</ele>
        <time>2020-09-29T12:46:31Z</time>
      </trkpt>
      <trkpt lat="46.72555" lon="6.40685">
        <ele>824.5</ele>
        <time>2020-09-29T12:46:37Z</time>
      </trkpt>
      <trkpt lat="46.72556" lon="6.40692">
        <ele>824.7</ele>
        <time>2020-09-29T12:46:42Z</time>
      </trkpt>
      <trkpt lat="46.72558" lon="6.40699">
        <ele>824.7</ele>
        <time>2020-09-29T12:46:47Z</time>
      </trkpt>
      <trkpt lat="46.7256" lon="6.40705">
        <ele>824.9</ele>
        <time>2020-09-29T12:46:52Z</time>
      </trkpt>
      <trkpt lat="46.72562" lon="6.40711">
        <ele>825.2</ele>
        <time>2020-09-29T12:46:57Z</time>
      </trkpt>
      <trkpt lat="46.72564" lon="6.40718">
        <ele>825.8</ele>
        <time>2020-09-29T12:47:03Z</time>
      </trkpt>
      <trkpt lat="46.72565" lon="6.40724">
        <ele>826.9</ele>
        <time>2020-09-29T12:47:09Z</time>
      </trkpt>
      <trkpt lat="46.72568" lon="6.4073">
        <ele>827.8</ele>
        <time>2020-09-29T12:47:14Z</time>
      </trkpt>
      <trkpt lat="46.72572" lon="6.40735">
        <ele>828.6</ele>
        <time>2020-09-29T12:47:19Z</time>
      </trkpt>
      <trkpt lat="46.72575" lon="6.40741">
        <ele>829.5</ele>
        <time>2020-09-29T12:47:24Z</time>
      </trkpt>
      <trkpt lat="46.72579" lon="6.40746">
        <ele>830.3</ele>
        <time>2020-09-29T12:47:29Z</time>
      </trkpt>
      <trkpt lat="46.72582" lon="6.40752">
        <ele>830.9</ele>
        <time>2020-09-29T12:47:34Z</time>
      </trkpt>
      <trkpt lat="46.72585" lon="6.40757">
        <ele>831.7</ele>
        <time>2020-09-29T12:47:39Z</time>
      </trkpt>
      <trkpt lat="46.72588" lon="6.40763">
        <ele>832.2</ele>
        <time>2020-09-29T12:47:44Z</time>
      </trkpt>
      <trkpt lat="46.72592" lon="6.40768">
        <ele>832.5</ele>
        <time>2020-09-29T12:47:49Z</time>
      </trkpt>
      <trkpt lat="46.72595" lon="6.40773">
        <ele>832.9</ele>
        <time>2020-09-29T12:47:54Z</time>
      </trkpt>
      <trkpt lat="46.72599" lon="6.40777">
        <ele>833.2</ele>
        <time>2020-09-29T12:47:58Z</time>
      </trkpt>
      <trkpt lat="46.72603" lon="6.40782">
        <ele>833.4</ele>
        <time>2020-09-29T12:48:03Z</time>
      </trkpt>
      <trkpt lat="46.72607" lon="6.40785">
        <ele>833.4</ele>
        <time>2020-09-29T12:48:07Z</time>
      </trkpt>
      <trkpt lat="46.72611" lon="6.40789">
        <ele>833.6</ele>
        <time>2020-09-29T12:48:13Z</time>
      </trkpt>
      <trkpt lat="46.72616" lon="6.40793">
        <ele>833.8</ele>
        <time>2020-09-29T12:48:18Z</time>
      </trkpt>
      <trkpt lat="46.72621" lon="6.40795">
        <ele>834</ele>
        <time>2020-09-29T12:48:24Z</time>
      </trkpt>
      <trkpt lat="46.72626" lon="6.40798">
        <ele>833.9</ele>
        <time>2020-09-29T12:48:30Z</time>
      </trkpt>
      <trkpt lat="46.72631" lon="6.40802">
        <ele>834</ele>
        <time>2020-09-29T12:48:35Z</time>
      </trkpt>
      <trkpt lat="46.72634" lon="6.40807">
        <ele>834.4</ele>
        <time>2020-09-29T12:48:42Z</time>
      </trkpt>
      <trkpt lat="46.72638" lon="6.40811">
        <ele>834.6</ele>
        <time>2020-09-29T12:48:49Z</time>
      </trkpt>
      <trkpt lat="46.72642" lon="6.40813">
        <ele>834.7</ele>
        <time>2020-09-29T12:48:55Z</time>
      </trkpt>
      <trkpt lat="46.72647" lon="6.40813">
        <ele>835.3</ele>
        <time>2020-09-29T12:49:03Z</time>
      </trkpt>
      <trkpt lat="46.7265" lon="6.40808">
        <ele>835.6</ele>
        <time>2020-09-29T12:49:11Z</time>
      </trkpt>
      <trkpt lat="46.72654" lon="6.40813">
        <ele>830.7</ele>
        <time>2020-09-29T12:52:03Z</time>
      </trkpt>
      <trkpt lat="46.72658" lon="6.4081">
        <ele>830.5</ele>
        <time>2020-09-29T12:52:18Z</time>
      </trkpt>
      <trkpt lat="46.72663" lon="6.40811">
        <ele>830.4</ele>
        <time>2020-09-29T12:52:24Z</time>
      </trkpt>
      <trkpt lat="46.72666" lon="6.40817">
        <ele>829.2</ele>
        <time>2020-09-29T12:52:31Z</time>
      </trkpt>
      <trkpt lat="46.7267" lon="6.40821">
        <ele>828.6</ele>
        <time>2020-09-29T12:52:38Z</time>
      </trkpt>
      <trkpt lat="46.72674" lon="6.40826">
        <ele>828.3</ele>
        <time>2020-09-29T12:52:45Z</time>
      </trkpt>
      <trkpt lat="46.72679" lon="6.40828">
        <ele>828</ele>
        <time>2020-09-29T12:52:50Z</time>
      </trkpt>
      <trkpt lat="46.72685" lon="6.40829">
        <ele>827.7</ele>
        <time>2020-09-29T12:52:54Z</time>
      </trkpt>
      <trkpt lat="46.72691" lon="6.40829">
        <ele>827.4</ele>
        <time>2020-09-29T12:52:58Z</time>
      </trkpt>
      <trkpt lat="46.72696" lon="6.40829">
        <ele>827</ele>
        <time>2020-09-29T12:53:02Z</time>
      </trkpt>
      <trkpt lat="46.72701" lon="6.40829">
        <ele>826.8</ele>
        <time>2020-09-29T12:53:05Z</time>
      </trkpt>
      <trkpt lat="46.72706" lon="6.40829">
        <ele>826.6</ele>
        <time>2020-09-29T12:53:08Z</time>
      </trkpt>
      <trkpt lat="46.72712" lon="6.4083">
        <ele>826.3</ele>
        <time>2020-09-29T12:53:12Z</time>
      </trkpt>
      <trkpt lat="46.72716" lon="6.40833">
        <ele>826</ele>
        <time>2020-09-29T12:53:16Z</time>
      </trkpt>
      <trkpt lat="46.7272" lon="6.40836">
        <ele>826.2</ele>
        <time>2020-09-29T12:53:20Z</time>
      </trkpt>
      <trkpt lat="46.72725" lon="6.40839">
        <ele>826.7</ele>
        <time>2020-09-29T12:53:24Z</time>
      </trkpt>
      <trkpt lat="46.72729" lon="6.40844">
        <ele>827.5</ele>
        <time>2020-09-29T12:53:29Z</time>
      </trkpt>
      <trkpt lat="46.72733" lon="6.40849">
        <ele>828.5</ele>
        <time>2020-09-29T12:53:33Z</time>
      </trkpt>
      <trkpt lat="46.72736" lon="6.40853">
        <ele>829.8</ele>
        <time>2020-09-29T12:53:37Z</time>
      </trkpt>
      <trkpt lat="46.7274" lon="6.40857">
        <ele>831.1</ele>
        <time>2020-09-29T12:53:42Z</time>
      </trkpt>
      <trkpt lat="46.72744" lon="6.40861">
        <ele>832.2</ele>
        <time>2020-09-29T12:53:47Z</time>
      </trkpt>
      <trkpt lat="46.72748" lon="6.40866">
        <ele>833.4</ele>
        <time>2020-09-29T12:53:53Z</time>
      </trkpt>
      <trkpt lat="46.72752" lon="6.40869">
        <ele>833.6</ele>
        <time>2020-09-29T12:53:58Z</time>
      </trkpt>
      <trkpt lat="46.72756" lon="6.40873">
        <ele>833.4</ele>
        <time>2020-09-29T12:54:03Z</time>
      </trkpt>
      <trkpt lat="46.7276" lon="6.40876">
        <ele>833.4</ele>
        <time>2020-09-29T12:54:08Z</time>
      </trkpt>
      <trkpt lat="46.72765" lon="6.40879">
        <ele>833.9</ele>
        <time>2020-09-29T12:54:13Z</time>
      </trkpt>
      <trkpt lat="46.72769" lon="6.40884">
        <ele>834.8</ele>
        <time>2020-09-29T12:54:19Z</time>
      </trkpt>
      <trkpt lat="46.72772" lon="6.40888">
        <ele>835.8</ele>
        <time>2020-09-29T12:54:24Z</time>
      </trkpt>
      <trkpt lat="46.72777" lon="6.40892">
        <ele>836.3</ele>
        <time>2020-09-29T12:54:29Z</time>
      </trkpt>
      <trkpt lat="46.72781" lon="6.40895">
        <ele>836.7</ele>
        <time>2020-09-29T12:54:34Z</time>
      </trkpt>
      <trkpt lat="46.72785" lon="6.40899">
        <ele>837.2</ele>
        <time>2020-09-29T12:54:39Z</time>
      </trkpt>
      <trkpt lat="46.72789" lon="6.40904">
        <ele>837.6</ele>
        <time>2020-09-29T12:54:45Z</time>
      </trkpt>
      <trkpt lat="46.72793" lon="6.40908">
        <ele>837.7</ele>
        <time>2020-09-29T12:54:51Z</time>
      </trkpt>
      <trkpt lat="46.72797" lon="6.40912">
        <ele>838.1</ele>
        <time>2020-09-29T12:55:01Z</time>
      </trkpt>
      <trkpt lat="46.72799" lon="6.40919">
        <ele>836</ele>
        <time>2020-09-29T12:55:17Z</time>
      </trkpt>
      <trkpt lat="46.72802" lon="6.40925">
        <ele>836</ele>
        <time>2020-09-29T12:55:23Z</time>
      </trkpt>
      <trkpt lat="46.72807" lon="6.40928">
        <ele>836.6</ele>
        <time>2020-09-29T12:55:28Z</time>
      </trkpt>
      <trkpt lat="46.72811" lon="6.40928">
        <ele>837.4</ele>
        <time>2020-09-29T12:55:33Z</time>
      </trkpt>
      <trkpt lat="46.72816" lon="6.40926">
        <ele>838.3</ele>
        <time>2020-09-29T12:55:38Z</time>
      </trkpt>
      <trkpt lat="46.72821" lon="6.40922">
        <ele>839</ele>
        <time>2020-09-29T12:55:43Z</time>
      </trkpt>
      <trkpt lat="46.72825" lon="6.40918">
        <ele>839.3</ele>
        <time>2020-09-29T12:55:48Z</time>
      </trkpt>
      <trkpt lat="46.72829" lon="6.40913">
        <ele>839.2</ele>
        <time>2020-09-29T12:55:53Z</time>
      </trkpt>
      <trkpt lat="46.72833" lon="6.4091">
        <ele>838.9</ele>
        <time>2020-09-29T12:55:58Z</time>
      </trkpt>
      <trkpt lat="46.72838" lon="6.40905">
        <ele>838.6</ele>
        <time>2020-09-29T12:56:03Z</time>
      </trkpt>
      <trkpt lat="46.72842" lon="6.40902">
        <ele>838.9</ele>
        <time>2020-09-29T12:56:08Z</time>
      </trkpt>
      <trkpt lat="46.72846" lon="6.40899">
        <ele>839.3</ele>
        <time>2020-09-29T12:56:12Z</time>
      </trkpt>
      <trkpt lat="46.7285" lon="6.40895">
        <ele>839.9</ele>
        <time>2020-09-29T12:56:16Z</time>
      </trkpt>
      <trkpt lat="46.72854" lon="6.40891">
        <ele>841.1</ele>
        <time>2020-09-29T12:56:21Z</time>
      </trkpt>
      <trkpt lat="46.72858" lon="6.40889">
        <ele>842.4</ele>
        <time>2020-09-29T12:56:26Z</time>
      </trkpt>
      <trkpt lat="46.72863" lon="6.40886">
        <ele>843.3</ele>
        <time>2020-09-29T12:56:31Z</time>
      </trkpt>
      <trkpt lat="46.72868" lon="6.40883">
        <ele>844.2</ele>
        <time>2020-09-29T12:56:36Z</time>
      </trkpt>
      <trkpt lat="46.72872" lon="6.4088">
        <ele>844.8</ele>
        <time>2020-09-29T12:56:40Z</time>
      </trkpt>
      <trkpt lat="46.72877" lon="6.40878">
        <ele>845.1</ele>
        <time>2020-09-29T12:56:44Z</time>
      </trkpt>
      <trkpt lat="46.72882" lon="6.40876">
        <ele>845.5</ele>
        <time>2020-09-29T12:56:49Z</time>
      </trkpt>
      <trkpt lat="46.72886" lon="6.40872">
        <ele>845.8</ele>
        <time>2020-09-29T12:56:55Z</time>
      </trkpt>
      <trkpt lat="46.72891" lon="6.4087">
        <ele>846</ele>
        <time>2020-09-29T12:57:00Z</time>
      </trkpt>
      <trkpt lat="46.72896" lon="6.40868">
        <ele>846.4</ele>
        <time>2020-09-29T12:57:04Z</time>
      </trkpt>
      <trkpt lat="46.72901" lon="6.40867">
        <ele>846.8</ele>
        <time>2020-09-29T12:57:08Z</time>
      </trkpt>
      <trkpt lat="46.72906" lon="6.40866">
        <ele>847.2</ele>
        <time>2020-09-29T12:57:12Z</time>
      </trkpt>
      <trkpt lat="46.72912" lon="6.40865">
        <ele>848</ele>
        <time>2020-09-29T12:57:17Z</time>
      </trkpt>
      <trkpt lat="46.72917" lon="6.40865">
        <ele>848.9</ele>
        <time>2020-09-29T12:57:23Z</time>
      </trkpt>
      <trkpt lat="46.72922" lon="6.40866">
        <ele>849.6</ele>
        <time>2020-09-29T12:57:28Z</time>
      </trkpt>
      <trkpt lat="46.72926" lon="6.40867">
        <ele>850.2</ele>
        <time>2020-09-29T12:57:34Z</time>
      </trkpt>
      <trkpt lat="46.7293" lon="6.4087">
        <ele>851.5</ele>
        <time>2020-09-29T12:57:40Z</time>
      </trkpt>
      <trkpt lat="46.72935" lon="6.40873">
        <ele>852.8</ele>
        <time>2020-09-29T12:57:46Z</time>
      </trkpt>
      <trkpt lat="46.7294" lon="6.40874">
        <ele>854</ele>
        <time>2020-09-29T12:57:52Z</time>
      </trkpt>
      <trkpt lat="46.72945" lon="6.40877">
        <ele>855.5</ele>
        <time>2020-09-29T12:57:59Z</time>
      </trkpt>
      <trkpt lat="46.7295" lon="6.40879">
        <ele>856.7</ele>
        <time>2020-09-29T12:58:04Z</time>
      </trkpt>
      <trkpt lat="46.72954" lon="6.4088">
        <ele>857.8</ele>
        <time>2020-09-29T12:58:08Z</time>
      </trkpt>
      <trkpt lat="46.72959" lon="6.40883">
        <ele>858.9</ele>
        <time>2020-09-29T12:58:13Z</time>
      </trkpt>
      <trkpt lat="46.72965" lon="6.40886">
        <ele>859.7</ele>
        <time>2020-09-29T12:58:18Z</time>
      </trkpt>
      <trkpt lat="46.72969" lon="6.40888">
        <ele>860.2</ele>
        <time>2020-09-29T12:58:24Z</time>
      </trkpt>
      <trkpt lat="46.72974" lon="6.40889">
        <ele>860.6</ele>
        <time>2020-09-29T12:58:30Z</time>
      </trkpt>
      <trkpt lat="46.72979" lon="6.4089">
        <ele>860.8</ele>
        <time>2020-09-29T12:58:35Z</time>
      </trkpt>
      <trkpt lat="46.72984" lon="6.40891">
        <ele>861</ele>
        <time>2020-09-29T12:58:41Z</time>
      </trkpt>
      <trkpt lat="46.72989" lon="6.40891">
        <ele>860.3</ele>
        <time>2020-09-29T12:58:48Z</time>
      </trkpt>
      <trkpt lat="46.72994" lon="6.40891">
        <ele>859.5</ele>
        <time>2020-09-29T12:59:04Z</time>
      </trkpt>
      <trkpt lat="46.72997" lon="6.40896">
        <ele>859.5</ele>
        <time>2020-09-29T12:59:09Z</time>
      </trkpt>
      <trkpt lat="46.73" lon="6.40902">
        <ele>859.5</ele>
        <time>2020-09-29T12:59:15Z</time>
      </trkpt>
      <trkpt lat="46.73002" lon="6.40908">
        <ele>859.6</ele>
        <time>2020-09-29T12:59:20Z</time>
      </trkpt>
      <trkpt lat="46.73" lon="6.40915">
        <ele>859.7</ele>
        <time>2020-09-29T12:59:25Z</time>
      </trkpt>
      <trkpt lat="46.72999" lon="6.40922">
        <ele>859.5</ele>
        <time>2020-09-29T12:59:31Z</time>
      </trkpt>
      <trkpt lat="46.72995" lon="6.40927">
        <ele>859.2</ele>
        <time>2020-09-29T12:59:36Z</time>
      </trkpt>
      <trkpt lat="46.72992" lon="6.40932">
        <ele>858.8</ele>
        <time>2020-09-29T12:59:41Z</time>
      </trkpt>
      <trkpt lat="46.72988" lon="6.40936">
        <ele>858.6</ele>
        <time>2020-09-29T12:59:48Z</time>
      </trkpt>
      <trkpt lat="46.72984" lon="6.4094">
        <ele>858.3</ele>
        <time>2020-09-29T12:59:53Z</time>
      </trkpt>
      <trkpt lat="46.7298" lon="6.40943">
        <ele>858.1</ele>
        <time>2020-09-29T12:59:59Z</time>
      </trkpt>
      <trkpt lat="46.72976" lon="6.40947">
        <ele>857.9</ele>
        <time>2020-09-29T13:00:05Z</time>
      </trkpt>
      <trkpt lat="46.72972" lon="6.4095">
        <ele>857.9</ele>
        <time>2020-09-29T13:00:12Z</time>
      </trkpt>
      <trkpt lat="46.72968" lon="6.40954">
        <ele>858.1</ele>
        <time>2020-09-29T13:00:18Z</time>
      </trkpt>
      <trkpt lat="46.72964" lon="6.40958">
        <ele>858.4</ele>
        <time>2020-09-29T13:00:24Z</time>
      </trkpt>
      <trkpt lat="46.7296" lon="6.40962">
        <ele>858.5</ele>
        <time>2020-09-29T13:00:30Z</time>
      </trkpt>
      <trkpt lat="46.72955" lon="6.40965">
        <ele>858.3</ele>
        <time>2020-09-29T13:00:35Z</time>
      </trkpt>
      <trkpt lat="46.72949" lon="6.40967">
        <ele>858.2</ele>
        <time>2020-09-29T13:00:39Z</time>
      </trkpt>
      <trkpt lat="46.72945" lon="6.4097">
        <ele>858</ele>
        <time>2020-09-29T13:00:43Z</time>
      </trkpt>
      <trkpt lat="46.7294" lon="6.40976">
        <ele>857.8</ele>
        <time>2020-09-29T13:00:48Z</time>
      </trkpt>
      <trkpt lat="46.72937" lon="6.40979">
        <ele>857.4</ele>
        <time>2020-09-29T13:00:52Z</time>
      </trkpt>
      <trkpt lat="46.72934" lon="6.40985">
        <ele>856.9</ele>
        <time>2020-09-29T13:01:00Z</time>
      </trkpt>
      <trkpt lat="46.72931" lon="6.40991">
        <ele>856.5</ele>
        <time>2020-09-29T13:01:05Z</time>
      </trkpt>
      <trkpt lat="46.7293" lon="6.40998">
        <ele>856.1</ele>
        <time>2020-09-29T13:01:10Z</time>
      </trkpt>
      <trkpt lat="46.72928" lon="6.41004">
        <ele>855.9</ele>
        <time>2020-09-29T13:01:15Z</time>
      </trkpt>
      <trkpt lat="46.72926" lon="6.4101">
        <ele>856.1</ele>
        <time>2020-09-29T13:01:21Z</time>
      </trkpt>
      <trkpt lat="46.72925" lon="6.41016">
        <ele>856.4</ele>
        <time>2020-09-29T13:01:26Z</time>
      </trkpt>
      <trkpt lat="46.72923" lon="6.41023">
        <ele>856.9</ele>
        <time>2020-09-29T13:01:32Z</time>
      </trkpt>
      <trkpt lat="46.7292" lon="6.4103">
        <ele>857.1</ele>
        <time>2020-09-29T13:01:37Z</time>
      </trkpt>
      <trkpt lat="46.72919" lon="6.41036">
        <ele>857.1</ele>
        <time>2020-09-29T13:01:41Z</time>
      </trkpt>
      <trkpt lat="46.72918" lon="6.41043">
        <ele>856.8</ele>
        <time>2020-09-29T13:01:46Z</time>
      </trkpt>
      <trkpt lat="46.7292" lon="6.41049">
        <ele>856.8</ele>
        <time>2020-09-29T13:01:52Z</time>
      </trkpt>
      <trkpt lat="46.72924" lon="6.41053">
        <ele>856.9</ele>
        <time>2020-09-29T13:01:57Z</time>
      </trkpt>
      <trkpt lat="46.72928" lon="6.41055">
        <ele>857.1</ele>
        <time>2020-09-29T13:02:04Z</time>
      </trkpt>
      <trkpt lat="46.72932" lon="6.41057">
        <ele>857.1</ele>
        <time>2020-09-29T13:02:17Z</time>
      </trkpt>
      <trkpt lat="46.72937" lon="6.4106">
        <ele>856.4</ele>
        <time>2020-09-29T13:02:24Z</time>
      </trkpt>
      <trkpt lat="46.72941" lon="6.4106">
        <ele>855.6</ele>
        <time>2020-09-29T13:02:35Z</time>
      </trkpt>
      <trkpt lat="46.72937" lon="6.41059">
        <ele>857.7</ele>
        <time>2020-09-29T13:03:18Z</time>
      </trkpt>
      <trkpt lat="46.72932" lon="6.41058">
        <ele>858</ele>
        <time>2020-09-29T13:03:23Z</time>
      </trkpt>
      <trkpt lat="46.72927" lon="6.41056">
        <ele>858.4</ele>
        <time>2020-09-29T13:03:30Z</time>
      </trkpt>
      <trkpt lat="46.72924" lon="6.41051">
        <ele>859</ele>
        <time>2020-09-29T13:03:35Z</time>
      </trkpt>
      <trkpt lat="46.72928" lon="6.41055">
        <ele>860.8</ele>
        <time>2020-09-29T13:03:49Z</time>
      </trkpt>
      <trkpt lat="46.72932" lon="6.41056">
        <ele>861.2</ele>
        <time>2020-09-29T13:04:02Z</time>
      </trkpt>
      <trkpt lat="46.72933" lon="6.41049">
        <ele>859.6</ele>
        <time>2020-09-29T13:04:21Z</time>
      </trkpt>
      <trkpt lat="46.72937" lon="6.41052">
        <ele>860.5</ele>
        <time>2020-09-29T13:05:12Z</time>
      </trkpt>
      <trkpt lat="46.72941" lon="6.41057">
        <ele>860.5</ele>
        <time>2020-09-29T13:05:26Z</time>
      </trkpt>
      <trkpt lat="46.72941" lon="6.41064">
        <ele>861.1</ele>
        <time>2020-09-29T13:05:43Z</time>
      </trkpt>
      <trkpt lat="46.72941" lon="6.41071">
        <ele>859.1</ele>
        <time>2020-09-29T13:06:14Z</time>
      </trkpt>
      <trkpt lat="46.72944" lon="6.41078">
        <ele>857</ele>
        <time>2020-09-29T13:06:32Z</time>
      </trkpt>
      <trkpt lat="46.72946" lon="6.41071">
        <ele>851.7</ele>
        <time>2020-09-29T13:07:08Z</time>
      </trkpt>
      <trkpt lat="46.72948" lon="6.41065">
        <ele>852.4</ele>
        <time>2020-09-29T13:07:15Z</time>
      </trkpt>
      <trkpt lat="46.72946" lon="6.41058">
        <ele>853.5</ele>
        <time>2020-09-29T13:07:42Z</time>
      </trkpt>
      <trkpt lat="46.7295" lon="6.41053">
        <ele>855</ele>
        <time>2020-09-29T13:07:54Z</time>
      </trkpt>
      <trkpt lat="46.72954" lon="6.41048">
        <ele>856.4</ele>
        <time>2020-09-29T13:08:01Z</time>
      </trkpt>
      <trkpt lat="46.72957" lon="6.41044">
        <ele>857.8</ele>
        <time>2020-09-29T13:08:09Z</time>
      </trkpt>
      <trkpt lat="46.72961" lon="6.41047">
        <ele>861.5</ele>
        <time>2020-09-29T13:08:27Z</time>
      </trkpt>
      <trkpt lat="46.72965" lon="6.4105">
        <ele>862.3</ele>
        <time>2020-09-29T13:08:32Z</time>
      </trkpt>
      <trkpt lat="46.72969" lon="6.41055">
        <ele>863.3</ele>
        <time>2020-09-29T13:08:41Z</time>
      </trkpt>
      <trkpt lat="46.72973" lon="6.41059">
        <ele>865.2</ele>
        <time>2020-09-29T13:08:51Z</time>
      </trkpt>
      <trkpt lat="46.72976" lon="6.41064">
        <ele>867.1</ele>
        <time>2020-09-29T13:09:00Z</time>
      </trkpt>
      <trkpt lat="46.72979" lon="6.4107">
        <ele>870</ele>
        <time>2020-09-29T13:09:13Z</time>
      </trkpt>
      <trkpt lat="46.72982" lon="6.41076">
        <ele>871.2</ele>
        <time>2020-09-29T13:09:20Z</time>
      </trkpt>
      <trkpt lat="46.72985" lon="6.41082">
        <ele>871.9</ele>
        <time>2020-09-29T13:09:45Z</time>
      </trkpt>
      <trkpt lat="46.72988" lon="6.41086">
        <ele>872.6</ele>
        <time>2020-09-29T13:09:51Z</time>
      </trkpt>
      <trkpt lat="46.72994" lon="6.41082">
        <ele>874.9</ele>
        <time>2020-09-29T13:10:15Z</time>
      </trkpt>
      <trkpt lat="46.72999" lon="6.41079">
        <ele>874.6</ele>
        <time>2020-09-29T13:10:22Z</time>
      </trkpt>
      <trkpt lat="46.73003" lon="6.41079">
        <ele>873.8</ele>
        <time>2020-09-29T13:10:30Z</time>
      </trkpt>
      <trkpt lat="46.73008" lon="6.41077">
        <ele>873.1</ele>
        <time>2020-09-29T13:10:36Z</time>
      </trkpt>
      <trkpt lat="46.73012" lon="6.41077">
        <ele>871.1</ele>
        <time>2020-09-29T13:10:43Z</time>
      </trkpt>
      <trkpt lat="46.73014" lon="6.4107">
        <ele>878.2</ele>
        <time>2020-09-29T13:11:31Z</time>
      </trkpt>
      <trkpt lat="46.73018" lon="6.41066">
        <ele>878.3</ele>
        <time>2020-09-29T13:11:37Z</time>
      </trkpt>
      <trkpt lat="46.73022" lon="6.41063">
        <ele>877.8</ele>
        <time>2020-09-29T13:11:43Z</time>
      </trkpt>
      <trkpt lat="46.73027" lon="6.41062">
        <ele>877.8</ele>
        <time>2020-09-29T13:11:49Z</time>
      </trkpt>
      <trkpt lat="46.73031" lon="6.41061">
        <ele>879.1</ele>
        <time>2020-09-29T13:12:00Z</time>
      </trkpt>
      <trkpt lat="46.73036" lon="6.41061">
        <ele>879.9</ele>
        <time>2020-09-29T13:12:12Z</time>
      </trkpt>
      <trkpt lat="46.7304" lon="6.41057">
        <ele>886.3</ele>
        <time>2020-09-29T13:14:06Z</time>
      </trkpt>
      <trkpt lat="46.73045" lon="6.41054">
        <ele>885.9</ele>
        <time>2020-09-29T13:14:12Z</time>
      </trkpt>
      <trkpt lat="46.73049" lon="6.4105">
        <ele>885.8</ele>
        <time>2020-09-29T13:14:16Z</time>
      </trkpt>
      <trkpt lat="46.73053" lon="6.41046">
        <ele>885.7</ele>
        <time>2020-09-29T13:14:19Z</time>
      </trkpt>
      <trkpt lat="46.73058" lon="6.41044">
        <ele>885.9</ele>
        <time>2020-09-29T13:14:24Z</time>
      </trkpt>
      <trkpt lat="46.73061" lon="6.41051">
        <ele>885.5</ele>
        <time>2020-09-29T13:14:27Z</time>
      </trkpt>
      <trkpt lat="46.73065" lon="6.41055">
        <ele>884.2</ele>
        <time>2020-09-29T13:14:32Z</time>
      </trkpt>
      <trkpt lat="46.73069" lon="6.41053">
        <ele>882.6</ele>
        <time>2020-09-29T13:14:37Z</time>
      </trkpt>
      <trkpt lat="46.73075" lon="6.41051">
        <ele>880.3</ele>
        <time>2020-09-29T13:14:42Z</time>
      </trkpt>
      <trkpt lat="46.7308" lon="6.4105">
        <ele>877.6</ele>
        <time>2020-09-29T13:14:47Z</time>
      </trkpt>
      <trkpt lat="46.73084" lon="6.41047">
        <ele>875.7</ele>
        <time>2020-09-29T13:14:51Z</time>
      </trkpt>
      <trkpt lat="46.73089" lon="6.41045">
        <ele>873.8</ele>
        <time>2020-09-29T13:14:56Z</time>
      </trkpt>
      <trkpt lat="46.73093" lon="6.4104">
        <ele>873.5</ele>
        <time>2020-09-29T13:15:01Z</time>
      </trkpt>
      <trkpt lat="46.73097" lon="6.41035">
        <ele>874.1</ele>
        <time>2020-09-29T13:15:06Z</time>
      </trkpt>
      <trkpt lat="46.731" lon="6.41031">
        <ele>874.6</ele>
        <time>2020-09-29T13:15:10Z</time>
      </trkpt>
      <trkpt lat="46.73105" lon="6.41028">
        <ele>874.9</ele>
        <time>2020-09-29T13:15:14Z</time>
      </trkpt>
      <trkpt lat="46.73109" lon="6.41024">
        <ele>875.6</ele>
        <time>2020-09-29T13:15:19Z</time>
      </trkpt>
      <trkpt lat="46.73114" lon="6.41021">
        <ele>877.7</ele>
        <time>2020-09-29T13:15:25Z</time>
      </trkpt>
      <trkpt lat="46.73118" lon="6.41017">
        <ele>879.3</ele>
        <time>2020-09-29T13:15:30Z</time>
      </trkpt>
      <trkpt lat="46.73121" lon="6.41012">
        <ele>881.5</ele>
        <time>2020-09-29T13:15:35Z</time>
      </trkpt>
      <trkpt lat="46.73125" lon="6.41006">
        <ele>884.1</ele>
        <time>2020-09-29T13:15:40Z</time>
      </trkpt>
      <trkpt lat="46.7313" lon="6.41003">
        <ele>887.4</ele>
        <time>2020-09-29T13:15:46Z</time>
      </trkpt>
      <trkpt lat="46.73135" lon="6.41002">
        <ele>890</ele>
        <time>2020-09-29T13:15:52Z</time>
      </trkpt>
      <trkpt lat="46.7314" lon="6.41002">
        <ele>891.4</ele>
        <time>2020-09-29T13:15:57Z</time>
      </trkpt>
      <trkpt lat="46.73145" lon="6.41003">
        <ele>891.6</ele>
        <time>2020-09-29T13:16:01Z</time>
      </trkpt>
      <trkpt lat="46.7315" lon="6.41002">
        <ele>891.7</ele>
        <time>2020-09-29T13:16:06Z</time>
      </trkpt>
      <trkpt lat="46.73155" lon="6.41002">
        <ele>891.8</ele>
        <time>2020-09-29T13:16:11Z</time>
      </trkpt>
      <trkpt lat="46.7316" lon="6.41">
        <ele>892.6</ele>
        <time>2020-09-29T13:16:16Z</time>
      </trkpt>
      <trkpt lat="46.73164" lon="6.40995">
        <ele>893.7</ele>
        <time>2020-09-29T13:16:21Z</time>
      </trkpt>
      <trkpt lat="46.73168" lon="6.4099">
        <ele>894.9</ele>
        <time>2020-09-29T13:16:27Z</time>
      </trkpt>
      <trkpt lat="46.73172" lon="6.40986">
        <ele>895.9</ele>
        <time>2020-09-29T13:16:32Z</time>
      </trkpt>
      <trkpt lat="46.73175" lon="6.40981">
        <ele>898.2</ele>
        <time>2020-09-29T13:16:39Z</time>
      </trkpt>
      <trkpt lat="46.73179" lon="6.40975">
        <ele>899.4</ele>
        <time>2020-09-29T13:16:43Z</time>
      </trkpt>
      <trkpt lat="46.73181" lon="6.40981">
        <ele>900.8</ele>
        <time>2020-09-29T13:16:55Z</time>
      </trkpt>
      <trkpt lat="46.73186" lon="6.40983">
        <ele>894.1</ele>
        <time>2020-09-29T13:19:49Z</time>
      </trkpt>
      <trkpt lat="46.7319" lon="6.40978">
        <ele>894</ele>
        <time>2020-09-29T13:19:53Z</time>
      </trkpt>
      <trkpt lat="46.73194" lon="6.40974">
        <ele>893.9</ele>
        <time>2020-09-29T13:19:57Z</time>
      </trkpt>
      <trkpt lat="46.73199" lon="6.4097">
        <ele>893.5</ele>
        <time>2020-09-29T13:20:03Z</time>
      </trkpt>
      <trkpt lat="46.73201" lon="6.40964">
        <ele>894.2</ele>
        <time>2020-09-29T13:20:08Z</time>
      </trkpt>
      <trkpt lat="46.73205" lon="6.40957">
        <ele>895.3</ele>
        <time>2020-09-29T13:20:12Z</time>
      </trkpt>
      <trkpt lat="46.73208" lon="6.40952">
        <ele>896.4</ele>
        <time>2020-09-29T13:20:16Z</time>
      </trkpt>
      <trkpt lat="46.7321" lon="6.40946">
        <ele>897.5</ele>
        <time>2020-09-29T13:20:19Z</time>
      </trkpt>
      <trkpt lat="46.73215" lon="6.40943">
        <ele>899.4</ele>
        <time>2020-09-29T13:20:24Z</time>
      </trkpt>
      <trkpt lat="46.73219" lon="6.40942">
        <ele>900.3</ele>
        <time>2020-09-29T13:20:29Z</time>
      </trkpt>
      <trkpt lat="46.73224" lon="6.4094">
        <ele>900.7</ele>
        <time>2020-09-29T13:20:34Z</time>
      </trkpt>
      <trkpt lat="46.73228" lon="6.40937">
        <ele>901.2</ele>
        <time>2020-09-29T13:20:39Z</time>
      </trkpt>
      <trkpt lat="46.73233" lon="6.40933">
        <ele>902.2</ele>
        <time>2020-09-29T13:20:46Z</time>
      </trkpt>
      <trkpt lat="46.73238" lon="6.4093">
        <ele>902.9</ele>
        <time>2020-09-29T13:20:52Z</time>
      </trkpt>
      <trkpt lat="46.73242" lon="6.40926">
        <ele>903.8</ele>
        <time>2020-09-29T13:20:57Z</time>
      </trkpt>
      <trkpt lat="46.73245" lon="6.4092">
        <ele>904.7</ele>
        <time>2020-09-29T13:21:01Z</time>
      </trkpt>
      <trkpt lat="46.73248" lon="6.40915">
        <ele>905</ele>
        <time>2020-09-29T13:21:05Z</time>
      </trkpt>
      <trkpt lat="46.73252" lon="6.40911">
        <ele>905.3</ele>
        <time>2020-09-29T13:21:09Z</time>
      </trkpt>
      <trkpt lat="46.73255" lon="6.40906">
        <ele>905.7</ele>
        <time>2020-09-29T13:21:13Z</time>
      </trkpt>
      <trkpt lat="46.73259" lon="6.40901">
        <ele>906.3</ele>
        <time>2020-09-29T13:21:17Z</time>
      </trkpt>
      <trkpt lat="46.73262" lon="6.40895">
        <ele>906.9</ele>
        <time>2020-09-29T13:21:22Z</time>
      </trkpt>
      <trkpt lat="46.73267" lon="6.40891">
        <ele>907.6</ele>
        <time>2020-09-29T13:21:27Z</time>
      </trkpt>
      <trkpt lat="46.73269" lon="6.40883">
        <ele>909.5</ele>
        <time>2020-09-29T13:21:32Z</time>
      </trkpt>
      <trkpt lat="46.73274" lon="6.40879">
        <ele>910.5</ele>
        <time>2020-09-29T13:21:37Z</time>
      </trkpt>
      <trkpt lat="46.73279" lon="6.40876">
        <ele>909.5</ele>
        <time>2020-09-29T13:21:42Z</time>
      </trkpt>
      <trkpt lat="46.73283" lon="6.40871">
        <ele>907.4</ele>
        <time>2020-09-29T13:21:47Z</time>
      </trkpt>
      <trkpt lat="46.73287" lon="6.40866">
        <ele>905.9</ele>
        <time>2020-09-29T13:21:52Z</time>
      </trkpt>
      <trkpt lat="46.73291" lon="6.40863">
        <ele>904.3</ele>
        <time>2020-09-29T13:21:57Z</time>
      </trkpt>
      <trkpt lat="46.73295" lon="6.40857">
        <ele>905.6</ele>
        <time>2020-09-29T13:22:03Z</time>
      </trkpt>
      <trkpt lat="46.73297" lon="6.40852">
        <ele>909.1</ele>
        <time>2020-09-29T13:22:09Z</time>
      </trkpt>
      <trkpt lat="46.73302" lon="6.40848">
        <ele>911.9</ele>
        <time>2020-09-29T13:22:19Z</time>
      </trkpt>
      <trkpt lat="46.73307" lon="6.40848">
        <ele>911.2</ele>
        <time>2020-09-29T13:22:26Z</time>
      </trkpt>
      <trkpt lat="46.73311" lon="6.40847">
        <ele>910.1</ele>
        <time>2020-09-29T13:22:34Z</time>
      </trkpt>
      <trkpt lat="46.73314" lon="6.40841">
        <ele>909.3</ele>
        <time>2020-09-29T13:22:44Z</time>
      </trkpt>
      <trkpt lat="46.73318" lon="6.40836">
        <ele>910.1</ele>
        <time>2020-09-29T13:22:59Z</time>
      </trkpt>
      <trkpt lat="46.73322" lon="6.40838">
        <ele>911.3</ele>
        <time>2020-09-29T13:23:10Z</time>
      </trkpt>
      <trkpt lat="46.73327" lon="6.40835">
        <ele>911.5</ele>
        <time>2020-09-29T13:23:15Z</time>
      </trkpt>
      <trkpt lat="46.73331" lon="6.40837">
        <ele>913.8</ele>
        <time>2020-09-29T13:23:26Z</time>
      </trkpt>
      <trkpt lat="46.73331" lon="6.40844">
        <ele>914.3</ele>
        <time>2020-09-29T13:23:32Z</time>
      </trkpt>
      <trkpt lat="46.73334" lon="6.40838">
        <ele>916.8</ele>
        <time>2020-09-29T13:24:02Z</time>
      </trkpt>
      <trkpt lat="46.73336" lon="6.40831">
        <ele>921.6</ele>
        <time>2020-09-29T13:24:09Z</time>
      </trkpt>
      <trkpt lat="46.73334" lon="6.40825">
        <ele>926.8</ele>
        <time>2020-09-29T13:24:22Z</time>
      </trkpt>
      <trkpt lat="46.73331" lon="6.40819">
        <ele>927.1</ele>
        <time>2020-09-29T13:24:29Z</time>
      </trkpt>
      <trkpt lat="46.7333" lon="6.40826">
        <ele>920.3</ele>
        <time>2020-09-29T13:24:56Z</time>
      </trkpt>
      <trkpt lat="46.73328" lon="6.40832">
        <ele>919.6</ele>
        <time>2020-09-29T13:25:46Z</time>
      </trkpt>
      <trkpt lat="46.73325" lon="6.40837">
        <ele>914.3</ele>
        <time>2020-09-29T13:26:21Z</time>
      </trkpt>
      <trkpt lat="46.73321" lon="6.4084">
        <ele>914.2</ele>
        <time>2020-09-29T13:26:27Z</time>
      </trkpt>
      <trkpt lat="46.73316" lon="6.40843">
        <ele>913.9</ele>
        <time>2020-09-29T13:26:31Z</time>
      </trkpt>
      <trkpt lat="46.73311" lon="6.40845">
        <ele>913.5</ele>
        <time>2020-09-29T13:26:35Z</time>
      </trkpt>
      <trkpt lat="46.73307" lon="6.40849">
        <ele>912.8</ele>
        <time>2020-09-29T13:26:39Z</time>
      </trkpt>
      <trkpt lat="46.73303" lon="6.40854">
        <ele>912.3</ele>
        <time>2020-09-29T13:26:43Z</time>
      </trkpt>
      <trkpt lat="46.73298" lon="6.40856">
        <ele>911.6</ele>
        <time>2020-09-29T13:26:49Z</time>
      </trkpt>
      <trkpt lat="46.73294" lon="6.40853">
        <ele>910.5</ele>
        <time>2020-09-29T13:26:54Z</time>
      </trkpt>
      <trkpt lat="46.73289" lon="6.40848">
        <ele>910.2</ele>
        <time>2020-09-29T13:26:57Z</time>
      </trkpt>
      <trkpt lat="46.73284" lon="6.40844">
        <ele>910.1</ele>
        <time>2020-09-29T13:27:01Z</time>
      </trkpt>
      <trkpt lat="46.7328" lon="6.40842">
        <ele>909.3</ele>
        <time>2020-09-29T13:27:05Z</time>
      </trkpt>
      <trkpt lat="46.73276" lon="6.40838">
        <ele>907.8</ele>
        <time>2020-09-29T13:27:11Z</time>
      </trkpt>
      <trkpt lat="46.7327" lon="6.40837">
        <ele>907</ele>
        <time>2020-09-29T13:27:18Z</time>
      </trkpt>
      <trkpt lat="46.73266" lon="6.40836">
        <ele>906.1</ele>
        <time>2020-09-29T13:27:24Z</time>
      </trkpt>
      <trkpt lat="46.73261" lon="6.40834">
        <ele>905.6</ele>
        <time>2020-09-29T13:27:31Z</time>
      </trkpt>
      <trkpt lat="46.73256" lon="6.40834">
        <ele>906.8</ele>
        <time>2020-09-29T13:27:36Z</time>
      </trkpt>
      <trkpt lat="46.73251" lon="6.40834">
        <ele>908</ele>
        <time>2020-09-29T13:27:41Z</time>
      </trkpt>
      <trkpt lat="46.73246" lon="6.40832">
        <ele>908.6</ele>
        <time>2020-09-29T13:27:48Z</time>
      </trkpt>
      <trkpt lat="46.73242" lon="6.4083">
        <ele>908.7</ele>
        <time>2020-09-29T13:27:53Z</time>
      </trkpt>
      <trkpt lat="46.73236" lon="6.40828">
        <ele>908.4</ele>
        <time>2020-09-29T13:27:59Z</time>
      </trkpt>
      <trkpt lat="46.73231" lon="6.40826">
        <ele>907.1</ele>
        <time>2020-09-29T13:28:05Z</time>
      </trkpt>
      <trkpt lat="46.73227" lon="6.40824">
        <ele>905.3</ele>
        <time>2020-09-29T13:28:11Z</time>
      </trkpt>
      <trkpt lat="46.73222" lon="6.40823">
        <ele>903</ele>
        <time>2020-09-29T13:28:18Z</time>
      </trkpt>
      <trkpt lat="46.73218" lon="6.40819">
        <ele>900.2</ele>
        <time>2020-09-29T13:28:25Z</time>
      </trkpt>
      <trkpt lat="46.73215" lon="6.40814">
        <ele>897.7</ele>
        <time>2020-09-29T13:28:31Z</time>
      </trkpt>
      <trkpt lat="46.73211" lon="6.4081">
        <ele>895.2</ele>
        <time>2020-09-29T13:28:37Z</time>
      </trkpt>
      <trkpt lat="46.73207" lon="6.40806">
        <ele>892.3</ele>
        <time>2020-09-29T13:28:43Z</time>
      </trkpt>
      <trkpt lat="46.73205" lon="6.408">
        <ele>889.7</ele>
        <time>2020-09-29T13:28:48Z</time>
      </trkpt>
      <trkpt lat="46.73202" lon="6.40794">
        <ele>886.7</ele>
        <time>2020-09-29T13:28:53Z</time>
      </trkpt>
      <trkpt lat="46.73199" lon="6.40789">
        <ele>884.6</ele>
        <time>2020-09-29T13:28:57Z</time>
      </trkpt>
      <trkpt lat="46.73195" lon="6.40785">
        <ele>882.4</ele>
        <time>2020-09-29T13:29:01Z</time>
      </trkpt>
      <trkpt lat="46.73193" lon="6.40779">
        <ele>880.5</ele>
        <time>2020-09-29T13:29:05Z</time>
      </trkpt>
      <trkpt lat="46.73191" lon="6.40772">
        <ele>878.4</ele>
        <time>2020-09-29T13:29:10Z</time>
      </trkpt>
      <trkpt lat="46.73188" lon="6.40766">
        <ele>877.3</ele>
        <time>2020-09-29T13:29:14Z</time>
      </trkpt>
      <trkpt lat="46.73184" lon="6.40763">
        <ele>875.8</ele>
        <time>2020-09-29T13:29:46Z</time>
      </trkpt>
      <trkpt lat="46.73187" lon="6.40768">
        <ele>876</ele>
        <time>2020-09-29T13:30:05Z</time>
      </trkpt>
      <trkpt lat="46.73184" lon="6.40773">
        <ele>875.8</ele>
        <time>2020-09-29T13:30:10Z</time>
      </trkpt>
      <trkpt lat="46.73179" lon="6.40778">
        <ele>875.8</ele>
        <time>2020-09-29T13:30:15Z</time>
      </trkpt>
      <trkpt lat="46.73176" lon="6.40783">
        <ele>875.6</ele>
        <time>2020-09-29T13:30:20Z</time>
      </trkpt>
      <trkpt lat="46.73172" lon="6.40788">
        <ele>875.1</ele>
        <time>2020-09-29T13:30:25Z</time>
      </trkpt>
      <trkpt lat="46.73167" lon="6.40789">
        <ele>874.7</ele>
        <time>2020-09-29T13:30:30Z</time>
      </trkpt>
      <trkpt lat="46.73163" lon="6.40787">
        <ele>874.3</ele>
        <time>2020-09-29T13:30:34Z</time>
      </trkpt>
      <trkpt lat="46.73158" lon="6.40783">
        <ele>873.8</ele>
        <time>2020-09-29T13:30:39Z</time>
      </trkpt>
      <trkpt lat="46.73154" lon="6.40779">
        <ele>873.3</ele>
        <time>2020-09-29T13:30:43Z</time>
      </trkpt>
      <trkpt lat="46.73149" lon="6.40775">
        <ele>872.7</ele>
        <time>2020-09-29T13:30:48Z</time>
      </trkpt>
      <trkpt lat="46.73144" lon="6.40772">
        <ele>872.6</ele>
        <time>2020-09-29T13:30:53Z</time>
      </trkpt>
      <trkpt lat="46.7314" lon="6.40768">
        <ele>872.8</ele>
        <time>2020-09-29T13:30:57Z</time>
      </trkpt>
      <trkpt lat="46.73136" lon="6.40765">
        <ele>873.1</ele>
        <time>2020-09-29T13:31:01Z</time>
      </trkpt>
      <trkpt lat="46.73132" lon="6.40762">
        <ele>873.5</ele>
        <time>2020-09-29T13:31:05Z</time>
      </trkpt>
      <trkpt lat="46.73128" lon="6.40758">
        <ele>874</ele>
        <time>2020-09-29T13:31:10Z</time>
      </trkpt>
      <trkpt lat="46.73123" lon="6.40755">
        <ele>873.9</ele>
        <time>2020-09-29T13:31:15Z</time>
      </trkpt>
      <trkpt lat="46.73118" lon="6.40752">
        <ele>873.5</ele>
        <time>2020-09-29T13:31:20Z</time>
      </trkpt>
      <trkpt lat="46.73113" lon="6.4075">
        <ele>873.4</ele>
        <time>2020-09-29T13:31:25Z</time>
      </trkpt>
      <trkpt lat="46.73108" lon="6.40748">
        <ele>873.3</ele>
        <time>2020-09-29T13:31:29Z</time>
      </trkpt>
      <trkpt lat="46.73103" lon="6.40746">
        <ele>873.2</ele>
        <time>2020-09-29T13:31:33Z</time>
      </trkpt>
      <trkpt lat="46.73099" lon="6.40745">
        <ele>873.3</ele>
        <time>2020-09-29T13:31:37Z</time>
      </trkpt>
      <trkpt lat="46.73095" lon="6.40742">
        <ele>873.7</ele>
        <time>2020-09-29T13:31:41Z</time>
      </trkpt>
      <trkpt lat="46.7309" lon="6.4074">
        <ele>874.1</ele>
        <time>2020-09-29T13:31:45Z</time>
      </trkpt>
      <trkpt lat="46.73085" lon="6.40737">
        <ele>874.3</ele>
        <time>2020-09-29T13:31:49Z</time>
      </trkpt>
      <trkpt lat="46.7308" lon="6.40733">
        <ele>874.6</ele>
        <time>2020-09-29T13:31:54Z</time>
      </trkpt>
      <trkpt lat="46.73076" lon="6.4073">
        <ele>874.9</ele>
        <time>2020-09-29T13:31:58Z</time>
      </trkpt>
      <trkpt lat="46.73072" lon="6.40725">
        <ele>875.4</ele>
        <time>2020-09-29T13:32:03Z</time>
      </trkpt>
      <trkpt lat="46.73066" lon="6.40722">
        <ele>875.8</ele>
        <time>2020-09-29T13:32:07Z</time>
      </trkpt>
      <trkpt lat="46.73062" lon="6.40718">
        <ele>876.7</ele>
        <time>2020-09-29T13:32:12Z</time>
      </trkpt>
      <trkpt lat="46.73059" lon="6.40713">
        <ele>877.4</ele>
        <time>2020-09-29T13:32:17Z</time>
      </trkpt>
      <trkpt lat="46.73057" lon="6.40706">
        <ele>877.8</ele>
        <time>2020-09-29T13:32:22Z</time>
      </trkpt>
      <trkpt lat="46.73054" lon="6.40699">
        <ele>878</ele>
        <time>2020-09-29T13:32:27Z</time>
      </trkpt>
      <trkpt lat="46.73051" lon="6.40693">
        <ele>877.4</ele>
        <time>2020-09-29T13:32:31Z</time>
      </trkpt>
      <trkpt lat="46.73049" lon="6.40688">
        <ele>876.6</ele>
        <time>2020-09-29T13:32:35Z</time>
      </trkpt>
      <trkpt lat="46.73045" lon="6.40684">
        <ele>876.9</ele>
        <time>2020-09-29T13:32:40Z</time>
      </trkpt>
      <trkpt lat="46.73039" lon="6.40683">
        <ele>878.8</ele>
        <time>2020-09-29T13:32:45Z</time>
      </trkpt>
      <trkpt lat="46.73034" lon="6.4068">
        <ele>881.2</ele>
        <time>2020-09-29T13:32:50Z</time>
      </trkpt>
      <trkpt lat="46.73029" lon="6.40678">
        <ele>883.4</ele>
        <time>2020-09-29T13:32:54Z</time>
      </trkpt>
      <trkpt lat="46.73025" lon="6.40673">
        <ele>885.4</ele>
        <time>2020-09-29T13:32:58Z</time>
      </trkpt>
      <trkpt lat="46.73021" lon="6.40668">
        <ele>887.6</ele>
        <time>2020-09-29T13:33:03Z</time>
      </trkpt>
      <trkpt lat="46.73016" lon="6.40665">
        <ele>889.9</ele>
        <time>2020-09-29T13:33:08Z</time>
      </trkpt>
      <trkpt lat="46.73012" lon="6.40661">
        <ele>892.4</ele>
        <time>2020-09-29T13:33:13Z</time>
      </trkpt>
      <trkpt lat="46.73008" lon="6.40657">
        <ele>894.9</ele>
        <time>2020-09-29T13:33:18Z</time>
      </trkpt>
      <trkpt lat="46.73004" lon="6.40651">
        <ele>897.6</ele>
        <time>2020-09-29T13:33:23Z</time>
      </trkpt>
      <trkpt lat="46.73" lon="6.40647">
        <ele>899.6</ele>
        <time>2020-09-29T13:33:27Z</time>
      </trkpt>
      <trkpt lat="46.72996" lon="6.40643">
        <ele>901.1</ele>
        <time>2020-09-29T13:33:31Z</time>
      </trkpt>
      <trkpt lat="46.72993" lon="6.40639">
        <ele>902</ele>
        <time>2020-09-29T13:33:35Z</time>
      </trkpt>
      <trkpt lat="46.72989" lon="6.40634">
        <ele>902.6</ele>
        <time>2020-09-29T13:33:39Z</time>
      </trkpt>
      <trkpt lat="46.72986" lon="6.40629">
        <ele>903.2</ele>
        <time>2020-09-29T13:33:43Z</time>
      </trkpt>
      <trkpt lat="46.72983" lon="6.40623">
        <ele>903.8</ele>
        <time>2020-09-29T13:33:48Z</time>
      </trkpt>
      <trkpt lat="46.72981" lon="6.40616">
        <ele>903.6</ele>
        <time>2020-09-29T13:33:52Z</time>
      </trkpt>
      <trkpt lat="46.72979" lon="6.40611">
        <ele>903.1</ele>
        <time>2020-09-29T13:33:56Z</time>
      </trkpt>
      <trkpt lat="46.72977" lon="6.40603">
        <ele>902.1</ele>
        <time>2020-09-29T13:34:01Z</time>
      </trkpt>
      <trkpt lat="46.72976" lon="6.40596">
        <ele>900.6</ele>
        <time>2020-09-29T13:34:07Z</time>
      </trkpt>
      <trkpt lat="46.72973" lon="6.40591">
        <ele>899.3</ele>
        <time>2020-09-29T13:34:12Z</time>
      </trkpt>
      <trkpt lat="46.72974" lon="6.40584">
        <ele>898.6</ele>
        <time>2020-09-29T13:34:17Z</time>
      </trkpt>
      <trkpt lat="46.72972" lon="6.40578">
        <ele>898.1</ele>
        <time>2020-09-29T13:34:23Z</time>
      </trkpt>
      <trkpt lat="46.7297" lon="6.40571">
        <ele>897.6</ele>
        <time>2020-09-29T13:34:28Z</time>
      </trkpt>
      <trkpt lat="46.72971" lon="6.40564">
        <ele>896.7</ele>
        <time>2020-09-29T13:34:37Z</time>
      </trkpt>
      <trkpt lat="46.72975" lon="6.40568">
        <ele>893.6</ele>
        <time>2020-09-29T13:35:06Z</time>
      </trkpt>
      <trkpt lat="46.72973" lon="6.40562">
        <ele>893.1</ele>
        <time>2020-09-29T13:37:25Z</time>
      </trkpt>
      <trkpt lat="46.72972" lon="6.40555">
        <ele>892.6</ele>
        <time>2020-09-29T13:37:32Z</time>
      </trkpt>
      <trkpt lat="46.72974" lon="6.40548">
        <ele>892.2</ele>
        <time>2020-09-29T13:37:39Z</time>
      </trkpt>
      <trkpt lat="46.72974" lon="6.4054">
        <ele>892.1</ele>
        <time>2020-09-29T13:37:46Z</time>
      </trkpt>
      <trkpt lat="46.72973" lon="6.40533">
        <ele>892.4</ele>
        <time>2020-09-29T13:37:53Z</time>
      </trkpt>
      <trkpt lat="46.72975" lon="6.40526">
        <ele>892.6</ele>
        <time>2020-09-29T13:38:00Z</time>
      </trkpt>
      <trkpt lat="46.72976" lon="6.40519">
        <ele>892.5</ele>
        <time>2020-09-29T13:38:08Z</time>
      </trkpt>
      <trkpt lat="46.72978" lon="6.40513">
        <ele>892.3</ele>
        <time>2020-09-29T13:38:15Z</time>
      </trkpt>
      <trkpt lat="46.72978" lon="6.40506">
        <ele>891.7</ele>
        <time>2020-09-29T13:38:22Z</time>
      </trkpt>
      <trkpt lat="46.7298" lon="6.40499">
        <ele>891.1</ele>
        <time>2020-09-29T13:38:29Z</time>
      </trkpt>
      <trkpt lat="46.72982" lon="6.40493">
        <ele>890.3</ele>
        <time>2020-09-29T13:38:36Z</time>
      </trkpt>
      <trkpt lat="46.72986" lon="6.40488">
        <ele>889.8</ele>
        <time>2020-09-29T13:38:41Z</time>
      </trkpt>
      <trkpt lat="46.7299" lon="6.40483">
        <ele>889.5</ele>
        <time>2020-09-29T13:38:48Z</time>
      </trkpt>
      <trkpt lat="46.72991" lon="6.40476">
        <ele>889.4</ele>
        <time>2020-09-29T13:38:54Z</time>
      </trkpt>
      <trkpt lat="46.72992" lon="6.40469">
        <ele>889.1</ele>
        <time>2020-09-29T13:38:59Z</time>
      </trkpt>
      <trkpt lat="46.72993" lon="6.4046">
        <ele>889.5</ele>
        <time>2020-09-29T13:39:03Z</time>
      </trkpt>
      <trkpt lat="46.72994" lon="6.40454">
        <ele>889.9</ele>
        <time>2020-09-29T13:39:07Z</time>
      </trkpt>
      <trkpt lat="46.72996" lon="6.40444">
        <ele>890.4</ele>
        <time>2020-09-29T13:39:20Z</time>
      </trkpt>
      <trkpt lat="46.72997" lon="6.40438">
        <ele>890.6</ele>
        <time>2020-09-29T13:39:23Z</time>
      </trkpt>
      <trkpt lat="46.72998" lon="6.40431">
        <ele>890.8</ele>
        <time>2020-09-29T13:39:29Z</time>
      </trkpt>
      <trkpt lat="46.73" lon="6.40425">
        <ele>890.8</ele>
        <time>2020-09-29T13:39:37Z</time>
      </trkpt>
      <trkpt lat="46.73002" lon="6.40417">
        <ele>891</ele>
        <time>2020-09-29T13:39:43Z</time>
      </trkpt>
      <trkpt lat="46.73003" lon="6.40405">
        <ele>891.8</ele>
        <time>2020-09-29T13:39:55Z</time>
      </trkpt>
      <trkpt lat="46.73005" lon="6.40398">
        <ele>892.2</ele>
        <time>2020-09-29T13:39:58Z</time>
      </trkpt>
      <trkpt lat="46.73008" lon="6.40393">
        <ele>892.6</ele>
        <time>2020-09-29T13:40:02Z</time>
      </trkpt>
      <trkpt lat="46.73012" lon="6.40388">
        <ele>893.2</ele>
        <time>2020-09-29T13:40:09Z</time>
      </trkpt>
      <trkpt lat="46.73013" lon="6.40381">
        <ele>894.4</ele>
        <time>2020-09-29T13:40:14Z</time>
      </trkpt>
      <trkpt lat="46.73014" lon="6.40374">
        <ele>896.5</ele>
        <time>2020-09-29T13:40:19Z</time>
      </trkpt>
      <trkpt lat="46.73014" lon="6.40367">
        <ele>898.1</ele>
        <time>2020-09-29T13:40:23Z</time>
      </trkpt>
      <trkpt lat="46.73013" lon="6.4036">
        <ele>900.5</ele>
        <time>2020-09-29T13:40:29Z</time>
      </trkpt>
      <trkpt lat="46.73013" lon="6.40353">
        <ele>901.6</ele>
        <time>2020-09-29T13:40:35Z</time>
      </trkpt>
      <trkpt lat="46.73013" lon="6.40346">
        <ele>902.1</ele>
        <time>2020-09-29T13:40:40Z</time>
      </trkpt>
      <trkpt lat="46.73014" lon="6.40339">
        <ele>902.6</ele>
        <time>2020-09-29T13:40:45Z</time>
      </trkpt>
      <trkpt lat="46.73014" lon="6.40331">
        <ele>903.2</ele>
        <time>2020-09-29T13:40:50Z</time>
      </trkpt>
      <trkpt lat="46.73014" lon="6.40324">
        <ele>903.9</ele>
        <time>2020-09-29T13:40:56Z</time>
      </trkpt>
      <trkpt lat="46.73014" lon="6.40316">
        <ele>904.8</ele>
        <time>2020-09-29T13:41:02Z</time>
      </trkpt>
      <trkpt lat="46.73012" lon="6.40309">
        <ele>905.3</ele>
        <time>2020-09-29T13:41:07Z</time>
      </trkpt>
      <trkpt lat="46.73012" lon="6.40302">
        <ele>905.4</ele>
        <time>2020-09-29T13:41:11Z</time>
      </trkpt>
      <trkpt lat="46.73013" lon="6.40295">
        <ele>905.1</ele>
        <time>2020-09-29T13:41:19Z</time>
      </trkpt>
      <trkpt lat="46.73012" lon="6.40288">
        <ele>904.2</ele>
        <time>2020-09-29T13:41:26Z</time>
      </trkpt>
      <trkpt lat="46.73011" lon="6.40281">
        <ele>903.7</ele>
        <time>2020-09-29T13:41:31Z</time>
      </trkpt>
      <trkpt lat="46.7301" lon="6.40273">
        <ele>903.1</ele>
        <time>2020-09-29T13:41:38Z</time>
      </trkpt>
      <trkpt lat="46.73011" lon="6.40266">
        <ele>903.1</ele>
        <time>2020-09-29T13:41:44Z</time>
      </trkpt>
      <trkpt lat="46.73012" lon="6.40259">
        <ele>902.3</ele>
        <time>2020-09-29T13:41:52Z</time>
      </trkpt>
      <trkpt lat="46.73014" lon="6.40253">
        <ele>901.5</ele>
        <time>2020-09-29T13:41:58Z</time>
      </trkpt>
      <trkpt lat="46.73017" lon="6.40247">
        <ele>900.9</ele>
        <time>2020-09-29T13:42:03Z</time>
      </trkpt>
      <trkpt lat="46.73019" lon="6.4024">
        <ele>899.9</ele>
        <time>2020-09-29T13:42:09Z</time>
      </trkpt>
      <trkpt lat="46.7302" lon="6.40234">
        <ele>899.1</ele>
        <time>2020-09-29T13:42:13Z</time>
      </trkpt>
      <trkpt lat="46.73021" lon="6.40227">
        <ele>898</ele>
        <time>2020-09-29T13:42:18Z</time>
      </trkpt>
      <trkpt lat="46.73021" lon="6.4022">
        <ele>897.5</ele>
        <time>2020-09-29T13:42:23Z</time>
      </trkpt>
      <trkpt lat="46.73023" lon="6.40212">
        <ele>897.2</ele>
        <time>2020-09-29T13:42:28Z</time>
      </trkpt>
      <trkpt lat="46.73025" lon="6.40205">
        <ele>896.8</ele>
        <time>2020-09-29T13:42:33Z</time>
      </trkpt>
      <trkpt lat="46.73026" lon="6.40199">
        <ele>896.3</ele>
        <time>2020-09-29T13:42:38Z</time>
      </trkpt>
      <trkpt lat="46.73025" lon="6.40192">
        <ele>896.3</ele>
        <time>2020-09-29T13:42:43Z</time>
      </trkpt>
      <trkpt lat="46.73027" lon="6.40184">
        <ele>896.1</ele>
        <time>2020-09-29T13:42:48Z</time>
      </trkpt>
      <trkpt lat="46.73028" lon="6.40177">
        <ele>896.3</ele>
        <time>2020-09-29T13:42:51Z</time>
      </trkpt>
      <trkpt lat="46.73028" lon="6.4017">
        <ele>896.3</ele>
        <time>2020-09-29T13:42:55Z</time>
      </trkpt>
      <trkpt lat="46.73029" lon="6.40163">
        <ele>895.7</ele>
        <time>2020-09-29T13:42:59Z</time>
      </trkpt>
      <trkpt lat="46.73029" lon="6.40156">
        <ele>895.2</ele>
        <time>2020-09-29T13:43:02Z</time>
      </trkpt>
      <trkpt lat="46.73029" lon="6.40148">
        <ele>895.4</ele>
        <time>2020-09-29T13:43:05Z</time>
      </trkpt>
      <trkpt lat="46.73028" lon="6.40141">
        <ele>896.6</ele>
        <time>2020-09-29T13:43:08Z</time>
      </trkpt>
      <trkpt lat="46.73029" lon="6.40134">
        <ele>897.5</ele>
        <time>2020-09-29T13:43:13Z</time>
      </trkpt>
      <trkpt lat="46.7303" lon="6.40127">
        <ele>898.2</ele>
        <time>2020-09-29T13:43:19Z</time>
      </trkpt>
      <trkpt lat="46.73031" lon="6.4012">
        <ele>898.8</ele>
        <time>2020-09-29T13:43:23Z</time>
      </trkpt>
      <trkpt lat="46.73032" lon="6.40112">
        <ele>899.1</ele>
        <time>2020-09-29T13:43:27Z</time>
      </trkpt>
      <trkpt lat="46.73033" lon="6.40105">
        <ele>899.5</ele>
        <time>2020-09-29T13:43:31Z</time>
      </trkpt>
      <trkpt lat="46.73034" lon="6.40098">
        <ele>900.4</ele>
        <time>2020-09-29T13:43:35Z</time>
      </trkpt>
      <trkpt lat="46.73035" lon="6.40091">
        <ele>901.5</ele>
        <time>2020-09-29T13:43:41Z</time>
      </trkpt>
      <trkpt lat="46.73036" lon="6.40084">
        <ele>904.1</ele>
        <time>2020-09-29T13:44:38Z</time>
      </trkpt>
      <trkpt lat="46.73039" lon="6.40078">
        <ele>903.8</ele>
        <time>2020-09-29T13:44:42Z</time>
      </trkpt>
      <trkpt lat="46.73041" lon="6.40072">
        <ele>903.6</ele>
        <time>2020-09-29T13:44:46Z</time>
      </trkpt>
      <trkpt lat="46.73042" lon="6.40066">
        <ele>903.1</ele>
        <time>2020-09-29T13:44:52Z</time>
      </trkpt>
      <trkpt lat="46.73044" lon="6.4006">
        <ele>902.6</ele>
        <time>2020-09-29T13:44:57Z</time>
      </trkpt>
      <trkpt lat="46.73046" lon="6.40053">
        <ele>902.2</ele>
        <time>2020-09-29T13:45:03Z</time>
      </trkpt>
      <trkpt lat="46.73047" lon="6.40047">
        <ele>902.2</ele>
        <time>2020-09-29T13:45:10Z</time>
      </trkpt>
      <trkpt lat="46.73048" lon="6.4004">
        <ele>902.7</ele>
        <time>2020-09-29T13:45:18Z</time>
      </trkpt>
      <trkpt lat="46.7305" lon="6.40033">
        <ele>903.5</ele>
        <time>2020-09-29T13:45:25Z</time>
      </trkpt>
      <trkpt lat="46.73051" lon="6.40027">
        <ele>904.2</ele>
        <time>2020-09-29T13:45:32Z</time>
      </trkpt>
      <trkpt lat="46.73052" lon="6.4002">
        <ele>904.4</ele>
        <time>2020-09-29T13:45:36Z</time>
      </trkpt>
      <trkpt lat="46.73052" lon="6.40012">
        <ele>904</ele>
        <time>2020-09-29T13:45:41Z</time>
      </trkpt>
      <trkpt lat="46.73052" lon="6.40004">
        <ele>903.2</ele>
        <time>2020-09-29T13:45:45Z</time>
      </trkpt>
      <trkpt lat="46.73051" lon="6.39996">
        <ele>901.8</ele>
        <time>2020-09-29T13:45:50Z</time>
      </trkpt>
      <trkpt lat="46.7305" lon="6.3999">
        <ele>900.8</ele>
        <time>2020-09-29T13:45:54Z</time>
      </trkpt>
      <trkpt lat="46.7305" lon="6.39982">
        <ele>899.4</ele>
        <time>2020-09-29T13:45:58Z</time>
      </trkpt>
      <trkpt lat="46.73049" lon="6.39974">
        <ele>897.9</ele>
        <time>2020-09-29T13:46:03Z</time>
      </trkpt>
      <trkpt lat="46.73049" lon="6.39966">
        <ele>897.2</ele>
        <time>2020-09-29T13:46:08Z</time>
      </trkpt>
      <trkpt lat="46.73047" lon="6.39959">
        <ele>896.5</ele>
        <time>2020-09-29T13:46:15Z</time>
      </trkpt>
      <trkpt lat="46.73048" lon="6.39953">
        <ele>895.5</ele>
        <time>2020-09-29T13:46:26Z</time>
      </trkpt>
      <trkpt lat="46.73046" lon="6.39947">
        <ele>895.2</ele>
        <time>2020-09-29T13:46:36Z</time>
      </trkpt>
      <trkpt lat="46.73045" lon="6.39939">
        <ele>895.7</ele>
        <time>2020-09-29T13:46:44Z</time>
      </trkpt>
      <trkpt lat="46.73043" lon="6.39934">
        <ele>896</ele>
        <time>2020-09-29T13:46:50Z</time>
      </trkpt>
      <trkpt lat="46.73039" lon="6.39929">
        <ele>896.3</ele>
        <time>2020-09-29T13:46:55Z</time>
      </trkpt>
      <trkpt lat="46.73037" lon="6.39923">
        <ele>896.4</ele>
        <time>2020-09-29T13:47:00Z</time>
      </trkpt>
      <trkpt lat="46.73034" lon="6.39917">
        <ele>896.6</ele>
        <time>2020-09-29T13:47:06Z</time>
      </trkpt>
      <trkpt lat="46.73031" lon="6.39912">
        <ele>896.8</ele>
        <time>2020-09-29T13:47:11Z</time>
      </trkpt>
      <trkpt lat="46.73027" lon="6.39907">
        <ele>897</ele>
        <time>2020-09-29T13:47:16Z</time>
      </trkpt>
      <trkpt lat="46.73023" lon="6.39903">
        <ele>897.3</ele>
        <time>2020-09-29T13:47:23Z</time>
      </trkpt>
      <trkpt lat="46.73022" lon="6.39896">
        <ele>898.5</ele>
        <time>2020-09-29T13:47:50Z</time>
      </trkpt>
      <trkpt lat="46.73023" lon="6.39888">
        <ele>898.2</ele>
        <time>2020-09-29T13:48:48Z</time>
      </trkpt>
      <trkpt lat="46.73023" lon="6.39881">
        <ele>898.4</ele>
        <time>2020-09-29T13:48:54Z</time>
      </trkpt>
      <trkpt lat="46.73023" lon="6.39874">
        <ele>898.4</ele>
        <time>2020-09-29T13:49:00Z</time>
      </trkpt>
      <trkpt lat="46.73022" lon="6.39866">
        <ele>898.5</ele>
        <time>2020-09-29T13:49:05Z</time>
      </trkpt>
      <trkpt lat="46.73021" lon="6.39859">
        <ele>898.5</ele>
        <time>2020-09-29T13:49:10Z</time>
      </trkpt>
      <trkpt lat="46.73021" lon="6.39852">
        <ele>898.4</ele>
        <time>2020-09-29T13:49:15Z</time>
      </trkpt>
      <trkpt lat="46.73021" lon="6.39845">
        <ele>898.4</ele>
        <time>2020-09-29T13:49:20Z</time>
      </trkpt>
      <trkpt lat="46.73021" lon="6.39838">
        <ele>898.6</ele>
        <time>2020-09-29T13:49:25Z</time>
      </trkpt>
      <trkpt lat="46.7302" lon="6.39831">
        <ele>898.9</ele>
        <time>2020-09-29T13:49:31Z</time>
      </trkpt>
      <trkpt lat="46.7302" lon="6.39824">
        <ele>898.6</ele>
        <time>2020-09-29T13:49:38Z</time>
      </trkpt>
      <trkpt lat="46.73019" lon="6.39817">
        <ele>897.9</ele>
        <time>2020-09-29T13:49:45Z</time>
      </trkpt>
      <trkpt lat="46.73019" lon="6.3981">
        <ele>897.3</ele>
        <time>2020-09-29T13:49:50Z</time>
      </trkpt>
      <trkpt lat="46.73021" lon="6.39802">
        <ele>896.6</ele>
        <time>2020-09-29T13:49:55Z</time>
      </trkpt>
      <trkpt lat="46.73022" lon="6.39794">
        <ele>896.1</ele>
        <time>2020-09-29T13:50:00Z</time>
      </trkpt>
      <trkpt lat="46.73023" lon="6.39787">
        <ele>895.6</ele>
        <time>2020-09-29T13:50:05Z</time>
      </trkpt>
      <trkpt lat="46.73019" lon="6.39783">
        <ele>896.5</ele>
        <time>2020-09-29T13:50:30Z</time>
      </trkpt>
      <trkpt lat="46.73022" lon="6.39776">
        <ele>899</ele>
        <time>2020-09-29T13:50:52Z</time>
      </trkpt>
      <trkpt lat="46.73024" lon="6.3977">
        <ele>900.1</ele>
        <time>2020-09-29T13:50:56Z</time>
      </trkpt>
      <trkpt lat="46.73027" lon="6.39765">
        <ele>901.1</ele>
        <time>2020-09-29T13:51:00Z</time>
      </trkpt>
      <trkpt lat="46.7303" lon="6.39759">
        <ele>902.4</ele>
        <time>2020-09-29T13:51:04Z</time>
      </trkpt>
      <trkpt lat="46.73031" lon="6.39752">
        <ele>903.2</ele>
        <time>2020-09-29T13:51:09Z</time>
      </trkpt>
      <trkpt lat="46.73033" lon="6.39745">
        <ele>903</ele>
        <time>2020-09-29T13:51:14Z</time>
      </trkpt>
      <trkpt lat="46.73036" lon="6.39739">
        <ele>902.7</ele>
        <time>2020-09-29T13:51:18Z</time>
      </trkpt>
      <trkpt lat="46.73039" lon="6.39732">
        <ele>902.2</ele>
        <time>2020-09-29T13:51:22Z</time>
      </trkpt>
      <trkpt lat="46.73041" lon="6.39725">
        <ele>901.4</ele>
        <time>2020-09-29T13:51:27Z</time>
      </trkpt>
      <trkpt lat="46.73043" lon="6.39719">
        <ele>900.5</ele>
        <time>2020-09-29T13:51:32Z</time>
      </trkpt>
      <trkpt lat="46.73045" lon="6.39713">
        <ele>900</ele>
        <time>2020-09-29T13:51:36Z</time>
      </trkpt>
      <trkpt lat="46.73048" lon="6.39707">
        <ele>899.6</ele>
        <time>2020-09-29T13:51:40Z</time>
      </trkpt>
      <trkpt lat="46.73051" lon="6.39701">
        <ele>899.4</ele>
        <time>2020-09-29T13:51:44Z</time>
      </trkpt>
      <trkpt lat="46.73054" lon="6.39695">
        <ele>899.4</ele>
        <time>2020-09-29T13:51:49Z</time>
      </trkpt>
      <trkpt lat="46.73057" lon="6.39689">
        <ele>899.5</ele>
        <time>2020-09-29T13:51:54Z</time>
      </trkpt>
      <trkpt lat="46.73061" lon="6.39683">
        <ele>899.5</ele>
        <time>2020-09-29T13:51:59Z</time>
      </trkpt>
      <trkpt lat="46.73065" lon="6.39678">
        <ele>899.7</ele>
        <time>2020-09-29T13:52:04Z</time>
      </trkpt>
      <trkpt lat="46.73068" lon="6.39673">
        <ele>899.8</ele>
        <time>2020-09-29T13:52:08Z</time>
      </trkpt>
      <trkpt lat="46.73071" lon="6.39667">
        <ele>899.8</ele>
        <time>2020-09-29T13:52:13Z</time>
      </trkpt>
      <trkpt lat="46.73074" lon="6.39661">
        <ele>900.2</ele>
        <time>2020-09-29T13:52:18Z</time>
      </trkpt>
      <trkpt lat="46.73077" lon="6.39655">
        <ele>901.2</ele>
        <time>2020-09-29T13:52:22Z</time>
      </trkpt>
      <trkpt lat="46.73081" lon="6.39649">
        <ele>903.2</ele>
        <time>2020-09-29T13:52:26Z</time>
      </trkpt>
      <trkpt lat="46.73084" lon="6.39644">
        <ele>904.5</ele>
        <time>2020-09-29T13:52:30Z</time>
      </trkpt>
      <trkpt lat="46.73086" lon="6.39637">
        <ele>906</ele>
        <time>2020-09-29T13:52:36Z</time>
      </trkpt>
      <trkpt lat="46.73089" lon="6.3963">
        <ele>906.7</ele>
        <time>2020-09-29T13:52:41Z</time>
      </trkpt>
      <trkpt lat="46.7309" lon="6.39623">
        <ele>907.2</ele>
        <time>2020-09-29T13:52:46Z</time>
      </trkpt>
      <trkpt lat="46.73093" lon="6.39618">
        <ele>907</ele>
        <time>2020-09-29T13:52:51Z</time>
      </trkpt>
      <trkpt lat="46.73096" lon="6.39613">
        <ele>906.8</ele>
        <time>2020-09-29T13:52:55Z</time>
      </trkpt>
      <trkpt lat="46.73099" lon="6.39608">
        <ele>906.9</ele>
        <time>2020-09-29T13:52:59Z</time>
      </trkpt>
      <trkpt lat="46.73102" lon="6.39601">
        <ele>907.1</ele>
        <time>2020-09-29T13:53:04Z</time>
      </trkpt>
      <trkpt lat="46.73105" lon="6.39595">
        <ele>906.5</ele>
        <time>2020-09-29T13:53:09Z</time>
      </trkpt>
      <trkpt lat="46.73107" lon="6.39588">
        <ele>905.8</ele>
        <time>2020-09-29T13:53:13Z</time>
      </trkpt>
      <trkpt lat="46.73108" lon="6.39581">
        <ele>905</ele>
        <time>2020-09-29T13:53:17Z</time>
      </trkpt>
      <trkpt lat="46.73108" lon="6.39573">
        <ele>905.4</ele>
        <time>2020-09-29T13:53:21Z</time>
      </trkpt>
      <trkpt lat="46.73109" lon="6.39566">
        <ele>906.7</ele>
        <time>2020-09-29T13:53:25Z</time>
      </trkpt>
      <trkpt lat="46.73109" lon="6.39559">
        <ele>907.9</ele>
        <time>2020-09-29T13:53:29Z</time>
      </trkpt>
      <trkpt lat="46.7311" lon="6.39552">
        <ele>909.5</ele>
        <time>2020-09-29T13:53:34Z</time>
      </trkpt>
      <trkpt lat="46.73112" lon="6.39545">
        <ele>910.7</ele>
        <time>2020-09-29T13:53:40Z</time>
      </trkpt>
      <trkpt lat="46.73114" lon="6.39538">
        <ele>910.5</ele>
        <time>2020-09-29T13:53:45Z</time>
      </trkpt>
      <trkpt lat="46.73116" lon="6.39532">
        <ele>909.9</ele>
        <time>2020-09-29T13:53:50Z</time>
      </trkpt>
      <trkpt lat="46.7312" lon="6.39527">
        <ele>909.4</ele>
        <time>2020-09-29T13:53:54Z</time>
      </trkpt>
      <trkpt lat="46.73122" lon="6.39522">
        <ele>909.1</ele>
        <time>2020-09-29T13:53:58Z</time>
      </trkpt>
      <trkpt lat="46.73126" lon="6.39516">
        <ele>908.7</ele>
        <time>2020-09-29T13:54:02Z</time>
      </trkpt>
      <trkpt lat="46.73129" lon="6.39511">
        <ele>908</ele>
        <time>2020-09-29T13:54:06Z</time>
      </trkpt>
      <trkpt lat="46.73132" lon="6.39505">
        <ele>907.1</ele>
        <time>2020-09-29T13:54:11Z</time>
      </trkpt>
      <trkpt lat="46.73135" lon="6.39498">
        <ele>906.3</ele>
        <time>2020-09-29T13:54:16Z</time>
      </trkpt>
      <trkpt lat="46.73138" lon="6.39493">
        <ele>905.8</ele>
        <time>2020-09-29T13:54:20Z</time>
      </trkpt>
      <trkpt lat="46.73142" lon="6.39488">
        <ele>905.3</ele>
        <time>2020-09-29T13:54:24Z</time>
      </trkpt>
      <trkpt lat="46.73144" lon="6.39483">
        <ele>905.1</ele>
        <time>2020-09-29T13:54:27Z</time>
      </trkpt>
      <trkpt lat="46.73148" lon="6.39476">
        <ele>904.5</ele>
        <time>2020-09-29T13:54:31Z</time>
      </trkpt>
      <trkpt lat="46.73151" lon="6.39471">
        <ele>903.6</ele>
        <time>2020-09-29T13:54:35Z</time>
      </trkpt>
      <trkpt lat="46.73155" lon="6.39467">
        <ele>902.3</ele>
        <time>2020-09-29T13:54:40Z</time>
      </trkpt>
      <trkpt lat="46.73158" lon="6.39463">
        <ele>900.9</ele>
        <time>2020-09-29T13:54:45Z</time>
      </trkpt>
      <trkpt lat="46.73161" lon="6.39458">
        <ele>899.9</ele>
        <time>2020-09-29T13:54:49Z</time>
      </trkpt>
      <trkpt lat="46.73163" lon="6.39452">
        <ele>899</ele>
        <time>2020-09-29T13:54:52Z</time>
      </trkpt>
      <trkpt lat="46.73166" lon="6.39445">
        <ele>898.5</ele>
        <time>2020-09-29T13:54:56Z</time>
      </trkpt>
      <trkpt lat="46.7317" lon="6.3944">
        <ele>897.5</ele>
        <time>2020-09-29T13:55:01Z</time>
      </trkpt>
      <trkpt lat="46.73175" lon="6.39436">
        <ele>896.9</ele>
        <time>2020-09-29T13:55:06Z</time>
      </trkpt>
      <trkpt lat="46.73179" lon="6.39433">
        <ele>896.3</ele>
        <time>2020-09-29T13:55:11Z</time>
      </trkpt>
      <trkpt lat="46.73181" lon="6.39426">
        <ele>896.3</ele>
        <time>2020-09-29T13:55:16Z</time>
      </trkpt>
      <trkpt lat="46.73183" lon="6.3942">
        <ele>896.9</ele>
        <time>2020-09-29T13:55:21Z</time>
      </trkpt>
      <trkpt lat="46.73186" lon="6.39414">
        <ele>897.6</ele>
        <time>2020-09-29T13:55:25Z</time>
      </trkpt>
      <trkpt lat="46.73189" lon="6.39407">
        <ele>898.2</ele>
        <time>2020-09-29T13:55:29Z</time>
      </trkpt>
      <trkpt lat="46.73191" lon="6.39401">
        <ele>898.4</ele>
        <time>2020-09-29T13:55:32Z</time>
      </trkpt>
      <trkpt lat="46.73194" lon="6.39395">
        <ele>898.1</ele>
        <time>2020-09-29T13:55:37Z</time>
      </trkpt>
      <trkpt lat="46.73195" lon="6.39388">
        <ele>897.8</ele>
        <time>2020-09-29T13:55:41Z</time>
      </trkpt>
      <trkpt lat="46.73197" lon="6.39382">
        <ele>897.5</ele>
        <time>2020-09-29T13:55:45Z</time>
      </trkpt>
      <trkpt lat="46.73201" lon="6.39377">
        <ele>896.1</ele>
        <time>2020-09-29T13:55:52Z</time>
      </trkpt>
      <trkpt lat="46.73204" lon="6.3937">
        <ele>892.5</ele>
        <time>2020-09-29T13:55:58Z</time>
      </trkpt>
      <trkpt lat="46.73208" lon="6.39364">
        <ele>889.6</ele>
        <time>2020-09-29T13:56:03Z</time>
      </trkpt>
      <trkpt lat="46.73211" lon="6.3936">
        <ele>886.3</ele>
        <time>2020-09-29T13:56:08Z</time>
      </trkpt>
      <trkpt lat="46.73216" lon="6.39358">
        <ele>883.2</ele>
        <time>2020-09-29T13:56:12Z</time>
      </trkpt>
      <trkpt lat="46.73221" lon="6.39355">
        <ele>878.5</ele>
        <time>2020-09-29T13:56:18Z</time>
      </trkpt>
      <trkpt lat="46.73223" lon="6.39349">
        <ele>877</ele>
        <time>2020-09-29T13:56:22Z</time>
      </trkpt>
      <trkpt lat="46.73225" lon="6.39342">
        <ele>877.3</ele>
        <time>2020-09-29T13:56:26Z</time>
      </trkpt>
      <trkpt lat="46.73227" lon="6.39335">
        <ele>878</ele>
        <time>2020-09-29T13:56:30Z</time>
      </trkpt>
      <trkpt lat="46.73228" lon="6.39329">
        <ele>879</ele>
        <time>2020-09-29T13:56:33Z</time>
      </trkpt>
      <trkpt lat="46.73231" lon="6.39322">
        <ele>880.5</ele>
        <time>2020-09-29T13:56:37Z</time>
      </trkpt>
      <trkpt lat="46.73233" lon="6.39315">
        <ele>882.3</ele>
        <time>2020-09-29T13:56:41Z</time>
      </trkpt>
      <trkpt lat="46.73235" lon="6.39307">
        <ele>884.3</ele>
        <time>2020-09-29T13:56:46Z</time>
      </trkpt>
      <trkpt lat="46.73236" lon="6.393">
        <ele>885.5</ele>
        <time>2020-09-29T13:56:50Z</time>
      </trkpt>
      <trkpt lat="46.73238" lon="6.39292">
        <ele>886.7</ele>
        <time>2020-09-29T13:56:54Z</time>
      </trkpt>
      <trkpt lat="46.7324" lon="6.39285">
        <ele>888.1</ele>
        <time>2020-09-29T13:56:58Z</time>
      </trkpt>
      <trkpt lat="46.73242" lon="6.39279">
        <ele>889.9</ele>
        <time>2020-09-29T13:57:02Z</time>
      </trkpt>
      <trkpt lat="46.73245" lon="6.39272">
        <ele>890.3</ele>
        <time>2020-09-29T13:57:09Z</time>
      </trkpt>
      <trkpt lat="46.73248" lon="6.39269">
        <ele>888.9</ele>
        <time>2020-09-29T13:57:15Z</time>
      </trkpt>
      <trkpt lat="46.73253" lon="6.39264">
        <ele>887.1</ele>
        <time>2020-09-29T13:57:20Z</time>
      </trkpt>
      <trkpt lat="46.73255" lon="6.39256">
        <ele>885.6</ele>
        <time>2020-09-29T13:57:24Z</time>
      </trkpt>
      <trkpt lat="46.73257" lon="6.3925">
        <ele>885.1</ele>
        <time>2020-09-29T13:57:27Z</time>
      </trkpt>
      <trkpt lat="46.73258" lon="6.39242">
        <ele>885.2</ele>
        <time>2020-09-29T13:57:31Z</time>
      </trkpt>
      <trkpt lat="46.7326" lon="6.39234">
        <ele>885.5</ele>
        <time>2020-09-29T13:57:35Z</time>
      </trkpt>
      <trkpt lat="46.73262" lon="6.39227">
        <ele>885.8</ele>
        <time>2020-09-29T13:57:39Z</time>
      </trkpt>
      <trkpt lat="46.73264" lon="6.3922">
        <ele>886.5</ele>
        <time>2020-09-29T13:57:43Z</time>
      </trkpt>
      <trkpt lat="46.73266" lon="6.39213">
        <ele>887.5</ele>
        <time>2020-09-29T13:57:50Z</time>
      </trkpt>
      <trkpt lat="46.73269" lon="6.39208">
        <ele>888</ele>
        <time>2020-09-29T13:57:56Z</time>
      </trkpt>
      <trkpt lat="46.73272" lon="6.39202">
        <ele>887.8</ele>
        <time>2020-09-29T13:58:01Z</time>
      </trkpt>
      <trkpt lat="46.73275" lon="6.39196">
        <ele>887.6</ele>
        <time>2020-09-29T13:58:05Z</time>
      </trkpt>
      <trkpt lat="46.73278" lon="6.3919">
        <ele>887.2</ele>
        <time>2020-09-29T13:58:09Z</time>
      </trkpt>
      <trkpt lat="46.73282" lon="6.39185">
        <ele>886.5</ele>
        <time>2020-09-29T13:58:13Z</time>
      </trkpt>
      <trkpt lat="46.73285" lon="6.39181">
        <ele>885.7</ele>
        <time>2020-09-29T13:58:17Z</time>
      </trkpt>
      <trkpt lat="46.73289" lon="6.39176">
        <ele>885</ele>
        <time>2020-09-29T13:58:21Z</time>
      </trkpt>
      <trkpt lat="46.73292" lon="6.39171">
        <ele>884.4</ele>
        <time>2020-09-29T13:58:26Z</time>
      </trkpt>
      <trkpt lat="46.73297" lon="6.39168">
        <ele>884.1</ele>
        <time>2020-09-29T13:58:31Z</time>
      </trkpt>
      <trkpt lat="46.73302" lon="6.39166">
        <ele>883.6</ele>
        <time>2020-09-29T13:58:35Z</time>
      </trkpt>
      <trkpt lat="46.73306" lon="6.39165">
        <ele>882.8</ele>
        <time>2020-09-29T13:58:40Z</time>
      </trkpt>
      <trkpt lat="46.73311" lon="6.39163">
        <ele>882.3</ele>
        <time>2020-09-29T13:58:45Z</time>
      </trkpt>
      <trkpt lat="46.73316" lon="6.39161">
        <ele>881.9</ele>
        <time>2020-09-29T13:58:50Z</time>
      </trkpt>
      <trkpt lat="46.73322" lon="6.39161">
        <ele>881.5</ele>
        <time>2020-09-29T13:58:54Z</time>
      </trkpt>
      <trkpt lat="46.73326" lon="6.3916">
        <ele>881</ele>
        <time>2020-09-29T13:58:58Z</time>
      </trkpt>
      <trkpt lat="46.73332" lon="6.3916">
        <ele>880.5</ele>
        <time>2020-09-29T13:59:03Z</time>
      </trkpt>
      <trkpt lat="46.73337" lon="6.39161">
        <ele>880.2</ele>
        <time>2020-09-29T13:59:08Z</time>
      </trkpt>
      <trkpt lat="46.73342" lon="6.39162">
        <ele>880</ele>
        <time>2020-09-29T13:59:13Z</time>
      </trkpt>
      <trkpt lat="46.73347" lon="6.39164">
        <ele>879.9</ele>
        <time>2020-09-29T13:59:17Z</time>
      </trkpt>
      <trkpt lat="46.73351" lon="6.39166">
        <ele>880.2</ele>
        <time>2020-09-29T13:59:22Z</time>
      </trkpt>
      <trkpt lat="46.73356" lon="6.39169">
        <ele>879.8</ele>
        <time>2020-09-29T13:59:26Z</time>
      </trkpt>
      <trkpt lat="46.7336" lon="6.39168">
        <ele>879</ele>
        <time>2020-09-29T13:59:30Z</time>
      </trkpt>
      <trkpt lat="46.73366" lon="6.39166">
        <ele>878.3</ele>
        <time>2020-09-29T13:59:35Z</time>
      </trkpt>
      <trkpt lat="46.7337" lon="6.39164">
        <ele>878.1</ele>
        <time>2020-09-29T13:59:39Z</time>
      </trkpt>
      <trkpt lat="46.73375" lon="6.39162">
        <ele>877.8</ele>
        <time>2020-09-29T13:59:43Z</time>
      </trkpt>
      <trkpt lat="46.7338" lon="6.3916">
        <ele>876.8</ele>
        <time>2020-09-29T13:59:48Z</time>
      </trkpt>
      <trkpt lat="46.73384" lon="6.39157">
        <ele>875.7</ele>
        <time>2020-09-29T13:59:54Z</time>
      </trkpt>
      <trkpt lat="46.73388" lon="6.39154">
        <ele>874.9</ele>
        <time>2020-09-29T13:59:59Z</time>
      </trkpt>
      <trkpt lat="46.73393" lon="6.3915">
        <ele>874.5</ele>
        <time>2020-09-29T14:00:03Z</time>
      </trkpt>
      <trkpt lat="46.73397" lon="6.39146">
        <ele>874</ele>
        <time>2020-09-29T14:00:08Z</time>
      </trkpt>
      <trkpt lat="46.73401" lon="6.39141">
        <ele>873.4</ele>
        <time>2020-09-29T14:00:14Z</time>
      </trkpt>
      <trkpt lat="46.73405" lon="6.39136">
        <ele>873.2</ele>
        <time>2020-09-29T14:00:19Z</time>
      </trkpt>
      <trkpt lat="46.73408" lon="6.39131">
        <ele>872.8</ele>
        <time>2020-09-29T14:00:24Z</time>
      </trkpt>
      <trkpt lat="46.73412" lon="6.39126">
        <ele>872.5</ele>
        <time>2020-09-29T14:00:29Z</time>
      </trkpt>
      <trkpt lat="46.73415" lon="6.39121">
        <ele>872.3</ele>
        <time>2020-09-29T14:00:33Z</time>
      </trkpt>
      <trkpt lat="46.73418" lon="6.39116">
        <ele>872</ele>
        <time>2020-09-29T14:00:38Z</time>
      </trkpt>
      <trkpt lat="46.73421" lon="6.39111">
        <ele>871.6</ele>
        <time>2020-09-29T14:00:43Z</time>
      </trkpt>
      <trkpt lat="46.73424" lon="6.39105">
        <ele>871.5</ele>
        <time>2020-09-29T14:00:48Z</time>
      </trkpt>
      <trkpt lat="46.73428" lon="6.39099">
        <ele>871.2</ele>
        <time>2020-09-29T14:00:53Z</time>
      </trkpt>
      <trkpt lat="46.73431" lon="6.39093">
        <ele>870.8</ele>
        <time>2020-09-29T14:00:57Z</time>
      </trkpt>
      <trkpt lat="46.73434" lon="6.39088">
        <ele>870.3</ele>
        <time>2020-09-29T14:01:01Z</time>
      </trkpt>
      <trkpt lat="46.73437" lon="6.39083">
        <ele>869.9</ele>
        <time>2020-09-29T14:01:05Z</time>
      </trkpt>
      <trkpt lat="46.73439" lon="6.39076">
        <ele>869.4</ele>
        <time>2020-09-29T14:01:10Z</time>
      </trkpt>
      <trkpt lat="46.73443" lon="6.3907">
        <ele>869.3</ele>
        <time>2020-09-29T14:01:15Z</time>
      </trkpt>
      <trkpt lat="46.73446" lon="6.39064">
        <ele>869.1</ele>
        <time>2020-09-29T14:01:19Z</time>
      </trkpt>
      <trkpt lat="46.7345" lon="6.39059">
        <ele>868.9</ele>
        <time>2020-09-29T14:01:24Z</time>
      </trkpt>
      <trkpt lat="46.73454" lon="6.39052">
        <ele>868.7</ele>
        <time>2020-09-29T14:01:29Z</time>
      </trkpt>
      <trkpt lat="46.73457" lon="6.39047">
        <ele>868.5</ele>
        <time>2020-09-29T14:01:33Z</time>
      </trkpt>
      <trkpt lat="46.7346" lon="6.39041">
        <ele>868.5</ele>
        <time>2020-09-29T14:01:38Z</time>
      </trkpt>
      <trkpt lat="46.73464" lon="6.39035">
        <ele>868</ele>
        <time>2020-09-29T14:01:44Z</time>
      </trkpt>
      <trkpt lat="46.73467" lon="6.3903">
        <ele>867.3</ele>
        <time>2020-09-29T14:01:49Z</time>
      </trkpt>
      <trkpt lat="46.7347" lon="6.39025">
        <ele>866.8</ele>
        <time>2020-09-29T14:01:54Z</time>
      </trkpt>
      <trkpt lat="46.73473" lon="6.3902">
        <ele>866.4</ele>
        <time>2020-09-29T14:01:59Z</time>
      </trkpt>
      <trkpt lat="46.73477" lon="6.39015">
        <ele>865.9</ele>
        <time>2020-09-29T14:02:04Z</time>
      </trkpt>
      <trkpt lat="46.7348" lon="6.39009">
        <ele>865.5</ele>
        <time>2020-09-29T14:02:08Z</time>
      </trkpt>
      <trkpt lat="46.73483" lon="6.39004">
        <ele>865.1</ele>
        <time>2020-09-29T14:02:13Z</time>
      </trkpt>
      <trkpt lat="46.73488" lon="6.38999">
        <ele>864.3</ele>
        <time>2020-09-29T14:02:18Z</time>
      </trkpt>
      <trkpt lat="46.73491" lon="6.38993">
        <ele>862.9</ele>
        <time>2020-09-29T14:02:23Z</time>
      </trkpt>
      <trkpt lat="46.73494" lon="6.38988">
        <ele>861.7</ele>
        <time>2020-09-29T14:02:28Z</time>
      </trkpt>
      <trkpt lat="46.73497" lon="6.38983">
        <ele>860.1</ele>
        <time>2020-09-29T14:02:34Z</time>
      </trkpt>
      <trkpt lat="46.73501" lon="6.38977">
        <ele>858.8</ele>
        <time>2020-09-29T14:02:39Z</time>
      </trkpt>
      <trkpt lat="46.73504" lon="6.38973">
        <ele>858</ele>
        <time>2020-09-29T14:02:43Z</time>
      </trkpt>
      <trkpt lat="46.73509" lon="6.38969">
        <ele>857.4</ele>
        <time>2020-09-29T14:02:47Z</time>
      </trkpt>
      <trkpt lat="46.73513" lon="6.38966">
        <ele>856.7</ele>
        <time>2020-09-29T14:02:51Z</time>
      </trkpt>
      <trkpt lat="46.73516" lon="6.38959">
        <ele>856.3</ele>
        <time>2020-09-29T14:02:56Z</time>
      </trkpt>
      <trkpt lat="46.73519" lon="6.38954">
        <ele>856.2</ele>
        <time>2020-09-29T14:03:02Z</time>
      </trkpt>
      <trkpt lat="46.73522" lon="6.38948">
        <ele>856.1</ele>
        <time>2020-09-29T14:03:11Z</time>
      </trkpt>
      <trkpt lat="46.73525" lon="6.38943">
        <ele>856.2</ele>
        <time>2020-09-29T14:03:20Z</time>
      </trkpt>
      <trkpt lat="46.73527" lon="6.38936">
        <ele>856.5</ele>
        <time>2020-09-29T14:03:26Z</time>
      </trkpt>
      <trkpt lat="46.7353" lon="6.3893">
        <ele>856.7</ele>
        <time>2020-09-29T14:03:33Z</time>
      </trkpt>
      <trkpt lat="46.73533" lon="6.38924">
        <ele>856.5</ele>
        <time>2020-09-29T14:03:40Z</time>
      </trkpt>
      <trkpt lat="46.73536" lon="6.38919">
        <ele>856.5</ele>
        <time>2020-09-29T14:03:45Z</time>
      </trkpt>
      <trkpt lat="46.73541" lon="6.38914">
        <ele>856.6</ele>
        <time>2020-09-29T14:03:49Z</time>
      </trkpt>
      <trkpt lat="46.73544" lon="6.38909">
        <ele>856.7</ele>
        <time>2020-09-29T14:03:53Z</time>
      </trkpt>
      <trkpt lat="46.73548" lon="6.38905">
        <ele>857</ele>
        <time>2020-09-29T14:03:58Z</time>
      </trkpt>
      <trkpt lat="46.73551" lon="6.38901">
        <ele>857.2</ele>
        <time>2020-09-29T14:04:01Z</time>
      </trkpt>
      <trkpt lat="46.73555" lon="6.38897">
        <ele>857.5</ele>
        <time>2020-09-29T14:04:05Z</time>
      </trkpt>
      <trkpt lat="46.73559" lon="6.38892">
        <ele>857.8</ele>
        <time>2020-09-29T14:04:09Z</time>
      </trkpt>
      <trkpt lat="46.73561" lon="6.38886">
        <ele>858.3</ele>
        <time>2020-09-29T14:04:13Z</time>
      </trkpt>
      <trkpt lat="46.73564" lon="6.3888">
        <ele>859.1</ele>
        <time>2020-09-29T14:04:18Z</time>
      </trkpt>
      <trkpt lat="46.73566" lon="6.38873">
        <ele>860.3</ele>
        <time>2020-09-29T14:04:25Z</time>
      </trkpt>
      <trkpt lat="46.73568" lon="6.38864">
        <ele>863.3</ele>
        <time>2020-09-29T14:04:49Z</time>
      </trkpt>
      <trkpt lat="46.7357" lon="6.38857">
        <ele>864.8</ele>
        <time>2020-09-29T14:04:59Z</time>
      </trkpt>
      <trkpt lat="46.73574" lon="6.38853">
        <ele>865.1</ele>
        <time>2020-09-29T14:05:06Z</time>
      </trkpt>
      <trkpt lat="46.73578" lon="6.38849">
        <ele>863.5</ele>
        <time>2020-09-29T14:05:13Z</time>
      </trkpt>
      <trkpt lat="46.73581" lon="6.38843">
        <ele>861.7</ele>
        <time>2020-09-29T14:05:19Z</time>
      </trkpt>
      <trkpt lat="46.73584" lon="6.38838">
        <ele>860.6</ele>
        <time>2020-09-29T14:05:26Z</time>
      </trkpt>
      <trkpt lat="46.73588" lon="6.38832">
        <ele>860.5</ele>
        <time>2020-09-29T14:05:32Z</time>
      </trkpt>
      <trkpt lat="46.73592" lon="6.38828">
        <ele>860.5</ele>
        <time>2020-09-29T14:05:39Z</time>
      </trkpt>
      <trkpt lat="46.73595" lon="6.38823">
        <ele>860.9</ele>
        <time>2020-09-29T14:05:44Z</time>
      </trkpt>
      <trkpt lat="46.736" lon="6.38818">
        <ele>861.3</ele>
        <time>2020-09-29T14:05:49Z</time>
      </trkpt>
      <trkpt lat="46.73604" lon="6.38814">
        <ele>861.4</ele>
        <time>2020-09-29T14:05:54Z</time>
      </trkpt>
      <trkpt lat="46.73608" lon="6.3881">
        <ele>861.4</ele>
        <time>2020-09-29T14:05:59Z</time>
      </trkpt>
      <trkpt lat="46.73611" lon="6.38806">
        <ele>861.4</ele>
        <time>2020-09-29T14:06:04Z</time>
      </trkpt>
      <trkpt lat="46.73615" lon="6.388">
        <ele>861.1</ele>
        <time>2020-09-29T14:06:10Z</time>
      </trkpt>
      <trkpt lat="46.73618" lon="6.38795">
        <ele>860.8</ele>
        <time>2020-09-29T14:06:14Z</time>
      </trkpt>
      <trkpt lat="46.73621" lon="6.38791">
        <ele>860.7</ele>
        <time>2020-09-29T14:06:18Z</time>
      </trkpt>
      <trkpt lat="46.73624" lon="6.38785">
        <ele>860.5</ele>
        <time>2020-09-29T14:06:22Z</time>
      </trkpt>
      <trkpt lat="46.73628" lon="6.38779">
        <ele>860.2</ele>
        <time>2020-09-29T14:06:27Z</time>
      </trkpt>
      <trkpt lat="46.73632" lon="6.38774">
        <ele>859.6</ele>
        <time>2020-09-29T14:06:32Z</time>
      </trkpt>
      <trkpt lat="46.73636" lon="6.38771">
        <ele>859.1</ele>
        <time>2020-09-29T14:06:36Z</time>
      </trkpt>
      <trkpt lat="46.73639" lon="6.38766">
        <ele>858.7</ele>
        <time>2020-09-29T14:06:41Z</time>
      </trkpt>
      <trkpt lat="46.7364" lon="6.38759">
        <ele>859.1</ele>
        <time>2020-09-29T14:06:48Z</time>
      </trkpt>
      <trkpt lat="46.73641" lon="6.38752">
        <ele>861.4</ele>
        <time>2020-09-29T14:07:05Z</time>
      </trkpt>
      <trkpt lat="46.73644" lon="6.38746">
        <ele>869.8</ele>
        <time>2020-09-29T14:07:49Z</time>
      </trkpt>
      <trkpt lat="46.73648" lon="6.38741">
        <ele>870.7</ele>
        <time>2020-09-29T14:07:55Z</time>
      </trkpt>
      <trkpt lat="46.73652" lon="6.38736">
        <ele>870.7</ele>
        <time>2020-09-29T14:08:00Z</time>
      </trkpt>
      <trkpt lat="46.73656" lon="6.38731">
        <ele>870.4</ele>
        <time>2020-09-29T14:08:04Z</time>
      </trkpt>
      <trkpt lat="46.73659" lon="6.38727">
        <ele>870</ele>
        <time>2020-09-29T14:08:08Z</time>
      </trkpt>
      <trkpt lat="46.73664" lon="6.38722">
        <ele>869.2</ele>
        <time>2020-09-29T14:08:14Z</time>
      </trkpt>
      <trkpt lat="46.73668" lon="6.3872">
        <ele>868.6</ele>
        <time>2020-09-29T14:08:20Z</time>
      </trkpt>
      <trkpt lat="46.73672" lon="6.38714">
        <ele>868.5</ele>
        <time>2020-09-29T14:08:25Z</time>
      </trkpt>
      <trkpt lat="46.73675" lon="6.3871">
        <ele>868.4</ele>
        <time>2020-09-29T14:08:30Z</time>
      </trkpt>
      <trkpt lat="46.73678" lon="6.38704">
        <ele>868.6</ele>
        <time>2020-09-29T14:08:40Z</time>
      </trkpt>
      <trkpt lat="46.7368" lon="6.38697">
        <ele>869</ele>
        <time>2020-09-29T14:08:54Z</time>
      </trkpt>
      <trkpt lat="46.73685" lon="6.38699">
        <ele>869.9</ele>
        <time>2020-09-29T14:09:25Z</time>
      </trkpt>
      <trkpt lat="46.73689" lon="6.38695">
        <ele>870.1</ele>
        <time>2020-09-29T14:09:31Z</time>
      </trkpt>
      <trkpt lat="46.73692" lon="6.3869">
        <ele>870.2</ele>
        <time>2020-09-29T14:09:37Z</time>
      </trkpt>
      <trkpt lat="46.73696" lon="6.38685">
        <ele>870.4</ele>
        <time>2020-09-29T14:09:42Z</time>
      </trkpt>
      <trkpt lat="46.737" lon="6.38681">
        <ele>870.5</ele>
        <time>2020-09-29T14:09:47Z</time>
      </trkpt>
      <trkpt lat="46.73705" lon="6.38677">
        <ele>870.7</ele>
        <time>2020-09-29T14:09:53Z</time>
      </trkpt>
      <trkpt lat="46.73709" lon="6.38672">
        <ele>871.2</ele>
        <time>2020-09-29T14:09:58Z</time>
      </trkpt>
      <trkpt lat="46.73713" lon="6.38669">
        <ele>871.4</ele>
        <time>2020-09-29T14:10:02Z</time>
      </trkpt>
      <trkpt lat="46.73717" lon="6.38665">
        <ele>871.7</ele>
        <time>2020-09-29T14:10:06Z</time>
      </trkpt>
      <trkpt lat="46.7372" lon="6.38661">
        <ele>872.1</ele>
        <time>2020-09-29T14:10:10Z</time>
      </trkpt>
      <trkpt lat="46.73724" lon="6.38656">
        <ele>872.7</ele>
        <time>2020-09-29T14:10:16Z</time>
      </trkpt>
      <trkpt lat="46.73727" lon="6.38652">
        <ele>872.9</ele>
        <time>2020-09-29T14:10:21Z</time>
      </trkpt>
      <trkpt lat="46.73732" lon="6.38648">
        <ele>872.9</ele>
        <time>2020-09-29T14:10:26Z</time>
      </trkpt>
      <trkpt lat="46.73736" lon="6.38643">
        <ele>872.9</ele>
        <time>2020-09-29T14:10:31Z</time>
      </trkpt>
      <trkpt lat="46.73741" lon="6.3864">
        <ele>872.8</ele>
        <time>2020-09-29T14:10:36Z</time>
      </trkpt>
      <trkpt lat="46.73745" lon="6.38637">
        <ele>873</ele>
        <time>2020-09-29T14:10:40Z</time>
      </trkpt>
      <trkpt lat="46.7375" lon="6.38634">
        <ele>873</ele>
        <time>2020-09-29T14:10:46Z</time>
      </trkpt>
      <trkpt lat="46.73755" lon="6.38631">
        <ele>873.1</ele>
        <time>2020-09-29T14:10:52Z</time>
      </trkpt>
      <trkpt lat="46.7376" lon="6.38627">
        <ele>873.1</ele>
        <time>2020-09-29T14:10:58Z</time>
      </trkpt>
      <trkpt lat="46.73764" lon="6.38624">
        <ele>872.9</ele>
        <time>2020-09-29T14:11:04Z</time>
      </trkpt>
      <trkpt lat="46.73768" lon="6.38619">
        <ele>872.6</ele>
        <time>2020-09-29T14:11:09Z</time>
      </trkpt>
      <trkpt lat="46.73772" lon="6.38616">
        <ele>872.4</ele>
        <time>2020-09-29T14:11:13Z</time>
      </trkpt>
      <trkpt lat="46.73776" lon="6.38613">
        <ele>872.3</ele>
        <time>2020-09-29T14:11:18Z</time>
      </trkpt>
      <trkpt lat="46.7378" lon="6.38609">
        <ele>872.3</ele>
        <time>2020-09-29T14:11:24Z</time>
      </trkpt>
      <trkpt lat="46.73783" lon="6.38603">
        <ele>872.2</ele>
        <time>2020-09-29T14:11:29Z</time>
      </trkpt>
      <trkpt lat="46.73787" lon="6.386">
        <ele>872.1</ele>
        <time>2020-09-29T14:11:33Z</time>
      </trkpt>
      <trkpt lat="46.73792" lon="6.38597">
        <ele>871.9</ele>
        <time>2020-09-29T14:11:37Z</time>
      </trkpt>
      <trkpt lat="46.73797" lon="6.38594">
        <ele>872.3</ele>
        <time>2020-09-29T14:11:42Z</time>
      </trkpt>
      <trkpt lat="46.73801" lon="6.3859">
        <ele>872.6</ele>
        <time>2020-09-29T14:11:47Z</time>
      </trkpt>
      <trkpt lat="46.73806" lon="6.38586">
        <ele>873.3</ele>
        <time>2020-09-29T14:11:52Z</time>
      </trkpt>
      <trkpt lat="46.7381" lon="6.38581">
        <ele>874.1</ele>
        <time>2020-09-29T14:11:57Z</time>
      </trkpt>
      <trkpt lat="46.73814" lon="6.38577">
        <ele>874.4</ele>
        <time>2020-09-29T14:12:02Z</time>
      </trkpt>
      <trkpt lat="46.73819" lon="6.38572">
        <ele>874.4</ele>
        <time>2020-09-29T14:12:07Z</time>
      </trkpt>
      <trkpt lat="46.73824" lon="6.38569">
        <ele>874.2</ele>
        <time>2020-09-29T14:12:12Z</time>
      </trkpt>
      <trkpt lat="46.73828" lon="6.38566">
        <ele>873.8</ele>
        <time>2020-09-29T14:12:16Z</time>
      </trkpt>
      <trkpt lat="46.73832" lon="6.38561">
        <ele>873.5</ele>
        <time>2020-09-29T14:12:21Z</time>
      </trkpt>
      <trkpt lat="46.73836" lon="6.38557">
        <ele>873.3</ele>
        <time>2020-09-29T14:12:26Z</time>
      </trkpt>
      <trkpt lat="46.7384" lon="6.38552">
        <ele>873.1</ele>
        <time>2020-09-29T14:12:31Z</time>
      </trkpt>
      <trkpt lat="46.73845" lon="6.38548">
        <ele>872.9</ele>
        <time>2020-09-29T14:12:36Z</time>
      </trkpt>
      <trkpt lat="46.7385" lon="6.38545">
        <ele>873</ele>
        <time>2020-09-29T14:12:41Z</time>
      </trkpt>
      <trkpt lat="46.73853" lon="6.38541">
        <ele>873</ele>
        <time>2020-09-29T14:12:45Z</time>
      </trkpt>
      <trkpt lat="46.73857" lon="6.38536">
        <ele>873.4</ele>
        <time>2020-09-29T14:12:50Z</time>
      </trkpt>
      <trkpt lat="46.7386" lon="6.38531">
        <ele>873.6</ele>
        <time>2020-09-29T14:12:55Z</time>
      </trkpt>
      <trkpt lat="46.73863" lon="6.38526">
        <ele>873.6</ele>
        <time>2020-09-29T14:13:00Z</time>
      </trkpt>
      <trkpt lat="46.73867" lon="6.38521">
        <ele>873.6</ele>
        <time>2020-09-29T14:13:05Z</time>
      </trkpt>
      <trkpt lat="46.7387" lon="6.38517">
        <ele>873.7</ele>
        <time>2020-09-29T14:13:09Z</time>
      </trkpt>
      <trkpt lat="46.73874" lon="6.38512">
        <ele>873.7</ele>
        <time>2020-09-29T14:13:13Z</time>
      </trkpt>
      <trkpt lat="46.73877" lon="6.38507">
        <ele>873.8</ele>
        <time>2020-09-29T14:13:17Z</time>
      </trkpt>
      <trkpt lat="46.73879" lon="6.38501">
        <ele>874</ele>
        <time>2020-09-29T14:13:27Z</time>
      </trkpt>
      <trkpt lat="46.73883" lon="6.38497">
        <ele>873.4</ele>
        <time>2020-09-29T14:13:47Z</time>
      </trkpt>
      <trkpt lat="46.73887" lon="6.38496">
        <ele>872.8</ele>
        <time>2020-09-29T14:13:58Z</time>
      </trkpt>
      <trkpt lat="46.73891" lon="6.38491">
        <ele>872.8</ele>
        <time>2020-09-29T14:14:03Z</time>
      </trkpt>
      <trkpt lat="46.73894" lon="6.38486">
        <ele>872.5</ele>
        <time>2020-09-29T14:14:08Z</time>
      </trkpt>
      <trkpt lat="46.73898" lon="6.3848">
        <ele>872.3</ele>
        <time>2020-09-29T14:14:14Z</time>
      </trkpt>
      <trkpt lat="46.73902" lon="6.38476">
        <ele>872.6</ele>
        <time>2020-09-29T14:14:19Z</time>
      </trkpt>
      <trkpt lat="46.73905" lon="6.3847">
        <ele>872.9</ele>
        <time>2020-09-29T14:14:24Z</time>
      </trkpt>
      <trkpt lat="46.73908" lon="6.38463">
        <ele>873.4</ele>
        <time>2020-09-29T14:14:30Z</time>
      </trkpt>
      <trkpt lat="46.73911" lon="6.38457">
        <ele>873.9</ele>
        <time>2020-09-29T14:14:36Z</time>
      </trkpt>
      <trkpt lat="46.73914" lon="6.38453">
        <ele>874.9</ele>
        <time>2020-09-29T14:14:41Z</time>
      </trkpt>
      <trkpt lat="46.73917" lon="6.38448">
        <ele>875.8</ele>
        <time>2020-09-29T14:14:46Z</time>
      </trkpt>
      <trkpt lat="46.73921" lon="6.38442">
        <ele>876.4</ele>
        <time>2020-09-29T14:14:51Z</time>
      </trkpt>
      <trkpt lat="46.73925" lon="6.38437">
        <ele>877</ele>
        <time>2020-09-29T14:14:56Z</time>
      </trkpt>
      <trkpt lat="46.73929" lon="6.38432">
        <ele>877.5</ele>
        <time>2020-09-29T14:15:02Z</time>
      </trkpt>
      <trkpt lat="46.73932" lon="6.38428">
        <ele>877.5</ele>
        <time>2020-09-29T14:15:06Z</time>
      </trkpt>
      <trkpt lat="46.73936" lon="6.38422">
        <ele>877.6</ele>
        <time>2020-09-29T14:15:11Z</time>
      </trkpt>
      <trkpt lat="46.73938" lon="6.38416">
        <ele>877.5</ele>
        <time>2020-09-29T14:15:15Z</time>
      </trkpt>
      <trkpt lat="46.73942" lon="6.38411">
        <ele>876.8</ele>
        <time>2020-09-29T14:15:21Z</time>
      </trkpt>
      <trkpt lat="46.73946" lon="6.38405">
        <ele>875.8</ele>
        <time>2020-09-29T14:15:26Z</time>
      </trkpt>
      <trkpt lat="46.73949" lon="6.384">
        <ele>875</ele>
        <time>2020-09-29T14:15:30Z</time>
      </trkpt>
      <trkpt lat="46.73952" lon="6.38395">
        <ele>874.2</ele>
        <time>2020-09-29T14:15:35Z</time>
      </trkpt>
      <trkpt lat="46.73956" lon="6.38389">
        <ele>873.4</ele>
        <time>2020-09-29T14:15:40Z</time>
      </trkpt>
      <trkpt lat="46.73959" lon="6.38383">
        <ele>872.8</ele>
        <time>2020-09-29T14:15:44Z</time>
      </trkpt>
      <trkpt lat="46.73962" lon="6.38378">
        <ele>872.3</ele>
        <time>2020-09-29T14:15:49Z</time>
      </trkpt>
      <trkpt lat="46.73966" lon="6.38374">
        <ele>871.7</ele>
        <time>2020-09-29T14:15:54Z</time>
      </trkpt>
      <trkpt lat="46.73969" lon="6.38369">
        <ele>871.5</ele>
        <time>2020-09-29T14:15:59Z</time>
      </trkpt>
      <trkpt lat="46.73971" lon="6.38363">
        <ele>871.5</ele>
        <time>2020-09-29T14:16:04Z</time>
      </trkpt>
      <trkpt lat="46.73975" lon="6.38357">
        <ele>871.6</ele>
        <time>2020-09-29T14:16:09Z</time>
      </trkpt>
      <trkpt lat="46.73978" lon="6.38353">
        <ele>872</ele>
        <time>2020-09-29T14:16:13Z</time>
      </trkpt>
      <trkpt lat="46.73982" lon="6.38347">
        <ele>872.6</ele>
        <time>2020-09-29T14:16:18Z</time>
      </trkpt>
      <trkpt lat="46.73986" lon="6.38342">
        <ele>873.2</ele>
        <time>2020-09-29T14:16:23Z</time>
      </trkpt>
      <trkpt lat="46.7399" lon="6.38337">
        <ele>873.8</ele>
        <time>2020-09-29T14:16:29Z</time>
      </trkpt>
      <trkpt lat="46.73993" lon="6.38332">
        <ele>874</ele>
        <time>2020-09-29T14:16:33Z</time>
      </trkpt>
      <trkpt lat="46.73996" lon="6.38326">
        <ele>874.4</ele>
        <time>2020-09-29T14:16:37Z</time>
      </trkpt>
      <trkpt lat="46.74" lon="6.38321">
        <ele>874.6</ele>
        <time>2020-09-29T14:16:41Z</time>
      </trkpt>
      <trkpt lat="46.74002" lon="6.38315">
        <ele>874.8</ele>
        <time>2020-09-29T14:16:45Z</time>
      </trkpt>
      <trkpt lat="46.74005" lon="6.38309">
        <ele>875</ele>
        <time>2020-09-29T14:16:50Z</time>
      </trkpt>
      <trkpt lat="46.74009" lon="6.38303">
        <ele>874.5</ele>
        <time>2020-09-29T14:16:55Z</time>
      </trkpt>
      <trkpt lat="46.74012" lon="6.38299">
        <ele>873.6</ele>
        <time>2020-09-29T14:16:59Z</time>
      </trkpt>
      <trkpt lat="46.74017" lon="6.38294">
        <ele>873</ele>
        <time>2020-09-29T14:17:04Z</time>
      </trkpt>
      <trkpt lat="46.7402" lon="6.38289">
        <ele>872.7</ele>
        <time>2020-09-29T14:17:09Z</time>
      </trkpt>
      <trkpt lat="46.74024" lon="6.38284">
        <ele>872.3</ele>
        <time>2020-09-29T14:17:13Z</time>
      </trkpt>
      <trkpt lat="46.74027" lon="6.38279">
        <ele>871.5</ele>
        <time>2020-09-29T14:17:17Z</time>
      </trkpt>
      <trkpt lat="46.74031" lon="6.38275">
        <ele>870.9</ele>
        <time>2020-09-29T14:17:22Z</time>
      </trkpt>
      <trkpt lat="46.74035" lon="6.3827">
        <ele>870.3</ele>
        <time>2020-09-29T14:17:28Z</time>
      </trkpt>
      <trkpt lat="46.7404" lon="6.38267">
        <ele>869.7</ele>
        <time>2020-09-29T14:17:32Z</time>
      </trkpt>
      <trkpt lat="46.74043" lon="6.38263">
        <ele>869</ele>
        <time>2020-09-29T14:17:36Z</time>
      </trkpt>
      <trkpt lat="46.74047" lon="6.38258">
        <ele>868.5</ele>
        <time>2020-09-29T14:17:41Z</time>
      </trkpt>
      <trkpt lat="46.74052" lon="6.38253">
        <ele>868.3</ele>
        <time>2020-09-29T14:17:46Z</time>
      </trkpt>
      <trkpt lat="46.74056" lon="6.38248">
        <ele>868.2</ele>
        <time>2020-09-29T14:17:51Z</time>
      </trkpt>
      <trkpt lat="46.7406" lon="6.38244">
        <ele>868.3</ele>
        <time>2020-09-29T14:17:56Z</time>
      </trkpt>
      <trkpt lat="46.74065" lon="6.38239">
        <ele>868.3</ele>
        <time>2020-09-29T14:18:01Z</time>
      </trkpt>
      <trkpt lat="46.74069" lon="6.38234">
        <ele>868.2</ele>
        <time>2020-09-29T14:18:06Z</time>
      </trkpt>
      <trkpt lat="46.74074" lon="6.3823">
        <ele>868.1</ele>
        <time>2020-09-29T14:18:11Z</time>
      </trkpt>
      <trkpt lat="46.74078" lon="6.38226">
        <ele>867.8</ele>
        <time>2020-09-29T14:18:16Z</time>
      </trkpt>
      <trkpt lat="46.74083" lon="6.38222">
        <ele>867.5</ele>
        <time>2020-09-29T14:18:21Z</time>
      </trkpt>
      <trkpt lat="46.74086" lon="6.38218">
        <ele>867.1</ele>
        <time>2020-09-29T14:18:25Z</time>
      </trkpt>
      <trkpt lat="46.74091" lon="6.38215">
        <ele>867.1</ele>
        <time>2020-09-29T14:18:29Z</time>
      </trkpt>
      <trkpt lat="46.74095" lon="6.38211">
        <ele>867</ele>
        <time>2020-09-29T14:18:33Z</time>
      </trkpt>
      <trkpt lat="46.741" lon="6.38209">
        <ele>867.1</ele>
        <time>2020-09-29T14:18:38Z</time>
      </trkpt>
      <trkpt lat="46.74104" lon="6.38207">
        <ele>867.3</ele>
        <time>2020-09-29T14:18:43Z</time>
      </trkpt>
      <trkpt lat="46.7411" lon="6.38206">
        <ele>867.5</ele>
        <time>2020-09-29T14:18:49Z</time>
      </trkpt>
      <trkpt lat="46.74115" lon="6.38204">
        <ele>867.8</ele>
        <time>2020-09-29T14:18:54Z</time>
      </trkpt>
      <trkpt lat="46.74121" lon="6.38203">
        <ele>868</ele>
        <time>2020-09-29T14:18:59Z</time>
      </trkpt>
      <trkpt lat="46.74126" lon="6.38202">
        <ele>868.3</ele>
        <time>2020-09-29T14:19:04Z</time>
      </trkpt>
      <trkpt lat="46.7413" lon="6.382">
        <ele>868.5</ele>
        <time>2020-09-29T14:19:08Z</time>
      </trkpt>
      <trkpt lat="46.74135" lon="6.38198">
        <ele>869</ele>
        <time>2020-09-29T14:19:15Z</time>
      </trkpt>
      <trkpt lat="46.7414" lon="6.38197">
        <ele>871</ele>
        <time>2020-09-29T14:19:56Z</time>
      </trkpt>
      <trkpt lat="46.74144" lon="6.38197">
        <ele>871.4</ele>
        <time>2020-09-29T14:20:07Z</time>
      </trkpt>
      <trkpt lat="46.74147" lon="6.38191">
        <ele>868.8</ele>
        <time>2020-09-29T14:20:50Z</time>
      </trkpt>
      <trkpt lat="46.74151" lon="6.38188">
        <ele>868.9</ele>
        <time>2020-09-29T14:20:58Z</time>
      </trkpt>
      <trkpt lat="46.74155" lon="6.38184">
        <ele>869.2</ele>
        <time>2020-09-29T14:21:03Z</time>
      </trkpt>
      <trkpt lat="46.74159" lon="6.38179">
        <ele>870.3</ele>
        <time>2020-09-29T14:21:08Z</time>
      </trkpt>
      <trkpt lat="46.74163" lon="6.38174">
        <ele>870.4</ele>
        <time>2020-09-29T14:21:12Z</time>
      </trkpt>
      <trkpt lat="46.74167" lon="6.38169">
        <ele>869.9</ele>
        <time>2020-09-29T14:21:16Z</time>
      </trkpt>
      <trkpt lat="46.74172" lon="6.38165">
        <ele>868.8</ele>
        <time>2020-09-29T14:21:21Z</time>
      </trkpt>
      <trkpt lat="46.74176" lon="6.38163">
        <ele>867</ele>
        <time>2020-09-29T14:21:27Z</time>
      </trkpt>
      <trkpt lat="46.7418" lon="6.38158">
        <ele>866</ele>
        <time>2020-09-29T14:21:33Z</time>
      </trkpt>
      <trkpt lat="46.74184" lon="6.38153">
        <ele>865.4</ele>
        <time>2020-09-29T14:21:38Z</time>
      </trkpt>
      <trkpt lat="46.74187" lon="6.38149">
        <ele>865.5</ele>
        <time>2020-09-29T14:21:44Z</time>
      </trkpt>
      <trkpt lat="46.74191" lon="6.38144">
        <ele>865.7</ele>
        <time>2020-09-29T14:21:49Z</time>
      </trkpt>
      <trkpt lat="46.74194" lon="6.38139">
        <ele>865.6</ele>
        <time>2020-09-29T14:21:55Z</time>
      </trkpt>
      <trkpt lat="46.74197" lon="6.38133">
        <ele>865.2</ele>
        <time>2020-09-29T14:22:01Z</time>
      </trkpt>
      <trkpt lat="46.74201" lon="6.38127">
        <ele>864.9</ele>
        <time>2020-09-29T14:22:07Z</time>
      </trkpt>
      <trkpt lat="46.74204" lon="6.38122">
        <ele>864.4</ele>
        <time>2020-09-29T14:22:12Z</time>
      </trkpt>
      <trkpt lat="46.74207" lon="6.38117">
        <ele>863.9</ele>
        <time>2020-09-29T14:22:17Z</time>
      </trkpt>
      <trkpt lat="46.7421" lon="6.38112">
        <ele>863.2</ele>
        <time>2020-09-29T14:22:22Z</time>
      </trkpt>
      <trkpt lat="46.74213" lon="6.38106">
        <ele>862.4</ele>
        <time>2020-09-29T14:22:27Z</time>
      </trkpt>
      <trkpt lat="46.74216" lon="6.38101">
        <ele>861.5</ele>
        <time>2020-09-29T14:22:33Z</time>
      </trkpt>
      <trkpt lat="46.7422" lon="6.38095">
        <ele>860.4</ele>
        <time>2020-09-29T14:22:38Z</time>
      </trkpt>
      <trkpt lat="46.74224" lon="6.3809">
        <ele>859.1</ele>
        <time>2020-09-29T14:22:44Z</time>
      </trkpt>
      <trkpt lat="46.74227" lon="6.38085">
        <ele>857.7</ele>
        <time>2020-09-29T14:22:49Z</time>
      </trkpt>
      <trkpt lat="46.7423" lon="6.38079">
        <ele>856.4</ele>
        <time>2020-09-29T14:22:54Z</time>
      </trkpt>
      <trkpt lat="46.74233" lon="6.38073">
        <ele>855.3</ele>
        <time>2020-09-29T14:23:00Z</time>
      </trkpt>
      <trkpt lat="46.74238" lon="6.38068">
        <ele>854.5</ele>
        <time>2020-09-29T14:23:05Z</time>
      </trkpt>
      <trkpt lat="46.74241" lon="6.38063">
        <ele>853.4</ele>
        <time>2020-09-29T14:23:10Z</time>
      </trkpt>
      <trkpt lat="46.74245" lon="6.38059">
        <ele>851.5</ele>
        <time>2020-09-29T14:23:16Z</time>
      </trkpt>
      <trkpt lat="46.7425" lon="6.38057">
        <ele>849.8</ele>
        <time>2020-09-29T14:23:22Z</time>
      </trkpt>
      <trkpt lat="46.74255" lon="6.38058">
        <ele>848.5</ele>
        <time>2020-09-29T14:23:28Z</time>
      </trkpt>
      <trkpt lat="46.7426" lon="6.3806">
        <ele>847.6</ele>
        <time>2020-09-29T14:23:35Z</time>
      </trkpt>
      <trkpt lat="46.74265" lon="6.38064">
        <ele>847</ele>
        <time>2020-09-29T14:23:40Z</time>
      </trkpt>
      <trkpt lat="46.74269" lon="6.38068">
        <ele>846.5</ele>
        <time>2020-09-29T14:23:44Z</time>
      </trkpt>
      <trkpt lat="46.74274" lon="6.3807">
        <ele>845.9</ele>
        <time>2020-09-29T14:23:49Z</time>
      </trkpt>
      <trkpt lat="46.74279" lon="6.38073">
        <ele>845.3</ele>
        <time>2020-09-29T14:23:54Z</time>
      </trkpt>
      <trkpt lat="46.74284" lon="6.38075">
        <ele>844.9</ele>
        <time>2020-09-29T14:23:59Z</time>
      </trkpt>
      <trkpt lat="46.74289" lon="6.38078">
        <ele>844.4</ele>
        <time>2020-09-29T14:24:04Z</time>
      </trkpt>
      <trkpt lat="46.74294" lon="6.38081">
        <ele>843.8</ele>
        <time>2020-09-29T14:24:09Z</time>
      </trkpt>
      <trkpt lat="46.74298" lon="6.38084">
        <ele>843.2</ele>
        <time>2020-09-29T14:24:14Z</time>
      </trkpt>
      <trkpt lat="46.74304" lon="6.38085">
        <ele>842.4</ele>
        <time>2020-09-29T14:24:19Z</time>
      </trkpt>
      <trkpt lat="46.74308" lon="6.38085">
        <ele>841.7</ele>
        <time>2020-09-29T14:24:23Z</time>
      </trkpt>
      <trkpt lat="46.74313" lon="6.38085">
        <ele>841.1</ele>
        <time>2020-09-29T14:24:27Z</time>
      </trkpt>
      <trkpt lat="46.74318" lon="6.38085">
        <ele>840.5</ele>
        <time>2020-09-29T14:24:31Z</time>
      </trkpt>
      <trkpt lat="46.74323" lon="6.38082">
        <ele>839.8</ele>
        <time>2020-09-29T14:24:36Z</time>
      </trkpt>
      <trkpt lat="46.74327" lon="6.38079">
        <ele>839.8</ele>
        <time>2020-09-29T14:24:41Z</time>
      </trkpt>
      <trkpt lat="46.74332" lon="6.38076">
        <ele>839.9</ele>
        <time>2020-09-29T14:24:45Z</time>
      </trkpt>
      <trkpt lat="46.74334" lon="6.38071">
        <ele>839.9</ele>
        <time>2020-09-29T14:24:50Z</time>
      </trkpt>
      <trkpt lat="46.74338" lon="6.38066">
        <ele>839.5</ele>
        <time>2020-09-29T14:24:55Z</time>
      </trkpt>
      <trkpt lat="46.74341" lon="6.38061">
        <ele>839</ele>
        <time>2020-09-29T14:25:00Z</time>
      </trkpt>
      <trkpt lat="46.74343" lon="6.38055">
        <ele>838.3</ele>
        <time>2020-09-29T14:25:05Z</time>
      </trkpt>
      <trkpt lat="46.74344" lon="6.38048">
        <ele>837.5</ele>
        <time>2020-09-29T14:25:10Z</time>
      </trkpt>
      <trkpt lat="46.74345" lon="6.3804">
        <ele>836.8</ele>
        <time>2020-09-29T14:25:15Z</time>
      </trkpt>
      <trkpt lat="46.74347" lon="6.38034">
        <ele>836</ele>
        <time>2020-09-29T14:25:21Z</time>
      </trkpt>
      <trkpt lat="46.7435" lon="6.38026">
        <ele>835.6</ele>
        <time>2020-09-29T14:25:25Z</time>
      </trkpt>
      <trkpt lat="46.74351" lon="6.38019">
        <ele>835</ele>
        <time>2020-09-29T14:25:30Z</time>
      </trkpt>
      <trkpt lat="46.74353" lon="6.38013">
        <ele>834.4</ele>
        <time>2020-09-29T14:25:36Z</time>
      </trkpt>
      <trkpt lat="46.74357" lon="6.3801">
        <ele>834.3</ele>
        <time>2020-09-29T14:25:43Z</time>
      </trkpt>
      <trkpt lat="46.74362" lon="6.3801">
        <ele>834.2</ele>
        <time>2020-09-29T14:25:49Z</time>
      </trkpt>
      <trkpt lat="46.74366" lon="6.38013">
        <ele>834.9</ele>
        <time>2020-09-29T14:25:55Z</time>
      </trkpt>
      <trkpt lat="46.7437" lon="6.38016">
        <ele>835.4</ele>
        <time>2020-09-29T14:26:00Z</time>
      </trkpt>
      <trkpt lat="46.74375" lon="6.38019">
        <ele>835</ele>
        <time>2020-09-29T14:26:09Z</time>
      </trkpt>
      <trkpt lat="46.74379" lon="6.38021">
        <ele>835</ele>
        <time>2020-09-29T14:26:16Z</time>
      </trkpt>
      <trkpt lat="46.74384" lon="6.38017">
        <ele>835.9</ele>
        <time>2020-09-29T14:26:26Z</time>
      </trkpt>
      <trkpt lat="46.74388" lon="6.38016">
        <ele>837.4</ele>
        <time>2020-09-29T14:26:37Z</time>
      </trkpt>
      <trkpt lat="46.74392" lon="6.3802">
        <ele>837.6</ele>
        <time>2020-09-29T14:26:42Z</time>
      </trkpt>
      <trkpt lat="46.74396" lon="6.38025">
        <ele>837.7</ele>
        <time>2020-09-29T14:26:46Z</time>
      </trkpt>
      <trkpt lat="46.744" lon="6.38028">
        <ele>837.8</ele>
        <time>2020-09-29T14:26:50Z</time>
      </trkpt>
      <trkpt lat="46.74405" lon="6.38031">
        <ele>838.1</ele>
        <time>2020-09-29T14:26:55Z</time>
      </trkpt>
      <trkpt lat="46.74409" lon="6.38034">
        <ele>838.2</ele>
        <time>2020-09-29T14:26:59Z</time>
      </trkpt>
      <trkpt lat="46.74414" lon="6.38037">
        <ele>838</ele>
        <time>2020-09-29T14:27:03Z</time>
      </trkpt>
      <trkpt lat="46.74418" lon="6.38039">
        <ele>837.8</ele>
        <time>2020-09-29T14:27:07Z</time>
      </trkpt>
      <trkpt lat="46.74423" lon="6.3804">
        <ele>837.4</ele>
        <time>2020-09-29T14:27:12Z</time>
      </trkpt>
      <trkpt lat="46.74428" lon="6.38042">
        <ele>837</ele>
        <time>2020-09-29T14:27:18Z</time>
      </trkpt>
      <trkpt lat="46.74432" lon="6.38046">
        <ele>836.8</ele>
        <time>2020-09-29T14:27:24Z</time>
      </trkpt>
      <trkpt lat="46.74436" lon="6.38051">
        <ele>836.9</ele>
        <time>2020-09-29T14:27:30Z</time>
      </trkpt>
      <trkpt lat="46.74441" lon="6.38054">
        <ele>837</ele>
        <time>2020-09-29T14:27:35Z</time>
      </trkpt>
      <trkpt lat="46.74446" lon="6.38056">
        <ele>837</ele>
        <time>2020-09-29T14:27:40Z</time>
      </trkpt>
      <trkpt lat="46.74451" lon="6.3806">
        <ele>836.9</ele>
        <time>2020-09-29T14:27:45Z</time>
      </trkpt>
      <trkpt lat="46.74455" lon="6.38064">
        <ele>836.9</ele>
        <time>2020-09-29T14:27:50Z</time>
      </trkpt>
      <trkpt lat="46.74459" lon="6.38067">
        <ele>837.1</ele>
        <time>2020-09-29T14:27:55Z</time>
      </trkpt>
      <trkpt lat="46.74463" lon="6.3807">
        <ele>837.2</ele>
        <time>2020-09-29T14:28:00Z</time>
      </trkpt>
      <trkpt lat="46.74468" lon="6.38072">
        <ele>837.3</ele>
        <time>2020-09-29T14:28:04Z</time>
      </trkpt>
      <trkpt lat="46.74474" lon="6.38075">
        <ele>837.5</ele>
        <time>2020-09-29T14:28:09Z</time>
      </trkpt>
      <trkpt lat="46.74478" lon="6.38077">
        <ele>837.7</ele>
        <time>2020-09-29T14:28:12Z</time>
      </trkpt>
      <trkpt lat="46.74483" lon="6.38079">
        <ele>837.8</ele>
        <time>2020-09-29T14:28:16Z</time>
      </trkpt>
      <trkpt lat="46.74488" lon="6.38082">
        <ele>837.9</ele>
        <time>2020-09-29T14:28:21Z</time>
      </trkpt>
      <trkpt lat="46.74493" lon="6.38084">
        <ele>838.2</ele>
        <time>2020-09-29T14:28:26Z</time>
      </trkpt>
      <trkpt lat="46.74497" lon="6.38088">
        <ele>838.6</ele>
        <time>2020-09-29T14:28:31Z</time>
      </trkpt>
      <trkpt lat="46.74502" lon="6.3809">
        <ele>839</ele>
        <time>2020-09-29T14:28:36Z</time>
      </trkpt>
      <trkpt lat="46.74506" lon="6.38091">
        <ele>839.4</ele>
        <time>2020-09-29T14:28:42Z</time>
      </trkpt>
      <trkpt lat="46.74512" lon="6.38092">
        <ele>839.8</ele>
        <time>2020-09-29T14:28:47Z</time>
      </trkpt>
      <trkpt lat="46.74516" lon="6.38093">
        <ele>840.3</ele>
        <time>2020-09-29T14:28:52Z</time>
      </trkpt>
      <trkpt lat="46.74522" lon="6.38093">
        <ele>840.6</ele>
        <time>2020-09-29T14:28:56Z</time>
      </trkpt>
      <trkpt lat="46.74526" lon="6.38092">
        <ele>840.7</ele>
        <time>2020-09-29T14:29:00Z</time>
      </trkpt>
      <trkpt lat="46.74531" lon="6.38091">
        <ele>840.7</ele>
        <time>2020-09-29T14:29:04Z</time>
      </trkpt>
      <trkpt lat="46.74536" lon="6.38091">
        <ele>840.5</ele>
        <time>2020-09-29T14:29:09Z</time>
      </trkpt>
      <trkpt lat="46.74541" lon="6.3809">
        <ele>840.2</ele>
        <time>2020-09-29T14:29:14Z</time>
      </trkpt>
      <trkpt lat="46.74546" lon="6.3809">
        <ele>839.9</ele>
        <time>2020-09-29T14:29:19Z</time>
      </trkpt>
      <trkpt lat="46.74551" lon="6.38092">
        <ele>839.5</ele>
        <time>2020-09-29T14:29:24Z</time>
      </trkpt>
      <trkpt lat="46.74556" lon="6.38091">
        <ele>839.2</ele>
        <time>2020-09-29T14:29:29Z</time>
      </trkpt>
      <trkpt lat="46.74561" lon="6.3809">
        <ele>839.1</ele>
        <time>2020-09-29T14:29:34Z</time>
      </trkpt>
      <trkpt lat="46.74567" lon="6.38091">
        <ele>838.8</ele>
        <time>2020-09-29T14:29:39Z</time>
      </trkpt>
      <trkpt lat="46.74572" lon="6.38092">
        <ele>838.7</ele>
        <time>2020-09-29T14:29:43Z</time>
      </trkpt>
      <trkpt lat="46.74577" lon="6.38094">
        <ele>838.7</ele>
        <time>2020-09-29T14:29:48Z</time>
      </trkpt>
      <trkpt lat="46.74581" lon="6.38096">
        <ele>838.5</ele>
        <time>2020-09-29T14:29:53Z</time>
      </trkpt>
      <trkpt lat="46.74586" lon="6.38097">
        <ele>838.1</ele>
        <time>2020-09-29T14:29:57Z</time>
      </trkpt>
      <trkpt lat="46.74592" lon="6.38098">
        <ele>837.6</ele>
        <time>2020-09-29T14:30:01Z</time>
      </trkpt>
      <trkpt lat="46.74596" lon="6.38098">
        <ele>837.3</ele>
        <time>2020-09-29T14:30:04Z</time>
      </trkpt>
      <trkpt lat="46.74601" lon="6.38099">
        <ele>836.7</ele>
        <time>2020-09-29T14:30:08Z</time>
      </trkpt>
      <trkpt lat="46.74606" lon="6.381">
        <ele>836.1</ele>
        <time>2020-09-29T14:30:12Z</time>
      </trkpt>
      <trkpt lat="46.74611" lon="6.381">
        <ele>835.8</ele>
        <time>2020-09-29T14:30:16Z</time>
      </trkpt>
      <trkpt lat="46.74616" lon="6.38102">
        <ele>835.5</ele>
        <time>2020-09-29T14:30:20Z</time>
      </trkpt>
      <trkpt lat="46.7462" lon="6.38103">
        <ele>835.2</ele>
        <time>2020-09-29T14:30:24Z</time>
      </trkpt>
      <trkpt lat="46.74625" lon="6.38104">
        <ele>835.1</ele>
        <time>2020-09-29T14:30:28Z</time>
      </trkpt>
      <trkpt lat="46.74631" lon="6.38105">
        <ele>835.3</ele>
        <time>2020-09-29T14:30:33Z</time>
      </trkpt>
      <trkpt lat="46.74636" lon="6.38106">
        <ele>835.3</ele>
        <time>2020-09-29T14:30:37Z</time>
      </trkpt>
      <trkpt lat="46.74641" lon="6.38107">
        <ele>835.4</ele>
        <time>2020-09-29T14:30:42Z</time>
      </trkpt>
      <trkpt lat="46.74647" lon="6.38109">
        <ele>835.2</ele>
        <time>2020-09-29T14:30:47Z</time>
      </trkpt>
      <trkpt lat="46.74652" lon="6.3811">
        <ele>835.2</ele>
        <time>2020-09-29T14:30:52Z</time>
      </trkpt>
      <trkpt lat="46.74657" lon="6.38111">
        <ele>835.2</ele>
        <time>2020-09-29T14:30:57Z</time>
      </trkpt>
      <trkpt lat="46.74661" lon="6.38111">
        <ele>835.3</ele>
        <time>2020-09-29T14:31:01Z</time>
      </trkpt>
      <trkpt lat="46.74666" lon="6.38112">
        <ele>835.4</ele>
        <time>2020-09-29T14:31:05Z</time>
      </trkpt>
      <trkpt lat="46.74672" lon="6.38112">
        <ele>835.5</ele>
        <time>2020-09-29T14:31:09Z</time>
      </trkpt>
      <trkpt lat="46.74677" lon="6.38113">
        <ele>835.5</ele>
        <time>2020-09-29T14:31:13Z</time>
      </trkpt>
      <trkpt lat="46.74682" lon="6.38114">
        <ele>835.2</ele>
        <time>2020-09-29T14:31:18Z</time>
      </trkpt>
      <trkpt lat="46.74687" lon="6.38116">
        <ele>835.1</ele>
        <time>2020-09-29T14:31:23Z</time>
      </trkpt>
      <trkpt lat="46.74692" lon="6.38116">
        <ele>835.3</ele>
        <time>2020-09-29T14:31:28Z</time>
      </trkpt>
      <trkpt lat="46.74698" lon="6.38117">
        <ele>835.3</ele>
        <time>2020-09-29T14:31:32Z</time>
      </trkpt>
      <trkpt lat="46.74703" lon="6.38117">
        <ele>835.4</ele>
        <time>2020-09-29T14:31:36Z</time>
      </trkpt>
      <trkpt lat="46.74708" lon="6.38119">
        <ele>835.6</ele>
        <time>2020-09-29T14:31:41Z</time>
      </trkpt>
      <trkpt lat="46.74713" lon="6.3812">
        <ele>835.8</ele>
        <time>2020-09-29T14:31:46Z</time>
      </trkpt>
      <trkpt lat="46.74718" lon="6.38122">
        <ele>836.3</ele>
        <time>2020-09-29T14:31:52Z</time>
      </trkpt>
      <trkpt lat="46.74723" lon="6.38121">
        <ele>837.3</ele>
        <time>2020-09-29T14:32:00Z</time>
      </trkpt>
      <trkpt lat="46.74728" lon="6.38121">
        <ele>838.6</ele>
        <time>2020-09-29T14:32:06Z</time>
      </trkpt>
      <trkpt lat="46.74734" lon="6.38121">
        <ele>839.4</ele>
        <time>2020-09-29T14:32:10Z</time>
      </trkpt>
      <trkpt lat="46.74739" lon="6.38122">
        <ele>840.1</ele>
        <time>2020-09-29T14:32:14Z</time>
      </trkpt>
      <trkpt lat="46.74745" lon="6.38124">
        <ele>840.8</ele>
        <time>2020-09-29T14:32:18Z</time>
      </trkpt>
      <trkpt lat="46.7475" lon="6.38126">
        <ele>841.2</ele>
        <time>2020-09-29T14:32:22Z</time>
      </trkpt>
      <trkpt lat="46.74754" lon="6.38128">
        <ele>841.5</ele>
        <time>2020-09-29T14:32:25Z</time>
      </trkpt>
      <trkpt lat="46.74759" lon="6.3813">
        <ele>842.1</ele>
        <time>2020-09-29T14:32:29Z</time>
      </trkpt>
      <trkpt lat="46.74764" lon="6.38133">
        <ele>842.7</ele>
        <time>2020-09-29T14:32:34Z</time>
      </trkpt>
      <trkpt lat="46.74769" lon="6.38136">
        <ele>843.2</ele>
        <time>2020-09-29T14:32:39Z</time>
      </trkpt>
      <trkpt lat="46.74773" lon="6.38138">
        <ele>843.6</ele>
        <time>2020-09-29T14:32:44Z</time>
      </trkpt>
      <trkpt lat="46.74777" lon="6.38142">
        <ele>843.9</ele>
        <time>2020-09-29T14:32:49Z</time>
      </trkpt>
      <trkpt lat="46.74781" lon="6.38145">
        <ele>843.8</ele>
        <time>2020-09-29T14:32:54Z</time>
      </trkpt>
      <trkpt lat="46.74787" lon="6.38147">
        <ele>843.5</ele>
        <time>2020-09-29T14:32:59Z</time>
      </trkpt>
      <trkpt lat="46.74791" lon="6.38149">
        <ele>843.4</ele>
        <time>2020-09-29T14:33:03Z</time>
      </trkpt>
      <trkpt lat="46.74796" lon="6.38151">
        <ele>843.3</ele>
        <time>2020-09-29T14:33:07Z</time>
      </trkpt>
      <trkpt lat="46.74801" lon="6.38153">
        <ele>843.1</ele>
        <time>2020-09-29T14:33:12Z</time>
      </trkpt>
      <trkpt lat="46.74805" lon="6.38156">
        <ele>843</ele>
        <time>2020-09-29T14:33:17Z</time>
      </trkpt>
      <trkpt lat="46.7481" lon="6.3816">
        <ele>842.9</ele>
        <time>2020-09-29T14:33:22Z</time>
      </trkpt>
      <trkpt lat="46.74816" lon="6.38161">
        <ele>842.9</ele>
        <time>2020-09-29T14:33:26Z</time>
      </trkpt>
      <trkpt lat="46.7482" lon="6.38163">
        <ele>842.9</ele>
        <time>2020-09-29T14:33:30Z</time>
      </trkpt>
      <trkpt lat="46.74825" lon="6.38167">
        <ele>842.7</ele>
        <time>2020-09-29T14:33:35Z</time>
      </trkpt>
      <trkpt lat="46.74829" lon="6.3817">
        <ele>842.7</ele>
        <time>2020-09-29T14:33:39Z</time>
      </trkpt>
      <trkpt lat="46.74834" lon="6.38173">
        <ele>842.7</ele>
        <time>2020-09-29T14:33:43Z</time>
      </trkpt>
      <trkpt lat="46.74838" lon="6.38176">
        <ele>842.7</ele>
        <time>2020-09-29T14:33:47Z</time>
      </trkpt>
      <trkpt lat="46.74842" lon="6.3818">
        <ele>842.7</ele>
        <time>2020-09-29T14:33:52Z</time>
      </trkpt>
      <trkpt lat="46.74846" lon="6.38183">
        <ele>842.4</ele>
        <time>2020-09-29T14:33:56Z</time>
      </trkpt>
      <trkpt lat="46.74851" lon="6.38187">
        <ele>842.1</ele>
        <time>2020-09-29T14:34:00Z</time>
      </trkpt>
      <trkpt lat="46.74855" lon="6.3819">
        <ele>841.8</ele>
        <time>2020-09-29T14:34:05Z</time>
      </trkpt>
      <trkpt lat="46.74859" lon="6.38194">
        <ele>841.4</ele>
        <time>2020-09-29T14:34:10Z</time>
      </trkpt>
      <trkpt lat="46.74863" lon="6.38198">
        <ele>841</ele>
        <time>2020-09-29T14:34:15Z</time>
      </trkpt>
      <trkpt lat="46.74867" lon="6.38202">
        <ele>840.8</ele>
        <time>2020-09-29T14:34:20Z</time>
      </trkpt>
      <trkpt lat="46.74872" lon="6.38205">
        <ele>840.7</ele>
        <time>2020-09-29T14:34:25Z</time>
      </trkpt>
      <trkpt lat="46.74876" lon="6.38208">
        <ele>840.4</ele>
        <time>2020-09-29T14:34:30Z</time>
      </trkpt>
      <trkpt lat="46.74881" lon="6.38212">
        <ele>840.1</ele>
        <time>2020-09-29T14:34:35Z</time>
      </trkpt>
      <trkpt lat="46.74885" lon="6.38216">
        <ele>839.6</ele>
        <time>2020-09-29T14:34:40Z</time>
      </trkpt>
      <trkpt lat="46.74889" lon="6.38221">
        <ele>839.1</ele>
        <time>2020-09-29T14:34:45Z</time>
      </trkpt>
      <trkpt lat="46.74894" lon="6.38224">
        <ele>838.9</ele>
        <time>2020-09-29T14:34:49Z</time>
      </trkpt>
      <trkpt lat="46.74899" lon="6.38226">
        <ele>838.8</ele>
        <time>2020-09-29T14:34:53Z</time>
      </trkpt>
      <trkpt lat="46.74904" lon="6.38228">
        <ele>838.9</ele>
        <time>2020-09-29T14:34:57Z</time>
      </trkpt>
      <trkpt lat="46.74908" lon="6.38232">
        <ele>839.2</ele>
        <time>2020-09-29T14:35:01Z</time>
      </trkpt>
      <trkpt lat="46.74913" lon="6.38236">
        <ele>839.4</ele>
        <time>2020-09-29T14:35:06Z</time>
      </trkpt>
      <trkpt lat="46.74918" lon="6.38239">
        <ele>839.8</ele>
        <time>2020-09-29T14:35:10Z</time>
      </trkpt>
      <trkpt lat="46.74922" lon="6.38242">
        <ele>840</ele>
        <time>2020-09-29T14:35:14Z</time>
      </trkpt>
      <trkpt lat="46.74927" lon="6.38245">
        <ele>840.2</ele>
        <time>2020-09-29T14:35:19Z</time>
      </trkpt>
      <trkpt lat="46.74931" lon="6.38247">
        <ele>840.2</ele>
        <time>2020-09-29T14:35:24Z</time>
      </trkpt>
      <trkpt lat="46.74937" lon="6.38249">
        <ele>840.4</ele>
        <time>2020-09-29T14:35:29Z</time>
      </trkpt>
      <trkpt lat="46.74942" lon="6.38252">
        <ele>840.3</ele>
        <time>2020-09-29T14:35:35Z</time>
      </trkpt>
      <trkpt lat="46.74946" lon="6.38256">
        <ele>840.5</ele>
        <time>2020-09-29T14:35:40Z</time>
      </trkpt>
      <trkpt lat="46.74951" lon="6.3826">
        <ele>840.5</ele>
        <time>2020-09-29T14:35:44Z</time>
      </trkpt>
      <trkpt lat="46.74956" lon="6.38265">
        <ele>840.9</ele>
        <time>2020-09-29T14:35:48Z</time>
      </trkpt>
      <trkpt lat="46.7496" lon="6.38268">
        <ele>841.5</ele>
        <time>2020-09-29T14:35:52Z</time>
      </trkpt>
      <trkpt lat="46.74964" lon="6.38271">
        <ele>842.4</ele>
        <time>2020-09-29T14:35:56Z</time>
      </trkpt>
      <trkpt lat="46.74969" lon="6.38275">
        <ele>843.4</ele>
        <time>2020-09-29T14:36:01Z</time>
      </trkpt>
      <trkpt lat="46.74973" lon="6.38278">
        <ele>844.3</ele>
        <time>2020-09-29T14:36:05Z</time>
      </trkpt>
      <trkpt lat="46.74977" lon="6.38283">
        <ele>845.5</ele>
        <time>2020-09-29T14:36:10Z</time>
      </trkpt>
      <trkpt lat="46.74982" lon="6.38287">
        <ele>846.1</ele>
        <time>2020-09-29T14:36:15Z</time>
      </trkpt>
      <trkpt lat="46.74986" lon="6.38291">
        <ele>846.4</ele>
        <time>2020-09-29T14:36:20Z</time>
      </trkpt>
      <trkpt lat="46.7499" lon="6.38294">
        <ele>846.6</ele>
        <time>2020-09-29T14:36:24Z</time>
      </trkpt>
      <trkpt lat="46.74994" lon="6.38299">
        <ele>846.7</ele>
        <time>2020-09-29T14:36:28Z</time>
      </trkpt>
      <trkpt lat="46.74998" lon="6.38303">
        <ele>846.5</ele>
        <time>2020-09-29T14:36:32Z</time>
      </trkpt>
      <trkpt lat="46.75002" lon="6.38306">
        <ele>846.5</ele>
        <time>2020-09-29T14:36:36Z</time>
      </trkpt>
      <trkpt lat="46.75008" lon="6.38309">
        <ele>846.4</ele>
        <time>2020-09-29T14:36:40Z</time>
      </trkpt>
      <trkpt lat="46.75012" lon="6.38312">
        <ele>846.4</ele>
        <time>2020-09-29T14:36:43Z</time>
      </trkpt>
      <trkpt lat="46.75016" lon="6.38315">
        <ele>846.2</ele>
        <time>2020-09-29T14:36:47Z</time>
      </trkpt>
      <trkpt lat="46.75021" lon="6.38318">
        <ele>846</ele>
        <time>2020-09-29T14:36:52Z</time>
      </trkpt>
      <trkpt lat="46.75025" lon="6.38323">
        <ele>845.7</ele>
        <time>2020-09-29T14:36:59Z</time>
      </trkpt>
      <trkpt lat="46.75029" lon="6.38325">
        <ele>845.6</ele>
        <time>2020-09-29T14:37:03Z</time>
      </trkpt>
      <trkpt lat="46.75034" lon="6.38328">
        <ele>845.4</ele>
        <time>2020-09-29T14:37:07Z</time>
      </trkpt>
      <trkpt lat="46.75037" lon="6.38333">
        <ele>845.4</ele>
        <time>2020-09-29T14:37:11Z</time>
      </trkpt>
      <trkpt lat="46.7504" lon="6.38339">
        <ele>845.3</ele>
        <time>2020-09-29T14:37:15Z</time>
      </trkpt>
      <trkpt lat="46.75045" lon="6.38342">
        <ele>845.3</ele>
        <time>2020-09-29T14:37:19Z</time>
      </trkpt>
      <trkpt lat="46.7505" lon="6.38343">
        <ele>845.3</ele>
        <time>2020-09-29T14:37:23Z</time>
      </trkpt>
      <trkpt lat="46.75054" lon="6.38347">
        <ele>845.2</ele>
        <time>2020-09-29T14:37:27Z</time>
      </trkpt>
      <trkpt lat="46.75059" lon="6.38351">
        <ele>845.2</ele>
        <time>2020-09-29T14:37:32Z</time>
      </trkpt>
      <trkpt lat="46.75063" lon="6.38355">
        <ele>845.3</ele>
        <time>2020-09-29T14:37:37Z</time>
      </trkpt>
      <trkpt lat="46.75068" lon="6.38358">
        <ele>845.2</ele>
        <time>2020-09-29T14:37:41Z</time>
      </trkpt>
      <trkpt lat="46.75073" lon="6.38361">
        <ele>845.1</ele>
        <time>2020-09-29T14:37:45Z</time>
      </trkpt>
      <trkpt lat="46.75078" lon="6.38364">
        <ele>845.1</ele>
        <time>2020-09-29T14:37:49Z</time>
      </trkpt>
      <trkpt lat="46.75083" lon="6.38367">
        <ele>845.3</ele>
        <time>2020-09-29T14:37:53Z</time>
      </trkpt>
      <trkpt lat="46.75088" lon="6.38371">
        <ele>845.9</ele>
        <time>2020-09-29T14:37:58Z</time>
      </trkpt>
      <trkpt lat="46.75092" lon="6.38375">
        <ele>846.3</ele>
        <time>2020-09-29T14:38:03Z</time>
      </trkpt>
      <trkpt lat="46.75097" lon="6.38379">
        <ele>846.6</ele>
        <time>2020-09-29T14:38:08Z</time>
      </trkpt>
      <trkpt lat="46.75101" lon="6.38382">
        <ele>846.7</ele>
        <time>2020-09-29T14:38:12Z</time>
      </trkpt>
      <trkpt lat="46.75105" lon="6.38386">
        <ele>846.6</ele>
        <time>2020-09-29T14:38:16Z</time>
      </trkpt>
      <trkpt lat="46.75109" lon="6.3839">
        <ele>846.7</ele>
        <time>2020-09-29T14:38:20Z</time>
      </trkpt>
      <trkpt lat="46.75114" lon="6.38394">
        <ele>846.7</ele>
        <time>2020-09-29T14:38:24Z</time>
      </trkpt>
      <trkpt lat="46.75118" lon="6.38398">
        <ele>846.7</ele>
        <time>2020-09-29T14:38:29Z</time>
      </trkpt>
      <trkpt lat="46.75122" lon="6.38403">
        <ele>846.2</ele>
        <time>2020-09-29T14:38:34Z</time>
      </trkpt>
      <trkpt lat="46.75126" lon="6.38407">
        <ele>845.9</ele>
        <time>2020-09-29T14:38:39Z</time>
      </trkpt>
      <trkpt lat="46.7513" lon="6.38412">
        <ele>845.4</ele>
        <time>2020-09-29T14:38:44Z</time>
      </trkpt>
      <trkpt lat="46.75135" lon="6.38416">
        <ele>845</ele>
        <time>2020-09-29T14:38:48Z</time>
      </trkpt>
      <trkpt lat="46.75139" lon="6.3842">
        <ele>844.8</ele>
        <time>2020-09-29T14:38:52Z</time>
      </trkpt>
      <trkpt lat="46.75144" lon="6.38424">
        <ele>844.6</ele>
        <time>2020-09-29T14:38:57Z</time>
      </trkpt>
      <trkpt lat="46.75149" lon="6.38427">
        <ele>844.6</ele>
        <time>2020-09-29T14:39:01Z</time>
      </trkpt>
      <trkpt lat="46.75153" lon="6.38431">
        <ele>844.9</ele>
        <time>2020-09-29T14:39:05Z</time>
      </trkpt>
      <trkpt lat="46.75157" lon="6.38434">
        <ele>845.1</ele>
        <time>2020-09-29T14:39:09Z</time>
      </trkpt>
      <trkpt lat="46.75159" lon="6.3844">
        <ele>846.1</ele>
        <time>2020-09-29T14:39:51Z</time>
      </trkpt>
      <trkpt lat="46.75164" lon="6.38443">
        <ele>846.3</ele>
        <time>2020-09-29T14:39:58Z</time>
      </trkpt>
      <trkpt lat="46.75168" lon="6.38446">
        <ele>846.2</ele>
        <time>2020-09-29T14:40:04Z</time>
      </trkpt>
      <trkpt lat="46.75172" lon="6.3845">
        <ele>846.6</ele>
        <time>2020-09-29T14:40:13Z</time>
      </trkpt>
      <trkpt lat="46.75176" lon="6.38453">
        <ele>846.1</ele>
        <time>2020-09-29T14:40:24Z</time>
      </trkpt>
      <trkpt lat="46.75181" lon="6.38456">
        <ele>845.8</ele>
        <time>2020-09-29T14:40:29Z</time>
      </trkpt>
      <trkpt lat="46.75186" lon="6.38459">
        <ele>845.8</ele>
        <time>2020-09-29T14:40:36Z</time>
      </trkpt>
      <trkpt lat="46.75191" lon="6.38462">
        <ele>845.5</ele>
        <time>2020-09-29T14:40:41Z</time>
      </trkpt>
      <trkpt lat="46.75196" lon="6.38464">
        <ele>845.1</ele>
        <time>2020-09-29T14:40:45Z</time>
      </trkpt>
      <trkpt lat="46.75201" lon="6.38462">
        <ele>844.9</ele>
        <time>2020-09-29T14:40:50Z</time>
      </trkpt>
      <trkpt lat="46.75206" lon="6.38461">
        <ele>844.8</ele>
        <time>2020-09-29T14:40:54Z</time>
      </trkpt>
      <trkpt lat="46.75211" lon="6.38459">
        <ele>844.9</ele>
        <time>2020-09-29T14:40:58Z</time>
      </trkpt>
      <trkpt lat="46.75216" lon="6.38456">
        <ele>845.3</ele>
        <time>2020-09-29T14:41:03Z</time>
      </trkpt>
      <trkpt lat="46.7522" lon="6.38453">
        <ele>845.5</ele>
        <time>2020-09-29T14:41:07Z</time>
      </trkpt>
      <trkpt lat="46.75225" lon="6.38449">
        <ele>846.1</ele>
        <time>2020-09-29T14:41:12Z</time>
      </trkpt>
      <trkpt lat="46.75228" lon="6.38443">
        <ele>846.9</ele>
        <time>2020-09-29T14:41:17Z</time>
      </trkpt>
      <trkpt lat="46.75232" lon="6.38438">
        <ele>848.4</ele>
        <time>2020-09-29T14:41:23Z</time>
      </trkpt>
      <trkpt lat="46.75236" lon="6.38436">
        <ele>850.2</ele>
        <time>2020-09-29T14:41:33Z</time>
      </trkpt>
      <trkpt lat="46.75241" lon="6.3844">
        <ele>853.6</ele>
        <time>2020-09-29T14:42:10Z</time>
      </trkpt>
      <trkpt lat="46.75246" lon="6.38438">
        <ele>853.4</ele>
        <time>2020-09-29T14:42:15Z</time>
      </trkpt>
      <trkpt lat="46.75251" lon="6.38436">
        <ele>853.1</ele>
        <time>2020-09-29T14:42:20Z</time>
      </trkpt>
      <trkpt lat="46.75256" lon="6.38435">
        <ele>852.6</ele>
        <time>2020-09-29T14:42:24Z</time>
      </trkpt>
      <trkpt lat="46.75261" lon="6.38434">
        <ele>852</ele>
        <time>2020-09-29T14:42:28Z</time>
      </trkpt>
      <trkpt lat="46.75265" lon="6.38435">
        <ele>851.2</ele>
        <time>2020-09-29T14:42:32Z</time>
      </trkpt>
      <trkpt lat="46.7527" lon="6.38436">
        <ele>850.4</ele>
        <time>2020-09-29T14:42:36Z</time>
      </trkpt>
      <trkpt lat="46.75274" lon="6.38438">
        <ele>849.4</ele>
        <time>2020-09-29T14:42:41Z</time>
      </trkpt>
      <trkpt lat="46.75279" lon="6.3844">
        <ele>848.8</ele>
        <time>2020-09-29T14:42:46Z</time>
      </trkpt>
      <trkpt lat="46.75284" lon="6.38443">
        <ele>848.6</ele>
        <time>2020-09-29T14:42:51Z</time>
      </trkpt>
      <trkpt lat="46.75288" lon="6.38447">
        <ele>848.8</ele>
        <time>2020-09-29T14:42:58Z</time>
      </trkpt>
      <trkpt lat="46.75292" lon="6.3845">
        <ele>849.1</ele>
        <time>2020-09-29T14:43:05Z</time>
      </trkpt>
      <trkpt lat="46.75297" lon="6.38455">
        <ele>849.3</ele>
        <time>2020-09-29T14:43:11Z</time>
      </trkpt>
      <trkpt lat="46.75301" lon="6.38458">
        <ele>849.3</ele>
        <time>2020-09-29T14:43:17Z</time>
      </trkpt>
      <trkpt lat="46.75306" lon="6.38462">
        <ele>849.3</ele>
        <time>2020-09-29T14:43:22Z</time>
      </trkpt>
      <trkpt lat="46.7531" lon="6.38466">
        <ele>849.2</ele>
        <time>2020-09-29T14:43:27Z</time>
      </trkpt>
      <trkpt lat="46.75314" lon="6.38469">
        <ele>849.1</ele>
        <time>2020-09-29T14:43:32Z</time>
      </trkpt>
      <trkpt lat="46.75319" lon="6.38472">
        <ele>848.8</ele>
        <time>2020-09-29T14:43:37Z</time>
      </trkpt>
      <trkpt lat="46.75323" lon="6.38476">
        <ele>848.7</ele>
        <time>2020-09-29T14:43:42Z</time>
      </trkpt>
      <trkpt lat="46.75327" lon="6.38479">
        <ele>848.9</ele>
        <time>2020-09-29T14:43:47Z</time>
      </trkpt>
      <trkpt lat="46.75332" lon="6.38483">
        <ele>849.1</ele>
        <time>2020-09-29T14:43:52Z</time>
      </trkpt>
      <trkpt lat="46.75336" lon="6.38485">
        <ele>849.3</ele>
        <time>2020-09-29T14:43:57Z</time>
      </trkpt>
      <trkpt lat="46.75341" lon="6.38488">
        <ele>849.3</ele>
        <time>2020-09-29T14:44:02Z</time>
      </trkpt>
      <trkpt lat="46.75346" lon="6.38491">
        <ele>849.9</ele>
        <time>2020-09-29T14:44:08Z</time>
      </trkpt>
      <trkpt lat="46.75351" lon="6.38493">
        <ele>850.4</ele>
        <time>2020-09-29T14:44:14Z</time>
      </trkpt>
      <trkpt lat="46.75356" lon="6.38494">
        <ele>850.8</ele>
        <time>2020-09-29T14:44:19Z</time>
      </trkpt>
      <trkpt lat="46.75361" lon="6.38495">
        <ele>850.7</ele>
        <time>2020-09-29T14:44:23Z</time>
      </trkpt>
      <trkpt lat="46.75366" lon="6.38496">
        <ele>850.6</ele>
        <time>2020-09-29T14:44:28Z</time>
      </trkpt>
      <trkpt lat="46.75371" lon="6.38497">
        <ele>850.5</ele>
        <time>2020-09-29T14:44:33Z</time>
      </trkpt>
      <trkpt lat="46.75376" lon="6.38501">
        <ele>849.9</ele>
        <time>2020-09-29T14:44:38Z</time>
      </trkpt>
      <trkpt lat="46.7538" lon="6.38503">
        <ele>849.4</ele>
        <time>2020-09-29T14:44:42Z</time>
      </trkpt>
      <trkpt lat="46.75385" lon="6.38507">
        <ele>849.1</ele>
        <time>2020-09-29T14:44:47Z</time>
      </trkpt>
      <trkpt lat="46.75389" lon="6.38511">
        <ele>848.8</ele>
        <time>2020-09-29T14:44:53Z</time>
      </trkpt>
      <trkpt lat="46.75393" lon="6.38516">
        <ele>849.2</ele>
        <time>2020-09-29T14:44:59Z</time>
      </trkpt>
      <trkpt lat="46.75396" lon="6.38521">
        <ele>849.9</ele>
        <time>2020-09-29T14:45:05Z</time>
      </trkpt>
      <trkpt lat="46.75401" lon="6.38523">
        <ele>850.4</ele>
        <time>2020-09-29T14:45:09Z</time>
      </trkpt>
      <trkpt lat="46.75406" lon="6.38526">
        <ele>851</ele>
        <time>2020-09-29T14:45:13Z</time>
      </trkpt>
      <trkpt lat="46.7541" lon="6.38529">
        <ele>851.9</ele>
        <time>2020-09-29T14:45:17Z</time>
      </trkpt>
      <trkpt lat="46.75415" lon="6.38532">
        <ele>853</ele>
        <time>2020-09-29T14:45:22Z</time>
      </trkpt>
      <trkpt lat="46.75419" lon="6.38536">
        <ele>853.7</ele>
        <time>2020-09-29T14:45:27Z</time>
      </trkpt>
      <trkpt lat="46.75424" lon="6.3854">
        <ele>854.4</ele>
        <time>2020-09-29T14:45:32Z</time>
      </trkpt>
      <trkpt lat="46.75427" lon="6.38545">
        <ele>855</ele>
        <time>2020-09-29T14:45:37Z</time>
      </trkpt>
      <trkpt lat="46.75431" lon="6.38551">
        <ele>855.5</ele>
        <time>2020-09-29T14:45:42Z</time>
      </trkpt>
      <trkpt lat="46.75435" lon="6.38556">
        <ele>856.2</ele>
        <time>2020-09-29T14:45:48Z</time>
      </trkpt>
      <trkpt lat="46.75437" lon="6.38563">
        <ele>855.9</ele>
        <time>2020-09-29T14:45:55Z</time>
      </trkpt>
      <trkpt lat="46.75438" lon="6.3857">
        <ele>855.2</ele>
        <time>2020-09-29T14:46:00Z</time>
      </trkpt>
      <trkpt lat="46.75439" lon="6.38577">
        <ele>854.9</ele>
        <time>2020-09-29T14:46:05Z</time>
      </trkpt>
      <trkpt lat="46.75441" lon="6.38583">
        <ele>854.9</ele>
        <time>2020-09-29T14:46:10Z</time>
      </trkpt>
      <trkpt lat="46.75442" lon="6.3859">
        <ele>855.1</ele>
        <time>2020-09-29T14:46:15Z</time>
      </trkpt>
      <trkpt lat="46.75442" lon="6.38598">
        <ele>855.4</ele>
        <time>2020-09-29T14:46:20Z</time>
      </trkpt>
      <trkpt lat="46.75441" lon="6.38604">
        <ele>855.8</ele>
        <time>2020-09-29T14:46:25Z</time>
      </trkpt>
      <trkpt lat="46.75442" lon="6.38612">
        <ele>856.1</ele>
        <time>2020-09-29T14:46:31Z</time>
      </trkpt>
      <trkpt lat="46.75442" lon="6.38619">
        <ele>856.4</ele>
        <time>2020-09-29T14:46:38Z</time>
      </trkpt>
      <trkpt lat="46.75443" lon="6.38625">
        <ele>856.4</ele>
        <time>2020-09-29T14:46:44Z</time>
      </trkpt>
      <trkpt lat="46.75443" lon="6.38632">
        <ele>856.2</ele>
        <time>2020-09-29T14:46:49Z</time>
      </trkpt>
      <trkpt lat="46.75443" lon="6.38639">
        <ele>856</ele>
        <time>2020-09-29T14:46:53Z</time>
      </trkpt>
      <trkpt lat="46.75445" lon="6.38646">
        <ele>855.5</ele>
        <time>2020-09-29T14:46:58Z</time>
      </trkpt>
      <trkpt lat="46.75444" lon="6.38654">
        <ele>855.2</ele>
        <time>2020-09-29T14:47:03Z</time>
      </trkpt>
      <trkpt lat="46.75445" lon="6.3866">
        <ele>855.1</ele>
        <time>2020-09-29T14:47:08Z</time>
      </trkpt>
      <trkpt lat="46.75446" lon="6.38667">
        <ele>855.2</ele>
        <time>2020-09-29T14:47:13Z</time>
      </trkpt>
      <trkpt lat="46.75446" lon="6.38675">
        <ele>854.5</ele>
        <time>2020-09-29T14:47:18Z</time>
      </trkpt>
      <trkpt lat="46.75448" lon="6.38682">
        <ele>853.7</ele>
        <time>2020-09-29T14:47:22Z</time>
      </trkpt>
      <trkpt lat="46.7545" lon="6.38687">
        <ele>852.9</ele>
        <time>2020-09-29T14:47:26Z</time>
      </trkpt>
      <trkpt lat="46.75453" lon="6.38694">
        <ele>852.1</ele>
        <time>2020-09-29T14:47:31Z</time>
      </trkpt>
      <trkpt lat="46.75457" lon="6.387">
        <ele>851.5</ele>
        <time>2020-09-29T14:47:36Z</time>
      </trkpt>
      <trkpt lat="46.7546" lon="6.38704">
        <ele>851.3</ele>
        <time>2020-09-29T14:47:40Z</time>
      </trkpt>
      <trkpt lat="46.75462" lon="6.38711">
        <ele>851.1</ele>
        <time>2020-09-29T14:47:46Z</time>
      </trkpt>
      <trkpt lat="46.75465" lon="6.38717">
        <ele>851</ele>
        <time>2020-09-29T14:47:51Z</time>
      </trkpt>
      <trkpt lat="46.75468" lon="6.38722">
        <ele>851.2</ele>
        <time>2020-09-29T14:47:55Z</time>
      </trkpt>
      <trkpt lat="46.75472" lon="6.38727">
        <ele>851.6</ele>
        <time>2020-09-29T14:47:58Z</time>
      </trkpt>
      <trkpt lat="46.75475" lon="6.38733">
        <ele>851.7</ele>
        <time>2020-09-29T14:48:02Z</time>
      </trkpt>
      <trkpt lat="46.75479" lon="6.38737">
        <ele>851.6</ele>
        <time>2020-09-29T14:48:07Z</time>
      </trkpt>
      <trkpt lat="46.75484" lon="6.3874">
        <ele>851.8</ele>
        <time>2020-09-29T14:48:14Z</time>
      </trkpt>
      <trkpt lat="46.75488" lon="6.38744">
        <ele>852.8</ele>
        <time>2020-09-29T14:48:19Z</time>
      </trkpt>
      <trkpt lat="46.75492" lon="6.38748">
        <ele>853.5</ele>
        <time>2020-09-29T14:48:23Z</time>
      </trkpt>
      <trkpt lat="46.75496" lon="6.38754">
        <ele>854.4</ele>
        <time>2020-09-29T14:48:28Z</time>
      </trkpt>
      <trkpt lat="46.75501" lon="6.38758">
        <ele>855.4</ele>
        <time>2020-09-29T14:48:33Z</time>
      </trkpt>
      <trkpt lat="46.75504" lon="6.38763">
        <ele>856.6</ele>
        <time>2020-09-29T14:48:37Z</time>
      </trkpt>
      <trkpt lat="46.75507" lon="6.38767">
        <ele>857.8</ele>
        <time>2020-09-29T14:48:41Z</time>
      </trkpt>
      <trkpt lat="46.75512" lon="6.38771">
        <ele>858.8</ele>
        <time>2020-09-29T14:48:46Z</time>
      </trkpt>
      <trkpt lat="46.75516" lon="6.38774">
        <ele>859</ele>
        <time>2020-09-29T14:48:50Z</time>
      </trkpt>
      <trkpt lat="46.7552" lon="6.3878">
        <ele>859.2</ele>
        <time>2020-09-29T14:48:55Z</time>
      </trkpt>
      <trkpt lat="46.75524" lon="6.38785">
        <ele>859.6</ele>
        <time>2020-09-29T14:48:59Z</time>
      </trkpt>
      <trkpt lat="46.75526" lon="6.38792">
        <ele>860</ele>
        <time>2020-09-29T14:49:04Z</time>
      </trkpt>
      <trkpt lat="46.75528" lon="6.38799">
        <ele>860.3</ele>
        <time>2020-09-29T14:49:08Z</time>
      </trkpt>
      <trkpt lat="46.75532" lon="6.38804">
        <ele>860.7</ele>
        <time>2020-09-29T14:49:12Z</time>
      </trkpt>
      <trkpt lat="46.75535" lon="6.3881">
        <ele>860.7</ele>
        <time>2020-09-29T14:49:17Z</time>
      </trkpt>
      <trkpt lat="46.7554" lon="6.38813">
        <ele>860.3</ele>
        <time>2020-09-29T14:49:21Z</time>
      </trkpt>
      <trkpt lat="46.75544" lon="6.38818">
        <ele>860</ele>
        <time>2020-09-29T14:49:25Z</time>
      </trkpt>
      <trkpt lat="46.75548" lon="6.38822">
        <ele>859.6</ele>
        <time>2020-09-29T14:49:29Z</time>
      </trkpt>
      <trkpt lat="46.75552" lon="6.38826">
        <ele>859.4</ele>
        <time>2020-09-29T14:49:33Z</time>
      </trkpt>
      <trkpt lat="46.75556" lon="6.3883">
        <ele>859.3</ele>
        <time>2020-09-29T14:49:38Z</time>
      </trkpt>
      <trkpt lat="46.7556" lon="6.38834">
        <ele>859.2</ele>
        <time>2020-09-29T14:49:42Z</time>
      </trkpt>
      <trkpt lat="46.75564" lon="6.38839">
        <ele>859.3</ele>
        <time>2020-09-29T14:49:46Z</time>
      </trkpt>
      <trkpt lat="46.75568" lon="6.38844">
        <ele>859.4</ele>
        <time>2020-09-29T14:49:51Z</time>
      </trkpt>
      <trkpt lat="46.75572" lon="6.38848">
        <ele>859.6</ele>
        <time>2020-09-29T14:49:55Z</time>
      </trkpt>
      <trkpt lat="46.75575" lon="6.38853">
        <ele>860.1</ele>
        <time>2020-09-29T14:50:00Z</time>
      </trkpt>
      <trkpt lat="46.75578" lon="6.38859">
        <ele>861.2</ele>
        <time>2020-09-29T14:50:06Z</time>
      </trkpt>
      <trkpt lat="46.75582" lon="6.38863">
        <ele>862.5</ele>
        <time>2020-09-29T14:50:11Z</time>
      </trkpt>
      <trkpt lat="46.75586" lon="6.38867">
        <ele>863.5</ele>
        <time>2020-09-29T14:50:15Z</time>
      </trkpt>
      <trkpt lat="46.7559" lon="6.38872">
        <ele>864.4</ele>
        <time>2020-09-29T14:50:19Z</time>
      </trkpt>
      <trkpt lat="46.75594" lon="6.38877">
        <ele>865.1</ele>
        <time>2020-09-29T14:50:23Z</time>
      </trkpt>
      <trkpt lat="46.75598" lon="6.38881">
        <ele>865.7</ele>
        <time>2020-09-29T14:50:28Z</time>
      </trkpt>
      <trkpt lat="46.75602" lon="6.38885">
        <ele>866.1</ele>
        <time>2020-09-29T14:50:33Z</time>
      </trkpt>
      <trkpt lat="46.75606" lon="6.38888">
        <ele>866.2</ele>
        <time>2020-09-29T14:50:37Z</time>
      </trkpt>
      <trkpt lat="46.75611" lon="6.38891">
        <ele>866.4</ele>
        <time>2020-09-29T14:50:41Z</time>
      </trkpt>
      <trkpt lat="46.75615" lon="6.38894">
        <ele>866.1</ele>
        <time>2020-09-29T14:50:46Z</time>
      </trkpt>
      <trkpt lat="46.7562" lon="6.38898">
        <ele>865.8</ele>
        <time>2020-09-29T14:50:50Z</time>
      </trkpt>
      <trkpt lat="46.75624" lon="6.38902">
        <ele>864.3</ele>
        <time>2020-09-29T14:50:56Z</time>
      </trkpt>
      <trkpt lat="46.75629" lon="6.38905">
        <ele>863.1</ele>
        <time>2020-09-29T14:51:01Z</time>
      </trkpt>
      <trkpt lat="46.75633" lon="6.38908">
        <ele>862.1</ele>
        <time>2020-09-29T14:51:05Z</time>
      </trkpt>
      <trkpt lat="46.75637" lon="6.38912">
        <ele>861.3</ele>
        <time>2020-09-29T14:51:09Z</time>
      </trkpt>
      <trkpt lat="46.75642" lon="6.38916">
        <ele>860.7</ele>
        <time>2020-09-29T14:51:13Z</time>
      </trkpt>
      <trkpt lat="46.75645" lon="6.3892">
        <ele>860.2</ele>
        <time>2020-09-29T14:51:17Z</time>
      </trkpt>
      <trkpt lat="46.75648" lon="6.38926">
        <ele>860.2</ele>
        <time>2020-09-29T14:51:23Z</time>
      </trkpt>
      <trkpt lat="46.7565" lon="6.38933">
        <ele>860.2</ele>
        <time>2020-09-29T14:51:30Z</time>
      </trkpt>
      <trkpt lat="46.75653" lon="6.38938">
        <ele>860.3</ele>
        <time>2020-09-29T14:51:35Z</time>
      </trkpt>
      <trkpt lat="46.75657" lon="6.38943">
        <ele>860.7</ele>
        <time>2020-09-29T14:51:40Z</time>
      </trkpt>
      <trkpt lat="46.7566" lon="6.38949">
        <ele>861.2</ele>
        <time>2020-09-29T14:51:46Z</time>
      </trkpt>
      <trkpt lat="46.75662" lon="6.38955">
        <ele>861.3</ele>
        <time>2020-09-29T14:51:51Z</time>
      </trkpt>
      <trkpt lat="46.75664" lon="6.38962">
        <ele>861.3</ele>
        <time>2020-09-29T14:51:56Z</time>
      </trkpt>
      <trkpt lat="46.75664" lon="6.3897">
        <ele>861.4</ele>
        <time>2020-09-29T14:52:01Z</time>
      </trkpt>
      <trkpt lat="46.75665" lon="6.38978">
        <ele>861.6</ele>
        <time>2020-09-29T14:52:06Z</time>
      </trkpt>
      <trkpt lat="46.75668" lon="6.38983">
        <ele>861.8</ele>
        <time>2020-09-29T14:52:10Z</time>
      </trkpt>
      <trkpt lat="46.75672" lon="6.38988">
        <ele>862.1</ele>
        <time>2020-09-29T14:52:14Z</time>
      </trkpt>
      <trkpt lat="46.75675" lon="6.38993">
        <ele>862.5</ele>
        <time>2020-09-29T14:52:18Z</time>
      </trkpt>
      <trkpt lat="46.75678" lon="6.38999">
        <ele>863.2</ele>
        <time>2020-09-29T14:52:23Z</time>
      </trkpt>
      <trkpt lat="46.75681" lon="6.39006">
        <ele>863.6</ele>
        <time>2020-09-29T14:52:28Z</time>
      </trkpt>
      <trkpt lat="46.75683" lon="6.39013">
        <ele>863.8</ele>
        <time>2020-09-29T14:52:33Z</time>
      </trkpt>
      <trkpt lat="46.75683" lon="6.3902">
        <ele>863.6</ele>
        <time>2020-09-29T14:52:38Z</time>
      </trkpt>
      <trkpt lat="46.75683" lon="6.39027">
        <ele>863.3</ele>
        <time>2020-09-29T14:52:42Z</time>
      </trkpt>
      <trkpt lat="46.75683" lon="6.39034">
        <ele>863</ele>
        <time>2020-09-29T14:52:46Z</time>
      </trkpt>
      <trkpt lat="46.75683" lon="6.39041">
        <ele>862.6</ele>
        <time>2020-09-29T14:52:51Z</time>
      </trkpt>
      <trkpt lat="46.75684" lon="6.39048">
        <ele>862.5</ele>
        <time>2020-09-29T14:52:56Z</time>
      </trkpt>
      <trkpt lat="46.75685" lon="6.39055">
        <ele>862.6</ele>
        <time>2020-09-29T14:53:00Z</time>
      </trkpt>
      <trkpt lat="46.75687" lon="6.39062">
        <ele>862.7</ele>
        <time>2020-09-29T14:53:05Z</time>
      </trkpt>
      <trkpt lat="46.75688" lon="6.39068">
        <ele>862.6</ele>
        <time>2020-09-29T14:53:10Z</time>
      </trkpt>
      <trkpt lat="46.75689" lon="6.39075">
        <ele>862.9</ele>
        <time>2020-09-29T14:53:15Z</time>
      </trkpt>
      <trkpt lat="46.75691" lon="6.39082">
        <ele>863.3</ele>
        <time>2020-09-29T14:53:20Z</time>
      </trkpt>
      <trkpt lat="46.75694" lon="6.39087">
        <ele>863.3</ele>
        <time>2020-09-29T14:53:25Z</time>
      </trkpt>
      <trkpt lat="46.75698" lon="6.39093">
        <ele>863.3</ele>
        <time>2020-09-29T14:53:31Z</time>
      </trkpt>
      <trkpt lat="46.757" lon="6.39099">
        <ele>863.4</ele>
        <time>2020-09-29T14:53:36Z</time>
      </trkpt>
      <trkpt lat="46.75703" lon="6.39106">
        <ele>863.3</ele>
        <time>2020-09-29T14:53:42Z</time>
      </trkpt>
      <trkpt lat="46.75704" lon="6.39114">
        <ele>863.3</ele>
        <time>2020-09-29T14:53:48Z</time>
      </trkpt>
      <trkpt lat="46.75707" lon="6.3912">
        <ele>863.2</ele>
        <time>2020-09-29T14:53:53Z</time>
      </trkpt>
      <trkpt lat="46.7571" lon="6.39126">
        <ele>863.4</ele>
        <time>2020-09-29T14:53:57Z</time>
      </trkpt>
      <trkpt lat="46.75714" lon="6.39128">
        <ele>863.9</ele>
        <time>2020-09-29T14:54:01Z</time>
      </trkpt>
      <trkpt lat="46.75719" lon="6.39129">
        <ele>864.4</ele>
        <time>2020-09-29T14:54:05Z</time>
      </trkpt>
      <trkpt lat="46.75724" lon="6.39131">
        <ele>865.2</ele>
        <time>2020-09-29T14:54:09Z</time>
      </trkpt>
      <trkpt lat="46.75729" lon="6.39133">
        <ele>865.7</ele>
        <time>2020-09-29T14:54:15Z</time>
      </trkpt>
    </trkseg>
  </trk>
</gpx>